Wetterdaten: Dienstag, 02.05.2017
Datum Zeit Temp. A. Temp. A. max Feuchte A. Luftdruck Regen Wind Richtung Richtung Sonnenschein ET UV Solar Taupunkt Windchill Windböen
02.05.2017 00:00 2,6 °C 2,6 °C 93 % 1015,9 hPa 0,0 mm 1,2 km/h (1 Bft) W 263 ° 0 min 0,000 mm 0,0 UV-I 0 W/m² 1,6 °C 2,6 °C 3,2 km/h (1 Bft)
02.05.2017 00:01 2,6 °C 2,6 °C 93 % 1015,9 hPa 0,0 mm 1,7 km/h (1 Bft) W 263 ° 0 min 0,000 mm 0,0 UV-I 0 W/m² 1,6 °C 2,6 °C 3,2 km/h (1 Bft)
02.05.2017 00:02 2,6 °C 2,6 °C 93 % 1015,9 hPa 0,0 mm 0,4 km/h (0 Bft) W 263 ° 0 min 0,000 mm 0,0 UV-I 0 W/m² 1,6 °C 2,6 °C 1,6 km/h (1 Bft)
02.05.2017 00:03 2,6 °C 2,6 °C 93 % 1015,9 hPa 0,0 mm 0,0 km/h (0 Bft) W 263 ° 0 min 0,000 mm 0,0 UV-I 0 W/m² 1,6 °C 2,6 °C 0,0 km/h (0 Bft)
02.05.2017 00:04 2,6 °C 2,6 °C 93 % 1015,9 hPa 0,0 mm 0,0 km/h (0 Bft) W 263 ° 0 min 0,000 mm 0,0 UV-I 0 W/m² 1,6 °C 2,6 °C 0,0 km/h (0 Bft)
02.05.2017 00:05 2,6 °C 2,6 °C 93 % 1015,9 hPa 0,0 mm 0,1 km/h (0 Bft) W 263 ° 0 min 0,000 mm 0,0 UV-I 0 W/m² 1,6 °C 2,6 °C 1,6 km/h (1 Bft)
02.05.2017 00:06 2,6 °C 2,6 °C 93 % 1015,9 hPa 0,2 mm 0,0 km/h (0 Bft) W 263 ° 0 min 0,000 mm 0,0 UV-I 0 W/m² 1,6 °C 2,6 °C 0,0 km/h (0 Bft)
02.05.2017 00:07 2,6 °C 2,6 °C 93 % 1015,9 hPa 0,0 mm 0,0 km/h (0 Bft) W 263 ° 0 min 0,000 mm 0,0 UV-I 0 W/m² 1,6 °C 2,6 °C 0,0 km/h (0 Bft)
02.05.2017 00:08 2,6 °C 2,6 °C 93 % 1015,9 hPa 0,0 mm 0,0 km/h (0 Bft) W 263 ° 0 min 0,000 mm 0,0 UV-I 0 W/m² 1,6 °C 2,6 °C 0,0 km/h (0 Bft)
02.05.2017 00:09 2,6 °C 2,6 °C 93 % 1015,8 hPa 0,0 mm 0,3 km/h (0 Bft) W 263 ° 0 min 0,000 mm 0,0 UV-I 0 W/m² 1,6 °C 2,6 °C 1,6 km/h (1 Bft)
02.05.2017 00:10 2,6 °C 2,6 °C 93 % 1015,9 hPa 0,0 mm 0,0 km/h (0 Bft) W 263 ° 0 min 0,000 mm 0,0 UV-I 0 W/m² 1,6 °C 2,6 °C 0,0 km/h (0 Bft)
02.05.2017 00:11 2,6 °C 2,6 °C 93 % 1015,8 hPa 0,0 mm 0,0 km/h (0 Bft) W 263 ° 0 min 0,000 mm 0,0 UV-I 0 W/m² 1,6 °C 2,6 °C 0,0 km/h (0 Bft)
02.05.2017 00:12 2,6 °C 2,6 °C 93 % 1015,8 hPa 0,0 mm 0,0 km/h (0 Bft) W 263 ° 0 min 0,000 mm 0,0 UV-I 0 W/m² 1,6 °C 2,6 °C 0,0 km/h (0 Bft)
02.05.2017 00:13 2,6 °C 2,6 °C 93 % 1015,8 hPa 0,0 mm 0,0 km/h (0 Bft) W 263 ° 0 min 0,000 mm 0,0 UV-I 0 W/m² 1,6 °C 2,6 °C 0,0 km/h (0 Bft)
02.05.2017 00:14 2,6 °C 2,6 °C 93 % 1015,7 hPa 0,0 mm 0,0 km/h (0 Bft) W 263 ° 0 min 0,000 mm 0,0 UV-I 0 W/m² 1,6 °C 2,6 °C 0,0 km/h (0 Bft)
02.05.2017 00:15 2,6 °C 2,6 °C 93 % 1015,8 hPa 0,2 mm 0,0 km/h (0 Bft) W 263 ° 0 min 0,000 mm 0,0 UV-I 0 W/m² 1,6 °C 2,6 °C 0,0 km/h (0 Bft)
02.05.2017 00:16 2,6 °C 2,6 °C 93 % 1015,8 hPa 0,0 mm 0,0 km/h (0 Bft) W 263 ° 0 min 0,000 mm 0,0 UV-I 0 W/m² 1,6 °C 2,6 °C 0,0 km/h (0 Bft)
02.05.2017 00:17 2,6 °C 2,6 °C 93 % 1015,8 hPa 0,0 mm 0,0 km/h (0 Bft) W 263 ° 0 min 0,000 mm 0,0 UV-I 0 W/m² 1,6 °C 2,6 °C 0,0 km/h (0 Bft)
02.05.2017 00:18 2,6 °C 2,6 °C 93 % 1015,8 hPa 0,0 mm 1,6 km/h (1 Bft) W-SW 242 ° 0 min 0,000 mm 0,0 UV-I 0 W/m² 1,6 °C 2,6 °C 4,8 km/h (1 Bft)
02.05.2017 00:19 2,5 °C 2,6 °C 93 % 1015,8 hPa 0,0 mm 3,6 km/h (1 Bft) W 265 ° 0 min 0,000 mm 0,0 UV-I 0 W/m² 1,5 °C 2,5 °C 4,8 km/h (1 Bft)
02.05.2017 00:20 2,6 °C 2,6 °C 93 % 1015,7 hPa 0,0 mm 1,7 km/h (1 Bft) SW 234 ° 0 min 0,000 mm 0,0 UV-I 0 W/m² 1,6 °C 2,6 °C 3,2 km/h (1 Bft)
02.05.2017 00:21 2,6 °C 2,6 °C 93 % 1015,7 hPa 0,0 mm 3,6 km/h (1 Bft) S 189 ° 0 min 0,000 mm 0,0 UV-I 0 W/m² 1,6 °C 2,6 °C 6,4 km/h (2 Bft)
02.05.2017 00:22 2,6 °C 2,6 °C 93 % 1015,8 hPa 0,0 mm 6,1 km/h (2 Bft) W-SW 255 ° 0 min 0,000 mm 0,0 UV-I 0 W/m² 1,6 °C 0,9 °C 11,3 km/h (2 Bft)
02.05.2017 00:23 2,6 °C 2,6 °C 93 % 1015,8 hPa 0,0 mm 2,6 km/h (1 Bft) W-SW 242 ° 0 min 0,000 mm 0,0 UV-I 0 W/m² 1,6 °C 2,6 °C 4,8 km/h (1 Bft)
02.05.2017 00:24 2,6 °C 2,6 °C 93 % 1015,8 hPa 0,2 mm 3,8 km/h (1 Bft) W-SW 255 ° 0 min 0,000 mm 0,0 UV-I 0 W/m² 1,6 °C 2,6 °C 11,3 km/h (2 Bft)
02.05.2017 00:25 2,6 °C 2,7 °C 93 % 1015,8 hPa 0,0 mm 7,0 km/h (2 Bft) W 281 ° 0 min 0,000 mm 0,0 UV-I 0 W/m² 1,6 °C 0,6 °C 11,3 km/h (2 Bft)
02.05.2017 00:26 2,7 °C 2,7 °C 93 % 1015,9 hPa 0,0 mm 3,1 km/h (1 Bft) W-SW 254 ° 0 min 0,000 mm 0,0 UV-I 0 W/m² 1,7 °C 2,7 °C 4,8 km/h (1 Bft)
02.05.2017 00:27 2,7 °C 2,7 °C 93 % 1015,8 hPa 0,0 mm 4,4 km/h (1 Bft) W 276 ° 0 min 0,000 mm 0,0 UV-I 0 W/m² 1,7 °C 2,7 °C 6,4 km/h (2 Bft)
02.05.2017 00:28 2,7 °C 2,7 °C 93 % 1015,8 hPa 0,0 mm 4,0 km/h (1 Bft) W 275 ° 0 min 0,000 mm 0,0 UV-I 0 W/m² 1,7 °C 2,7 °C 6,4 km/h (2 Bft)
02.05.2017 00:29 2,7 °C 2,7 °C 93 % 1015,8 hPa 0,0 mm 4,4 km/h (1 Bft) SW 227 ° 0 min 0,000 mm 0,0 UV-I 0 W/m² 1,7 °C 2,7 °C 8,0 km/h (2 Bft)
02.05.2017 00:30 2,7 °C 2,7 °C 93 % 1015,8 hPa 0,0 mm 5,4 km/h (1 Bft) W 275 ° 0 min 0,000 mm 0,0 UV-I 0 W/m² 1,7 °C 1,3 °C 11,3 km/h (2 Bft)
02.05.2017 00:31 2,7 °C 2,7 °C 93 % 1015,9 hPa 0,0 mm 3,4 km/h (1 Bft) W 274 ° 0 min 0,000 mm 0,0 UV-I 0 W/m² 1,7 °C 2,7 °C 4,8 km/h (1 Bft)
02.05.2017 00:32 2,7 °C 2,7 °C 93 % 1015,9 hPa 0,0 mm 2,7 km/h (1 Bft) W 273 ° 0 min 0,000 mm 0,0 UV-I 0 W/m² 1,7 °C 2,7 °C 4,8 km/h (1 Bft)
02.05.2017 00:33 2,7 °C 2,7 °C 93 % 1015,8 hPa 0,2 mm 1,5 km/h (1 Bft) W 273 ° 0 min 0,000 mm 0,0 UV-I 0 W/m² 1,7 °C 2,7 °C 3,2 km/h (1 Bft)
02.05.2017 00:34 2,7 °C 2,7 °C 93 % 1015,9 hPa 0,0 mm 2,5 km/h (1 Bft) W 271 ° 0 min 0,000 mm 0,0 UV-I 0 W/m² 1,7 °C 2,7 °C 3,2 km/h (1 Bft)
02.05.2017 00:35 2,7 °C 2,7 °C 93 % 1015,8 hPa 0,0 mm 3,7 km/h (1 Bft) W 281 ° 0 min 0,000 mm 0,0 UV-I 0 W/m² 1,7 °C 2,7 °C 6,4 km/h (2 Bft)
02.05.2017 00:36 2,6 °C 2,7 °C 93 % 1015,8 hPa 0,0 mm 5,6 km/h (1 Bft) W 271 ° 0 min 0,000 mm 0,0 UV-I 0 W/m² 1,6 °C 1,1 °C 9,7 km/h (2 Bft)
02.05.2017 00:37 2,6 °C 2,6 °C 93 % 1015,8 hPa 0,0 mm 1,3 km/h (1 Bft) W 271 ° 0 min 0,000 mm 0,0 UV-I 0 W/m² 1,6 °C 2,6 °C 3,2 km/h (1 Bft)
02.05.2017 00:38 2,6 °C 2,6 °C 93 % 1015,8 hPa 0,0 mm 1,1 km/h (1 Bft) W 271 ° 0 min 0,000 mm 0,0 UV-I 0 W/m² 1,6 °C 2,6 °C 3,2 km/h (1 Bft)
02.05.2017 00:39 2,6 °C 2,6 °C 93 % 1015,9 hPa 0,0 mm 2,0 km/h (1 Bft) W 271 ° 0 min 0,000 mm 0,0 UV-I 0 W/m² 1,6 °C 2,6 °C 3,2 km/h (1 Bft)
02.05.2017 00:40 2,6 °C 2,6 °C 93 % 1015,8 hPa 0,2 mm 3,4 km/h (1 Bft) W-SW 248 ° 0 min 0,000 mm 0,0 UV-I 0 W/m² 1,6 °C 2,6 °C 6,4 km/h (2 Bft)
02.05.2017 00:41 2,6 °C 2,6 °C 93 % 1015,8 hPa 0,0 mm 3,0 km/h (1 Bft) W 260 ° 0 min 0,000 mm 0,0 UV-I 0 W/m² 1,6 °C 2,6 °C 4,8 km/h (1 Bft)
02.05.2017 00:42 2,6 °C 2,6 °C 93 % 1015,8 hPa 0,0 mm 3,4 km/h (1 Bft) W-SW 246 ° 0 min 0,000 mm 0,0 UV-I 0 W/m² 1,6 °C 2,6 °C 4,8 km/h (1 Bft)
02.05.2017 00:43 2,6 °C 2,6 °C 93 % 1015,8 hPa 0,0 mm 3,4 km/h (1 Bft) W 263 ° 0 min 0,000 mm 0,0 UV-I 0 W/m² 1,6 °C 2,6 °C 4,8 km/h (1 Bft)
02.05.2017 00:44 2,6 °C 2,6 °C 93 % 1015,8 hPa 0,0 mm 3,8 km/h (1 Bft) W 266 ° 0 min 0,000 mm 0,0 UV-I 0 W/m² 1,6 °C 2,6 °C 4,8 km/h (1 Bft)
02.05.2017 00:45 2,6 °C 2,6 °C 93 % 1015,8 hPa 0,0 mm 3,4 km/h (1 Bft) W 266 ° 0 min 0,000 mm 0,0 UV-I 0 W/m² 1,6 °C 2,6 °C 4,8 km/h (1 Bft)
02.05.2017 00:46 2,6 °C 2,6 °C 93 % 1015,8 hPa 0,2 mm 6,5 km/h (2 Bft) W 261 ° 0 min 0,000 mm 0,0 UV-I 0 W/m² 1,6 °C 0,8 °C 9,7 km/h (2 Bft)
02.05.2017 00:47 2,5 °C 2,6 °C 93 % 1015,8 hPa 0,0 mm 4,6 km/h (1 Bft) W 267 ° 0 min 0,000 mm 0,0 UV-I 0 W/m² 1,5 °C 1,4 °C 6,4 km/h (2 Bft)
02.05.2017 00:48 2,5 °C 2,5 °C 93 % 1015,9 hPa 0,0 mm 2,9 km/h (1 Bft) W 262 ° 0 min 0,000 mm 0,0 UV-I 0 W/m² 1,5 °C 2,5 °C 3,2 km/h (1 Bft)
02.05.2017 00:49 2,4 °C 2,5 °C 93 % 1015,9 hPa 0,0 mm 2,4 km/h (1 Bft) W 261 ° 0 min 0,000 mm 0,0 UV-I 0 W/m² 1,4 °C 2,4 °C 4,8 km/h (1 Bft)
02.05.2017 00:50 2,5 °C 2,5 °C 93 % 1015,8 hPa 0,0 mm 3,4 km/h (1 Bft) W 265 ° 0 min 0,000 mm 0,0 UV-I 0 W/m² 1,5 °C 2,5 °C 4,8 km/h (1 Bft)
02.05.2017 00:51 2,4 °C 2,5 °C 93 % 1015,9 hPa 0,0 mm 2,7 km/h (1 Bft) W 265 ° 0 min 0,000 mm 0,0 UV-I 0 W/m² 1,4 °C 2,4 °C 4,8 km/h (1 Bft)
02.05.2017 00:52 2,4 °C 2,4 °C 93 % 1015,9 hPa 0,2 mm 3,5 km/h (1 Bft) W 261 ° 0 min 0,000 mm 0,0 UV-I 0 W/m² 1,4 °C 2,4 °C 9,7 km/h (2 Bft)
02.05.2017 00:53 2,4 °C 2,4 °C 93 % 1015,9 hPa 0,0 mm 5,8 km/h (2 Bft) W 262 ° 0 min 0,000 mm 0,0 UV-I 0 W/m² 1,4 °C 0,8 °C 9,7 km/h (2 Bft)
02.05.2017 00:54 2,4 °C 2,4 °C 93 % 1015,9 hPa 0,0 mm 5,3 km/h (1 Bft) W 265 ° 0 min 0,000 mm 0,0 UV-I 0 W/m² 1,4 °C 1,0 °C 8,0 km/h (2 Bft)
02.05.2017 00:55 2,4 °C 2,4 °C 93 % 1016,0 hPa 0,0 mm 4,6 km/h (1 Bft) W-SW 258 ° 0 min 0,000 mm 0,0 UV-I 0 W/m² 1,4 °C 1,3 °C 6,4 km/h (2 Bft)
02.05.2017 00:56 2,4 °C 2,4 °C 93 % 1016,0 hPa 0,0 mm 6,4 km/h (2 Bft) W 268 ° 0 min 0,000 mm 0,0 UV-I 0 W/m² 1,4 °C 0,6 °C 11,3 km/h (2 Bft)
02.05.2017 00:57 2,4 °C 2,4 °C 93 % 1016,1 hPa 0,0 mm 7,5 km/h (2 Bft) W 262 ° 0 min 0,000 mm 0,0 UV-I 0 W/m² 1,4 °C 0,2 °C 9,7 km/h (2 Bft)
02.05.2017 00:58 2,4 °C 2,4 °C 93 % 1016,1 hPa 0,2 mm 7,7 km/h (2 Bft) W 263 ° 0 min 0,000 mm 0,0 UV-I 0 W/m² 1,4 °C 0,2 °C 11,3 km/h (2 Bft)
02.05.2017 00:59 2,4 °C 2,4 °C 93 % 1016,0 hPa 0,0 mm 6,3 km/h (2 Bft) W 268 ° 0 min 0,000 mm 0,0 UV-I 0 W/m² 1,4 °C 0,6 °C 9,7 km/h (2 Bft)
02.05.2017 01:00 2,4 °C 2,4 °C 93 % 1016,0 hPa 0,0 mm 9,2 km/h (2 Bft) W 262 ° 0 min 0,000 mm 0,0 UV-I 0 W/m² 1,4 °C -0,2 °C 14,5 km/h (3 Bft)
02.05.2017 01:01 2,4 °C 2,4 °C 93 % 1016,0 hPa 0,0 mm 5,1 km/h (1 Bft) W 259 ° 0 min 0,000 mm 0,0 UV-I 0 W/m² 1,4 °C 1,1 °C 6,4 km/h (2 Bft)
02.05.2017 01:02 2,3 °C 2,4 °C 93 % 1016,0 hPa 0,0 mm 8,7 km/h (2 Bft) W 267 ° 0 min 0,000 mm 0,0 UV-I 0 W/m² 1,3 °C -0,2 °C 14,5 km/h (3 Bft)
02.05.2017 01:03 2,3 °C 2,4 °C 93 % 1016,0 hPa 0,2 mm 5,7 km/h (1 Bft) W-SW 252 ° 0 min 0,000 mm 0,0 UV-I 0 W/m² 1,3 °C 0,7 °C 9,7 km/h (2 Bft)
02.05.2017 01:04 2,3 °C 2,3 °C 93 % 1016,0 hPa 0,0 mm 7,2 km/h (2 Bft) W-SW 258 ° 0 min 0,000 mm 0,0 UV-I 0 W/m² 1,3 °C 0,2 °C 12,9 km/h (3 Bft)
02.05.2017 01:05 2,3 °C 2,3 °C 93 % 1016,0 hPa 0,0 mm 10,7 km/h (2 Bft) W-SW 257 ° 0 min 0,000 mm 0,0 UV-I 0 W/m² 1,3 °C -0,7 °C 12,9 km/h (3 Bft)
02.05.2017 01:06 2,3 °C 2,3 °C 93 % 1016,0 hPa 0,0 mm 7,8 km/h (2 Bft) W 265 ° 0 min 0,000 mm 0,0 UV-I 0 W/m² 1,3 °C 0,0 °C 11,3 km/h (2 Bft)
02.05.2017 01:07 2,3 °C 2,3 °C 93 % 1016,1 hPa 0,0 mm 9,1 km/h (2 Bft) W 268 ° 0 min 0,000 mm 0,0 UV-I 0 W/m² 1,3 °C -0,3 °C 12,9 km/h (3 Bft)
02.05.2017 01:08 2,2 °C 2,3 °C 93 % 1016,1 hPa 0,2 mm 7,8 km/h (2 Bft) W-SW 253 ° 0 min 0,000 mm 0,0 UV-I 0 W/m² 1,2 °C -0,1 °C 14,5 km/h (3 Bft)
02.05.2017 01:09 2,2 °C 2,2 °C 93 % 1016,1 hPa 0,0 mm 9,7 km/h (2 Bft) W 259 ° 0 min 0,000 mm 0,0 UV-I 0 W/m² 1,2 °C -0,6 °C 11,3 km/h (2 Bft)
02.05.2017 01:10 2,2 °C 2,2 °C 93 % 1016,1 hPa 0,0 mm 7,1 km/h (2 Bft) W 262 ° 0 min 0,000 mm 0,0 UV-I 0 W/m² 1,2 °C 0,1 °C 11,3 km/h (2 Bft)
02.05.2017 01:11 2,2 °C 2,2 °C 93 % 1016,0 hPa 0,0 mm 6,2 km/h (2 Bft) W 273 ° 0 min 0,000 mm 0,0 UV-I 0 W/m² 1,2 °C 0,4 °C 9,7 km/h (2 Bft)
02.05.2017 01:12 2,1 °C 2,2 °C 93 % 1016,1 hPa 0,0 mm 5,9 km/h (2 Bft) W-NW 283 ° 0 min 0,000 mm 0,0 UV-I 0 W/m² 1,1 °C 0,4 °C 9,7 km/h (2 Bft)
02.05.2017 01:13 2,1 °C 2,2 °C 93 % 1016,0 hPa 0,2 mm 5,2 km/h (1 Bft) W 273 ° 0 min 0,000 mm 0,0 UV-I 0 W/m² 1,1 °C 0,7 °C 6,4 km/h (2 Bft)
02.05.2017 01:14 2,1 °C 2,1 °C 93 % 1016,0 hPa 0,0 mm 5,0 km/h (1 Bft) W 263 ° 0 min 0,000 mm 0,0 UV-I 0 W/m² 1,1 °C 0,8 °C 9,7 km/h (2 Bft)
02.05.2017 01:15 2,1 °C 2,1 °C 93 % 1016,1 hPa 0,0 mm 4,9 km/h (1 Bft) W 265 ° 0 min 0,000 mm 0,0 UV-I 0 W/m² 1,1 °C 0,8 °C 9,7 km/h (2 Bft)
02.05.2017 01:16 2,0 °C 2,1 °C 93 % 1016,1 hPa 0,0 mm 3,0 km/h (1 Bft) W 265 ° 0 min 0,000 mm 0,0 UV-I 0 W/m² 1,0 °C 2,0 °C 3,2 km/h (1 Bft)
02.05.2017 01:17 1,9 °C 2,0 °C 93 % 1016,1 hPa 0,0 mm 5,8 km/h (2 Bft) W 271 ° 0 min 0,000 mm 0,0 UV-I 0 W/m² 0,9 °C 0,2 °C 12,9 km/h (3 Bft)
02.05.2017 01:18 1,9 °C 2,0 °C 93 % 1016,1 hPa 0,2 mm 6,9 km/h (2 Bft) W 263 ° 0 min 0,000 mm 0,0 UV-I 0 W/m² 0,9 °C -0,2 °C 11,3 km/h (2 Bft)
02.05.2017 01:19 1,9 °C 1,9 °C 93 % 1016,1 hPa 0,0 mm 6,8 km/h (2 Bft) W 269 ° 0 min 0,000 mm 0,0 UV-I 0 W/m² 0,9 °C -0,1 °C 11,3 km/h (2 Bft)
02.05.2017 01:20 1,9 °C 1,9 °C 93 % 1016,0 hPa 0,0 mm 5,4 km/h (1 Bft) W-NW 288 ° 0 min 0,000 mm 0,0 UV-I 0 W/m² 0,9 °C 0,4 °C 8,0 km/h (2 Bft)
02.05.2017 01:21 1,9 °C 1,9 °C 93 % 1016,1 hPa 0,0 mm 5,0 km/h (1 Bft) W-SW 257 ° 0 min 0,000 mm 0,0 UV-I 0 W/m² 0,9 °C 0,6 °C 6,4 km/h (2 Bft)
02.05.2017 01:22 1,9 °C 1,9 °C 93 % 1016,1 hPa 0,0 mm 8,8 km/h (2 Bft) W 262 ° 0 min 0,000 mm 0,0 UV-I 0 W/m² 0,9 °C -0,7 °C 12,9 km/h (3 Bft)
02.05.2017 01:23 1,8 °C 1,9 °C 93 % 1016,1 hPa 0,0 mm 7,4 km/h (2 Bft) W 267 ° 0 min 0,000 mm 0,0 UV-I 0 W/m² 0,8 °C -0,4 °C 11,3 km/h (2 Bft)
02.05.2017 01:24 1,8 °C 1,8 °C 93 % 1016,1 hPa 0,0 mm 6,9 km/h (2 Bft) W-SW 241 ° 0 min 0,000 mm 0,0 UV-I 0 W/m² 0,8 °C -0,3 °C 12,9 km/h (3 Bft)
02.05.2017 01:25 1,8 °C 1,8 °C 93 % 1016,1 hPa 0,2 mm 7,6 km/h (2 Bft) W 260 ° 0 min 0,000 mm 0,0 UV-I 0 W/m² 0,8 °C -0,5 °C 11,3 km/h (2 Bft)
02.05.2017 01:26 1,8 °C 1,8 °C 93 % 1016,1 hPa 0,0 mm 6,7 km/h (2 Bft) W 267 ° 0 min 0,000 mm 0,0 UV-I 0 W/m² 0,8 °C -0,2 °C 11,3 km/h (2 Bft)
02.05.2017 01:27 1,8 °C 1,8 °C 93 % 1016,1 hPa 0,0 mm 6,6 km/h (2 Bft) W-SW 258 ° 0 min 0,000 mm 0,0 UV-I 0 W/m² 0,8 °C -0,2 °C 11,3 km/h (2 Bft)
02.05.2017 01:28 1,8 °C 1,8 °C 93 % 1016,1 hPa 0,0 mm 4,1 km/h (1 Bft) W-SW 257 ° 0 min 0,000 mm 0,0 UV-I 0 W/m² 0,8 °C 1,8 °C 6,4 km/h (2 Bft)
02.05.2017 01:29 1,8 °C 1,8 °C 93 % 1016,1 hPa 0,0 mm 5,4 km/h (1 Bft) W 267 ° 0 min 0,000 mm 0,0 UV-I 0 W/m² 0,8 °C 0,3 °C 9,7 km/h (2 Bft)
02.05.2017 01:30 1,8 °C 1,8 °C 93 % 1016,1 hPa 0,0 mm 5,1 km/h (1 Bft) W 271 ° 0 min 0,000 mm 0,0 UV-I 0 W/m² 0,8 °C 0,4 °C 9,7 km/h (2 Bft)
02.05.2017 01:31 1,8 °C 1,8 °C 93 % 1016,0 hPa 0,0 mm 6,0 km/h (2 Bft) W-SW 241 ° 0 min 0,000 mm 0,0 UV-I 0 W/m² 0,8 °C 0,0 °C 9,7 km/h (2 Bft)
02.05.2017 01:32 1,8 °C 1,8 °C 93 % 1016,1 hPa 0,0 mm 4,7 km/h (1 Bft) W 271 ° 0 min 0,000 mm 0,0 UV-I 0 W/m² 0,8 °C 0,6 °C 9,7 km/h (2 Bft)
02.05.2017 01:33 1,8 °C 1,8 °C 93 % 1016,0 hPa 0,0 mm 7,6 km/h (2 Bft) W 263 ° 0 min 0,000 mm 0,0 UV-I 0 W/m² 0,8 °C -0,5 °C 9,7 km/h (2 Bft)
02.05.2017 01:34 1,8 °C 1,8 °C 93 % 1016,0 hPa 0,0 mm 5,5 km/h (1 Bft) W 267 ° 0 min 0,000 mm 0,0 UV-I 0 W/m² 0,8 °C 0,2 °C 11,3 km/h (2 Bft)
02.05.2017 01:35 1,8 °C 1,8 °C 93 % 1016,0 hPa 0,2 mm 5,0 km/h (1 Bft) W-SW 250 ° 0 min 0,000 mm 0,0 UV-I 0 W/m² 0,8 °C 0,5 °C 6,4 km/h (2 Bft)
02.05.2017 01:36 1,8 °C 1,8 °C 93 % 1016,0 hPa 0,0 mm 6,0 km/h (2 Bft) W-SW 251 ° 0 min 0,000 mm 0,0 UV-I 0 W/m² 0,8 °C 0,0 °C 9,7 km/h (2 Bft)
02.05.2017 01:37 1,8 °C 1,8 °C 93 % 1016,0 hPa 0,0 mm 6,7 km/h (2 Bft) W 271 ° 0 min 0,000 mm 0,0 UV-I 0 W/m² 0,8 °C -0,2 °C 9,7 km/h (2 Bft)
02.05.2017 01:38 1,7 °C 1,8 °C 93 % 1016,0 hPa 0,0 mm 5,4 km/h (1 Bft) W-SW 242 ° 0 min 0,000 mm 0,0 UV-I 0 W/m² 0,7 °C 0,2 °C 6,4 km/h (2 Bft)
02.05.2017 01:39 1,7 °C 1,8 °C 93 % 1016,1 hPa 0,0 mm 5,2 km/h (1 Bft) W-SW 251 ° 0 min 0,000 mm 0,0 UV-I 0 W/m² 0,7 °C 0,3 °C 6,4 km/h (2 Bft)
02.05.2017 01:40 1,7 °C 1,7 °C 93 % 1016,1 hPa 0,0 mm 5,4 km/h (1 Bft) W 274 ° 0 min 0,000 mm 0,0 UV-I 0 W/m² 0,7 °C 0,2 °C 6,4 km/h (2 Bft)
02.05.2017 01:41 1,8 °C 1,8 °C 93 % 1016,0 hPa 0,0 mm 5,6 km/h (1 Bft) W 259 ° 0 min 0,000 mm 0,0 UV-I 0 W/m² 0,8 °C 0,2 °C 6,4 km/h (2 Bft)
02.05.2017 01:42 1,8 °C 1,8 °C 94 % 1016,1 hPa 0,0 mm 5,8 km/h (2 Bft) W 273 ° 0 min 0,000 mm 0,0 UV-I 0 W/m² 0,9 °C 0,1 °C 9,7 km/h (2 Bft)
02.05.2017 01:43 1,8 °C 1,8 °C 94 % 1016,1 hPa 0,0 mm 5,5 km/h (1 Bft) W 261 ° 0 min 0,000 mm 0,0 UV-I 0 W/m² 0,9 °C 0,2 °C 6,4 km/h (2 Bft)
02.05.2017 01:44 1,8 °C 1,8 °C 94 % 1016,0 hPa 0,0 mm 5,6 km/h (1 Bft) W-SW 246 ° 0 min 0,000 mm 0,0 UV-I 0 W/m² 0,9 °C 0,2 °C 9,7 km/h (2 Bft)
02.05.2017 01:45 1,8 °C 1,8 °C 94 % 1016,0 hPa 0,0 mm 4,0 km/h (1 Bft) W-SW 238 ° 0 min 0,000 mm 0,0 UV-I 0 W/m² 0,9 °C 1,8 °C 6,4 km/h (2 Bft)
02.05.2017 01:46 1,8 °C 1,8 °C 94 % 1016,0 hPa 0,0 mm 6,0 km/h (2 Bft) W 259 ° 0 min 0,000 mm 0,0 UV-I 0 W/m² 0,9 °C 0,0 °C 9,7 km/h (2 Bft)
02.05.2017 01:47 1,8 °C 1,8 °C 94 % 1016,0 hPa 0,0 mm 8,9 km/h (2 Bft) W 271 ° 0 min 0,000 mm 0,0 UV-I 0 W/m² 0,9 °C -0,9 °C 11,3 km/h (2 Bft)
02.05.2017 01:48 1,8 °C 1,8 °C 94 % 1016,0 hPa 0,0 mm 3,8 km/h (1 Bft) SW 235 ° 0 min 0,000 mm 0,0 UV-I 0 W/m² 0,9 °C 1,8 °C 6,4 km/h (2 Bft)
02.05.2017 01:49 1,7 °C 1,8 °C 94 % 1016,0 hPa 0,0 mm 3,6 km/h (1 Bft) W-SW 250 ° 0 min 0,000 mm 0,0 UV-I 0 W/m² 0,8 °C 1,7 °C 4,8 km/h (1 Bft)
02.05.2017 01:50 1,8 °C 1,8 °C 94 % 1016,0 hPa 0,0 mm 8,3 km/h (2 Bft) W-SW 257 ° 0 min 0,000 mm 0,0 UV-I 0 W/m² 0,9 °C -0,7 °C 11,3 km/h (2 Bft)
02.05.2017 01:51 1,8 °C 1,8 °C 94 % 1015,9 hPa 0,0 mm 3,6 km/h (1 Bft) W-SW 255 ° 0 min 0,000 mm 0,0 UV-I 0 W/m² 0,9 °C 1,8 °C 6,4 km/h (2 Bft)
02.05.2017 01:52 1,8 °C 1,8 °C 94 % 1015,9 hPa 0,0 mm 6,0 km/h (2 Bft) W-SW 248 ° 0 min 0,000 mm 0,0 UV-I 0 W/m² 0,9 °C 0,0 °C 8,0 km/h (2 Bft)
02.05.2017 01:53 1,8 °C 1,8 °C 94 % 1015,9 hPa 0,0 mm 6,7 km/h (2 Bft) W 265 ° 0 min 0,000 mm 0,0 UV-I 0 W/m² 0,9 °C -0,2 °C 11,3 km/h (2 Bft)
02.05.2017 01:54 1,8 °C 1,8 °C 94 % 1015,9 hPa 0,2 mm 7,1 km/h (2 Bft) W 259 ° 0 min 0,000 mm 0,0 UV-I 0 W/m² 0,9 °C -0,3 °C 9,7 km/h (2 Bft)
02.05.2017 01:55 1,8 °C 1,8 °C 94 % 1015,9 hPa 0,0 mm 7,7 km/h (2 Bft) W-SW 257 ° 0 min 0,000 mm 0,0 UV-I 0 W/m² 0,9 °C -0,5 °C 12,9 km/h (3 Bft)
02.05.2017 01:56 1,9 °C 1,9 °C 94 % 1016,0 hPa 0,0 mm 7,5 km/h (2 Bft) W 259 ° 0 min 0,000 mm 0,0 UV-I 0 W/m² 1,0 °C -0,4 °C 11,3 km/h (2 Bft)
02.05.2017 01:57 1,9 °C 1,9 °C 94 % 1016,0 hPa 0,0 mm 4,5 km/h (1 Bft) W 268 ° 0 min 0,000 mm 0,0 UV-I 0 W/m² 1,0 °C 1,9 °C 6,4 km/h (2 Bft)
02.05.2017 01:58 1,9 °C 1,9 °C 94 % 1016,0 hPa 0,0 mm 4,0 km/h (1 Bft) W-SW 254 ° 0 min 0,000 mm 0,0 UV-I 0 W/m² 1,0 °C 1,9 °C 6,4 km/h (2 Bft)
02.05.2017 01:59 1,9 °C 1,9 °C 94 % 1015,9 hPa 0,0 mm 3,4 km/h (1 Bft) W-SW 252 ° 0 min 0,000 mm 0,0 UV-I 0 W/m² 1,0 °C 1,9 °C 6,4 km/h (2 Bft)
02.05.2017 02:00 2,0 °C 2,0 °C 94 % 1015,9 hPa 0,0 mm 2,5 km/h (1 Bft) W-NW 295 ° 0 min 0,000 mm 0,0 UV-I 0 W/m² 1,1 °C 2,0 °C 4,8 km/h (1 Bft)
02.05.2017 02:01 2,0 °C 2,0 °C 94 % 1015,9 hPa 0,0 mm 6,2 km/h (2 Bft) W 270 ° 0 min 0,000 mm 0,0 UV-I 0 W/m² 1,1 °C 0,2 °C 11,3 km/h (2 Bft)
02.05.2017 02:02 2,0 °C 2,0 °C 94 % 1015,9 hPa 0,0 mm 4,8 km/h (1 Bft) W 262 ° 0 min 0,000 mm 0,0 UV-I 0 W/m² 1,1 °C 0,8 °C 6,4 km/h (2 Bft)
02.05.2017 02:03 2,0 °C 2,0 °C 94 % 1015,9 hPa 0,0 mm 6,2 km/h (2 Bft) W-SW 244 ° 0 min 0,000 mm 0,0 UV-I 0 W/m² 1,1 °C 0,2 °C 9,7 km/h (2 Bft)
02.05.2017 02:04 2,1 °C 2,1 °C 94 % 1015,9 hPa 0,0 mm 6,3 km/h (2 Bft) W-SW 251 ° 0 min 0,000 mm 0,0 UV-I 0 W/m² 1,2 °C 0,3 °C 11,3 km/h (2 Bft)
02.05.2017 02:05 2,1 °C 2,1 °C 94 % 1015,8 hPa 0,0 mm 5,5 km/h (1 Bft) W 265 ° 0 min 0,000 mm 0,0 UV-I 0 W/m² 1,2 °C 0,6 °C 9,7 km/h (2 Bft)
02.05.2017 02:06 2,1 °C 2,1 °C 94 % 1015,8 hPa 0,0 mm 7,4 km/h (2 Bft) W-SW 249 ° 0 min 0,000 mm 0,0 UV-I 0 W/m² 1,2 °C -0,1 °C 11,3 km/h (2 Bft)
02.05.2017 02:07 2,2 °C 2,2 °C 94 % 1015,7 hPa 0,0 mm 7,7 km/h (2 Bft) W 267 ° 0 min 0,000 mm 0,0 UV-I 0 W/m² 1,3 °C -0,1 °C 11,3 km/h (2 Bft)
02.05.2017 02:08 2,2 °C 2,2 °C 93 % 1015,7 hPa 0,0 mm 6,0 km/h (2 Bft) W-SW 250 ° 0 min 0,000 mm 0,0 UV-I 0 W/m² 1,2 °C 0,5 °C 9,7 km/h (2 Bft)
02.05.2017 02:09 2,2 °C 2,2 °C 93 % 1015,7 hPa 0,0 mm 9,3 km/h (2 Bft) W-SW 253 ° 0 min 0,000 mm 0,0 UV-I 0 W/m² 1,2 °C -0,5 °C 12,9 km/h (3 Bft)
02.05.2017 02:10 2,2 °C 2,2 °C 93 % 1015,7 hPa 0,0 mm 8,2 km/h (2 Bft) W-NW 288 ° 0 min 0,000 mm 0,0 UV-I 0 W/m² 1,2 °C -0,2 °C 12,9 km/h (3 Bft)
02.05.2017 02:11 2,2 °C 2,3 °C 94 % 1015,7 hPa 0,2 mm 4,8 km/h (1 Bft) W 274 ° 0 min 0,000 mm 0,0 UV-I 0 W/m² 1,3 °C 1,0 °C 6,4 km/h (2 Bft)
02.05.2017 02:12 2,3 °C 2,3 °C 94 % 1015,7 hPa 0,0 mm 9,5 km/h (2 Bft) W 261 ° 0 min 0,000 mm 0,0 UV-I 0 W/m² 1,4 °C -0,4 °C 16,1 km/h (3 Bft)
02.05.2017 02:13 2,3 °C 2,3 °C 93 % 1015,7 hPa 0,0 mm 8,0 km/h (2 Bft) W 264 ° 0 min 0,000 mm 0,0 UV-I 0 W/m² 1,3 °C -0,0 °C 11,3 km/h (2 Bft)
02.05.2017 02:14 2,3 °C 2,3 °C 93 % 1015,7 hPa 0,0 mm 5,7 km/h (1 Bft) W 267 ° 0 min 0,000 mm 0,0 UV-I 0 W/m² 1,3 °C 0,7 °C 6,4 km/h (2 Bft)
02.05.2017 02:15 2,3 °C 2,3 °C 93 % 1015,7 hPa 0,0 mm 8,4 km/h (2 Bft) W-SW 252 ° 0 min 0,000 mm 0,0 UV-I 0 W/m² 1,3 °C -0,2 °C 14,5 km/h (3 Bft)
02.05.2017 02:16 2,3 °C 2,3 °C 93 % 1015,7 hPa 0,0 mm 8,5 km/h (2 Bft) W 267 ° 0 min 0,000 mm 0,0 UV-I 0 W/m² 1,3 °C -0,2 °C 11,3 km/h (2 Bft)
02.05.2017 02:17 2,3 °C 2,3 °C 93 % 1015,7 hPa 0,0 mm 7,5 km/h (2 Bft) S 186 ° 0 min 0,000 mm 0,0 UV-I 0 W/m² 1,3 °C 0,1 °C 11,3 km/h (2 Bft)
02.05.2017 02:18 2,3 °C 2,3 °C 93 % 1015,7 hPa 0,0 mm 4,6 km/h (1 Bft) W 259 ° 0 min 0,000 mm 0,0 UV-I 0 W/m² 1,3 °C 1,2 °C 8,0 km/h (2 Bft)
02.05.2017 02:19 2,4 °C 2,4 °C 93 % 1015,7 hPa 0,0 mm 10,3 km/h (2 Bft) W-SW 258 ° 0 min 0,000 mm 0,0 UV-I 0 W/m² 1,4 °C -0,5 °C 16,1 km/h (3 Bft)
02.05.2017 02:20 2,4 °C 2,4 °C 93 % 1015,7 hPa 0,0 mm 12,2 km/h (2 Bft) W 259 ° 0 min 0,000 mm 0,0 UV-I 0 W/m² 1,4 °C -0,9 °C 14,5 km/h (3 Bft)
02.05.2017 02:21 2,4 °C 2,4 °C 93 % 1015,7 hPa 0,0 mm 9,7 km/h (2 Bft) W 271 ° 0 min 0,000 mm 0,0 UV-I 0 W/m² 1,4 °C -0,4 °C 12,9 km/h (3 Bft)
02.05.2017 02:22 2,4 °C 2,4 °C 93 % 1015,8 hPa 0,0 mm 4,3 km/h (1 Bft) W 261 ° 0 min 0,000 mm 0,0 UV-I 0 W/m² 1,4 °C 2,4 °C 6,4 km/h (2 Bft)
02.05.2017 02:23 2,4 °C 2,4 °C 93 % 1015,8 hPa 0,0 mm 9,5 km/h (2 Bft) W 266 ° 0 min 0,000 mm 0,0 UV-I 0 W/m² 1,4 °C -0,3 °C 12,9 km/h (3 Bft)
02.05.2017 02:24 2,4 °C 2,4 °C 93 % 1015,7 hPa 0,0 mm 9,2 km/h (2 Bft) W 269 ° 0 min 0,000 mm 0,0 UV-I 0 W/m² 1,4 °C -0,2 °C 12,9 km/h (3 Bft)
02.05.2017 02:25 2,4 °C 2,4 °C 93 % 1015,7 hPa 0,0 mm 6,9 km/h (2 Bft) W-SW 238 ° 0 min 0,000 mm 0,0 UV-I 0 W/m² 1,4 °C 0,4 °C 9,7 km/h (2 Bft)
02.05.2017 02:26 2,4 °C 2,4 °C 93 % 1015,7 hPa 0,0 mm 10,3 km/h (2 Bft) W-SW 248 ° 0 min 0,000 mm 0,0 UV-I 0 W/m² 1,4 °C -0,5 °C 14,5 km/h (3 Bft)
02.05.2017 02:27 2,4 °C 2,4 °C 93 % 1015,7 hPa 0,0 mm 8,6 km/h (2 Bft) W 277 ° 0 min 0,000 mm 0,0 UV-I 0 W/m² 1,4 °C -0,1 °C 12,9 km/h (3 Bft)
02.05.2017 02:28 2,4 °C 2,4 °C 93 % 1015,6 hPa 0,2 mm 8,6 km/h (2 Bft) W-SW 252 ° 0 min 0,000 mm 0,0 UV-I 0 W/m² 1,4 °C -0,1 °C 16,1 km/h (3 Bft)
02.05.2017 02:29 2,4 °C 2,5 °C 93 % 1015,7 hPa 0,0 mm 8,3 km/h (2 Bft) W-SW 239 ° 0 min 0,000 mm 0,0 UV-I 0 W/m² 1,4 °C -0,0 °C 14,5 km/h (3 Bft)
02.05.2017 02:30 2,4 °C 2,5 °C 93 % 1015,6 hPa 0,0 mm 6,8 km/h (2 Bft) W-SW 247 ° 0 min 0,000 mm 0,0 UV-I 0 W/m² 1,4 °C 0,5 °C 11,3 km/h (2 Bft)
02.05.2017 02:31 2,4 °C 2,5 °C 93 % 1015,6 hPa 0,0 mm 11,9 km/h (2 Bft) W 269 ° 0 min 0,000 mm 0,0 UV-I 0 W/m² 1,4 °C -0,9 °C 17,7 km/h (3 Bft)
02.05.2017 02:32 2,5 °C 2,5 °C 93 % 1015,6 hPa 0,0 mm 10,7 km/h (2 Bft) W-SW 252 ° 0 min 0,000 mm 0,0 UV-I 0 W/m² 1,5 °C -0,5 °C 14,5 km/h (3 Bft)
02.05.2017 02:33 2,5 °C 2,5 °C 93 % 1015,6 hPa 0,0 mm 7,6 km/h (2 Bft) W-SW 243 ° 0 min 0,000 mm 0,0 UV-I 0 W/m² 1,5 °C 0,3 °C 11,3 km/h (2 Bft)
02.05.2017 02:34 2,5 °C 2,6 °C 93 % 1015,6 hPa 0,0 mm 6,1 km/h (2 Bft) SW 215 ° 0 min 0,000 mm 0,0 UV-I 0 W/m² 1,5 °C 0,8 °C 11,3 km/h (2 Bft)
02.05.2017 02:35 2,6 °C 2,6 °C 93 % 1015,7 hPa 0,0 mm 5,9 km/h (2 Bft) W-SW 254 ° 0 min 0,000 mm 0,0 UV-I 0 W/m² 1,6 °C 1,0 °C 11,3 km/h (2 Bft)
02.05.2017 02:36 2,6 °C 2,6 °C 93 % 1015,7 hPa 0,0 mm 3,4 km/h (1 Bft) SW 219 ° 0 min 0,000 mm 0,0 UV-I 0 W/m² 1,6 °C 2,6 °C 6,4 km/h (2 Bft)
02.05.2017 02:37 2,6 °C 2,6 °C 93 % 1015,7 hPa 0,0 mm 7,3 km/h (2 Bft) S-SW 205 ° 0 min 0,000 mm 0,0 UV-I 0 W/m² 1,6 °C 0,5 °C 14,5 km/h (3 Bft)
02.05.2017 02:38 2,6 °C 2,6 °C 93 % 1015,6 hPa 0,0 mm 8,1 km/h (2 Bft) W-SW 252 ° 0 min 0,000 mm 0,0 UV-I 0 W/m² 1,6 °C 0,3 °C 14,5 km/h (3 Bft)
02.05.2017 02:39 2,6 °C 2,6 °C 93 % 1015,7 hPa 0,0 mm 12,1 km/h (2 Bft) SW 224 ° 0 min 0,000 mm 0,0 UV-I 0 W/m² 1,6 °C -0,7 °C 19,3 km/h (3 Bft)
02.05.2017 02:40 2,6 °C 2,6 °C 93 % 1015,7 hPa 0,0 mm 5,6 km/h (1 Bft) SW 232 ° 0 min 0,000 mm 0,0 UV-I 0 W/m² 1,6 °C 1,1 °C 11,3 km/h (2 Bft)
02.05.2017 02:41 2,6 °C 2,6 °C 93 % 1015,6 hPa 0,0 mm 6,8 km/h (2 Bft) W-SW 254 ° 0 min 0,000 mm 0,0 UV-I 0 W/m² 1,6 °C 0,7 °C 11,3 km/h (2 Bft)
02.05.2017 02:42 2,6 °C 2,6 °C 93 % 1015,6 hPa 0,0 mm 6,3 km/h (2 Bft) SW 225 ° 0 min 0,000 mm 0,0 UV-I 0 W/m² 1,6 °C 0,9 °C 11,3 km/h (2 Bft)
02.05.2017 02:43 2,6 °C 2,6 °C 93 % 1015,6 hPa 0,0 mm 4,1 km/h (1 Bft) W-SW 252 ° 0 min 0,000 mm 0,0 UV-I 0 W/m² 1,6 °C 2,6 °C 6,4 km/h (2 Bft)
02.05.2017 02:44 2,7 °C 2,7 °C 93 % 1015,6 hPa 0,0 mm 4,7 km/h (1 Bft) W-SW 240 ° 0 min 0,000 mm 0,0 UV-I 0 W/m² 1,7 °C 1,6 °C 8,0 km/h (2 Bft)
02.05.2017 02:45 2,7 °C 2,7 °C 93 % 1015,6 hPa 0,0 mm 1,5 km/h (1 Bft) S 188 ° 0 min 0,000 mm 0,0 UV-I 0 W/m² 1,7 °C 2,7 °C 3,2 km/h (1 Bft)
02.05.2017 02:46 2,7 °C 2,7 °C 93 % 1015,6 hPa 0,0 mm 3,8 km/h (1 Bft) SW 232 ° 0 min 0,000 mm 0,0 UV-I 0 W/m² 1,7 °C 2,7 °C 8,0 km/h (2 Bft)
02.05.2017 02:47 2,7 °C 2,7 °C 93 % 1015,6 hPa 0,0 mm 8,0 km/h (2 Bft) W-NW 292 ° 0 min 0,000 mm 0,0 UV-I 0 W/m² 1,7 °C 0,4 °C 16,1 km/h (3 Bft)
02.05.2017 02:48 2,7 °C 2,7 °C 92 % 1015,6 hPa 0,0 mm 7,0 km/h (2 Bft) SW 235 ° 0 min 0,000 mm 0,0 UV-I 0 W/m² 1,5 °C 0,7 °C 11,3 km/h (2 Bft)
02.05.2017 02:49 2,7 °C 2,7 °C 93 % 1015,6 hPa 0,0 mm 3,9 km/h (1 Bft) S-SW 199 ° 0 min 0,000 mm 0,0 UV-I 0 W/m² 1,7 °C 2,7 °C 8,0 km/h (2 Bft)
02.05.2017 02:50 2,7 °C 2,7 °C 92 % 1015,7 hPa 0,0 mm 7,8 km/h (2 Bft) SW 235 ° 0 min 0,000 mm 0,0 UV-I 0 W/m² 1,5 °C 0,5 °C 11,3 km/h (2 Bft)
02.05.2017 02:51 2,7 °C 2,7 °C 92 % 1015,7 hPa 0,0 mm 5,4 km/h (1 Bft) SW 232 ° 0 min 0,000 mm 0,0 UV-I 0 W/m² 1,5 °C 1,3 °C 12,9 km/h (3 Bft)
02.05.2017 02:52 2,7 °C 2,8 °C 92 % 1015,7 hPa 0,2 mm 4,6 km/h (1 Bft) W 275 ° 0 min 0,000 mm 0,0 UV-I 0 W/m² 1,5 °C 1,7 °C 8,0 km/h (2 Bft)
02.05.2017 02:53 2,7 °C 2,8 °C 92 % 1015,6 hPa 0,0 mm 6,3 km/h (2 Bft) SW 235 ° 0 min 0,000 mm 0,0 UV-I 0 W/m² 1,5 °C 1,0 °C 9,7 km/h (2 Bft)
02.05.2017 02:54 2,8 °C 2,8 °C 92 % 1015,7 hPa 0,0 mm 7,0 km/h (2 Bft) W 274 ° 0 min 0,000 mm 0,0 UV-I 0 W/m² 1,6 °C 0,9 °C 9,7 km/h (2 Bft)
02.05.2017 02:55 2,8 °C 2,8 °C 92 % 1015,7 hPa 0,0 mm 8,0 km/h (2 Bft) W-SW 248 ° 0 min 0,000 mm 0,0 UV-I 0 W/m² 1,6 °C 0,6 °C 12,9 km/h (3 Bft)
02.05.2017 02:56 2,8 °C 2,8 °C 92 % 1015,6 hPa 0,0 mm 6,4 km/h (2 Bft) W-SW 243 ° 0 min 0,000 mm 0,0 UV-I 0 W/m² 1,6 °C 1,1 °C 11,3 km/h (2 Bft)
02.05.2017 02:57 2,8 °C 2,8 °C 92 % 1015,6 hPa 0,0 mm 6,4 km/h (2 Bft) W-SW 246 ° 0 min 0,000 mm 0,0 UV-I 0 W/m² 1,6 °C 1,1 °C 11,3 km/h (2 Bft)
02.05.2017 02:58 2,8 °C 2,8 °C 92 % 1015,6 hPa 0,0 mm 9,8 km/h (2 Bft) W-SW 245 ° 0 min 0,000 mm 0,0 UV-I 0 W/m² 1,6 °C 0,1 °C 14,5 km/h (3 Bft)
02.05.2017 02:59 2,8 °C 2,8 °C 92 % 1015,6 hPa 0,0 mm 5,0 km/h (1 Bft) SW 227 ° 0 min 0,000 mm 0,0 UV-I 0 W/m² 1,6 °C 1,6 °C 9,7 km/h (2 Bft)
02.05.2017 03:00 2,8 °C 2,8 °C 92 % 1015,6 hPa 0,0 mm 7,4 km/h (2 Bft) S-SW 202 ° 0 min 0,000 mm 0,0 UV-I 0 W/m² 1,6 °C 0,7 °C 16,1 km/h (3 Bft)
02.05.2017 03:01 2,8 °C 2,8 °C 92 % 1015,6 hPa 0,0 mm 9,5 km/h (2 Bft) W-SW 238 ° 0 min 0,000 mm 0,0 UV-I 0 W/m² 1,6 °C 0,2 °C 12,9 km/h (3 Bft)
02.05.2017 03:02 2,8 °C 2,8 °C 92 % 1015,5 hPa 0,0 mm 3,8 km/h (1 Bft) W-SW 247 ° 0 min 0,000 mm 0,0 UV-I 0 W/m² 1,6 °C 2,8 °C 6,4 km/h (2 Bft)
02.05.2017 03:03 2,8 °C 2,8 °C 92 % 1015,5 hPa 0,0 mm 5,7 km/h (1 Bft) SW 216 ° 0 min 0,000 mm 0,0 UV-I 0 W/m² 1,6 °C 1,3 °C 14,5 km/h (3 Bft)
02.05.2017 03:04 2,8 °C 2,8 °C 92 % 1015,6 hPa 0,0 mm 10,2 km/h (2 Bft) SW 231 ° 0 min 0,000 mm 0,0 UV-I 0 W/m² 1,6 °C -0,0 °C 17,7 km/h (3 Bft)
02.05.2017 03:05 2,8 °C 2,8 °C 92 % 1015,6 hPa 0,0 mm 9,7 km/h (2 Bft) SW 232 ° 0 min 0,000 mm 0,0 UV-I 0 W/m² 1,6 °C 0,1 °C 16,1 km/h (3 Bft)
02.05.2017 03:06 2,8 °C 2,8 °C 92 % 1015,5 hPa 0,0 mm 5,8 km/h (2 Bft) W 280 ° 0 min 0,000 mm 0,0 UV-I 0 W/m² 1,6 °C 1,3 °C 9,7 km/h (2 Bft)
02.05.2017 03:07 2,8 °C 2,8 °C 92 % 1015,5 hPa 0,0 mm 8,5 km/h (2 Bft) W-SW 249 ° 0 min 0,000 mm 0,0 UV-I 0 W/m² 1,6 °C 0,4 °C 12,9 km/h (3 Bft)
02.05.2017 03:08 2,9 °C 2,9 °C 92 % 1015,4 hPa 0,0 mm 6,6 km/h (2 Bft) W-SW 239 ° 0 min 0,000 mm 0,0 UV-I 0 W/m² 1,7 °C 1,1 °C 12,9 km/h (3 Bft)
02.05.2017 03:09 2,8 °C 2,9 °C 92 % 1015,4 hPa 0,2 mm 8,4 km/h (2 Bft) W-SW 256 ° 0 min 0,000 mm 0,0 UV-I 0 W/m² 1,6 °C 0,4 °C 12,9 km/h (3 Bft)
02.05.2017 03:10 2,8 °C 2,8 °C 92 % 1015,4 hPa 0,0 mm 5,1 km/h (1 Bft) SW 232 ° 0 min 0,000 mm 0,0 UV-I 0 W/m² 1,6 °C 1,5 °C 8,0 km/h (2 Bft)
02.05.2017 03:11 2,8 °C 2,8 °C 92 % 1015,5 hPa 0,0 mm 10,2 km/h (2 Bft) W 259 ° 0 min 0,000 mm 0,0 UV-I 0 W/m² 1,6 °C -0,0 °C 14,5 km/h (3 Bft)
02.05.2017 03:12 2,8 °C 2,8 °C 92 % 1015,5 hPa 0,0 mm 10,6 km/h (2 Bft) W-SW 238 ° 0 min 0,000 mm 0,0 UV-I 0 W/m² 1,6 °C -0,1 °C 17,7 km/h (3 Bft)
02.05.2017 03:13 2,8 °C 2,8 °C 92 % 1015,5 hPa 0,0 mm 13,5 km/h (3 Bft) W 273 ° 0 min 0,000 mm 0,0 UV-I 0 W/m² 1,6 °C -0,7 °C 19,3 km/h (3 Bft)
02.05.2017 03:14 2,8 °C 2,8 °C 92 % 1015,5 hPa 0,0 mm 7,0 km/h (2 Bft) W-SW 241 ° 0 min 0,000 mm 0,0 UV-I 0 W/m² 1,6 °C 0,9 °C 11,3 km/h (2 Bft)
02.05.2017 03:15 2,8 °C 2,9 °C 92 % 1015,6 hPa 0,0 mm 5,7 km/h (1 Bft) W 262 ° 0 min 0,000 mm 0,0 UV-I 0 W/m² 1,6 °C 1,3 °C 11,3 km/h (2 Bft)
02.05.2017 03:16 2,8 °C 2,8 °C 92 % 1015,6 hPa 0,0 mm 8,9 km/h (2 Bft) W 279 ° 0 min 0,000 mm 0,0 UV-I 0 W/m² 1,6 °C 0,3 °C 12,9 km/h (3 Bft)
02.05.2017 03:17 2,8 °C 2,8 °C 92 % 1015,7 hPa 0,0 mm 11,3 km/h (2 Bft) W 277 ° 0 min 0,000 mm 0,0 UV-I 0 W/m² 1,6 °C -0,3 °C 14,5 km/h (3 Bft)
02.05.2017 03:18 2,8 °C 2,8 °C 92 % 1015,7 hPa 0,0 mm 8,0 km/h (2 Bft) W-NW 284 ° 0 min 0,000 mm 0,0 UV-I 0 W/m² 1,6 °C 0,6 °C 14,5 km/h (3 Bft)
02.05.2017 03:19 2,8 °C 2,8 °C 92 % 1015,6 hPa 0,0 mm 6,0 km/h (2 Bft) W-SW 256 ° 0 min 0,000 mm 0,0 UV-I 0 W/m² 1,6 °C 1,2 °C 9,7 km/h (2 Bft)
02.05.2017 03:20 2,8 °C 2,8 °C 92 % 1015,6 hPa 0,0 mm 7,3 km/h (2 Bft) W 263 ° 0 min 0,000 mm 0,0 UV-I 0 W/m² 1,6 °C 0,8 °C 14,5 km/h (3 Bft)
02.05.2017 03:21 2,8 °C 2,8 °C 92 % 1015,6 hPa 0,0 mm 9,3 km/h (2 Bft) W-SW 255 ° 0 min 0,000 mm 0,0 UV-I 0 W/m² 1,6 °C 0,2 °C 16,1 km/h (3 Bft)
02.05.2017 03:22 2,8 °C 2,8 °C 92 % 1015,6 hPa 0,0 mm 6,9 km/h (2 Bft) W-SW 253 ° 0 min 0,000 mm 0,0 UV-I 0 W/m² 1,6 °C 0,9 °C 9,7 km/h (2 Bft)
02.05.2017 03:23 2,8 °C 2,8 °C 92 % 1015,6 hPa 0,0 mm 6,9 km/h (2 Bft) W-SW 246 ° 0 min 0,000 mm 0,0 UV-I 0 W/m² 1,6 °C 0,9 °C 9,7 km/h (2 Bft)
02.05.2017 03:24 2,8 °C 2,8 °C 92 % 1015,6 hPa 0,0 mm 7,0 km/h (2 Bft) W 264 ° 0 min 0,000 mm 0,0 UV-I 0 W/m² 1,6 °C 0,9 °C 11,3 km/h (2 Bft)
02.05.2017 03:25 2,8 °C 2,8 °C 92 % 1015,6 hPa 0,0 mm 5,8 km/h (2 Bft) SW 228 ° 0 min 0,000 mm 0,0 UV-I 0 W/m² 1,6 °C 1,3 °C 9,7 km/h (2 Bft)
02.05.2017 03:26 2,8 °C 2,8 °C 92 % 1015,6 hPa 0,0 mm 5,8 km/h (2 Bft) W 261 ° 0 min 0,000 mm 0,0 UV-I 0 W/m² 1,6 °C 1,3 °C 6,4 km/h (2 Bft)
02.05.2017 03:27 2,8 °C 2,8 °C 92 % 1015,6 hPa 0,0 mm 5,4 km/h (1 Bft) W 268 ° 0 min 0,000 mm 0,0 UV-I 0 W/m² 1,6 °C 1,4 °C 9,7 km/h (2 Bft)
02.05.2017 03:28 2,8 °C 2,8 °C 92 % 1015,6 hPa 0,0 mm 6,2 km/h (2 Bft) SW 232 ° 0 min 0,000 mm 0,0 UV-I 0 W/m² 1,6 °C 1,1 °C 9,7 km/h (2 Bft)
02.05.2017 03:29 2,8 °C 2,8 °C 92 % 1015,6 hPa 0,2 mm 3,8 km/h (1 Bft) W 264 ° 0 min 0,000 mm 0,0 UV-I 0 W/m² 1,6 °C 2,8 °C 11,3 km/h (2 Bft)
02.05.2017 03:30 2,8 °C 2,8 °C 92 % 1015,6 hPa 0,0 mm 6,5 km/h (2 Bft) SW 223 ° 0 min 0,000 mm 0,0 UV-I 0 W/m² 1,6 °C 1,0 °C 12,9 km/h (3 Bft)
02.05.2017 03:31 2,8 °C 2,8 °C 92 % 1015,5 hPa 0,0 mm 4,8 km/h (1 Bft) SW 236 ° 0 min 0,000 mm 0,0 UV-I 0 W/m² 1,6 °C 1,7 °C 9,7 km/h (2 Bft)
02.05.2017 03:32 2,8 °C 2,8 °C 92 % 1015,5 hPa 0,0 mm 3,0 km/h (1 Bft) W 272 ° 0 min 0,000 mm 0,0 UV-I 0 W/m² 1,6 °C 2,8 °C 4,8 km/h (1 Bft)
02.05.2017 03:33 2,8 °C 2,8 °C 92 % 1015,5 hPa 0,0 mm 4,9 km/h (1 Bft) W 280 ° 0 min 0,000 mm 0,0 UV-I 0 W/m² 1,6 °C 1,6 °C 6,4 km/h (2 Bft)
02.05.2017 03:34 2,8 °C 2,8 °C 92 % 1015,5 hPa 0,0 mm 9,8 km/h (2 Bft) W 261 ° 0 min 0,000 mm 0,0 UV-I 0 W/m² 1,6 °C 0,1 °C 12,9 km/h (3 Bft)
02.05.2017 03:35 2,8 °C 2,8 °C 92 % 1015,5 hPa 0,0 mm 6,2 km/h (2 Bft) W-SW 255 ° 0 min 0,000 mm 0,0 UV-I 0 W/m² 1,6 °C 1,1 °C 12,9 km/h (3 Bft)
02.05.2017 03:36 2,8 °C 2,8 °C 92 % 1015,5 hPa 0,0 mm 5,6 km/h (1 Bft) W-SW 253 ° 0 min 0,000 mm 0,0 UV-I 0 W/m² 1,6 °C 1,3 °C 12,9 km/h (3 Bft)
02.05.2017 03:37 2,8 °C 2,8 °C 92 % 1015,4 hPa 0,0 mm 8,9 km/h (2 Bft) S-SW 207 ° 0 min 0,000 mm 0,0 UV-I 0 W/m² 1,6 °C 0,3 °C 14,5 km/h (3 Bft)
02.05.2017 03:38 2,9 °C 2,9 °C 92 % 1015,4 hPa 0,0 mm 6,2 km/h (2 Bft) W 263 ° 0 min 0,000 mm 0,0 UV-I 0 W/m² 1,7 °C 1,2 °C 9,7 km/h (2 Bft)
02.05.2017 03:39 2,8 °C 2,9 °C 92 % 1015,5 hPa 0,0 mm 4,3 km/h (1 Bft) W-SW 252 ° 0 min 0,000 mm 0,0 UV-I 0 W/m² 1,6 °C 2,8 °C 6,4 km/h (2 Bft)
02.05.2017 03:40 2,9 °C 2,9 °C 92 % 1015,5 hPa 0,0 mm 5,7 km/h (1 Bft) SW 236 ° 0 min 0,000 mm 0,0 UV-I 0 W/m² 1,7 °C 1,4 °C 11,3 km/h (2 Bft)
02.05.2017 03:41 2,9 °C 2,9 °C 92 % 1015,4 hPa 0,0 mm 3,9 km/h (1 Bft) W 265 ° 0 min 0,000 mm 0,0 UV-I 0 W/m² 1,7 °C 2,9 °C 9,7 km/h (2 Bft)
02.05.2017 03:42 2,9 °C 2,9 °C 92 % 1015,4 hPa 0,0 mm 6,0 km/h (2 Bft) SW 216 ° 0 min 0,000 mm 0,0 UV-I 0 W/m² 1,7 °C 1,3 °C 8,0 km/h (2 Bft)
02.05.2017 03:43 2,9 °C 2,9 °C 92 % 1015,4 hPa 0,0 mm 6,9 km/h (2 Bft) SW 233 ° 0 min 0,000 mm 0,0 UV-I 0 W/m² 1,7 °C 1,0 °C 14,5 km/h (3 Bft)
02.05.2017 03:44 2,9 °C 2,9 °C 92 % 1015,4 hPa 0,0 mm 5,3 km/h (1 Bft) SW 236 ° 0 min 0,000 mm 0,0 UV-I 0 W/m² 1,7 °C 1,6 °C 11,3 km/h (2 Bft)
02.05.2017 03:45 2,9 °C 2,9 °C 92 % 1015,4 hPa 0,0 mm 6,9 km/h (2 Bft) W-SW 246 ° 0 min 0,000 mm 0,0 UV-I 0 W/m² 1,7 °C 1,0 °C 11,3 km/h (2 Bft)
02.05.2017 03:46 2,9 °C 2,9 °C 92 % 1015,4 hPa 0,0 mm 8,3 km/h (2 Bft) W-SW 247 ° 0 min 0,000 mm 0,0 UV-I 0 W/m² 1,7 °C 0,6 °C 14,5 km/h (3 Bft)
02.05.2017 03:47 2,9 °C 2,9 °C 92 % 1015,4 hPa 0,0 mm 7,8 km/h (2 Bft) SW 235 ° 0 min 0,000 mm 0,0 UV-I 0 W/m² 1,7 °C 0,7 °C 11,3 km/h (2 Bft)
02.05.2017 03:48 2,9 °C 2,9 °C 92 % 1015,4 hPa 0,0 mm 6,3 km/h (2 Bft) W-SW 239 ° 0 min 0,000 mm 0,0 UV-I 0 W/m² 1,7 °C 1,2 °C 9,7 km/h (2 Bft)
02.05.2017 03:49 2,9 °C 2,9 °C 92 % 1015,4 hPa 0,0 mm 4,6 km/h (1 Bft) SW 228 ° 0 min 0,000 mm 0,0 UV-I 0 W/m² 1,7 °C 1,9 °C 8,0 km/h (2 Bft)
02.05.2017 03:50 2,9 °C 3,0 °C 92 % 1015,4 hPa 0,0 mm 7,4 km/h (2 Bft) S-SO 167 ° 0 min 0,000 mm 0,0 UV-I 0 W/m² 1,7 °C 0,8 °C 14,5 km/h (3 Bft)
02.05.2017 03:51 3,0 °C 3,0 °C 91 % 1015,3 hPa 0,0 mm 7,8 km/h (2 Bft) SW 221 ° 0 min 0,000 mm 0,0 UV-I 0 W/m² 1,7 °C 0,8 °C 12,9 km/h (3 Bft)
02.05.2017 03:52 3,1 °C 3,1 °C 91 % 1015,4 hPa 0,0 mm 6,2 km/h (2 Bft) W 262 ° 0 min 0,000 mm 0,0 UV-I 0 W/m² 1,8 °C 1,5 °C 11,3 km/h (2 Bft)
02.05.2017 03:53 3,0 °C 3,1 °C 91 % 1015,4 hPa 0,0 mm 7,8 km/h (2 Bft) SW 219 ° 0 min 0,000 mm 0,0 UV-I 0 W/m² 1,7 °C 0,8 °C 12,9 km/h (3 Bft)
02.05.2017 03:54 3,1 °C 3,1 °C 91 % 1015,4 hPa 0,0 mm 3,8 km/h (1 Bft) W-SW 248 ° 0 min 0,000 mm 0,0 UV-I 0 W/m² 1,8 °C 3,1 °C 6,4 km/h (2 Bft)
02.05.2017 03:55 3,1 °C 3,1 °C 91 % 1015,4 hPa 0,0 mm 3,0 km/h (1 Bft) W-SW 250 ° 0 min 0,000 mm 0,0 UV-I 0 W/m² 1,8 °C 3,1 °C 4,8 km/h (1 Bft)
02.05.2017 03:56 3,1 °C 3,1 °C 91 % 1015,5 hPa 0,0 mm 7,4 km/h (2 Bft) W 259 ° 0 min 0,000 mm 0,0 UV-I 0 W/m² 1,8 °C 1,1 °C 17,7 km/h (3 Bft)
02.05.2017 03:57 3,1 °C 3,1 °C 91 % 1015,4 hPa 0,0 mm 5,4 km/h (1 Bft) S-SW 205 ° 0 min 0,000 mm 0,0 UV-I 0 W/m² 1,8 °C 1,8 °C 17,7 km/h (3 Bft)
02.05.2017 03:58 3,1 °C 3,1 °C 91 % 1015,4 hPa 0,0 mm 7,8 km/h (2 Bft) SW 229 ° 0 min 0,000 mm 0,0 UV-I 0 W/m² 1,8 °C 1,0 °C 16,1 km/h (3 Bft)
02.05.2017 03:59 3,1 °C 3,1 °C 91 % 1015,4 hPa 0,0 mm 6,1 km/h (2 Bft) W-SW 252 ° 0 min 0,000 mm 0,0 UV-I 0 W/m² 1,8 °C 1,5 °C 11,3 km/h (2 Bft)
02.05.2017 04:00 3,1 °C 3,1 °C 91 % 1015,4 hPa 0,0 mm 9,4 km/h (2 Bft) W 261 ° 0 min 0,000 mm 0,0 UV-I 0 W/m² 1,8 °C 0,5 °C 14,5 km/h (3 Bft)
02.05.2017 04:01 3,1 °C 3,1 °C 91 % 1015,4 hPa 0,0 mm 4,5 km/h (1 Bft) W-SW 257 ° 0 min 0,000 mm 0,0 UV-I 0 W/m² 1,8 °C 3,1 °C 4,8 km/h (1 Bft)
02.05.2017 04:02 3,1 °C 3,1 °C 91 % 1015,4 hPa 0,0 mm 4,8 km/h (1 Bft) S-SW 211 ° 0 min 0,000 mm 0,0 UV-I 0 W/m² 1,8 °C 2,0 °C 6,4 km/h (2 Bft)
02.05.2017 04:03 3,1 °C 3,1 °C 91 % 1015,4 hPa 0,0 mm 3,6 km/h (1 Bft) W 281 ° 0 min 0,000 mm 0,0 UV-I 0 W/m² 1,8 °C 3,1 °C 11,3 km/h (2 Bft)
02.05.2017 04:04 3,1 °C 3,1 °C 91 % 1015,4 hPa 0,0 mm 10,0 km/h (2 Bft) SW 236 ° 0 min 0,000 mm 0,0 UV-I 0 W/m² 1,8 °C 0,4 °C 12,9 km/h (3 Bft)
02.05.2017 04:05 3,1 °C 3,1 °C 91 % 1015,3 hPa 0,0 mm 5,9 km/h (2 Bft) SW 218 ° 0 min 0,000 mm 0,0 UV-I 0 W/m² 1,8 °C 1,6 °C 9,7 km/h (2 Bft)
02.05.2017 04:06 3,1 °C 3,1 °C 91 % 1015,4 hPa 0,0 mm 11,9 km/h (2 Bft) W-SW 248 ° 0 min 0,000 mm 0,0 UV-I 0 W/m² 1,8 °C -0,0 °C 19,3 km/h (3 Bft)
02.05.2017 04:07 3,1 °C 3,1 °C 91 % 1015,4 hPa 0,0 mm 3,5 km/h (1 Bft) W-SW 257 ° 0 min 0,000 mm 0,0 UV-I 0 W/m² 1,8 °C 3,1 °C 8,0 km/h (2 Bft)
02.05.2017 04:08 3,1 °C 3,1 °C 91 % 1015,4 hPa 0,2 mm 3,6 km/h (1 Bft) SW 217 ° 0 min 0,000 mm 0,0 UV-I 0 W/m² 1,8 °C 3,1 °C 6,4 km/h (2 Bft)
02.05.2017 04:09 3,2 °C 3,2 °C 91 % 1015,3 hPa 0,0 mm 2,9 km/h (1 Bft) S-SW 207 ° 0 min 0,000 mm 0,0 UV-I 0 W/m² 1,9 °C 3,2 °C 6,4 km/h (2 Bft)
02.05.2017 04:10 3,1 °C 3,2 °C 91 % 1015,3 hPa 0,0 mm 8,7 km/h (2 Bft) W-SW 243 ° 0 min 0,000 mm 0,0 UV-I 0 W/m² 1,8 °C 0,7 °C 14,5 km/h (3 Bft)
02.05.2017 04:11 3,1 °C 3,2 °C 91 % 1015,3 hPa 0,0 mm 5,1 km/h (1 Bft) W-NW 286 ° 0 min 0,000 mm 0,0 UV-I 0 W/m² 1,8 °C 1,9 °C 16,1 km/h (3 Bft)
02.05.2017 04:12 3,2 °C 3,2 °C 91 % 1015,3 hPa 0,0 mm 7,6 km/h (2 Bft) W-SW 254 ° 0 min 0,000 mm 0,0 UV-I 0 W/m² 1,9 °C 1,1 °C 12,9 km/h (3 Bft)
02.05.2017 04:13 3,2 °C 3,2 °C 91 % 1015,4 hPa 0,0 mm 6,1 km/h (2 Bft) W-SW 251 ° 0 min 0,000 mm 0,0 UV-I 0 W/m² 1,9 °C 1,6 °C 11,3 km/h (2 Bft)
02.05.2017 04:14 3,1 °C 3,2 °C 91 % 1015,4 hPa 0,0 mm 5,6 km/h (1 Bft) W 274 ° 0 min 0,000 mm 0,0 UV-I 0 W/m² 1,8 °C 1,7 °C 11,3 km/h (2 Bft)
02.05.2017 04:15 3,1 °C 3,2 °C 91 % 1015,3 hPa 0,0 mm 5,7 km/h (1 Bft) W-SW 248 ° 0 min 0,000 mm 0,0 UV-I 0 W/m² 1,8 °C 1,6 °C 8,0 km/h (2 Bft)
02.05.2017 04:16 3,1 °C 3,2 °C 91 % 1015,3 hPa 0,0 mm 6,2 km/h (2 Bft) W 263 ° 0 min 0,000 mm 0,0 UV-I 0 W/m² 1,8 °C 1,5 °C 8,0 km/h (2 Bft)
02.05.2017 04:17 3,1 °C 3,1 °C 91 % 1015,3 hPa 0,0 mm 6,3 km/h (2 Bft) W-SW 247 ° 0 min 0,000 mm 0,0 UV-I 0 W/m² 1,8 °C 1,4 °C 8,0 km/h (2 Bft)
02.05.2017 04:18 3,1 °C 3,2 °C 91 % 1015,3 hPa 0,0 mm 4,9 km/h (1 Bft) SW 234 ° 0 min 0,000 mm 0,0 UV-I 0 W/m² 1,8 °C 2,0 °C 6,4 km/h (2 Bft)
02.05.2017 04:19 3,1 °C 3,1 °C 91 % 1015,3 hPa 0,0 mm 5,0 km/h (1 Bft) W-NW 293 ° 0 min 0,000 mm 0,0 UV-I 0 W/m² 1,8 °C 1,9 °C 8,0 km/h (2 Bft)
02.05.2017 04:20 3,1 °C 3,1 °C 91 % 1015,2 hPa 0,0 mm 5,2 km/h (1 Bft) W-SW 238 ° 0 min 0,000 mm 0,0 UV-I 0 W/m² 1,8 °C 1,8 °C 8,0 km/h (2 Bft)
02.05.2017 04:21 3,1 °C 3,1 °C 91 % 1015,3 hPa 0,0 mm 4,4 km/h (1 Bft) S-SW 213 ° 0 min 0,000 mm 0,0 UV-I 0 W/m² 1,8 °C 3,1 °C 6,4 km/h (2 Bft)
02.05.2017 04:22 3,1 °C 3,2 °C 91 % 1015,3 hPa 0,0 mm 5,2 km/h (1 Bft) S-SW 213 ° 0 min 0,000 mm 0,0 UV-I 0 W/m² 1,8 °C 1,8 °C 11,3 km/h (2 Bft)
02.05.2017 04:23 3,1 °C 3,1 °C 91 % 1015,3 hPa 0,0 mm 6,8 km/h (2 Bft) S-SW 206 ° 0 min 0,000 mm 0,0 UV-I 0 W/m² 1,8 °C 1,3 °C 14,5 km/h (3 Bft)
02.05.2017 04:24 3,1 °C 3,2 °C 91 % 1015,2 hPa 0,0 mm 7,6 km/h (2 Bft) W-SW 257 ° 0 min 0,000 mm 0,0 UV-I 0 W/m² 1,8 °C 1,0 °C 11,3 km/h (2 Bft)
02.05.2017 04:25 3,1 °C 3,1 °C 91 % 1015,2 hPa 0,0 mm 6,0 km/h (2 Bft) SW 227 ° 0 min 0,000 mm 0,0 UV-I 0 W/m² 1,8 °C 1,5 °C 11,3 km/h (2 Bft)
02.05.2017 04:26 3,2 °C 3,2 °C 91 % 1015,3 hPa 0,0 mm 3,4 km/h (1 Bft) W 260 ° 0 min 0,000 mm 0,0 UV-I 0 W/m² 1,9 °C 3,2 °C 6,4 km/h (2 Bft)
02.05.2017 04:27 3,1 °C 3,2 °C 91 % 1015,2 hPa 0,0 mm 6,5 km/h (2 Bft) W 265 ° 0 min 0,000 mm 0,0 UV-I 0 W/m² 1,8 °C 1,4 °C 12,9 km/h (3 Bft)
02.05.2017 04:28 3,1 °C 3,2 °C 91 % 1015,3 hPa 0,0 mm 5,9 km/h (2 Bft) SW 230 ° 0 min 0,000 mm 0,0 UV-I 0 W/m² 1,8 °C 1,6 °C 8,0 km/h (2 Bft)
02.05.2017 04:29 3,1 °C 3,2 °C 91 % 1015,2 hPa 0,0 mm 5,7 km/h (1 Bft) W 262 ° 0 min 0,000 mm 0,0 UV-I 0 W/m² 1,8 °C 1,6 °C 9,7 km/h (2 Bft)
02.05.2017 04:30 3,1 °C 3,1 °C 91 % 1015,2 hPa 0,0 mm 4,3 km/h (1 Bft) W-SW 238 ° 0 min 0,000 mm 0,0 UV-I 0 W/m² 1,8 °C 3,1 °C 6,4 km/h (2 Bft)
02.05.2017 04:31 3,1 °C 3,1 °C 91 % 1015,2 hPa 0,0 mm 5,3 km/h (1 Bft) W-SW 238 ° 0 min 0,000 mm 0,0 UV-I 0 W/m² 1,8 °C 1,8 °C 12,9 km/h (3 Bft)
02.05.2017 04:32 3,1 °C 3,1 °C 91 % 1015,2 hPa 0,0 mm 6,9 km/h (2 Bft) W-SW 247 ° 0 min 0,000 mm 0,0 UV-I 0 W/m² 1,8 °C 1,2 °C 14,5 km/h (3 Bft)
02.05.2017 04:33 3,1 °C 3,1 °C 91 % 1015,2 hPa 0,0 mm 4,8 km/h (1 Bft) S-SW 213 ° 0 min 0,000 mm 0,0 UV-I 0 W/m² 1,8 °C 2,0 °C 12,9 km/h (3 Bft)
02.05.2017 04:34 3,1 °C 3,1 °C 91 % 1015,1 hPa 0,0 mm 6,2 km/h (2 Bft) W 259 ° 0 min 0,000 mm 0,0 UV-I 0 W/m² 1,8 °C 1,5 °C 11,3 km/h (2 Bft)
02.05.2017 04:35 3,1 °C 3,1 °C 91 % 1015,1 hPa 0,0 mm 6,0 km/h (2 Bft) S-SW 199 ° 0 min 0,000 mm 0,0 UV-I 0 W/m² 1,8 °C 1,5 °C 8,0 km/h (2 Bft)
02.05.2017 04:36 3,1 °C 3,1 °C 91 % 1015,1 hPa 0,0 mm 4,7 km/h (1 Bft) SW 215 ° 0 min 0,000 mm 0,0 UV-I 0 W/m² 1,8 °C 2,1 °C 8,0 km/h (2 Bft)
02.05.2017 04:37 3,1 °C 3,1 °C 91 % 1015,1 hPa 0,0 mm 3,8 km/h (1 Bft) S-SW 213 ° 0 min 0,000 mm 0,0 UV-I 0 W/m² 1,8 °C 3,1 °C 6,4 km/h (2 Bft)
02.05.2017 04:38 3,1 °C 3,2 °C 91 % 1015,1 hPa 0,0 mm 2,3 km/h (1 Bft) W 263 ° 0 min 0,000 mm 0,0 UV-I 0 W/m² 1,8 °C 3,1 °C 4,8 km/h (1 Bft)
02.05.2017 04:39 3,1 °C 3,2 °C 91 % 1015,1 hPa 0,0 mm 4,4 km/h (1 Bft) W-SW 240 ° 0 min 0,000 mm 0,0 UV-I 0 W/m² 1,8 °C 3,1 °C 8,0 km/h (2 Bft)
02.05.2017 04:40 3,2 °C 3,2 °C 91 % 1015,2 hPa 0,0 mm 3,0 km/h (1 Bft) W-SW 257 ° 0 min 0,000 mm 0,0 UV-I 0 W/m² 1,9 °C 3,2 °C 8,0 km/h (2 Bft)
02.05.2017 04:41 3,2 °C 3,2 °C 91 % 1015,1 hPa 0,0 mm 7,2 km/h (2 Bft) S-SW 204 ° 0 min 0,000 mm 0,0 UV-I 0 W/m² 1,9 °C 1,3 °C 14,5 km/h (3 Bft)
02.05.2017 04:42 3,2 °C 3,2 °C 91 % 1015,2 hPa 0,0 mm 4,4 km/h (1 Bft) W-SW 238 ° 0 min 0,000 mm 0,0 UV-I 0 W/m² 1,9 °C 3,2 °C 8,0 km/h (2 Bft)
02.05.2017 04:43 3,2 °C 3,2 °C 91 % 1015,2 hPa 0,0 mm 4,6 km/h (1 Bft) SW 217 ° 0 min 0,000 mm 0,0 UV-I 0 W/m² 1,9 °C 2,2 °C 11,3 km/h (2 Bft)
02.05.2017 04:44 3,2 °C 3,2 °C 91 % 1015,2 hPa 0,0 mm 5,6 km/h (1 Bft) SW 229 ° 0 min 0,000 mm 0,0 UV-I 0 W/m² 1,9 °C 1,8 °C 9,7 km/h (2 Bft)
02.05.2017 04:45 3,2 °C 3,2 °C 90 % 1015,2 hPa 0,0 mm 7,2 km/h (2 Bft) W-SW 251 ° 0 min 0,000 mm 0,0 UV-I 0 W/m² 1,7 °C 1,3 °C 11,3 km/h (2 Bft)
02.05.2017 04:46 3,2 °C 3,2 °C 90 % 1015,3 hPa 0,0 mm 2,3 km/h (1 Bft) W 263 ° 0 min 0,000 mm 0,0 UV-I 0 W/m² 1,7 °C 3,2 °C 4,8 km/h (1 Bft)
02.05.2017 04:47 3,2 °C 3,2 °C 90 % 1015,3 hPa 0,0 mm 4,0 km/h (1 Bft) W-SW 249 ° 0 min 0,000 mm 0,0 UV-I 0 W/m² 1,7 °C 3,2 °C 6,4 km/h (2 Bft)
02.05.2017 04:48 3,2 °C 3,2 °C 91 % 1015,3 hPa 0,0 mm 4,3 km/h (1 Bft) W-SW 253 ° 0 min 0,000 mm 0,0 UV-I 0 W/m² 1,9 °C 3,2 °C 6,4 km/h (2 Bft)
02.05.2017 04:49 3,2 °C 3,2 °C 91 % 1015,3 hPa 0,0 mm 3,6 km/h (1 Bft) W-SW 239 ° 0 min 0,000 mm 0,0 UV-I 0 W/m² 1,9 °C 3,2 °C 4,8 km/h (1 Bft)
02.05.2017 04:50 3,2 °C 3,2 °C 91 % 1015,3 hPa 0,0 mm 7,6 km/h (2 Bft) W-SW 241 ° 0 min 0,000 mm 0,0 UV-I 0 W/m² 1,9 °C 1,1 °C 11,3 km/h (2 Bft)
02.05.2017 04:51 3,2 °C 3,2 °C 91 % 1015,3 hPa 0,0 mm 3,0 km/h (1 Bft) W-SW 244 ° 0 min 0,000 mm 0,0 UV-I 0 W/m² 1,9 °C 3,2 °C 4,8 km/h (1 Bft)
02.05.2017 04:52 3,2 °C 3,2 °C 91 % 1015,3 hPa 0,0 mm 4,3 km/h (1 Bft) SW 232 ° 0 min 0,000 mm 0,0 UV-I 0 W/m² 1,9 °C 3,2 °C 4,8 km/h (1 Bft)
02.05.2017 04:53 3,2 °C 3,2 °C 90 % 1015,3 hPa 0,0 mm 2,3 km/h (1 Bft) W-SW 238 ° 0 min 0,000 mm 0,0 UV-I 0 W/m² 1,7 °C 3,2 °C 4,8 km/h (1 Bft)
02.05.2017 04:54 3,2 °C 3,2 °C 90 % 1015,3 hPa 0,0 mm 2,6 km/h (1 Bft) S-SW 205 ° 0 min 0,000 mm 0,0 UV-I 0 W/m² 1,7 °C 3,2 °C 6,4 km/h (2 Bft)
02.05.2017 04:55 3,2 °C 3,2 °C 90 % 1015,3 hPa 0,0 mm 4,8 km/h (1 Bft) SW 222 ° 0 min 0,000 mm 0,0 UV-I 0 W/m² 1,7 °C 2,1 °C 9,7 km/h (2 Bft)
02.05.2017 04:56 3,2 °C 3,2 °C 90 % 1015,2 hPa 0,0 mm 1,9 km/h (1 Bft) SW 226 ° 0 min 0,000 mm 0,0 UV-I 0 W/m² 1,7 °C 3,2 °C 3,2 km/h (1 Bft)
02.05.2017 04:57 3,2 °C 3,2 °C 90 % 1015,3 hPa 0,0 mm 6,4 km/h (2 Bft) SW 234 ° 0 min 0,000 mm 0,0 UV-I 0 W/m² 1,7 °C 1,5 °C 11,3 km/h (2 Bft)
02.05.2017 04:58 3,2 °C 3,2 °C 90 % 1015,3 hPa 0,0 mm 5,0 km/h (1 Bft) S-SW 204 ° 0 min 0,000 mm 0,0 UV-I 0 W/m² 1,7 °C 2,0 °C 8,0 km/h (2 Bft)
02.05.2017 04:59 3,2 °C 3,2 °C 90 % 1015,2 hPa 0,0 mm 5,2 km/h (1 Bft) W-SW 253 ° 0 min 0,000 mm 0,0 UV-I 0 W/m² 1,7 °C 2,0 °C 8,0 km/h (2 Bft)
02.05.2017 05:00 3,2 °C 3,2 °C 90 % 1015,2 hPa 0,0 mm 4,9 km/h (1 Bft) W-SW 240 ° 0 min 0,000 mm 0,0 UV-I 0 W/m² 1,7 °C 2,1 °C 9,7 km/h (2 Bft)
02.05.2017 05:01 3,2 °C 3,2 °C 90 % 1015,3 hPa 0,0 mm 6,7 km/h (2 Bft) W 267 ° 0 min 0,000 mm 0,0 UV-I 0 W/m² 1,7 °C 1,4 °C 9,7 km/h (2 Bft)
02.05.2017 05:02 3,2 °C 3,2 °C 90 % 1015,3 hPa 0,0 mm 5,6 km/h (1 Bft) W-SW 243 ° 0 min 0,000 mm 0,0 UV-I 0 W/m² 1,7 °C 1,8 °C 8,0 km/h (2 Bft)
02.05.2017 05:03 3,2 °C 3,2 °C 90 % 1015,2 hPa 0,0 mm 6,8 km/h (2 Bft) W-SW 238 ° 0 min 0,000 mm 0,0 UV-I 0 W/m² 1,7 °C 1,4 °C 9,7 km/h (2 Bft)
02.05.2017 05:04 3,2 °C 3,2 °C 90 % 1015,3 hPa 0,0 mm 5,4 km/h (1 Bft) W-SW 248 ° 0 min 0,000 mm 0,0 UV-I 0 W/m² 1,7 °C 1,9 °C 9,7 km/h (2 Bft)
02.05.2017 05:05 3,2 °C 3,2 °C 90 % 1015,3 hPa 0,0 mm 5,2 km/h (1 Bft) W-SW 242 ° 0 min 0,000 mm 0,0 UV-I 0 W/m² 1,7 °C 2,0 °C 9,7 km/h (2 Bft)
02.05.2017 05:06 3,2 °C 3,2 °C 90 % 1015,3 hPa 0,2 mm 6,6 km/h (2 Bft) W-SW 241 ° 0 min 0,000 mm 0,0 UV-I 0 W/m² 1,7 °C 1,4 °C 12,9 km/h (3 Bft)
02.05.2017 05:07 3,2 °C 3,2 °C 90 % 1015,3 hPa 0,0 mm 4,0 km/h (1 Bft) SW 221 ° 0 min 0,000 mm 0,0 UV-I 0 W/m² 1,7 °C 3,2 °C 6,4 km/h (2 Bft)
02.05.2017 05:08 3,2 °C 3,2 °C 90 % 1015,3 hPa 0,0 mm 4,2 km/h (1 Bft) S-SW 195 ° 0 min 0,000 mm 0,0 UV-I 0 W/m² 1,7 °C 3,2 °C 8,0 km/h (2 Bft)
02.05.2017 05:09 3,2 °C 3,2 °C 90 % 1015,3 hPa 0,0 mm 4,4 km/h (1 Bft) W 267 ° 0 min 0,000 mm 0,0 UV-I 0 W/m² 1,7 °C 3,2 °C 4,8 km/h (1 Bft)
02.05.2017 05:10 3,2 °C 3,2 °C 90 % 1015,3 hPa 0,0 mm 6,9 km/h (2 Bft) W 263 ° 0 min 0,000 mm 0,0 UV-I 0 W/m² 1,7 °C 1,3 °C 11,3 km/h (2 Bft)
02.05.2017 05:11 3,2 °C 3,2 °C 90 % 1015,3 hPa 0,0 mm 5,5 km/h (1 Bft) S-SW 212 ° 0 min 0,000 mm 0,0 UV-I 0 W/m² 1,7 °C 1,8 °C 11,3 km/h (2 Bft)
02.05.2017 05:12 3,2 °C 3,2 °C 90 % 1015,3 hPa 0,0 mm 4,7 km/h (1 Bft) W-SW 252 ° 0 min 0,000 mm 0,0 UV-I 0 W/m² 1,7 °C 2,2 °C 8,0 km/h (2 Bft)
02.05.2017 05:13 3,2 °C 3,2 °C 90 % 1015,3 hPa 0,0 mm 4,2 km/h (1 Bft) S-SW 201 ° 0 min 0,000 mm 0,0 UV-I 0 W/m² 1,7 °C 3,2 °C 6,4 km/h (2 Bft)
02.05.2017 05:14 3,2 °C 3,2 °C 90 % 1015,4 hPa 0,0 mm 3,3 km/h (1 Bft) SW 225 ° 0 min 0,000 mm 0,0 UV-I 0 W/m² 1,7 °C 3,2 °C 6,4 km/h (2 Bft)
02.05.2017 05:15 3,2 °C 3,2 °C 90 % 1015,4 hPa 0,0 mm 3,7 km/h (1 Bft) W-SW 240 ° 0 min 0,000 mm 0,0 UV-I 0 W/m² 1,7 °C 3,2 °C 6,4 km/h (2 Bft)
02.05.2017 05:16 3,2 °C 3,2 °C 90 % 1015,4 hPa 0,0 mm 5,2 km/h (1 Bft) W-SW 249 ° 0 min 0,000 mm 0,0 UV-I 0 W/m² 1,7 °C 2,0 °C 8,0 km/h (2 Bft)
02.05.2017 05:17 3,2 °C 3,2 °C 90 % 1015,4 hPa 0,0 mm 4,0 km/h (1 Bft) W 263 ° 0 min 0,000 mm 0,0 UV-I 0 W/m² 1,7 °C 3,2 °C 8,0 km/h (2 Bft)
02.05.2017 05:18 3,1 °C 3,2 °C 90 % 1015,4 hPa 0,0 mm 2,7 km/h (1 Bft) W-SW 252 ° 0 min 0,000 mm 0,0 UV-I 0 W/m² 1,6 °C 3,1 °C 6,4 km/h (2 Bft)
02.05.2017 05:19 3,2 °C 3,2 °C 91 % 1015,4 hPa 0,0 mm 1,5 km/h (1 Bft) W-SW 248 ° 0 min 0,000 mm 0,0 UV-I 0 W/m² 1,9 °C 3,2 °C 3,2 km/h (1 Bft)
02.05.2017 05:20 3,2 °C 3,2 °C 91 % 1015,4 hPa 0,0 mm 2,2 km/h (1 Bft) S-SW 196 ° 0 min 0,000 mm 0,0 UV-I 0 W/m² 1,9 °C 3,2 °C 4,8 km/h (1 Bft)
02.05.2017 05:21 3,1 °C 3,2 °C 91 % 1015,4 hPa 0,0 mm 1,9 km/h (1 Bft) S-SW 200 ° 0 min 0,000 mm 0,0 UV-I 0 W/m² 1,8 °C 3,1 °C 6,4 km/h (2 Bft)
02.05.2017 05:22 3,1 °C 3,1 °C 91 % 1015,4 hPa 0,0 mm 5,5 km/h (1 Bft) W-SW 257 ° 0 min 0,000 mm 0,0 UV-I 0 W/m² 1,8 °C 1,7 °C 8,0 km/h (2 Bft)
02.05.2017 05:23 3,1 °C 3,1 °C 91 % 1015,4 hPa 0,0 mm 5,5 km/h (1 Bft) SW 227 ° 0 min 0,000 mm 0,0 UV-I 0 W/m² 1,8 °C 1,7 °C 6,4 km/h (2 Bft)
02.05.2017 05:24 3,1 °C 3,1 °C 91 % 1015,4 hPa 0,0 mm 5,3 km/h (1 Bft) SW 215 ° 0 min 0,000 mm 0,0 UV-I 0 W/m² 1,8 °C 1,8 °C 8,0 km/h (2 Bft)
02.05.2017 05:25 3,1 °C 3,1 °C 91 % 1015,4 hPa 0,0 mm 3,0 km/h (1 Bft) W-SW 246 ° 0 min 0,000 mm 0,0 UV-I 0 W/m² 1,8 °C 3,1 °C 4,8 km/h (1 Bft)
02.05.2017 05:26 3,1 °C 3,1 °C 91 % 1015,4 hPa 0,0 mm 5,0 km/h (1 Bft) SW 219 ° 0 min 0,000 mm 0,0 UV-I 0 W/m² 1,8 °C 1,9 °C 8,0 km/h (2 Bft)
02.05.2017 05:27 3,1 °C 3,1 °C 91 % 1015,4 hPa 0,2 mm 6,8 km/h (2 Bft) S-SW 206 ° 0 min 0,000 mm 0,0 UV-I 0 W/m² 1,8 °C 1,3 °C 12,9 km/h (3 Bft)
02.05.2017 05:28 3,1 °C 3,1 °C 91 % 1015,4 hPa 0,0 mm 4,1 km/h (1 Bft) S-SW 211 ° 0 min 0,000 mm 0,0 UV-I 0 W/m² 1,8 °C 3,1 °C 8,0 km/h (2 Bft)
02.05.2017 05:29 3,1 °C 3,1 °C 91 % 1015,4 hPa 0,0 mm 4,1 km/h (1 Bft) W-SW 254 ° 0 min 0,000 mm 0,0 UV-I 0 W/m² 1,8 °C 3,1 °C 8,0 km/h (2 Bft)
02.05.2017 05:30 3,1 °C 3,1 °C 91 % 1015,4 hPa 0,0 mm 2,8 km/h (1 Bft) SW 231 ° 0 min 0,000 mm 0,0 UV-I 0 W/m² 1,8 °C 3,1 °C 4,8 km/h (1 Bft)
02.05.2017 05:31 3,1 °C 3,1 °C 91 % 1015,4 hPa 0,0 mm 10,6 km/h (2 Bft) W 263 ° 0 min 0,000 mm 0,0 UV-I 0 W/m² 1,8 °C 0,3 °C 12,9 km/h (3 Bft)
02.05.2017 05:32 3,1 °C 3,1 °C 91 % 1015,4 hPa 0,0 mm 3,7 km/h (1 Bft) SW 220 ° 0 min 0,000 mm 0,0 UV-I 0 W/m² 1,8 °C 3,1 °C 8,0 km/h (2 Bft)
02.05.2017 05:33 3,1 °C 3,1 °C 91 % 1015,4 hPa 0,0 mm 4,0 km/h (1 Bft) SW 221 ° 0 min 0,000 mm 0,0 UV-I 0 W/m² 1,8 °C 3,1 °C 8,0 km/h (2 Bft)
02.05.2017 05:34 3,1 °C 3,1 °C 91 % 1015,5 hPa 0,0 mm 5,1 km/h (1 Bft) S-SW 205 ° 0 min 0,000 mm 0,0 UV-I 0 W/m² 1,8 °C 1,9 °C 9,7 km/h (2 Bft)
02.05.2017 05:35 3,1 °C 3,1 °C 91 % 1015,4 hPa 0,0 mm 5,4 km/h (1 Bft) SW 221 ° 0 min 0,000 mm 0,0 UV-I 0 W/m² 1,8 °C 1,8 °C 8,0 km/h (2 Bft)
02.05.2017 05:36 3,1 °C 3,1 °C 91 % 1015,4 hPa 0,0 mm 6,6 km/h (2 Bft) W-SW 255 ° 0 min 0,000 mm 0,0 UV-I 0 W/m² 1,8 °C 1,3 °C 14,5 km/h (3 Bft)
02.05.2017 05:37 3,1 °C 3,1 °C 91 % 1015,4 hPa 0,0 mm 2,7 km/h (1 Bft) S-SW 196 ° 0 min 0,000 mm 0,0 UV-I 0 W/m² 1,8 °C 3,1 °C 4,8 km/h (1 Bft)
02.05.2017 05:38 3,1 °C 3,1 °C 91 % 1015,4 hPa 0,0 mm 3,2 km/h (1 Bft) S 181 ° 0 min 0,000 mm 0,0 UV-I 0 W/m² 1,8 °C 3,1 °C 6,4 km/h (2 Bft)
02.05.2017 05:39 3,1 °C 3,1 °C 91 % 1015,4 hPa 0,2 mm 2,9 km/h (1 Bft) S-SW 200 ° 0 min 0,000 mm 0,0 UV-I 0 W/m² 1,8 °C 3,1 °C 4,8 km/h (1 Bft)
02.05.2017 05:40 3,1 °C 3,1 °C 91 % 1015,4 hPa 0,0 mm 2,1 km/h (1 Bft) W-SW 248 ° 0 min 0,000 mm 0,0 UV-I 0 W/m² 1,8 °C 3,1 °C 6,4 km/h (2 Bft)
02.05.2017 05:41 3,1 °C 3,1 °C 91 % 1015,4 hPa 0,0 mm 6,4 km/h (2 Bft) S-SW 202 ° 0 min 0,000 mm 0,0 UV-I 0 W/m² 1,8 °C 1,4 °C 11,3 km/h (2 Bft)
02.05.2017 05:42 3,1 °C 3,1 °C 91 % 1015,4 hPa 0,0 mm 3,6 km/h (1 Bft) SW 224 ° 0 min 0,000 mm 0,0 UV-I 0 W/m² 1,8 °C 3,1 °C 6,4 km/h (2 Bft)
02.05.2017 05:43 3,1 °C 3,1 °C 91 % 1015,4 hPa 0,0 mm 3,2 km/h (1 Bft) W-SW 252 ° 0 min 0,000 mm 0,0 UV-I 0 W/m² 1,8 °C 3,1 °C 11,3 km/h (2 Bft)
02.05.2017 05:44 3,1 °C 3,1 °C 91 % 1015,4 hPa 0,0 mm 2,7 km/h (1 Bft) W-SW 242 ° 0 min 0,000 mm 0,0 UV-I 0 W/m² 1,8 °C 3,1 °C 11,3 km/h (2 Bft)
02.05.2017 05:45 3,1 °C 3,1 °C 91 % 1015,4 hPa 0,0 mm 2,9 km/h (1 Bft) W 270 ° 0 min 0,000 mm 0,0 UV-I 0 W/m² 1,8 °C 3,1 °C 4,8 km/h (1 Bft)
02.05.2017 05:46 3,1 °C 3,1 °C 91 % 1015,4 hPa 0,0 mm 4,7 km/h (1 Bft) SW 217 ° 0 min 0,000 mm 0,0 UV-I 0 W/m² 1,8 °C 2,1 °C 8,0 km/h (2 Bft)
02.05.2017 05:47 3,1 °C 3,1 °C 91 % 1015,4 hPa 0,0 mm 4,7 km/h (1 Bft) W-SW 245 ° 0 min 0,000 mm 0,0 UV-I 0 W/m² 1,8 °C 2,1 °C 6,4 km/h (2 Bft)
02.05.2017 05:48 3,1 °C 3,1 °C 91 % 1015,5 hPa 0,0 mm 3,2 km/h (1 Bft) SW 230 ° 0 min 0,000 mm 0,0 UV-I 0 W/m² 1,8 °C 3,1 °C 4,8 km/h (1 Bft)
02.05.2017 05:49 3,1 °C 3,1 °C 91 % 1015,4 hPa 0,0 mm 4,7 km/h (1 Bft) S-SW 206 ° 0 min 0,000 mm 0,0 UV-I 0 W/m² 1,8 °C 2,1 °C 8,0 km/h (2 Bft)
02.05.2017 05:50 3,1 °C 3,1 °C 91 % 1015,4 hPa 0,0 mm 4,8 km/h (1 Bft) W-SW 238 ° 0 min 0,000 mm 0,0 UV-I 0 W/m² 1,8 °C 2,0 °C 9,7 km/h (2 Bft)
02.05.2017 05:51 3,1 °C 3,1 °C 91 % 1015,4 hPa 0,0 mm 2,6 km/h (1 Bft) W-SW 238 ° 0 min 0,000 mm 0,0 UV-I 0 W/m² 1,8 °C 3,1 °C 4,8 km/h (1 Bft)
02.05.2017 05:52 3,1 °C 3,1 °C 91 % 1015,5 hPa 0,0 mm 3,8 km/h (1 Bft) S 187 ° 0 min 0,000 mm 0,0 UV-I 0 W/m² 1,8 °C 3,1 °C 6,4 km/h (2 Bft)
02.05.2017 05:53 3,1 °C 3,1 °C 91 % 1015,5 hPa 0,0 mm 6,0 km/h (2 Bft) W-SW 243 ° 0 min 0,000 mm 0,0 UV-I 0 W/m² 1,8 °C 1,5 °C 11,3 km/h (2 Bft)
02.05.2017 05:54 3,1 °C 3,1 °C 91 % 1015,4 hPa 0,2 mm 4,0 km/h (1 Bft) W-SW 246 ° 0 min 0,000 mm 0,0 UV-I 0 W/m² 1,8 °C 3,1 °C 6,4 km/h (2 Bft)
02.05.2017 05:55 3,1 °C 3,1 °C 91 % 1015,4 hPa 0,0 mm 4,6 km/h (1 Bft) S-SW 200 ° 0 min 0,000 mm 0,0 UV-I 0 W/m² 1,8 °C 2,1 °C 6,4 km/h (2 Bft)
02.05.2017 05:56 3,1 °C 3,1 °C 91 % 1015,5 hPa 0,0 mm 3,8 km/h (1 Bft) W-SW 244 ° 0 min 0,000 mm 0,0 UV-I 0 W/m² 1,8 °C 3,1 °C 6,4 km/h (2 Bft)
02.05.2017 05:57 3,1 °C 3,1 °C 91 % 1015,4 hPa 0,0 mm 2,9 km/h (1 Bft) W-SW 241 ° 0 min 0,000 mm 0,0 UV-I 0 W/m² 1,8 °C 3,1 °C 6,4 km/h (2 Bft)
02.05.2017 05:58 3,1 °C 3,1 °C 91 % 1015,4 hPa 0,0 mm 3,4 km/h (1 Bft) W-SW 246 ° 0 min 0,000 mm 0,0 UV-I 0 W/m² 1,8 °C 3,1 °C 4,8 km/h (1 Bft)
02.05.2017 05:59 3,0 °C 3,1 °C 91 % 1015,5 hPa 0,0 mm 1,9 km/h (1 Bft) SW 217 ° 0 min 0,000 mm 0,0 UV-I 0 W/m² 1,7 °C 3,0 °C 4,8 km/h (1 Bft)
02.05.2017 06:00 3,0 °C 3,1 °C 91 % 1015,5 hPa 0,0 mm 4,0 km/h (1 Bft) S-SW 203 ° 0 min 0,000 mm 0,0 UV-I 0 W/m² 1,7 °C 3,0 °C 9,7 km/h (2 Bft)
02.05.2017 06:01 3,1 °C 3,1 °C 91 % 1015,5 hPa 0,0 mm 3,6 km/h (1 Bft) S-SW 210 ° 0 min 0,000 mm 0,0 UV-I 0 W/m² 1,8 °C 3,1 °C 8,0 km/h (2 Bft)
02.05.2017 06:02 3,0 °C 3,1 °C 91 % 1015,5 hPa 0,0 mm 3,6 km/h (1 Bft) S-SW 197 ° 0 min 0,000 mm 0,0 UV-I 0 W/m² 1,7 °C 3,0 °C 6,4 km/h (2 Bft)
02.05.2017 06:03 3,0 °C 3,1 °C 91 % 1015,5 hPa 0,0 mm 5,1 km/h (1 Bft) S-SW 196 ° 0 min 0,000 mm 0,0 UV-I 0 W/m² 1,7 °C 1,8 °C 8,0 km/h (2 Bft)
02.05.2017 06:04 3,0 °C 3,0 °C 91 % 1015,5 hPa 0,0 mm 5,9 km/h (2 Bft) S-SW 209 ° 0 min 0,000 mm 0,0 UV-I 0 W/m² 1,7 °C 1,5 °C 9,7 km/h (2 Bft)
02.05.2017 06:05 3,0 °C 3,0 °C 91 % 1015,5 hPa 0,0 mm 2,9 km/h (1 Bft) S-SW 209 ° 0 min 0,000 mm 0,0 UV-I 0 W/m² 1,7 °C 3,0 °C 4,8 km/h (1 Bft)
02.05.2017 06:06 3,0 °C 3,0 °C 91 % 1015,5 hPa 0,0 mm 3,4 km/h (1 Bft) S-SW 207 ° 0 min 0,000 mm 0,0 UV-I 0 W/m² 1,7 °C 3,0 °C 4,8 km/h (1 Bft)
02.05.2017 06:07 2,9 °C 3,0 °C 92 % 1015,5 hPa 0,0 mm 5,6 km/h (1 Bft) S-SW 196 ° 0 min 0,000 mm 0,0 UV-I 0 W/m² 1,7 °C 1,5 °C 8,0 km/h (2 Bft)
02.05.2017 06:08 2,9 °C 3,0 °C 91 % 1015,5 hPa 0,0 mm 3,2 km/h (1 Bft) S-SW 198 ° 0 min 0,000 mm 0,0 UV-I 5 W/m² 1,6 °C 2,9 °C 4,8 km/h (1 Bft)
02.05.2017 06:09 3,0 °C 3,0 °C 91 % 1015,5 hPa 0,0 mm 1,7 km/h (1 Bft) S-SW 198 ° 0 min 0,000 mm 0,0 UV-I 5 W/m² 1,7 °C 3,0 °C 3,2 km/h (1 Bft)
02.05.2017 06:10 2,9 °C 3,0 °C 92 % 1015,4 hPa 0,0 mm 2,7 km/h (1 Bft) S-SW 198 ° 0 min 0,000 mm 0,0 UV-I 5 W/m² 1,7 °C 2,9 °C 4,8 km/h (1 Bft)
02.05.2017 06:11 2,9 °C 2,9 °C 91 % 1015,5 hPa 0,0 mm 4,2 km/h (1 Bft) S 190 ° 0 min 0,000 mm 0,0 UV-I 5 W/m² 1,6 °C 2,9 °C 8,0 km/h (2 Bft)
02.05.2017 06:12 2,9 °C 2,9 °C 92 % 1015,4 hPa 0,0 mm 2,5 km/h (1 Bft) S-SW 200 ° 0 min 0,000 mm 0,0 UV-I 5 W/m² 1,7 °C 2,9 °C 8,0 km/h (2 Bft)
02.05.2017 06:13 2,9 °C 2,9 °C 92 % 1015,5 hPa 0,0 mm 5,6 km/h (1 Bft) S-SW 196 ° 0 min 0,000 mm 0,0 UV-I 5 W/m² 1,7 °C 1,5 °C 9,7 km/h (2 Bft)
02.05.2017 06:14 2,9 °C 2,9 °C 92 % 1015,5 hPa 0,0 mm 3,6 km/h (1 Bft) S-SW 197 ° 0 min 0,000 mm 0,0 UV-I 5 W/m² 1,7 °C 2,9 °C 6,4 km/h (2 Bft)
02.05.2017 06:15 2,9 °C 2,9 °C 92 % 1015,5 hPa 0,0 mm 4,9 km/h (1 Bft) S-SW 207 ° 0 min 0,000 mm 0,0 UV-I 5 W/m² 1,7 °C 1,7 °C 6,4 km/h (2 Bft)
02.05.2017 06:16 2,9 °C 2,9 °C 92 % 1015,5 hPa 0,0 mm 2,8 km/h (1 Bft) S-SW 207 ° 0 min 0,000 mm 0,0 UV-I 5 W/m² 1,7 °C 2,9 °C 4,8 km/h (1 Bft)
02.05.2017 06:17 2,9 °C 3,0 °C 92 % 1015,5 hPa 0,0 mm 2,0 km/h (1 Bft) S-SW 207 ° 0 min 0,000 mm 0,0 UV-I 5 W/m² 1,7 °C 2,9 °C 3,2 km/h (1 Bft)
02.05.2017 06:18 2,9 °C 2,9 °C 92 % 1015,5 hPa 0,0 mm 2,7 km/h (1 Bft) W-SW 242 ° 0 min 0,000 mm 0,0 UV-I 7 W/m² 1,7 °C 2,9 °C 4,8 km/h (1 Bft)
02.05.2017 06:19 2,9 °C 2,9 °C 92 % 1015,6 hPa 0,0 mm 1,7 km/h (1 Bft) W-SW 242 ° 0 min 0,000 mm 0,0 UV-I 7 W/m² 1,7 °C 2,9 °C 3,2 km/h (1 Bft)
02.05.2017 06:20 2,9 °C 2,9 °C 92 % 1015,6 hPa 0,0 mm 0,8 km/h (0 Bft) W-SW 242 ° 0 min 0,000 mm 0,0 UV-I 7 W/m² 1,7 °C 2,9 °C 1,6 km/h (1 Bft)
02.05.2017 06:21 2,9 °C 3,0 °C 92 % 1015,6 hPa 0,0 mm 3,6 km/h (1 Bft) W-SW 238 ° 0 min 0,000 mm 0,0 UV-I 7 W/m² 1,7 °C 2,9 °C 6,4 km/h (2 Bft)
02.05.2017 06:22 3,0 °C 3,0 °C 92 % 1015,6 hPa 0,0 mm 2,5 km/h (1 Bft) SW 227 ° 0 min 0,000 mm 0,0 UV-I 7 W/m² 1,8 °C 3,0 °C 6,4 km/h (2 Bft)
02.05.2017 06:23 2,9 °C 3,0 °C 92 % 1015,6 hPa 0,0 mm 0,2 km/h (0 Bft) SW 227 ° 0 min 0,000 mm 0,0 UV-I 11 W/m² 1,7 °C 2,9 °C 1,6 km/h (1 Bft)
02.05.2017 06:24 3,0 °C 3,0 °C 92 % 1015,6 hPa 0,0 mm 0,0 km/h (0 Bft) SW 227 ° 0 min 0,000 mm 0,0 UV-I 11 W/m² 1,8 °C 3,0 °C 0,0 km/h (0 Bft)
02.05.2017 06:25 3,0 °C 3,0 °C 92 % 1015,6 hPa 0,0 mm 1,9 km/h (1 Bft) SW 227 ° 0 min 0,000 mm 0,0 UV-I 11 W/m² 1,8 °C 3,0 °C 3,2 km/h (1 Bft)
02.05.2017 06:26 3,0 °C 3,0 °C 92 % 1015,6 hPa 0,0 mm 2,0 km/h (1 Bft) W-SW 239 ° 0 min 0,000 mm 0,0 UV-I 11 W/m² 1,8 °C 3,0 °C 3,2 km/h (1 Bft)
02.05.2017 06:27 3,0 °C 3,1 °C 92 % 1015,6 hPa 0,0 mm 1,2 km/h (1 Bft) W-SW 239 ° 0 min 0,000 mm 0,0 UV-I 11 W/m² 1,8 °C 3,0 °C 3,2 km/h (1 Bft)
02.05.2017 06:28 3,0 °C 3,1 °C 92 % 1015,6 hPa 0,0 mm 2,4 km/h (1 Bft) W-SW 239 ° 0 min 0,000 mm 0,0 UV-I 12 W/m² 1,8 °C 3,0 °C 4,8 km/h (1 Bft)
02.05.2017 06:29 3,0 °C 3,1 °C 92 % 1015,6 hPa 0,0 mm 0,9 km/h (0 Bft) W-SW 239 ° 0 min 0,000 mm 0,0 UV-I 12 W/m² 1,8 °C 3,0 °C 3,2 km/h (1 Bft)
02.05.2017 06:30 3,1 °C 3,1 °C 92 % 1015,6 hPa 0,0 mm 1,9 km/h (1 Bft) W-SW 244 ° 0 min 0,000 mm 0,0 UV-I 14 W/m² 1,9 °C 3,1 °C 6,4 km/h (2 Bft)
02.05.2017 06:31 3,1 °C 3,1 °C 92 % 1015,6 hPa 0,0 mm 4,4 km/h (1 Bft) W-SW 252 ° 0 min 0,000 mm 0,0 UV-I 14 W/m² 1,9 °C 3,1 °C 6,4 km/h (2 Bft)
02.05.2017 06:32 3,1 °C 3,1 °C 92 % 1015,6 hPa 0,0 mm 3,2 km/h (1 Bft) W-SW 237 ° 0 min 0,000 mm 0,0 UV-I 14 W/m² 1,9 °C 3,1 °C 4,8 km/h (1 Bft)
02.05.2017 06:33 3,1 °C 3,1 °C 92 % 1015,6 hPa 0,0 mm 3,6 km/h (1 Bft) SW 231 ° 0 min 0,000 mm 0,0 UV-I 16 W/m² 1,9 °C 3,1 °C 6,4 km/h (2 Bft)
02.05.2017 06:34 3,1 °C 3,1 °C 92 % 1015,6 hPa 0,0 mm 3,2 km/h (1 Bft) SW 233 ° 0 min 0,000 mm 0,0 UV-I 16 W/m² 1,9 °C 3,1 °C 4,8 km/h (1 Bft)
02.05.2017 06:35 3,1 °C 3,1 °C 92 % 1015,6 hPa 0,0 mm 4,3 km/h (1 Bft) W 262 ° 0 min 0,000 mm 0,0 UV-I 16 W/m² 1,9 °C 3,1 °C 9,7 km/h (2 Bft)
02.05.2017 06:36 3,1 °C 3,1 °C 92 % 1015,6 hPa 0,0 mm 3,9 km/h (1 Bft) W-SW 242 ° 0 min 0,000 mm 0,0 UV-I 16 W/m² 1,9 °C 3,1 °C 6,4 km/h (2 Bft)
02.05.2017 06:37 3,1 °C 3,1 °C 92 % 1015,6 hPa 0,0 mm 3,2 km/h (1 Bft) W-SW 246 ° 0 min 0,000 mm 0,0 UV-I 18 W/m² 1,9 °C 3,1 °C 4,8 km/h (1 Bft)
02.05.2017 06:38 3,2 °C 3,2 °C 92 % 1015,6 hPa 0,0 mm 4,4 km/h (1 Bft) W 265 ° 0 min 0,000 mm 0,0 UV-I 18 W/m² 2,0 °C 3,2 °C 6,4 km/h (2 Bft)
02.05.2017 06:39 3,2 °C 3,2 °C 91 % 1015,6 hPa 0,0 mm 6,0 km/h (2 Bft) W 265 ° 0 min 0,000 mm 0,0 UV-I 19 W/m² 1,9 °C 1,7 °C 9,7 km/h (2 Bft)
02.05.2017 06:40 3,2 °C 3,2 °C 91 % 1015,6 hPa 0,0 mm 7,7 km/h (2 Bft) W 259 ° 0 min 0,000 mm 0,0 UV-I 21 W/m² 1,9 °C 1,1 °C 14,5 km/h (3 Bft)
02.05.2017 06:41 3,2 °C 3,2 °C 91 % 1015,6 hPa 0,0 mm 8,2 km/h (2 Bft) W-NW 283 ° 0 min 0,000 mm 0,0 UV-I 21 W/m² 1,9 °C 1,0 °C 14,5 km/h (3 Bft)
02.05.2017 06:42 3,2 °C 3,2 °C 91 % 1015,6 hPa 0,0 mm 8,2 km/h (2 Bft) W-SW 243 ° 0 min 0,000 mm 0,0 UV-I 19 W/m² 1,9 °C 1,0 °C 12,9 km/h (3 Bft)
02.05.2017 06:43 3,2 °C 3,2 °C 91 % 1015,7 hPa 0,0 mm 8,0 km/h (2 Bft) W 279 ° 0 min 0,000 mm 0,0 UV-I 19 W/m² 1,9 °C 1,0 °C 12,9 km/h (3 Bft)
02.05.2017 06:44 3,2 °C 3,2 °C 91 % 1015,7 hPa 0,0 mm 6,6 km/h (2 Bft) W-SW 252 ° 0 min 0,000 mm 0,0 UV-I 19 W/m² 1,9 °C 1,4 °C 11,3 km/h (2 Bft)
02.05.2017 06:45 3,2 °C 3,2 °C 91 % 1015,7 hPa 0,0 mm 5,5 km/h (1 Bft) W 279 ° 0 min 0,000 mm 0,0 UV-I 19 W/m² 1,9 °C 1,8 °C 6,4 km/h (2 Bft)
02.05.2017 06:46 3,2 °C 3,2 °C 91 % 1015,7 hPa 0,0 mm 11,5 km/h (2 Bft) W 275 ° 0 min 0,000 mm 0,0 UV-I 21 W/m² 1,9 °C 0,2 °C 16,1 km/h (3 Bft)
02.05.2017 06:47 3,2 °C 3,2 °C 91 % 1015,8 hPa 0,0 mm 7,1 km/h (2 Bft) W 268 ° 0 min 0,000 mm 0,0 UV-I 21 W/m² 1,9 °C 1,3 °C 11,3 km/h (2 Bft)
02.05.2017 06:48 3,2 °C 3,2 °C 92 % 1015,8 hPa 0,2 mm 6,5 km/h (2 Bft) W-SW 257 ° 0 min 0,000 mm 0,0 UV-I 21 W/m² 2,0 °C 1,5 °C 11,3 km/h (2 Bft)
02.05.2017 06:49 3,2 °C 3,2 °C 92 % 1015,8 hPa 0,0 mm 6,1 km/h (2 Bft) W 259 ° 0 min 0,000 mm 0,0 UV-I 21 W/m² 2,0 °C 1,6 °C 9,7 km/h (2 Bft)
02.05.2017 06:50 3,2 °C 3,2 °C 92 % 1015,8 hPa 0,0 mm 7,1 km/h (2 Bft) W-SW 238 ° 0 min 0,000 mm 0,0 UV-I 23 W/m² 2,0 °C 1,3 °C 12,9 km/h (3 Bft)
02.05.2017 06:51 3,2 °C 3,2 °C 92 % 1015,8 hPa 0,0 mm 4,7 km/h (1 Bft) SW 225 ° 0 min 0,000 mm 0,0 UV-I 25 W/m² 2,0 °C 2,2 °C 8,0 km/h (2 Bft)
02.05.2017 06:52 3,2 °C 3,2 °C 92 % 1015,9 hPa 0,0 mm 6,5 km/h (2 Bft) W 261 ° 0 min 0,000 mm 0,0 UV-I 26 W/m² 2,0 °C 1,5 °C 11,3 km/h (2 Bft)
02.05.2017 06:53 3,2 °C 3,2 °C 92 % 1015,9 hPa 0,0 mm 8,2 km/h (2 Bft) W 260 ° 0 min 0,000 mm 0,0 UV-I 30 W/m² 2,0 °C 1,0 °C 16,1 km/h (3 Bft)
02.05.2017 06:54 3,1 °C 3,2 °C 92 % 1015,9 hPa 0,0 mm 10,7 km/h (2 Bft) W 264 ° 0 min 0,000 mm 0,0 UV-I 30 W/m² 1,9 °C 0,2 °C 17,7 km/h (3 Bft)
02.05.2017 06:55 3,1 °C 3,2 °C 92 % 1015,9 hPa 0,0 mm 4,5 km/h (1 Bft) SW 231 ° 0 min 0,000 mm 0,0 UV-I 32 W/m² 1,9 °C 3,1 °C 6,4 km/h (2 Bft)
02.05.2017 06:56 3,1 °C 3,2 °C 92 % 1015,8 hPa 0,0 mm 7,4 km/h (2 Bft) W 271 ° 0 min 0,000 mm 0,0 UV-I 33 W/m² 1,9 °C 1,1 °C 12,9 km/h (3 Bft)
02.05.2017 06:57 3,1 °C 3,1 °C 92 % 1015,9 hPa 0,0 mm 7,9 km/h (2 Bft) W 264 ° 0 min 0,000 mm 0,0 UV-I 33 W/m² 1,9 °C 0,9 °C 11,3 km/h (2 Bft)
02.05.2017 06:58 3,1 °C 3,1 °C 92 % 1015,9 hPa 0,0 mm 5,8 km/h (2 Bft) S-SW 197 ° 0 min 0,000 mm 0,0 UV-I 35 W/m² 1,9 °C 1,6 °C 8,0 km/h (2 Bft)
02.05.2017 06:59 3,1 °C 3,1 °C 92 % 1015,9 hPa 0,2 mm 6,0 km/h (2 Bft) W-SW 258 ° 0 min 0,000 mm 0,0 UV-I 39 W/m² 1,9 °C 1,5 °C 11,3 km/h (2 Bft)
02.05.2017 07:00 3,1 °C 3,1 °C 92 % 1015,9 hPa 0,0 mm 3,1 km/h (1 Bft) W-NW 283 ° 0 min 0,000 mm 0,0 UV-I 40 W/m² 1,9 °C 3,1 °C 6,4 km/h (2 Bft)
02.05.2017 07:01 3,1 °C 3,1 °C 92 % 1015,9 hPa 0,0 mm 3,6 km/h (1 Bft) W 273 ° 0 min 0,000 mm 0,0 UV-I 40 W/m² 1,9 °C 3,1 °C 6,4 km/h (2 Bft)
02.05.2017 07:02 3,1 °C 3,1 °C 92 % 1016,0 hPa 0,0 mm 3,5 km/h (1 Bft) W-SW 257 ° 0 min 0,000 mm 0,0 UV-I 40 W/m² 1,9 °C 3,1 °C 6,4 km/h (2 Bft)
02.05.2017 07:03 3,1 °C 3,1 °C 92 % 1015,9 hPa 0,0 mm 3,9 km/h (1 Bft) W 267 ° 0 min 0,000 mm 0,0 UV-I 40 W/m² 1,9 °C 3,1 °C 4,8 km/h (1 Bft)
02.05.2017 07:04 3,1 °C 3,1 °C 92 % 1016,0 hPa 0,0 mm 6,1 km/h (2 Bft) W 269 ° 0 min 0,000 mm 0,0 UV-I 42 W/m² 1,9 °C 1,5 °C 11,3 km/h (2 Bft)
02.05.2017 07:05 3,1 °C 3,1 °C 92 % 1016,0 hPa 0,0 mm 5,7 km/h (1 Bft) W-NW 285 ° 0 min 0,000 mm 0,0 UV-I 42 W/m² 1,9 °C 1,6 °C 9,7 km/h (2 Bft)
02.05.2017 07:06 3,1 °C 3,1 °C 92 % 1016,0 hPa 0,0 mm 6,8 km/h (2 Bft) W 259 ° 0 min 0,000 mm 0,0 UV-I 40 W/m² 1,9 °C 1,3 °C 9,7 km/h (2 Bft)
02.05.2017 07:07 3,1 °C 3,2 °C 92 % 1016,0 hPa 0,0 mm 5,2 km/h (1 Bft) W-SW 240 ° 0 min 0,000 mm 0,0 UV-I 39 W/m² 1,9 °C 1,8 °C 6,4 km/h (2 Bft)
02.05.2017 07:08 3,1 °C 3,1 °C 92 % 1016,0 hPa 0,0 mm 3,8 km/h (1 Bft) W-SW 252 ° 0 min 0,000 mm 0,0 UV-I 37 W/m² 1,9 °C 3,1 °C 8,0 km/h (2 Bft)
02.05.2017 07:09 3,1 °C 3,1 °C 92 % 1016,0 hPa 0,0 mm 5,4 km/h (1 Bft) W 277 ° 0 min 0,000 mm 0,0 UV-I 35 W/m² 1,9 °C 1,8 °C 9,7 km/h (2 Bft)
02.05.2017 07:10 3,1 °C 3,2 °C 92 % 1016,1 hPa 0,0 mm 6,8 km/h (2 Bft) W 263 ° 0 min 0,000 mm 0,0 UV-I 33 W/m² 1,9 °C 1,3 °C 11,3 km/h (2 Bft)
02.05.2017 07:11 3,1 °C 3,2 °C 92 % 1016,0 hPa 0,0 mm 6,0 km/h (2 Bft) W 273 ° 0 min 0,000 mm 0,0 UV-I 35 W/m² 1,9 °C 1,5 °C 9,7 km/h (2 Bft)
02.05.2017 07:12 3,1 °C 3,2 °C 92 % 1016,0 hPa 0,0 mm 4,6 km/h (1 Bft) W 266 ° 0 min 0,000 mm 0,0 UV-I 35 W/m² 1,9 °C 2,1 °C 6,4 km/h (2 Bft)
02.05.2017 07:13 3,2 °C 3,2 °C 92 % 1016,0 hPa 0,0 mm 5,6 km/h (1 Bft) W-NW 287 ° 0 min 0,000 mm 0,0 UV-I 37 W/m² 2,0 °C 1,8 °C 11,3 km/h (2 Bft)
02.05.2017 07:14 3,2 °C 3,2 °C 93 % 1015,9 hPa 0,0 mm 10,4 km/h (2 Bft) W-SW 254 ° 0 min 0,000 mm 0,0 UV-I 40 W/m² 2,2 °C 0,4 °C 14,5 km/h (3 Bft)
02.05.2017 07:15 3,1 °C 3,2 °C 92 % 1016,0 hPa 0,0 mm 5,8 km/h (2 Bft) W 264 ° 0 min 0,000 mm 0,0 UV-I 44 W/m² 1,9 °C 1,6 °C 11,3 km/h (2 Bft)
02.05.2017 07:16 3,1 °C 3,1 °C 92 % 1016,0 hPa 0,0 mm 6,4 km/h (2 Bft) W-NW 285 ° 0 min 0,000 mm 0,0 UV-I 46 W/m² 1,9 °C 1,4 °C 9,7 km/h (2 Bft)
02.05.2017 07:17 3,1 °C 3,1 °C 92 % 1016,0 hPa 0,0 mm 5,3 km/h (1 Bft) W-SW 247 ° 0 min 0,000 mm 0,0 UV-I 47 W/m² 1,9 °C 1,8 °C 6,4 km/h (2 Bft)
02.05.2017 07:18 3,1 °C 3,2 °C 92 % 1016,0 hPa 0,0 mm 4,1 km/h (1 Bft) W-SW 246 ° 0 min 0,000 mm 0,0 UV-I 49 W/m² 1,9 °C 3,1 °C 6,4 km/h (2 Bft)
02.05.2017 07:19 3,1 °C 3,2 °C 92 % 1016,0 hPa 0,0 mm 4,5 km/h (1 Bft) W 267 ° 0 min 0,000 mm 0,0 UV-I 49 W/m² 1,9 °C 3,1 °C 11,3 km/h (2 Bft)
02.05.2017 07:20 3,2 °C 3,2 °C 92 % 1015,9 hPa 0,0 mm 5,0 km/h (1 Bft) W 273 ° 0 min 0,000 mm 0,0 UV-I 51 W/m² 2,0 °C 2,0 °C 9,7 km/h (2 Bft)
02.05.2017 07:21 3,2 °C 3,2 °C 92 % 1016,0 hPa 0,0 mm 2,9 km/h (1 Bft) W-SW 258 ° 0 min 0,000 mm 0,0 UV-I 53 W/m² 2,0 °C 3,2 °C 9,7 km/h (2 Bft)
02.05.2017 07:22 3,2 °C 3,2 °C 92 % 1015,9 hPa 0,0 mm 5,9 km/h (2 Bft) S-SW 207 ° 0 min 0,000 mm 0,0 UV-I 58 W/m² 2,0 °C 1,7 °C 11,3 km/h (2 Bft)
02.05.2017 07:23 3,2 °C 3,2 °C 92 % 1015,9 hPa 0,0 mm 6,9 km/h (2 Bft) W-SW 239 ° 0 min 0,000 mm 0,0 UV-I 60 W/m² 2,0 °C 1,3 °C 11,3 km/h (2 Bft)
02.05.2017 07:24 3,2 °C 3,2 °C 92 % 1015,9 hPa 0,0 mm 7,7 km/h (2 Bft) W 259 ° 0 min 0,000 mm 0,0 UV-I 63 W/m² 2,0 °C 1,1 °C 14,5 km/h (3 Bft)
02.05.2017 07:25 3,3 °C 3,3 °C 92 % 1015,9 hPa 0,0 mm 7,9 km/h (2 Bft) W 265 ° 0 min 0,000 mm 0,0 UV-I 67 W/m² 2,1 °C 1,2 °C 14,5 km/h (3 Bft)
02.05.2017 07:26 3,3 °C 3,3 °C 92 % 1015,9 hPa 0,0 mm 4,1 km/h (1 Bft) W 261 ° 0 min 0,000 mm 0,0 UV-I 69 W/m² 2,1 °C 3,3 °C 4,8 km/h (1 Bft)
02.05.2017 07:27 3,3 °C 3,3 °C 92 % 1015,9 hPa 0,0 mm 5,4 km/h (1 Bft) W-SW 248 ° 0 min 0,000 mm 0,0 UV-I 70 W/m² 2,1 °C 2,0 °C 11,3 km/h (2 Bft)
02.05.2017 07:28 3,3 °C 3,3 °C 92 % 1015,9 hPa 0,0 mm 3,8 km/h (1 Bft) W 267 ° 0 min 0,000 mm 0,0 UV-I 77 W/m² 2,1 °C 3,3 °C 6,4 km/h (2 Bft)
02.05.2017 07:29 3,3 °C 3,4 °C 92 % 1015,8 hPa 0,0 mm 5,0 km/h (1 Bft) W-SW 252 ° 0 min 0,000 mm 0,0 UV-I 81 W/m² 2,1 °C 2,2 °C 6,4 km/h (2 Bft)
02.05.2017 07:30 3,3 °C 3,4 °C 92 % 1015,8 hPa 0,0 mm 4,9 km/h (1 Bft) W 267 ° 0 min 0,000 mm 0,0 UV-I 81 W/m² 2,1 °C 2,2 °C 9,7 km/h (2 Bft)
02.05.2017 07:31 3,4 °C 3,4 °C 92 % 1015,8 hPa 0,0 mm 3,1 km/h (1 Bft) W-SW 249 ° 0 min 0,000 mm 0,0 UV-I 84 W/m² 2,2 °C 3,4 °C 6,4 km/h (2 Bft)
02.05.2017 07:32 3,4 °C 3,4 °C 92 % 1015,8 hPa 0,0 mm 0,6 km/h (0 Bft) W-SW 249 ° 0 min 0,000 mm 0,0 UV-I 86 W/m² 2,2 °C 3,4 °C 1,6 km/h (1 Bft)
02.05.2017 07:33 3,4 °C 3,4 °C 92 % 1015,8 hPa 0,0 mm 3,4 km/h (1 Bft) W 266 ° 0 min 0,000 mm 0,0 UV-I 86 W/m² 2,2 °C 3,4 °C 6,4 km/h (2 Bft)
02.05.2017 07:34 3,4 °C 3,4 °C 92 % 1015,8 hPa 0,0 mm 3,4 km/h (1 Bft) W-SW 255 ° 0 min 0,000 mm 0,0 UV-I 88 W/m² 2,2 °C 3,4 °C 6,4 km/h (2 Bft)
02.05.2017 07:35 3,4 °C 3,4 °C 92 % 1015,8 hPa 0,0 mm 3,3 km/h (1 Bft) W-SW 252 ° 0 min 0,000 mm 0,0 UV-I 86 W/m² 2,2 °C 3,4 °C 4,8 km/h (1 Bft)
02.05.2017 07:36 3,5 °C 3,5 °C 92 % 1015,8 hPa 0,0 mm 1,7 km/h (1 Bft) W-SW 252 ° 0 min 0,000 mm 0,0 UV-I 86 W/m² 2,3 °C 3,5 °C 3,2 km/h (1 Bft)
02.05.2017 07:37 3,5 °C 3,5 °C 92 % 1015,8 hPa 0,0 mm 2,8 km/h (1 Bft) S 180 ° 0 min 0,000 mm 0,0 UV-I 86 W/m² 2,3 °C 3,5 °C 6,4 km/h (2 Bft)
02.05.2017 07:38 3,6 °C 3,6 °C 92 % 1015,7 hPa 0,0 mm 1,9 km/h (1 Bft) S-SW 205 ° 0 min 0,000 mm 0,0 UV-I 84 W/m² 2,4 °C 3,6 °C 3,2 km/h (1 Bft)
02.05.2017 07:39 3,5 °C 3,6 °C 91 % 1015,7 hPa 0,0 mm 1,6 km/h (1 Bft) S-SW 205 ° 0 min 0,000 mm 0,0 UV-I 83 W/m² 2,2 °C 3,5 °C 3,2 km/h (1 Bft)
02.05.2017 07:40 3,6 °C 3,6 °C 91 % 1015,7 hPa 0,0 mm 0,1 km/h (0 Bft) S-SW 205 ° 0 min 0,000 mm 0,0 UV-I 81 W/m² 2,3 °C 3,6 °C 1,6 km/h (1 Bft)
02.05.2017 07:41 3,6 °C 3,6 °C 92 % 1015,7 hPa 0,0 mm 0,0 km/h (0 Bft) S-SW 205 ° 0 min 0,000 mm 0,0 UV-I 81 W/m² 2,4 °C 3,6 °C 0,0 km/h (0 Bft)
02.05.2017 07:42 3,6 °C 3,6 °C 92 % 1015,6 hPa 0,0 mm 0,0 km/h (0 Bft) S-SW 205 ° 0 min 0,000 mm 0,0 UV-I 81 W/m² 2,4 °C 3,6 °C 0,0 km/h (0 Bft)
02.05.2017 07:43 3,6 °C 3,6 °C 92 % 1015,6 hPa 0,0 mm 0,4 km/h (0 Bft) SW 224 ° 0 min 0,000 mm 0,0 UV-I 79 W/m² 2,4 °C 3,6 °C 1,6 km/h (1 Bft)
02.05.2017 07:44 3,6 °C 3,6 °C 92 % 1015,6 hPa 0,0 mm 0,0 km/h (0 Bft) SW 224 ° 0 min 0,000 mm 0,0 UV-I 79 W/m² 2,4 °C 3,6 °C 0,0 km/h (0 Bft)
02.05.2017 07:45 3,6 °C 3,6 °C 93 % 1015,6 hPa 0,0 mm 0,0 km/h (0 Bft) SW 224 ° 0 min 0,000 mm 0,0 UV-I 77 W/m² 2,6 °C 3,6 °C 0,0 km/h (0 Bft)
02.05.2017 07:46 3,6 °C 3,6 °C 93 % 1015,6 hPa 0,0 mm 0,0 km/h (0 Bft) SW 224 ° 0 min 0,000 mm 0,0 UV-I 79 W/m² 2,6 °C 3,6 °C 0,0 km/h (0 Bft)
02.05.2017 07:47 3,6 °C 3,6 °C 93 % 1015,6 hPa 0,0 mm 0,0 km/h (0 Bft) SW 224 ° 0 min 0,000 mm 0,0 UV-I 79 W/m² 2,6 °C 3,6 °C 0,0 km/h (0 Bft)
02.05.2017 07:48 3,5 °C 3,6 °C 93 % 1015,6 hPa 0,0 mm 0,0 km/h (0 Bft) SW 224 ° 0 min 0,000 mm 0,0 UV-I 79 W/m² 2,5 °C 3,5 °C 0,0 km/h (0 Bft)
02.05.2017 07:49 3,5 °C 3,5 °C 93 % 1015,6 hPa 0,0 mm 0,0 km/h (0 Bft) SW 224 ° 0 min 0,000 mm 0,0 UV-I 81 W/m² 2,5 °C 3,5 °C 0,0 km/h (0 Bft)
02.05.2017 07:50 3,6 °C 3,6 °C 93 % 1015,6 hPa 0,0 mm 0,0 km/h (0 Bft) SW 224 ° 0 min 0,000 mm 0,0 UV-I 83 W/m² 2,6 °C 3,6 °C 0,0 km/h (0 Bft)
02.05.2017 07:51 3,6 °C 3,6 °C 93 % 1015,6 hPa 0,0 mm 0,0 km/h (0 Bft) SW 224 ° 0 min 0,000 mm 0,0 UV-I 84 W/m² 2,6 °C 3,6 °C 0,0 km/h (0 Bft)
02.05.2017 07:52 3,6 °C 3,6 °C 93 % 1015,6 hPa 0,0 mm 0,0 km/h (0 Bft) SW 224 ° 0 min 0,000 mm 0,0 UV-I 86 W/m² 2,6 °C 3,6 °C 0,0 km/h (0 Bft)
02.05.2017 07:53 3,6 °C 3,6 °C 93 % 1015,7 hPa 0,0 mm 0,0 km/h (0 Bft) SW 224 ° 0 min 0,000 mm 0,5 UV-I 86 W/m² 2,6 °C 3,6 °C 0,0 km/h (0 Bft)
02.05.2017 07:54 3,6 °C 3,6 °C 93 % 1015,6 hPa 0,0 mm 0,8 km/h (0 Bft) SW 224 ° 0 min 0,000 mm 0,5 UV-I 88 W/m² 2,6 °C 3,6 °C 3,2 km/h (1 Bft)
02.05.2017 07:55 3,7 °C 3,7 °C 93 % 1015,6 hPa 0,0 mm 0,0 km/h (0 Bft) SW 224 ° 0 min 0,000 mm 0,5 UV-I 90 W/m² 2,7 °C 3,7 °C 0,0 km/h (0 Bft)
02.05.2017 07:56 3,6 °C 3,7 °C 93 % 1015,5 hPa 0,0 mm 0,6 km/h (0 Bft) SW 224 ° 0 min 0,000 mm 0,5 UV-I 90 W/m² 2,6 °C 3,6 °C 1,6 km/h (1 Bft)
02.05.2017 07:57 3,7 °C 3,7 °C 93 % 1015,6 hPa 0,0 mm 0,0 km/h (0 Bft) SW 224 ° 0 min 0,000 mm 0,5 UV-I 93 W/m² 2,7 °C 3,7 °C 0,0 km/h (0 Bft)
02.05.2017 07:58 3,7 °C 3,7 °C 93 % 1015,6 hPa 0,0 mm 0,0 km/h (0 Bft) SW 224 ° 0 min 0,000 mm 0,5 UV-I 95 W/m² 2,7 °C 3,7 °C 0,0 km/h (0 Bft)
02.05.2017 07:59 3,7 °C 3,7 °C 93 % 1015,6 hPa 0,0 mm 0,0 km/h (0 Bft) SW 224 ° 0 min 0,000 mm 0,5 UV-I 95 W/m² 2,7 °C 3,7 °C 0,0 km/h (0 Bft)
02.05.2017 08:00 3,7 °C 3,7 °C 93 % 1015,6 hPa 0,0 mm 0,0 km/h (0 Bft) SW 224 ° 0 min 0,000 mm 0,5 UV-I 98 W/m² 2,7 °C 3,7 °C 0,0 km/h (0 Bft)
02.05.2017 08:01 3,7 °C 3,7 °C 93 % 1015,6 hPa 0,0 mm 1,0 km/h (0 Bft) SW 224 ° 0 min 0,025 mm 0,5 UV-I 100 W/m² 2,7 °C 3,7 °C 3,2 km/h (1 Bft)
02.05.2017 08:02 3,7 °C 3,7 °C 93 % 1015,7 hPa 0,0 mm 0,7 km/h (0 Bft) SW 224 ° 0 min 0,000 mm 0,5 UV-I 102 W/m² 2,7 °C 3,7 °C 1,6 km/h (1 Bft)
02.05.2017 08:03 3,7 °C 3,7 °C 93 % 1015,6 hPa 0,0 mm 0,1 km/h (0 Bft) SW 224 ° 0 min 0,000 mm 0,6 UV-I 107 W/m² 2,7 °C 3,7 °C 1,6 km/h (1 Bft)
02.05.2017 08:04 3,8 °C 3,8 °C 93 % 1015,6 hPa 0,0 mm 0,1 km/h (0 Bft) SW 224 ° 0 min 0,000 mm 0,6 UV-I 109 W/m² 2,8 °C 3,8 °C 1,6 km/h (1 Bft)
02.05.2017 08:05 3,8 °C 3,8 °C 93 % 1015,5 hPa 0,0 mm 0,0 km/h (0 Bft) SW 224 ° 0 min 0,000 mm 0,6 UV-I 113 W/m² 2,8 °C 3,8 °C 0,0 km/h (0 Bft)
02.05.2017 08:06 3,8 °C 3,8 °C 93 % 1015,6 hPa 0,0 mm 1,1 km/h (1 Bft) SW 224 ° 0 min 0,000 mm 0,6 UV-I 113 W/m² 2,8 °C 3,8 °C 3,2 km/h (1 Bft)
02.05.2017 08:07 3,8 °C 3,8 °C 93 % 1015,6 hPa 0,0 mm 1,4 km/h (1 Bft) SW 224 ° 0 min 0,000 mm 0,6 UV-I 116 W/m² 2,8 °C 3,8 °C 3,2 km/h (1 Bft)
02.05.2017 08:08 3,8 °C 3,8 °C 93 % 1015,6 hPa 0,0 mm 0,0 km/h (0 Bft) SW 224 ° 0 min 0,000 mm 0,6 UV-I 118 W/m² 2,8 °C 3,8 °C 0,0 km/h (0 Bft)
02.05.2017 08:09 3,9 °C 3,9 °C 94 % 1015,6 hPa 0,0 mm 0,0 km/h (0 Bft) SW 224 ° 0 min 0,000 mm 0,6 UV-I 118 W/m² 3,0 °C 3,9 °C 0,0 km/h (0 Bft)
02.05.2017 08:10 3,9 °C 3,9 °C 93 % 1015,6 hPa 0,0 mm 0,5 km/h (0 Bft) SW 224 ° 0 min 0,000 mm 0,6 UV-I 118 W/m² 2,9 °C 3,9 °C 1,6 km/h (1 Bft)
02.05.2017 08:11 3,9 °C 3,9 °C 94 % 1015,6 hPa 0,0 mm 0,0 km/h (0 Bft) SW 224 ° 0 min 0,000 mm 0,6 UV-I 118 W/m² 3,0 °C 3,9 °C 0,0 km/h (0 Bft)
02.05.2017 08:12 3,9 °C 3,9 °C 93 % 1015,6 hPa 0,0 mm 0,0 km/h (0 Bft) SW 224 ° 0 min 0,000 mm 0,6 UV-I 118 W/m² 2,9 °C 3,9 °C 0,0 km/h (0 Bft)
02.05.2017 08:13 3,9 °C 3,9 °C 93 % 1015,6 hPa 0,0 mm 0,0 km/h (0 Bft) SW 224 ° 0 min 0,000 mm 0,6 UV-I 118 W/m² 2,9 °C 3,9 °C 0,0 km/h (0 Bft)
02.05.2017 08:14 3,9 °C 3,9 °C 93 % 1015,6 hPa 0,0 mm 0,0 km/h (0 Bft) SW 224 ° 0 min 0,000 mm 0,6 UV-I 118 W/m² 2,9 °C 3,9 °C 0,0 km/h (0 Bft)
02.05.2017 08:15 4,0 °C 4,0 °C 93 % 1015,6 hPa 0,0 mm 0,0 km/h (0 Bft) SW 224 ° 0 min 0,000 mm 0,6 UV-I 120 W/m² 3,0 °C 4,0 °C 0,0 km/h (0 Bft)
02.05.2017 08:16 4,0 °C 4,0 °C 93 % 1015,6 hPa 0,0 mm 0,1 km/h (0 Bft) SW 224 ° 0 min 0,000 mm 0,6 UV-I 120 W/m² 3,0 °C 4,0 °C 1,6 km/h (1 Bft)
02.05.2017 08:17 4,1 °C 4,1 °C 93 % 1015,6 hPa 0,0 mm 0,5 km/h (0 Bft) W 277 ° 0 min 0,000 mm 0,6 UV-I 121 W/m² 3,1 °C 4,1 °C 3,2 km/h (1 Bft)
02.05.2017 08:18 4,2 °C 4,2 °C 93 % 1015,6 hPa 0,0 mm 0,0 km/h (0 Bft) W 277 ° 0 min 0,000 mm 0,7 UV-I 121 W/m² 3,2 °C 4,2 °C 0,0 km/h (0 Bft)
02.05.2017 08:19 4,2 °C 4,2 °C 93 % 1015,5 hPa 0,0 mm 0,9 km/h (0 Bft) W 277 ° 0 min 0,000 mm 0,7 UV-I 121 W/m² 3,2 °C 4,2 °C 1,6 km/h (1 Bft)
02.05.2017 08:20 4,2 °C 4,2 °C 93 % 1015,6 hPa 0,0 mm 0,3 km/h (0 Bft) W 277 ° 0 min 0,000 mm 0,7 UV-I 123 W/m² 3,2 °C 4,2 °C 1,6 km/h (1 Bft)
02.05.2017 08:21 4,2 °C 4,2 °C 93 % 1015,5 hPa 0,0 mm 0,0 km/h (0 Bft) W 277 ° 0 min 0,000 mm 0,7 UV-I 123 W/m² 3,2 °C 4,2 °C 0,0 km/h (0 Bft)
02.05.2017 08:22 4,2 °C 4,2 °C 92 % 1015,6 hPa 0,0 mm 0,0 km/h (0 Bft) W 277 ° 0 min 0,000 mm 0,7 UV-I 121 W/m² 3,0 °C 4,2 °C 0,0 km/h (0 Bft)
02.05.2017 08:23 4,2 °C 4,2 °C 93 % 1015,5 hPa 0,0 mm 0,1 km/h (0 Bft) W 277 ° 0 min 0,000 mm 0,7 UV-I 121 W/m² 3,2 °C 4,2 °C 1,6 km/h (1 Bft)
02.05.2017 08:24 4,3 °C 4,3 °C 93 % 1015,6 hPa 0,0 mm 0,0 km/h (0 Bft) W 277 ° 0 min 0,000 mm 0,7 UV-I 121 W/m² 3,3 °C 4,3 °C 0,0 km/h (0 Bft)
02.05.2017 08:25 4,3 °C 4,3 °C 93 % 1015,6 hPa 0,0 mm 0,0 km/h (0 Bft) W 277 ° 0 min 0,000 mm 0,7 UV-I 123 W/m² 3,3 °C 4,3 °C 0,0 km/h (0 Bft)
02.05.2017 08:26 4,3 °C 4,3 °C 93 % 1015,6 hPa 0,0 mm 0,0 km/h (0 Bft) W 277 ° 0 min 0,000 mm 0,7 UV-I 125 W/m² 3,3 °C 4,3 °C 0,0 km/h (0 Bft)
02.05.2017 08:27 4,3 °C 4,3 °C 93 % 1015,6 hPa 0,0 mm 0,3 km/h (0 Bft) W 277 ° 0 min 0,000 mm 0,7 UV-I 128 W/m² 3,3 °C 4,3 °C 1,6 km/h (1 Bft)
02.05.2017 08:28 4,3 °C 4,3 °C 93 % 1015,6 hPa 0,0 mm 0,0 km/h (0 Bft) W 277 ° 0 min 0,000 mm 0,7 UV-I 132 W/m² 3,3 °C 4,3 °C 0,0 km/h (0 Bft)
02.05.2017 08:29 4,3 °C 4,3 °C 92 % 1015,6 hPa 0,0 mm 0,9 km/h (0 Bft) W 277 ° 0 min 0,000 mm 0,7 UV-I 132 W/m² 3,1 °C 4,3 °C 3,2 km/h (1 Bft)
02.05.2017 08:30 4,4 °C 4,4 °C 93 % 1015,6 hPa 0,0 mm 1,7 km/h (1 Bft) W 277 ° 0 min 0,000 mm 0,7 UV-I 134 W/m² 3,4 °C 4,4 °C 3,2 km/h (1 Bft)
02.05.2017 08:31 4,4 °C 4,4 °C 92 % 1015,6 hPa 0,0 mm 0,2 km/h (0 Bft) W 277 ° 0 min 0,000 mm 0,8 UV-I 134 W/m² 3,2 °C 4,4 °C 1,6 km/h (1 Bft)
02.05.2017 08:32 4,5 °C 4,5 °C 92 % 1015,6 hPa 0,0 mm 0,0 km/h (0 Bft) W 277 ° 0 min 0,000 mm 0,8 UV-I 134 W/m² 3,3 °C 4,5 °C 0,0 km/h (0 Bft)
02.05.2017 08:33 4,6 °C 4,6 °C 92 % 1015,6 hPa 0,0 mm 0,0 km/h (0 Bft) W 277 ° 0 min 0,000 mm 0,8 UV-I 134 W/m² 3,4 °C 4,6 °C 0,0 km/h (0 Bft)
02.05.2017 08:34 4,5 °C 4,6 °C 91 % 1015,6 hPa 0,0 mm 0,0 km/h (0 Bft) W 277 ° 0 min 0,000 mm 0,8 UV-I 134 W/m² 3,2 °C 4,5 °C 0,0 km/h (0 Bft)
02.05.2017 08:35 4,6 °C 4,6 °C 91 % 1015,6 hPa 0,0 mm 0,3 km/h (0 Bft) W 277 ° 0 min 0,000 mm 0,8 UV-I 135 W/m² 3,3 °C 4,6 °C 1,6 km/h (1 Bft)
02.05.2017 08:36 4,5 °C 4,6 °C 91 % 1015,6 hPa 0,0 mm 0,3 km/h (0 Bft) W 277 ° 0 min 0,000 mm 0,8 UV-I 137 W/m² 3,2 °C 4,5 °C 1,6 km/h (1 Bft)
02.05.2017 08:37 4,6 °C 4,6 °C 91 % 1015,6 hPa 0,0 mm 1,6 km/h (1 Bft) W 277 ° 0 min 0,000 mm 0,8 UV-I 139 W/m² 3,3 °C 4,6 °C 3,2 km/h (1 Bft)
02.05.2017 08:38 4,6 °C 4,6 °C 91 % 1015,7 hPa 0,0 mm 1,8 km/h (1 Bft) W 277 ° 0 min 0,000 mm 0,8 UV-I 144 W/m² 3,3 °C 4,6 °C 3,2 km/h (1 Bft)
02.05.2017 08:39 4,7 °C 4,7 °C 91 % 1015,6 hPa 0,0 mm 0,1 km/h (0 Bft) W 277 ° 0 min 0,000 mm 0,9 UV-I 146 W/m² 3,4 °C 4,7 °C 1,6 km/h (1 Bft)
02.05.2017 08:40 4,7 °C 4,7 °C 92 % 1015,7 hPa 0,0 mm 0,1 km/h (0 Bft) W 277 ° 0 min 0,000 mm 0,9 UV-I 149 W/m² 3,5 °C 4,7 °C 1,6 km/h (1 Bft)
02.05.2017 08:41 4,7 °C 4,7 °C 92 % 1015,7 hPa 0,0 mm 0,9 km/h (0 Bft) W 277 ° 0 min 0,000 mm 0,9 UV-I 153 W/m² 3,5 °C 4,7 °C 3,2 km/h (1 Bft)
02.05.2017 08:42 4,7 °C 4,7 °C 91 % 1015,7 hPa 0,0 mm 1,4 km/h (1 Bft) W 277 ° 0 min 0,000 mm 0,9 UV-I 153 W/m² 3,4 °C 4,7 °C 3,2 km/h (1 Bft)
02.05.2017 08:43 4,6 °C 4,7 °C 91 % 1015,7 hPa 0,0 mm 0,0 km/h (0 Bft) W 277 ° 0 min 0,000 mm 1,0 UV-I 160 W/m² 3,3 °C 4,6 °C 0,0 km/h (0 Bft)
02.05.2017 08:44 4,7 °C 4,7 °C 91 % 1015,7 hPa 0,0 mm 0,0 km/h (0 Bft) W 277 ° 0 min 0,000 mm 1,0 UV-I 171 W/m² 3,4 °C 4,7 °C 0,0 km/h (0 Bft)
02.05.2017 08:45 4,7 °C 4,7 °C 91 % 1015,7 hPa 0,0 mm 0,0 km/h (0 Bft) W 277 ° 0 min 0,000 mm 1,0 UV-I 176 W/m² 3,4 °C 4,7 °C 0,0 km/h (0 Bft)
02.05.2017 08:46 4,7 °C 4,8 °C 91 % 1015,7 hPa 0,0 mm 0,1 km/h (0 Bft) W 277 ° 0 min 0,000 mm 1,1 UV-I 179 W/m² 3,4 °C 4,7 °C 1,6 km/h (1 Bft)
02.05.2017 08:47 4,8 °C 4,8 °C 91 % 1015,7 hPa 0,0 mm 0,0 km/h (0 Bft) W 277 ° 0 min 0,000 mm 1,1 UV-I 183 W/m² 3,5 °C 4,8 °C 0,0 km/h (0 Bft)
02.05.2017 08:48 4,8 °C 4,8 °C 91 % 1015,7 hPa 0,0 mm 0,0 km/h (0 Bft) W 277 ° 0 min 0,000 mm 1,1 UV-I 188 W/m² 3,5 °C 4,8 °C 0,0 km/h (0 Bft)
02.05.2017 08:49 4,8 °C 4,8 °C 91 % 1015,7 hPa 0,0 mm 0,0 km/h (0 Bft) W 277 ° 0 min 0,000 mm 1,1 UV-I 192 W/m² 3,5 °C 4,8 °C 0,0 km/h (0 Bft)
02.05.2017 08:50 4,8 °C 4,8 °C 90 % 1015,8 hPa 0,0 mm 0,0 km/h (0 Bft) W 277 ° 0 min 0,000 mm 1,1 UV-I 199 W/m² 3,3 °C 4,8 °C 0,0 km/h (0 Bft)
02.05.2017 08:51 4,8 °C 4,8 °C 90 % 1015,8 hPa 0,0 mm 0,0 km/h (0 Bft) W 277 ° 0 min 0,000 mm 1,2 UV-I 204 W/m² 3,3 °C 4,8 °C 0,0 km/h (0 Bft)
02.05.2017 08:52 4,9 °C 4,9 °C 91 % 1015,8 hPa 0,0 mm 0,6 km/h (0 Bft) W 277 ° 0 min 0,000 mm 1,2 UV-I 211 W/m² 3,6 °C 4,9 °C 1,6 km/h (1 Bft)
02.05.2017 08:53 5,0 °C 5,0 °C 91 % 1015,8 hPa 0,0 mm 3,1 km/h (1 Bft) W 260 ° 0 min 0,000 mm 1,2 UV-I 214 W/m² 3,7 °C 5,0 °C 4,8 km/h (1 Bft)
02.05.2017 08:54 5,1 °C 5,1 °C 91 % 1015,8 hPa 0,0 mm 2,0 km/h (1 Bft) W 260 ° 0 min 0,000 mm 1,2 UV-I 216 W/m² 3,8 °C 5,1 °C 4,8 km/h (1 Bft)
02.05.2017 08:55 5,1 °C 5,1 °C 91 % 1015,7 hPa 0,0 mm 2,3 km/h (1 Bft) S-SW 196 ° 0 min 0,000 mm 1,2 UV-I 209 W/m² 3,8 °C 5,1 °C 4,8 km/h (1 Bft)
02.05.2017 08:56 5,2 °C 5,2 °C 91 % 1015,7 hPa 0,0 mm 0,4 km/h (0 Bft) S-SW 196 ° 0 min 0,000 mm 1,2 UV-I 202 W/m² 3,9 °C 5,2 °C 1,6 km/h (1 Bft)
02.05.2017 08:57 5,2 °C 5,2 °C 92 % 1015,7 hPa 0,0 mm 0,1 km/h (0 Bft) S-SW 196 ° 0 min 0,000 mm 1,2 UV-I 202 W/m² 4,0 °C 5,2 °C 1,6 km/h (1 Bft)
02.05.2017 08:58 5,3 °C 5,3 °C 92 % 1015,8 hPa 0,0 mm 1,1 km/h (1 Bft) W-SW 238 ° 0 min 0,000 mm 1,2 UV-I 204 W/m² 4,1 °C 5,3 °C 3,2 km/h (1 Bft)
02.05.2017 08:59 5,3 °C 5,3 °C 90 % 1015,8 hPa 0,0 mm 2,6 km/h (1 Bft) W-SW 242 ° 0 min 0,000 mm 1,2 UV-I 202 W/m² 3,8 °C 5,3 °C 3,2 km/h (1 Bft)
02.05.2017 09:00 5,3 °C 5,3 °C 90 % 1015,8 hPa 0,0 mm 1,3 km/h (1 Bft) W-SW 242 ° 0 min 0,051 mm 1,2 UV-I 202 W/m² 3,8 °C 5,3 °C 3,2 km/h (1 Bft)
02.05.2017 09:01 5,4 °C 5,4 °C 90 % 1015,7 hPa 0,0 mm 1,5 km/h (1 Bft) W-SW 243 ° 0 min 0,000 mm 1,2 UV-I 207 W/m² 3,9 °C 5,4 °C 3,2 km/h (1 Bft)
02.05.2017 09:02 5,4 °C 5,4 °C 88 % 1015,8 hPa 0,0 mm 0,0 km/h (0 Bft) W-SW 243 ° 0 min 0,000 mm 1,3 UV-I 207 W/m² 3,6 °C 5,4 °C 0,0 km/h (0 Bft)
02.05.2017 09:03 5,4 °C 5,4 °C 88 % 1015,7 hPa 0,0 mm 0,1 km/h (0 Bft) W-SW 243 ° 0 min 0,000 mm 1,3 UV-I 209 W/m² 3,6 °C 5,4 °C 1,6 km/h (1 Bft)
02.05.2017 09:04 5,5 °C 5,5 °C 88 % 1015,7 hPa 0,0 mm 0,8 km/h (0 Bft) W-SW 243 ° 0 min 0,000 mm 1,3 UV-I 213 W/m² 3,7 °C 5,5 °C 3,2 km/h (1 Bft)
02.05.2017 09:05 5,6 °C 5,6 °C 89 % 1015,7 hPa 0,0 mm 4,9 km/h (1 Bft) W-SW 254 ° 0 min 0,000 mm 1,3 UV-I 209 W/m² 3,9 °C 4,8 °C 6,4 km/h (2 Bft)
02.05.2017 09:06 5,6 °C 5,6 °C 89 % 1015,7 hPa 0,0 mm 2,7 km/h (1 Bft) W-SW 254 ° 0 min 0,000 mm 1,3 UV-I 207 W/m² 3,9 °C 5,6 °C 4,8 km/h (1 Bft)
02.05.2017 09:07 5,7 °C 5,7 °C 89 % 1015,7 hPa 0,0 mm 1,9 km/h (1 Bft) W-SW 254 ° 0 min 0,000 mm 1,3 UV-I 211 W/m² 4,0 °C 5,7 °C 4,8 km/h (1 Bft)
02.05.2017 09:08 5,6 °C 5,7 °C 88 % 1015,7 hPa 0,0 mm 0,1 km/h (0 Bft) W-SW 254 ° 0 min 0,000 mm 1,3 UV-I 204 W/m² 3,8 °C 5,6 °C 1,6 km/h (1 Bft)
02.05.2017 09:09 5,7 °C 5,7 °C 89 % 1015,7 hPa 0,0 mm 2,5 km/h (1 Bft) W-SW 256 ° 0 min 0,000 mm 1,3 UV-I 204 W/m² 4,0 °C 5,7 °C 3,2 km/h (1 Bft)
02.05.2017 09:10 5,8 °C 5,8 °C 89 % 1015,7 hPa 0,0 mm 4,0 km/h (1 Bft) W 263 ° 0 min 0,000 mm 1,3 UV-I 204 W/m² 4,1 °C 5,8 °C 6,4 km/h (2 Bft)
02.05.2017 09:11 5,8 °C 5,8 °C 89 % 1015,7 hPa 0,0 mm 2,5 km/h (1 Bft) W 263 ° 0 min 0,000 mm 1,3 UV-I 200 W/m² 4,1 °C 5,8 °C 4,8 km/h (1 Bft)
02.05.2017 09:12 5,9 °C 5,9 °C 89 % 1015,7 hPa 0,0 mm 3,4 km/h (1 Bft) W 263 ° 0 min 0,000 mm 1,3 UV-I 200 W/m² 4,2 °C 5,9 °C 4,8 km/h (1 Bft)
02.05.2017 09:13 5,8 °C 5,9 °C 88 % 1015,7 hPa 0,0 mm 1,2 km/h (1 Bft) W 263 ° 0 min 0,000 mm 1,3 UV-I 200 W/m² 4,0 °C 5,8 °C 3,2 km/h (1 Bft)
02.05.2017 09:14 5,8 °C 5,8 °C 88 % 1015,7 hPa 0,0 mm 2,3 km/h (1 Bft) W 263 ° 0 min 0,000 mm 1,3 UV-I 202 W/m² 4,0 °C 5,8 °C 4,8 km/h (1 Bft)
02.05.2017 09:15 5,8 °C 5,8 °C 87 % 1015,7 hPa 0,0 mm 2,2 km/h (1 Bft) W 263 ° 0 min 0,000 mm 1,4 UV-I 204 W/m² 3,8 °C 5,8 °C 4,8 km/h (1 Bft)
02.05.2017 09:16 5,8 °C 5,8 °C 87 % 1015,7 hPa 0,0 mm 3,1 km/h (1 Bft) W 264 ° 0 min 0,000 mm 1,4 UV-I 206 W/m² 3,8 °C 5,8 °C 4,8 km/h (1 Bft)
02.05.2017 09:17 5,7 °C 5,8 °C 87 % 1015,7 hPa 0,0 mm 3,8 km/h (1 Bft) W 264 ° 0 min 0,000 mm 1,4 UV-I 206 W/m² 3,7 °C 5,7 °C 4,8 km/h (1 Bft)
02.05.2017 09:18 5,7 °C 5,7 °C 89 % 1015,7 hPa 0,0 mm 2,7 km/h (1 Bft) W 265 ° 0 min 0,000 mm 1,4 UV-I 206 W/m² 4,0 °C 5,7 °C 4,8 km/h (1 Bft)
02.05.2017 09:19 5,7 °C 5,7 °C 88 % 1015,7 hPa 0,0 mm 3,0 km/h (1 Bft) W 265 ° 0 min 0,000 mm 1,4 UV-I 211 W/m² 3,9 °C 5,7 °C 4,8 km/h (1 Bft)
02.05.2017 09:20 5,7 °C 5,7 °C 87 % 1015,7 hPa 0,0 mm 3,6 km/h (1 Bft) W 265 ° 0 min 0,000 mm 1,4 UV-I 218 W/m² 3,7 °C 5,7 °C 4,8 km/h (1 Bft)
02.05.2017 09:21 5,7 °C 5,7 °C 88 % 1015,7 hPa 0,0 mm 3,0 km/h (1 Bft) W 265 ° 0 min 0,000 mm 1,4 UV-I 218 W/m² 3,9 °C 5,7 °C 4,8 km/h (1 Bft)
02.05.2017 09:22 5,7 °C 5,7 °C 87 % 1015,7 hPa 0,0 mm 0,1 km/h (0 Bft) W 265 ° 0 min 0,000 mm 1,4 UV-I 214 W/m² 3,7 °C 5,7 °C 1,6 km/h (1 Bft)
02.05.2017 09:23 5,7 °C 5,7 °C 87 % 1015,7 hPa 0,0 mm 0,3 km/h (0 Bft) W 265 ° 0 min 0,000 mm 1,5 UV-I 220 W/m² 3,7 °C 5,7 °C 1,6 km/h (1 Bft)
02.05.2017 09:24 5,7 °C 5,7 °C 87 % 1015,7 hPa 0,0 mm 0,1 km/h (0 Bft) W 265 ° 0 min 0,000 mm 1,5 UV-I 227 W/m² 3,7 °C 5,7 °C 1,6 km/h (1 Bft)
02.05.2017 09:25 5,8 °C 5,8 °C 88 % 1015,6 hPa 0,0 mm 2,3 km/h (1 Bft) W 265 ° 0 min 0,000 mm 1,5 UV-I 239 W/m² 4,0 °C 5,8 °C 3,2 km/h (1 Bft)
02.05.2017 09:26 5,8 °C 5,8 °C 89 % 1015,6 hPa 0,0 mm 2,9 km/h (1 Bft) W 265 ° 0 min 0,000 mm 1,6 UV-I 243 W/m² 4,1 °C 5,8 °C 3,2 km/h (1 Bft)
02.05.2017 09:27 5,9 °C 5,9 °C 89 % 1015,6 hPa 0,0 mm 3,5 km/h (1 Bft) W 265 ° 0 min 0,000 mm 1,6 UV-I 248 W/m² 4,2 °C 5,9 °C 4,8 km/h (1 Bft)
02.05.2017 09:28 6,0 °C 6,0 °C 89 % 1015,6 hPa 0,0 mm 1,6 km/h (1 Bft) W 265 ° 0 min 0,000 mm 1,6 UV-I 251 W/m² 4,3 °C 6,0 °C 3,2 km/h (1 Bft)
02.05.2017 09:29 6,0 °C 6,0 °C 87 % 1015,6 hPa 0,0 mm 1,3 km/h (1 Bft) W 265 ° 0 min 0,000 mm 1,6 UV-I 265 W/m² 4,0 °C 6,0 °C 3,2 km/h (1 Bft)
02.05.2017 09:30 6,1 °C 6,1 °C 88 % 1015,6 hPa 0,0 mm 0,4 km/h (0 Bft) W 265 ° 0 min 0,000 mm 1,7 UV-I 285 W/m² 4,3 °C 6,1 °C 1,6 km/h (1 Bft)
02.05.2017 09:31 6,2 °C 6,2 °C 89 % 1015,6 hPa 0,0 mm 2,0 km/h (1 Bft) W 265 ° 0 min 0,000 mm 1,7 UV-I 279 W/m² 4,5 °C 6,2 °C 3,2 km/h (1 Bft)
02.05.2017 09:32 6,2 °C 6,2 °C 89 % 1015,6 hPa 0,0 mm 2,5 km/h (1 Bft) W 265 ° 0 min 0,000 mm 1,7 UV-I 274 W/m² 4,5 °C 6,2 °C 3,2 km/h (1 Bft)
02.05.2017 09:33 6,2 °C 6,2 °C 87 % 1015,6 hPa 0,0 mm 3,6 km/h (1 Bft) W-SW 240 ° 0 min 0,000 mm 1,7 UV-I 276 W/m² 4,2 °C 6,2 °C 4,8 km/h (1 Bft)
02.05.2017 09:34 6,2 °C 6,2 °C 85 % 1015,6 hPa 0,0 mm 4,3 km/h (1 Bft) W 279 ° 0 min 0,000 mm 1,7 UV-I 287 W/m² 3,9 °C 6,2 °C 6,4 km/h (2 Bft)
02.05.2017 09:35 6,2 °C 6,2 °C 86 % 1015,7 hPa 0,0 mm 4,8 km/h (1 Bft) W-SW 251 ° 1 min 0,000 mm 1,8 UV-I 301 W/m² 4,0 °C 5,5 °C 6,4 km/h (2 Bft)
02.05.2017 09:36 6,2 °C 6,2 °C 84 % 1015,7 hPa 0,0 mm 1,4 km/h (1 Bft) W-SW 251 ° 1 min 0,000 mm 1,8 UV-I 301 W/m² 3,7 °C 6,2 °C 3,2 km/h (1 Bft)
02.05.2017 09:37 6,2 °C 6,2 °C 85 % 1015,7 hPa 0,0 mm 1,4 km/h (1 Bft) W-SW 251 ° 1 min 0,000 mm 1,8 UV-I 306 W/m² 3,9 °C 6,2 °C 3,2 km/h (1 Bft)
02.05.2017 09:38 6,2 °C 6,2 °C 85 % 1015,7 hPa 0,0 mm 1,4 km/h (1 Bft) W 259 ° 1 min 0,000 mm 1,8 UV-I 295 W/m² 3,9 °C 6,2 °C 6,4 km/h (2 Bft)
02.05.2017 09:39 6,2 °C 6,2 °C 86 % 1015,7 hPa 0,0 mm 4,0 km/h (1 Bft) W 276 ° 1 min 0,000 mm 1,8 UV-I 294 W/m² 4,0 °C 6,2 °C 6,4 km/h (2 Bft)
02.05.2017 09:40 6,2 °C 6,2 °C 85 % 1015,7 hPa 0,0 mm 3,3 km/h (1 Bft) W 275 ° 1 min 0,000 mm 1,8 UV-I 297 W/m² 3,9 °C 6,2 °C 4,8 km/h (1 Bft)
02.05.2017 09:41 6,3 °C 6,3 °C 86 % 1015,8 hPa 0,0 mm 3,2 km/h (1 Bft) W-SW 252 ° 1 min 0,000 mm 1,8 UV-I 299 W/m² 4,1 °C 6,3 °C 4,8 km/h (1 Bft)
02.05.2017 09:42 6,3 °C 6,3 °C 86 % 1015,8 hPa 0,0 mm 3,9 km/h (1 Bft) W 267 ° 1 min 0,000 mm 1,8 UV-I 295 W/m² 4,1 °C 6,3 °C 4,8 km/h (1 Bft)
02.05.2017 09:43 6,4 °C 6,4 °C 88 % 1015,8 hPa 0,0 mm 3,0 km/h (1 Bft) NW 311 ° 0 min 0,000 mm 1,7 UV-I 288 W/m² 4,6 °C 6,4 °C 4,8 km/h (1 Bft)
02.05.2017 09:44 6,4 °C 6,4 °C 87 % 1015,8 hPa 0,0 mm 2,1 km/h (1 Bft) W-SW 251 ° 1 min 0,000 mm 1,8 UV-I 295 W/m² 4,4 °C 6,4 °C 6,4 km/h (2 Bft)
02.05.2017 09:45 6,4 °C 6,4 °C 86 % 1015,8 hPa 0,0 mm 6,9 km/h (2 Bft) W 259 ° 1 min 0,000 mm 1,8 UV-I 299 W/m² 4,2 °C 5,1 °C 9,7 km/h (2 Bft)
02.05.2017 09:46 6,4 °C 6,4 °C 85 % 1015,9 hPa 0,0 mm 5,4 km/h (1 Bft) W 263 ° 1 min 0,000 mm 1,8 UV-I 301 W/m² 4,1 °C 5,5 °C 6,4 km/h (2 Bft)
02.05.2017 09:47 6,3 °C 6,4 °C 85 % 1015,8 hPa 0,0 mm 6,9 km/h (2 Bft) W 271 ° 1 min 0,000 mm 1,8 UV-I 295 W/m² 4,0 °C 5,0 °C 8,0 km/h (2 Bft)
02.05.2017 09:48 6,3 °C 6,3 °C 84 % 1015,7 hPa 0,0 mm 3,5 km/h (1 Bft) W 275 ° 0 min 0,000 mm 1,8 UV-I 287 W/m² 3,8 °C 6,3 °C 4,8 km/h (1 Bft)
02.05.2017 09:49 6,3 °C 6,3 °C 85 % 1015,8 hPa 0,0 mm 4,8 km/h (1 Bft) W-NW 296 ° 0 min 0,000 mm 1,8 UV-I 283 W/m² 4,0 °C 5,6 °C 6,4 km/h (2 Bft)
02.05.2017 09:50 6,3 °C 6,3 °C 85 % 1015,8 hPa 0,0 mm 6,1 km/h (2 Bft) W-NW 288 ° 0 min 0,000 mm 1,8 UV-I 285 W/m² 4,0 °C 5,2 °C 9,7 km/h (2 Bft)
02.05.2017 09:51 6,3 °C 6,3 °C 85 % 1015,8 hPa 0,0 mm 5,3 km/h (1 Bft) W 266 ° 0 min 0,000 mm 1,8 UV-I 283 W/m² 4,0 °C 5,5 °C 6,4 km/h (2 Bft)
02.05.2017 09:52 6,3 °C 6,3 °C 85 % 1015,8 hPa 0,0 mm 7,4 km/h (2 Bft) W-NW 287 ° 0 min 0,000 mm 1,9 UV-I 285 W/m² 4,0 °C 4,8 °C 11,3 km/h (2 Bft)
02.05.2017 09:53 6,3 °C 6,3 °C 82 % 1015,8 hPa 0,0 mm 6,9 km/h (2 Bft) W 274 ° 1 min 0,000 mm 2,0 UV-I 302 W/m² 3,5 °C 5,0 °C 9,7 km/h (2 Bft)
02.05.2017 09:54 6,3 °C 6,3 °C 83 % 1015,9 hPa 0,0 mm 5,8 km/h (2 Bft) W-SW 251 ° 1 min 0,000 mm 2,0 UV-I 302 W/m² 3,6 °C 5,3 °C 8,0 km/h (2 Bft)
02.05.2017 09:55 6,3 °C 6,3 °C 82 % 1015,9 hPa 0,0 mm 3,9 km/h (1 Bft) W-NW 286 ° 1 min 0,000 mm 2,1 UV-I 338 W/m² 3,5 °C 6,3 °C 6,4 km/h (2 Bft)
02.05.2017 09:56 6,3 °C 6,3 °C 84 % 1015,9 hPa 0,0 mm 5,1 km/h (1 Bft) W-NW 303 ° 1 min 0,000 mm 2,2 UV-I 359 W/m² 3,8 °C 5,5 °C 8,0 km/h (2 Bft)
02.05.2017 09:57 6,4 °C 6,4 °C 85 % 1015,9 hPa 0,0 mm 6,9 km/h (2 Bft) W 259 ° 1 min 0,000 mm 2,2 UV-I 364 W/m² 4,1 °C 5,1 °C 12,9 km/h (3 Bft)
02.05.2017 09:58 6,4 °C 6,4 °C 84 % 1016,0 hPa 0,0 mm 6,3 km/h (2 Bft) W-NW 286 ° 1 min 0,000 mm 2,3 UV-I 380 W/m² 3,9 °C 5,2 °C 11,3 km/h (2 Bft)
02.05.2017 09:59 6,6 °C 6,6 °C 86 % 1015,9 hPa 0,0 mm 5,3 km/h (1 Bft) W-SW 257 ° 1 min 0,000 mm 2,4 UV-I 387 W/m² 4,4 °C 5,8 °C 9,7 km/h (2 Bft)
02.05.2017 10:00 6,6 °C 6,6 °C 86 % 1015,9 hPa 0,0 mm 4,4 km/h (1 Bft) SW 234 ° 1 min 0,000 mm 2,5 UV-I 436 W/m² 4,4 °C 6,6 °C 6,4 km/h (2 Bft)
02.05.2017 10:01 6,7 °C 6,7 °C 83 % 1015,9 hPa 0,0 mm 1,9 km/h (1 Bft) SW 234 ° 1 min 0,102 mm 2,7 UV-I 457 W/m² 4,0 °C 6,7 °C 4,8 km/h (1 Bft)
02.05.2017 10:02 6,8 °C 6,8 °C 84 % 1015,9 hPa 0,0 mm 6,8 km/h (2 Bft) W 261 ° 1 min 0,000 mm 2,7 UV-I 459 W/m² 4,3 °C 5,6 °C 11,3 km/h (2 Bft)
02.05.2017 10:03 6,8 °C 6,8 °C 86 % 1015,9 hPa 0,0 mm 5,3 km/h (1 Bft) W-NW 290 ° 1 min 0,000 mm 2,7 UV-I 445 W/m² 4,6 °C 6,0 °C 9,7 km/h (2 Bft)
02.05.2017 10:04 6,9 °C 6,9 °C 85 % 1015,9 hPa 0,0 mm 5,3 km/h (1 Bft) W 261 ° 1 min 0,000 mm 2,7 UV-I 457 W/m² 4,6 °C 6,1 °C 8,0 km/h (2 Bft)
02.05.2017 10:05 7,0 °C 7,0 °C 86 % 1015,9 hPa 0,0 mm 4,1 km/h (1 Bft) W-SW 244 ° 1 min 0,000 mm 2,7 UV-I 450 W/m² 4,8 °C 7,0 °C 9,7 km/h (2 Bft)
02.05.2017 10:06 7,1 °C 7,1 °C 85 % 1015,9 hPa 0,0 mm 2,0 km/h (1 Bft) W-SW 244 ° 1 min 0,000 mm 2,8 UV-I 476 W/m² 4,8 °C 7,1 °C 3,2 km/h (1 Bft)
02.05.2017 10:07 7,2 °C 7,2 °C 84 % 1015,9 hPa 0,0 mm 1,9 km/h (1 Bft) W 267 ° 1 min 0,000 mm 2,8 UV-I 480 W/m² 4,7 °C 7,2 °C 4,8 km/h (1 Bft)
02.05.2017 10:08 7,2 °C 7,2 °C 84 % 1015,9 hPa 0,0 mm 5,8 km/h (2 Bft) W 275 ° 1 min 0,000 mm 2,9 UV-I 489 W/m² 4,7 °C 6,3 °C 9,7 km/h (2 Bft)
02.05.2017 10:09 7,2 °C 7,3 °C 82 % 1015,9 hPa 0,0 mm 9,1 km/h (2 Bft) W 267 ° 1 min 0,000 mm 2,9 UV-I 487 W/m² 4,3 °C 5,5 °C 16,1 km/h (3 Bft)
02.05.2017 10:10 7,2 °C 7,2 °C 83 % 1015,9 hPa 0,0 mm 5,2 km/h (1 Bft) W-SW 242 ° 1 min 0,000 mm 2,9 UV-I 490 W/m² 4,5 °C 6,5 °C 6,4 km/h (2 Bft)
02.05.2017 10:11 7,3 °C 7,3 °C 84 % 1015,9 hPa 0,0 mm 6,3 km/h (2 Bft) W 269 ° 1 min 0,000 mm 2,9 UV-I 478 W/m² 4,8 °C 6,3 °C 9,7 km/h (2 Bft)
02.05.2017 10:12 7,2 °C 7,3 °C 81 % 1015,8 hPa 0,0 mm 6,2 km/h (2 Bft) W 269 ° 1 min 0,000 mm 2,9 UV-I 492 W/m² 4,2 °C 6,2 °C 8,0 km/h (2 Bft)
02.05.2017 10:13 7,2 °C 7,2 °C 80 % 1015,9 hPa 0,0 mm 4,2 km/h (1 Bft) W 281 ° 1 min 0,000 mm 3,0 UV-I 499 W/m² 4,0 °C 7,2 °C 6,4 km/h (2 Bft)
02.05.2017 10:14 7,3 °C 7,3 °C 83 % 1015,9 hPa 0,0 mm 3,1 km/h (1 Bft) W 281 ° 1 min 0,000 mm 3,0 UV-I 506 W/m² 4,6 °C 7,3 °C 4,8 km/h (1 Bft)
02.05.2017 10:15 7,3 °C 7,3 °C 85 % 1015,9 hPa 0,0 mm 0,2 km/h (0 Bft) W 281 ° 1 min 0,000 mm 3,0 UV-I 512 W/m² 4,9 °C 7,3 °C 1,6 km/h (1 Bft)
02.05.2017 10:16 7,3 °C 7,3 °C 83 % 1015,9 hPa 0,0 mm 3,6 km/h (1 Bft) W 272 ° 1 min 0,000 mm 3,0 UV-I 506 W/m² 4,6 °C 7,3 °C 8,0 km/h (2 Bft)
02.05.2017 10:17 7,4 °C 7,4 °C 82 % 1015,9 hPa 0,0 mm 4,1 km/h (1 Bft) W 279 ° 1 min 0,000 mm 3,0 UV-I 504 W/m² 4,5 °C 7,4 °C 6,4 km/h (2 Bft)
02.05.2017 10:18 7,4 °C 7,4 °C 82 % 1016,0 hPa 0,0 mm 3,7 km/h (1 Bft) W 273 ° 1 min 0,000 mm 3,1 UV-I 517 W/m² 4,5 °C 7,4 °C 6,4 km/h (2 Bft)
02.05.2017 10:19 7,6 °C 7,6 °C 83 % 1015,9 hPa 0,0 mm 6,3 km/h (2 Bft) W-NW 298 ° 1 min 0,000 mm 3,1 UV-I 519 W/m² 4,9 °C 6,6 °C 11,3 km/h (2 Bft)
02.05.2017 10:20 7,6 °C 7,6 °C 83 % 1015,9 hPa 0,0 mm 6,5 km/h (2 Bft) W 267 ° 1 min 0,000 mm 3,1 UV-I 513 W/m² 4,9 °C 6,6 °C 9,7 km/h (2 Bft)
02.05.2017 10:21 7,4 °C 7,6 °C 81 % 1016,0 hPa 0,0 mm 4,2 km/h (1 Bft) W-NW 300 ° 1 min 0,000 mm 3,1 UV-I 526 W/m² 4,4 °C 7,4 °C 6,4 km/h (2 Bft)
02.05.2017 10:22 7,5 °C 7,5 °C 81 % 1016,0 hPa 0,0 mm 4,3 km/h (1 Bft) W 262 ° 1 min 0,000 mm 3,1 UV-I 506 W/m² 4,5 °C 7,5 °C 6,4 km/h (2 Bft)
02.05.2017 10:23 7,7 °C 7,7 °C 85 % 1016,0 hPa 0,0 mm 7,1 km/h (2 Bft) W 264 ° 1 min 0,000 mm 3,1 UV-I 520 W/m² 5,3 °C 6,5 °C 11,3 km/h (2 Bft)
02.05.2017 10:24 7,8 °C 7,8 °C 83 % 1016,0 hPa 0,0 mm 9,3 km/h (2 Bft) W-SW 255 ° 1 min 0,000 mm 3,2 UV-I 552 W/m² 5,1 °C 6,1 °C 12,9 km/h (3 Bft)
02.05.2017 10:25 7,8 °C 7,8 °C 82 % 1016,0 hPa 0,0 mm 9,1 km/h (2 Bft) W 259 ° 1 min 0,000 mm 3,3 UV-I 545 W/m² 4,9 °C 6,2 °C 11,3 km/h (2 Bft)
02.05.2017 10:26 7,8 °C 7,8 °C 82 % 1015,9 hPa 0,0 mm 4,9 km/h (1 Bft) W 279 ° 1 min 0,000 mm 3,3 UV-I 548 W/m² 4,9 °C 7,3 °C 8,0 km/h (2 Bft)
02.05.2017 10:27 7,8 °C 7,8 °C 78 % 1016,0 hPa 0,0 mm 2,0 km/h (1 Bft) W 279 ° 1 min 0,000 mm 3,3 UV-I 545 W/m² 4,2 °C 7,8 °C 3,2 km/h (1 Bft)
02.05.2017 10:28 7,8 °C 7,8 °C 78 % 1015,9 hPa 0,0 mm 4,8 km/h (1 Bft) W-SW 252 ° 1 min 0,000 mm 3,3 UV-I 547 W/m² 4,2 °C 7,3 °C 11,3 km/h (2 Bft)
02.05.2017 10:29 7,9 °C 8,0 °C 79 % 1015,9 hPa 0,0 mm 4,6 km/h (1 Bft) W-SW 240 ° 1 min 0,000 mm 3,4 UV-I 566 W/m² 4,5 °C 7,5 °C 6,4 km/h (2 Bft)
02.05.2017 10:30 8,1 °C 8,1 °C 81 % 1015,9 hPa 0,0 mm 2,4 km/h (1 Bft) W-SW 243 ° 1 min 0,000 mm 3,3 UV-I 563 W/m² 5,0 °C 8,1 °C 4,8 km/h (1 Bft)
02.05.2017 10:31 8,1 °C 8,1 °C 80 % 1015,9 hPa 0,0 mm 3,7 km/h (1 Bft) W 269 ° 1 min 0,000 mm 3,5 UV-I 568 W/m² 4,9 °C 8,1 °C 4,8 km/h (1 Bft)
02.05.2017 10:32 8,0 °C 8,1 °C 77 % 1015,9 hPa 0,0 mm 0,7 km/h (0 Bft) SW 216 ° 1 min 0,000 mm 3,5 UV-I 596 W/m² 4,2 °C 8,0 °C 1,6 km/h (1 Bft)
02.05.2017 10:33 7,9 °C 8,0 °C 80 % 1015,9 hPa 0,0 mm 3,3 km/h (1 Bft) SW 218 ° 1 min 0,000 mm 3,5 UV-I 594 W/m² 4,7 °C 7,9 °C 4,8 km/h (1 Bft)
02.05.2017 10:34 7,9 °C 8,0 °C 80 % 1015,9 hPa 0,0 mm 3,4 km/h (1 Bft) W 273 ° 1 min 0,000 mm 3,7 UV-I 615 W/m² 4,7 °C 7,9 °C 4,8 km/h (1 Bft)
02.05.2017 10:35 8,0 °C 8,0 °C 80 % 1015,8 hPa 0,0 mm 4,6 km/h (1 Bft) W 278 ° 1 min 0,000 mm 3,7 UV-I 657 W/m² 4,8 °C 7,6 °C 6,4 km/h (2 Bft)
02.05.2017 10:36 8,1 °C 8,1 °C 81 % 1015,8 hPa 0,0 mm 5,5 km/h (1 Bft) NW 323 ° 1 min 0,000 mm 3,8 UV-I 657 W/m² 5,0 °C 7,4 °C 8,0 km/h (2 Bft)
02.05.2017 10:37 8,3 °C 8,3 °C 81 % 1015,8 hPa 0,0 mm 7,1 km/h (2 Bft) NW 319 ° 1 min 0,000 mm 3,9 UV-I 657 W/m² 5,2 °C 7,2 °C 11,3 km/h (2 Bft)
02.05.2017 10:38 8,5 °C 8,5 °C 82 % 1015,8 hPa 0,0 mm 8,3 km/h (2 Bft) W-NW 286 ° 1 min 0,000 mm 3,9 UV-I 666 W/m² 5,6 °C 7,2 °C 12,9 km/h (3 Bft)
02.05.2017 10:39 8,6 °C 8,6 °C 77 % 1015,8 hPa 0,0 mm 9,0 km/h (2 Bft) W 273 ° 1 min 0,000 mm 4,0 UV-I 684 W/m² 4,8 °C 7,2 °C 12,9 km/h (3 Bft)
02.05.2017 10:40 8,4 °C 8,6 °C 74 % 1015,9 hPa 0,0 mm 8,3 km/h (2 Bft) W-SW 249 ° 1 min 0,000 mm 4,1 UV-I 707 W/m² 4,0 °C 7,1 °C 12,9 km/h (3 Bft)
02.05.2017 10:41 8,4 °C 8,4 °C 76 % 1015,8 hPa 0,0 mm 6,2 km/h (2 Bft) W-NW 298 ° 1 min 0,000 mm 4,1 UV-I 726 W/m² 4,4 °C 7,6 °C 9,7 km/h (2 Bft)
02.05.2017 10:42 8,4 °C 8,4 °C 77 % 1015,8 hPa 0,0 mm 5,1 km/h (1 Bft) NW 304 ° 1 min 0,000 mm 4,2 UV-I 724 W/m² 4,6 °C 7,9 °C 8,0 km/h (2 Bft)
02.05.2017 10:43 8,3 °C 8,4 °C 74 % 1015,8 hPa 0,0 mm 2,3 km/h (1 Bft) NW 304 ° 1 min 0,000 mm 4,2 UV-I 735 W/m² 3,9 °C 8,3 °C 4,8 km/h (1 Bft)
02.05.2017 10:44 8,4 °C 8,4 °C 76 % 1015,8 hPa 0,0 mm 4,6 km/h (1 Bft) W 273 ° 1 min 0,000 mm 4,2 UV-I 731 W/m² 4,4 °C 8,1 °C 6,4 km/h (2 Bft)
02.05.2017 10:45 8,5 °C 8,5 °C 78 % 1015,9 hPa 0,0 mm 3,6 km/h (1 Bft) W 266 ° 1 min 0,000 mm 4,1 UV-I 733 W/m² 4,9 °C 8,5 °C 4,8 km/h (1 Bft)
02.05.2017 10:46 8,6 °C 8,6 °C 75 % 1015,8 hPa 0,0 mm 7,4 km/h (2 Bft) W 269 ° 1 min 0,000 mm 4,2 UV-I 735 W/m² 4,4 °C 7,5 °C 11,3 km/h (2 Bft)
02.05.2017 10:47 8,7 °C 8,7 °C 81 % 1015,8 hPa 0,0 mm 2,2 km/h (1 Bft) W 270 ° 1 min 0,000 mm 4,2 UV-I 763 W/m² 5,6 °C 8,7 °C 4,8 km/h (1 Bft)
02.05.2017 10:48 8,8 °C 8,8 °C 79 % 1015,8 hPa 0,0 mm 4,0 km/h (1 Bft) W 263 ° 1 min 0,000 mm 4,4 UV-I 782 W/m² 5,4 °C 8,8 °C 6,4 km/h (2 Bft)
02.05.2017 10:49 8,8 °C 8,8 °C 77 % 1015,8 hPa 0,0 mm 7,2 km/h (2 Bft) W-NW 295 ° 1 min 0,000 mm 4,5 UV-I 816 W/m² 5,0 °C 7,8 °C 11,3 km/h (2 Bft)
02.05.2017 10:50 8,7 °C 8,8 °C 75 % 1015,8 hPa 0,0 mm 5,8 km/h (2 Bft) W 279 ° 1 min 0,000 mm 4,4 UV-I 800 W/m² 4,5 °C 8,0 °C 6,4 km/h (2 Bft)
02.05.2017 10:51 8,6 °C 8,7 °C 75 % 1015,8 hPa 0,0 mm 4,9 km/h (1 Bft) W-NW 291 ° 1 min 0,000 mm 4,4 UV-I 779 W/m² 4,4 °C 8,2 °C 12,9 km/h (3 Bft)
02.05.2017 10:52 8,7 °C 8,7 °C 78 % 1015,8 hPa 0,0 mm 6,4 km/h (2 Bft) W-NW 286 ° 1 min 0,000 mm 4,3 UV-I 747 W/m² 5,1 °C 7,9 °C 14,5 km/h (3 Bft)
02.05.2017 10:53 8,7 °C 8,7 °C 74 % 1015,7 hPa 0,0 mm 5,1 km/h (1 Bft) NW 316 ° 1 min 0,000 mm 4,3 UV-I 744 W/m² 4,3 °C 8,2 °C 11,3 km/h (2 Bft)
02.05.2017 10:54 8,6 °C 8,7 °C 73 % 1015,8 hPa 0,0 mm 3,0 km/h (1 Bft) NW 316 ° 1 min 0,000 mm 4,3 UV-I 747 W/m² 4,0 °C 8,6 °C 6,4 km/h (2 Bft)
02.05.2017 10:55 8,8 °C 8,8 °C 79 % 1015,7 hPa 0,0 mm 4,5 km/h (1 Bft) W-NW 302 ° 1 min 0,000 mm 4,3 UV-I 749 W/m² 5,4 °C 8,8 °C 6,4 km/h (2 Bft)
02.05.2017 10:56 8,8 °C 8,8 °C 74 % 1015,7 hPa 0,0 mm 3,6 km/h (1 Bft) NW 312 ° 1 min 0,000 mm 4,4 UV-I 752 W/m² 4,4 °C 8,8 °C 6,4 km/h (2 Bft)
02.05.2017 10:57 8,9 °C 8,9 °C 75 % 1015,7 hPa 0,0 mm 5,0 km/h (1 Bft) W 280 ° 1 min 0,000 mm 4,3 UV-I 749 W/m² 4,7 °C 8,5 °C 9,7 km/h (2 Bft)
02.05.2017 10:58 9,1 °C 9,1 °C 80 % 1015,7 hPa 0,0 mm 3,8 km/h (1 Bft) W-NW 292 ° 1 min 0,000 mm 4,3 UV-I 735 W/m² 5,8 °C 9,1 °C 6,4 km/h (2 Bft)
02.05.2017 10:59 9,2 °C 9,2 °C 78 % 1015,7 hPa 0,0 mm 3,0 km/h (1 Bft) SW 233 ° 1 min 0,000 mm 4,3 UV-I 729 W/m² 5,6 °C 9,2 °C 4,8 km/h (1 Bft)
02.05.2017 11:00 9,2 °C 9,2 °C 73 % 1015,7 hPa 0,0 mm 5,1 km/h (1 Bft) SW 226 ° 1 min 0,000 mm 4,3 UV-I 733 W/m² 4,6 °C 8,8 °C 11,3 km/h (2 Bft)
02.05.2017 11:01 9,1 °C 9,2 °C 73 % 1015,7 hPa 0,0 mm 5,3 km/h (1 Bft) W-SW 240 ° 1 min 0,279 mm 4,4 UV-I 740 W/m² 4,5 °C 8,6 °C 8,0 km/h (2 Bft)
02.05.2017 11:02 9,1 °C 9,1 °C 72 % 1015,7 hPa 0,0 mm 4,9 km/h (1 Bft) W-SW 246 ° 1 min 0,000 mm 4,4 UV-I 744 W/m² 4,3 °C 8,8 °C 11,3 km/h (2 Bft)
02.05.2017 11:03 8,9 °C 9,1 °C 71 % 1015,7 hPa 0,0 mm 5,8 km/h (2 Bft) SW 233 ° 1 min 0,000 mm 4,4 UV-I 738 W/m² 3,9 °C 8,3 °C 8,0 km/h (2 Bft)
02.05.2017 11:04 8,9 °C 8,9 °C 75 % 1015,7 hPa 0,0 mm 6,1 km/h (2 Bft) W 271 ° 1 min 0,000 mm 4,4 UV-I 742 W/m² 4,7 °C 8,2 °C 11,3 km/h (2 Bft)
02.05.2017 11:05 8,9 °C 8,9 °C 74 % 1015,7 hPa 0,0 mm 8,2 km/h (2 Bft) W 260 ° 1 min 0,000 mm 4,5 UV-I 765 W/m² 4,5 °C 7,7 °C 9,7 km/h (2 Bft)
02.05.2017 11:06 9,0 °C 9,0 °C 75 % 1015,7 hPa 0,0 mm 6,8 km/h (2 Bft) W 259 ° 1 min 0,000 mm 4,6 UV-I 772 W/m² 4,8 °C 8,1 °C 9,7 km/h (2 Bft)
02.05.2017 11:07 9,1 °C 9,1 °C 75 % 1015,6 hPa 0,0 mm 5,1 km/h (1 Bft) W 272 ° 1 min 0,000 mm 4,6 UV-I 777 W/m² 4,9 °C 8,7 °C 9,7 km/h (2 Bft)
02.05.2017 11:08 9,0 °C 9,1 °C 72 % 1015,6 hPa 0,0 mm 5,3 km/h (1 Bft) W 261 ° 1 min 0,000 mm 4,6 UV-I 777 W/m² 4,2 °C 8,5 °C 9,7 km/h (2 Bft)
02.05.2017 11:09 9,1 °C 9,1 °C 73 % 1015,6 hPa 0,0 mm 7,8 km/h (2 Bft) W 275 ° 1 min 0,000 mm 4,6 UV-I 773 W/m² 4,5 °C 8,0 °C 12,9 km/h (3 Bft)
02.05.2017 11:10 9,0 °C 9,1 °C 71 % 1015,5 hPa 0,0 mm 9,8 km/h (2 Bft) W 265 ° 1 min 0,000 mm 4,5 UV-I 756 W/m² 4,0 °C 7,5 °C 12,9 km/h (3 Bft)
02.05.2017 11:11 9,0 °C 9,1 °C 73 % 1015,6 hPa 0,0 mm 5,4 km/h (1 Bft) W 274 ° 1 min 0,000 mm 4,6 UV-I 780 W/m² 4,4 °C 8,5 °C 9,7 km/h (2 Bft)
02.05.2017 11:12 8,9 °C 9,0 °C 70 % 1015,6 hPa 0,0 mm 6,2 km/h (2 Bft) W-SW 253 ° 1 min 0,000 mm 4,6 UV-I 765 W/m² 3,7 °C 8,2 °C 9,7 km/h (2 Bft)
02.05.2017 11:13 8,9 °C 8,9 °C 75 % 1015,6 hPa 0,0 mm 4,1 km/h (1 Bft) W-NW 285 ° 1 min 0,000 mm 4,6 UV-I 752 W/m² 4,7 °C 8,9 °C 8,0 km/h (2 Bft)
02.05.2017 11:14 8,9 °C 9,0 °C 74 % 1015,6 hPa 0,0 mm 3,8 km/h (1 Bft) W-NW 291 ° 1 min 0,000 mm 4,6 UV-I 765 W/m² 4,5 °C 8,9 °C 6,4 km/h (2 Bft)
02.05.2017 11:15 9,0 °C 9,0 °C 70 % 1015,6 hPa 0,0 mm 3,4 km/h (1 Bft) W-NW 290 ° 1 min 0,000 mm 4,7 UV-I 756 W/m² 3,8 °C 9,0 °C 6,4 km/h (2 Bft)
02.05.2017 11:16 9,1 °C 9,1 °C 73 % 1015,6 hPa 0,0 mm 3,7 km/h (1 Bft) NW 311 ° 1 min 0,000 mm 4,7 UV-I 773 W/m² 4,5 °C 9,1 °C 8,0 km/h (2 Bft)
02.05.2017 11:17 9,3 °C 9,3 °C 75 % 1015,6 hPa 0,0 mm 5,4 km/h (1 Bft) NW 306 ° 1 min 0,000 mm 4,8 UV-I 780 W/m² 5,1 °C 8,8 °C 6,4 km/h (2 Bft)
02.05.2017 11:18 9,3 °C 9,3 °C 71 % 1015,6 hPa 0,0 mm 5,2 km/h (1 Bft) NW 319 ° 1 min 0,000 mm 4,8 UV-I 779 W/m² 4,3 °C 8,9 °C 8,0 km/h (2 Bft)
02.05.2017 11:19 9,4 °C 9,4 °C 73 % 1015,6 hPa 0,0 mm 5,6 km/h (1 Bft) NW 319 ° 1 min 0,000 mm 4,8 UV-I 789 W/m² 4,8 °C 8,9 °C 8,0 km/h (2 Bft)
02.05.2017 11:20 9,6 °C 9,6 °C 69 % 1015,6 hPa 0,0 mm 9,9 km/h (2 Bft) W 277 ° 1 min 0,000 mm 4,9 UV-I 789 W/m² 4,2 °C 8,2 °C 11,3 km/h (2 Bft)
02.05.2017 11:21 9,5 °C 9,6 °C 71 % 1015,5 hPa 0,0 mm 7,3 km/h (2 Bft) W 270 ° 1 min 0,000 mm 4,9 UV-I 791 W/m² 4,5 °C 8,6 °C 11,3 km/h (2 Bft)
02.05.2017 11:22 9,6 °C 9,6 °C 69 % 1015,6 hPa 0,0 mm 4,6 km/h (1 Bft) SW 233 ° 1 min 0,000 mm 4,9 UV-I 793 W/m² 4,2 °C 9,4 °C 8,0 km/h (2 Bft)
02.05.2017 11:23 9,6 °C 9,6 °C 72 % 1015,6 hPa 0,0 mm 8,0 km/h (2 Bft) W 263 ° 1 min 0,000 mm 4,9 UV-I 793 W/m² 4,8 °C 8,5 °C 12,9 km/h (3 Bft)
02.05.2017 11:24 9,6 °C 9,6 °C 67 % 1015,6 hPa 0,0 mm 7,3 km/h (2 Bft) W 272 ° 1 min 0,000 mm 4,9 UV-I 795 W/m² 3,8 °C 8,7 °C 11,3 km/h (2 Bft)
02.05.2017 11:25 9,6 °C 9,6 °C 67 % 1015,6 hPa 0,0 mm 3,8 km/h (1 Bft) W-SW 251 ° 1 min 0,000 mm 4,9 UV-I 796 W/m² 3,8 °C 9,6 °C 8,0 km/h (2 Bft)
02.05.2017 11:26 9,6 °C 9,6 °C 67 % 1015,5 hPa 0,0 mm 4,6 km/h (1 Bft) S 181 ° 1 min 0,000 mm 4,9 UV-I 798 W/m² 3,8 °C 9,4 °C 8,0 km/h (2 Bft)
02.05.2017 11:27 9,6 °C 9,6 °C 68 % 1015,5 hPa 0,0 mm 4,0 km/h (1 Bft) W-SW 246 ° 1 min 0,000 mm 5,0 UV-I 800 W/m² 4,0 °C 9,6 °C 6,4 km/h (2 Bft)
02.05.2017 11:28 9,5 °C 9,6 °C 65 % 1015,5 hPa 0,0 mm 4,4 km/h (1 Bft) W 265 ° 1 min 0,000 mm 5,0 UV-I 803 W/m² 3,3 °C 9,5 °C 12,9 km/h (3 Bft)
02.05.2017 11:29 9,4 °C 9,5 °C 66 % 1015,5 hPa 0,0 mm 9,4 km/h (2 Bft) W 265 ° 1 min 0,000 mm 5,0 UV-I 803 W/m² 3,4 °C 8,0 °C 12,9 km/h (3 Bft)
02.05.2017 11:30 9,4 °C 9,4 °C 67 % 1015,5 hPa 0,0 mm 4,4 km/h (1 Bft) W 277 ° 1 min 0,000 mm 5,0 UV-I 805 W/m² 3,6 °C 9,4 °C 6,4 km/h (2 Bft)
02.05.2017 11:31 9,4 °C 9,4 °C 69 % 1015,5 hPa 0,0 mm 5,0 km/h (1 Bft) W-SW 241 ° 1 min 0,000 mm 5,0 UV-I 807 W/m² 4,0 °C 9,1 °C 8,0 km/h (2 Bft)
02.05.2017 11:32 9,6 °C 9,6 °C 70 % 1015,5 hPa 0,0 mm 3,5 km/h (1 Bft) W-SW 242 ° 1 min 0,000 mm 5,1 UV-I 807 W/m² 4,4 °C 9,6 °C 4,8 km/h (1 Bft)
02.05.2017 11:33 9,7 °C 9,7 °C 70 % 1015,5 hPa 0,0 mm 0,8 km/h (0 Bft) W-SW 240 ° 1 min 0,000 mm 5,1 UV-I 809 W/m² 4,5 °C 9,7 °C 3,2 km/h (1 Bft)
02.05.2017 11:34 9,6 °C 9,7 °C 67 % 1015,4 hPa 0,0 mm 2,3 km/h (1 Bft) SW 233 ° 1 min 0,000 mm 5,1 UV-I 809 W/m² 3,8 °C 9,6 °C 3,2 km/h (1 Bft)
02.05.2017 11:35 9,6 °C 9,6 °C 66 % 1015,4 hPa 0,0 mm 3,6 km/h (1 Bft) S-SW 195 ° 1 min 0,000 mm 5,1 UV-I 810 W/m² 3,6 °C 9,6 °C 9,7 km/h (2 Bft)
02.05.2017 11:36 9,7 °C 9,7 °C 68 % 1015,4 hPa 0,0 mm 1,3 km/h (1 Bft) S-SW 195 ° 1 min 0,000 mm 5,1 UV-I 814 W/m² 4,1 °C 9,7 °C 4,8 km/h (1 Bft)
02.05.2017 11:37 9,7 °C 9,7 °C 68 % 1015,4 hPa 0,0 mm 5,2 km/h (1 Bft) W 261 ° 1 min 0,000 mm 5,2 UV-I 814 W/m² 4,1 °C 9,4 °C 6,4 km/h (2 Bft)
02.05.2017 11:38 9,7 °C 9,7 °C 64 % 1015,4 hPa 0,0 mm 2,6 km/h (1 Bft) W 261 ° 1 min 0,000 mm 5,2 UV-I 817 W/m² 3,2 °C 9,7 °C 4,8 km/h (1 Bft)
02.05.2017 11:39 9,5 °C 9,7 °C 63 % 1015,5 hPa 0,0 mm 0,7 km/h (0 Bft) W 261 ° 1 min 0,000 mm 5,2 UV-I 819 W/m² 2,8 °C 9,5 °C 1,6 km/h (1 Bft)
02.05.2017 11:40 9,6 °C 9,6 °C 68 % 1015,4 hPa 0,0 mm 3,4 km/h (1 Bft) W 265 ° 1 min 0,000 mm 5,2 UV-I 819 W/m² 4,0 °C 9,6 °C 9,7 km/h (2 Bft)
02.05.2017 11:41 9,7 °C 9,7 °C 68 % 1015,4 hPa 0,0 mm 9,6 km/h (2 Bft) W 281 ° 1 min 0,000 mm 5,2 UV-I 819 W/m² 4,1 °C 8,3 °C 14,5 km/h (3 Bft)
02.05.2017 11:42 9,8 °C 9,8 °C 68 % 1015,4 hPa 0,0 mm 5,1 km/h (1 Bft) W 262 ° 1 min 0,000 mm 5,3 UV-I 823 W/m² 4,2 °C 9,5 °C 6,4 km/h (2 Bft)
02.05.2017 11:43 9,7 °C 9,8 °C 70 % 1015,4 hPa 0,0 mm 4,6 km/h (1 Bft) W-SW 257 ° 1 min 0,000 mm 5,3 UV-I 828 W/m² 4,5 °C 9,5 °C 6,4 km/h (2 Bft)
02.05.2017 11:44 9,7 °C 9,7 °C 68 % 1015,4 hPa 0,0 mm 6,2 km/h (2 Bft) W-NW 296 ° 1 min 0,000 mm 5,3 UV-I 835 W/m² 4,1 °C 9,1 °C 9,7 km/h (2 Bft)
02.05.2017 11:45 9,8 °C 9,8 °C 71 % 1015,4 hPa 0,0 mm 6,7 km/h (2 Bft) W-NW 283 ° 1 min 0,000 mm 5,3 UV-I 831 W/m² 4,8 °C 9,1 °C 11,3 km/h (2 Bft)
02.05.2017 11:46 9,8 °C 9,8 °C 68 % 1015,4 hPa 0,0 mm 5,0 km/h (1 Bft) W 274 ° 1 min 0,000 mm 5,3 UV-I 831 W/m² 4,2 °C 9,5 °C 9,7 km/h (2 Bft)
02.05.2017 11:47 9,8 °C 9,8 °C 69 % 1015,4 hPa 0,0 mm 3,4 km/h (1 Bft) NW 316 ° 1 min 0,000 mm 5,4 UV-I 833 W/m² 4,4 °C 9,8 °C 6,4 km/h (2 Bft)
02.05.2017 11:48 9,8 °C 9,8 °C 68 % 1015,4 hPa 0,0 mm 5,1 km/h (1 Bft) N-NW 345 ° 1 min 0,000 mm 5,4 UV-I 833 W/m² 4,2 °C 9,5 °C 6,4 km/h (2 Bft)
02.05.2017 11:49 9,9 °C 9,9 °C 70 % 1015,4 hPa 0,0 mm 6,8 km/h (2 Bft) N 351 ° 1 min 0,000 mm 5,4 UV-I 835 W/m² 4,7 °C 9,2 °C 9,7 km/h (2 Bft)
02.05.2017 11:50 10,1 °C 10,1 °C 67 % 1015,4 hPa 0,0 mm 5,7 km/h (1 Bft) N-NW 343 ° 1 min 0,000 mm 5,5 UV-I 838 W/m² 4,3 °C 10,1 °C 9,7 km/h (2 Bft)
02.05.2017 11:51 10,1 °C 10,1 °C 66 % 1015,4 hPa 0,0 mm 2,9 km/h (1 Bft) N-NW 342 ° 1 min 0,000 mm 5,5 UV-I 840 W/m² 4,0 °C 10,1 °C 4,8 km/h (1 Bft)
02.05.2017 11:52 9,9 °C 10,1 °C 64 % 1015,4 hPa 0,0 mm 0,0 km/h (0 Bft) N-NW 342 ° 1 min 0,000 mm 5,5 UV-I 849 W/m² 3,4 °C 9,9 °C 0,0 km/h (0 Bft)
02.05.2017 11:53 9,8 °C 9,9 °C 67 % 1015,4 hPa 0,0 mm 1,6 km/h (1 Bft) N-NW 342 ° 1 min 0,000 mm 5,6 UV-I 860 W/m² 4,0 °C 9,8 °C 3,2 km/h (1 Bft)
02.05.2017 11:54 9,8 °C 9,8 °C 67 % 1015,4 hPa 0,0 mm 2,0 km/h (1 Bft) N 360 ° 1 min 0,000 mm 5,7 UV-I 872 W/m² 4,0 °C 9,8 °C 6,4 km/h (2 Bft)
02.05.2017 11:55 9,8 °C 9,8 °C 65 % 1015,4 hPa 0,0 mm 4,4 km/h (1 Bft) N 355 ° 1 min 0,000 mm 5,8 UV-I 879 W/m² 3,5 °C 9,8 °C 6,4 km/h (2 Bft)
02.05.2017 11:56 10,0 °C 10,0 °C 64 % 1015,4 hPa 0,0 mm 4,8 km/h (1 Bft) N-NO 24 ° 1 min 0,000 mm 5,9 UV-I 912 W/m² 3,5 °C 9,8 °C 6,4 km/h (2 Bft)
02.05.2017 11:57 10,1 °C 10,1 °C 63 % 1015,4 hPa 0,0 mm 6,6 km/h (2 Bft) N-NW 336 ° 1 min 0,000 mm 2,6 UV-I 912 W/m² 3,4 °C 10,1 °C 9,7 km/h (2 Bft)
02.05.2017 11:58 10,2 °C 10,2 °C 67 % 1015,4 hPa 0,0 mm 8,6 km/h (2 Bft) W-NW 295 ° 0 min 0,000 mm 2,6 UV-I 165 W/m² 4,4 °C 10,2 °C 14,5 km/h (3 Bft)
02.05.2017 11:59 10,1 °C 10,2 °C 64 % 1015,4 hPa 0,0 mm 9,9 km/h (2 Bft) W-NW 297 ° 0 min 0,000 mm 2,9 UV-I 165 W/m² 3,6 °C 10,1 °C 14,5 km/h (3 Bft)
02.05.2017 12:00 9,9 °C 10,1 °C 63 % 1015,4 hPa 0,0 mm 4,9 km/h (1 Bft) W-NW 302 ° 0 min 0,000 mm 2,4 UV-I 179 W/m² 3,2 °C 9,7 °C 9,7 km/h (2 Bft)
02.05.2017 12:01 9,7 °C 9,9 °C 63 % 1015,4 hPa 0,0 mm 10,3 km/h (2 Bft) W-NW 290 ° 0 min 0,356 mm 2,3 UV-I 155 W/m² 3,0 °C 8,2 °C 17,7 km/h (3 Bft)
02.05.2017 12:02 9,6 °C 9,7 °C 63 % 1015,4 hPa 0,0 mm 8,2 km/h (2 Bft) W 262 ° 0 min 0,000 mm 2,3 UV-I 134 W/m² 2,9 °C 8,5 °C 12,9 km/h (3 Bft)
02.05.2017 12:03 9,4 °C 9,6 °C 62 % 1015,5 hPa 0,0 mm 4,8 km/h (1 Bft) W 262 ° 0 min 0,000 mm 2,5 UV-I 153 W/m² 2,5 °C 9,1 °C 11,3 km/h (2 Bft)
02.05.2017 12:04 9,4 °C 9,4 °C 63 % 1015,4 hPa 0,0 mm 3,4 km/h (1 Bft) W-SW 252 ° 0 min 0,000 mm 5,8 UV-I 153 W/m² 2,7 °C 9,4 °C 4,8 km/h (1 Bft)
02.05.2017 12:05 9,4 °C 9,4 °C 65 % 1015,4 hPa 0,0 mm 1,5 km/h (1 Bft) W-SW 252 ° 0 min 0,000 mm 4,9 UV-I 153 W/m² 3,2 °C 9,4 °C 3,2 km/h (1 Bft)
02.05.2017 12:06 9,6 °C 9,6 °C 65 % 1015,4 hPa 0,0 mm 3,3 km/h (1 Bft) SW 227 ° 1 min 0,000 mm 2,7 UV-I 1013 W/m² 3,4 °C 9,6 °C 6,4 km/h (2 Bft)
02.05.2017 12:07 9,7 °C 9,7 °C 64 % 1015,4 hPa 0,0 mm 5,9 km/h (2 Bft) W-SW 243 ° 1 min 0,000 mm 2,8 UV-I 1013 W/m² 3,2 °C 9,2 °C 11,3 km/h (2 Bft)
02.05.2017 12:08 9,7 °C 9,7 °C 65 % 1015,4 hPa 0,0 mm 5,4 km/h (1 Bft) NW 304 ° 0 min 0,000 mm 2,5 UV-I 230 W/m² 3,4 °C 9,3 °C 6,4 km/h (2 Bft)
02.05.2017 12:09 9,6 °C 9,7 °C 64 % 1015,5 hPa 0,0 mm 3,2 km/h (1 Bft) NW 313 ° 0 min 0,000 mm 2,3 UV-I 146 W/m² 3,1 °C 9,6 °C 4,8 km/h (1 Bft)
02.05.2017 12:10 9,6 °C 9,6 °C 63 % 1015,4 hPa 0,0 mm 3,4 km/h (1 Bft) NW 315 ° 0 min 0,000 mm 2,3 UV-I 153 W/m² 2,9 °C 9,6 °C 4,8 km/h (1 Bft)
02.05.2017 12:11 9,4 °C 9,6 °C 64 % 1015,5 hPa 0,0 mm 0,7 km/h (0 Bft) NW 315 ° 0 min 0,000 mm 2,3 UV-I 151 W/m² 2,9 °C 9,4 °C 1,6 km/h (1 Bft)
02.05.2017 12:12 9,4 °C 9,4 °C 63 % 1015,4 hPa 0,0 mm 1,8 km/h (1 Bft) NW 323 ° 0 min 0,000 mm 2,3 UV-I 153 W/m² 2,7 °C 9,4 °C 4,8 km/h (1 Bft)
02.05.2017 12:13 9,4 °C 9,4 °C 66 % 1015,4 hPa 0,0 mm 3,7 km/h (1 Bft) N-NO 31 ° 0 min 0,000 mm 4,9 UV-I 153 W/m² 3,4 °C 9,4 °C 4,8 km/h (1 Bft)
02.05.2017 12:14 9,6 °C 9,6 °C 65 % 1015,4 hPa 0,0 mm 5,6 km/h (1 Bft) W 273 ° 0 min 0,000 mm 5,3 UV-I 153 W/m² 3,4 °C 9,1 °C 9,7 km/h (2 Bft)
02.05.2017 12:15 9,8 °C 9,8 °C 65 % 1015,4 hPa 0,0 mm 5,5 km/h (1 Bft) W 270 ° 0 min 0,000 mm 2,8 UV-I 153 W/m² 3,5 °C 9,4 °C 9,7 km/h (2 Bft)
02.05.2017 12:16 9,8 °C 9,8 °C 63 % 1015,4 hPa 0,0 mm 9,3 km/h (2 Bft) W 259 ° 0 min 0,000 mm 2,0 UV-I 95 W/m² 3,1 °C 8,5 °C 12,9 km/h (3 Bft)
02.05.2017 12:17 9,8 °C 9,8 °C 65 % 1015,4 hPa 0,0 mm 7,6 km/h (2 Bft) W 259 ° 0 min 0,000 mm 2,0 UV-I 91 W/m² 3,5 °C 8,9 °C 11,3 km/h (2 Bft)
02.05.2017 12:18 9,7 °C 9,8 °C 63 % 1015,3 hPa 0,0 mm 5,7 km/h (1 Bft) W-SW 249 ° 0 min 0,000 mm 2,0 UV-I 90 W/m² 3,0 °C 9,2 °C 6,4 km/h (2 Bft)
02.05.2017 12:19 9,6 °C 9,7 °C 64 % 1015,4 hPa 0,0 mm 2,1 km/h (1 Bft) W-SW 253 ° 0 min 0,000 mm 2,0 UV-I 98 W/m² 3,1 °C 9,6 °C 3,2 km/h (1 Bft)
02.05.2017 12:20 9,3 °C 9,6 °C 65 % 1015,4 hPa 0,0 mm 0,8 km/h (0 Bft) W-SW 253 ° 0 min 0,000 mm 2,1 UV-I 114 W/m² 3,1 °C 9,3 °C 3,2 km/h (1 Bft)
02.05.2017 12:21 9,2 °C 9,3 °C 64 % 1015,4 hPa 0,0 mm 2,4 km/h (1 Bft) SW 236 ° 0 min 0,000 mm 3,6 UV-I 135 W/m² 2,8 °C 9,2 °C 4,8 km/h (1 Bft)
02.05.2017 12:22 9,3 °C 9,3 °C 63 % 1015,4 hPa 0,0 mm 2,6 km/h (1 Bft) SW 233 ° 1 min 0,000 mm 5,7 UV-I 949 W/m² 2,6 °C 9,3 °C 3,2 km/h (1 Bft)
02.05.2017 12:23 9,8 °C 9,8 °C 69 % 1015,4 hPa 0,0 mm 2,1 km/h (1 Bft) SW 234 ° 1 min 0,000 mm 2,3 UV-I 949 W/m² 4,4 °C 9,8 °C 3,2 km/h (1 Bft)
02.05.2017 12:24 9,9 °C 9,9 °C 70 % 1015,4 hPa 0,0 mm 0,1 km/h (0 Bft) SW 234 ° 0 min 0,000 mm 2,3 UV-I 142 W/m² 4,7 °C 9,9 °C 1,6 km/h (1 Bft)
02.05.2017 12:25 9,8 °C 9,9 °C 66 % 1015,4 hPa 0,0 mm 0,1 km/h (0 Bft) SW 234 ° 0 min 0,000 mm 5,8 UV-I 142 W/m² 3,8 °C 9,8 °C 1,6 km/h (1 Bft)
02.05.2017 12:26 9,9 °C 9,9 °C 65 % 1015,4 hPa 0,0 mm 7,4 km/h (2 Bft) W-SW 256 ° 1 min 0,000 mm 5,8 UV-I 926 W/m² 3,6 °C 9,0 °C 16,1 km/h (3 Bft)
02.05.2017 12:27 10,1 °C 10,1 °C 62 % 1015,4 hPa 0,0 mm 11,5 km/h (2 Bft) W-NW 284 ° 1 min 0,000 mm 5,8 UV-I 932 W/m² 3,2 °C 10,1 °C 14,5 km/h (3 Bft)
02.05.2017 12:28 10,2 °C 10,2 °C 61 % 1015,4 hPa 0,0 mm 8,3 km/h (2 Bft) W 263 ° 1 min 0,000 mm 5,9 UV-I 940 W/m² 3,0 °C 10,2 °C 11,3 km/h (2 Bft)
02.05.2017 12:29 10,4 °C 10,4 °C 61 % 1015,4 hPa 0,0 mm 7,2 km/h (2 Bft) NW 315 ° 1 min 0,000 mm 6,0 UV-I 853 W/m² 3,2 °C 10,4 °C 11,3 km/h (2 Bft)
02.05.2017 12:30 10,5 °C 10,5 °C 62 % 1015,3 hPa 0,0 mm 2,8 km/h (1 Bft) NW 315 ° 1 min 0,000 mm 6,0 UV-I 953 W/m² 3,5 °C 10,5 °C 4,8 km/h (1 Bft)
02.05.2017 12:31 10,6 °C 10,6 °C 58 % 1015,4 hPa 0,0 mm 1,8 km/h (1 Bft) W-NW 302 ° 1 min 0,000 mm 5,1 UV-I 953 W/m² 2,7 °C 10,6 °C 3,2 km/h (1 Bft)
02.05.2017 12:32 10,5 °C 10,6 °C 60 % 1015,3 hPa 0,0 mm 2,0 km/h (1 Bft) S 183 ° 1 min 0,000 mm 6,0 UV-I 953 W/m² 3,1 °C 10,5 °C 4,8 km/h (1 Bft)
02.05.2017 12:33 10,5 °C 10,5 °C 57 % 1015,4 hPa 0,0 mm 0,7 km/h (0 Bft) S 183 ° 1 min 0,000 mm 6,3 UV-I 965 W/m² 2,3 °C 10,5 °C 3,2 km/h (1 Bft)
02.05.2017 12:34 10,6 °C 10,6 °C 62 % 1015,4 hPa 0,0 mm 1,6 km/h (1 Bft) S 189 ° 1 min 0,000 mm 5,6 UV-I 965 W/m² 3,6 °C 10,6 °C 3,2 km/h (1 Bft)
02.05.2017 12:35 10,5 °C 10,6 °C 57 % 1015,3 hPa 0,0 mm 0,7 km/h (0 Bft) S 189 ° 1 min 0,000 mm 6,1 UV-I 965 W/m² 2,3 °C 10,5 °C 1,6 km/h (1 Bft)
02.05.2017 12:36 10,6 °C 10,6 °C 59 % 1015,4 hPa 0,0 mm 3,6 km/h (1 Bft) NW 310 ° 1 min 0,000 mm 6,2 UV-I 935 W/m² 2,9 °C 10,6 °C 4,8 km/h (1 Bft)
02.05.2017 12:37 10,7 °C 10,7 °C 61 % 1015,3 hPa 0,0 mm 2,5 km/h (1 Bft) NW 314 ° 1 min 0,000 mm 6,2 UV-I 940 W/m² 3,5 °C 10,7 °C 8,0 km/h (2 Bft)
02.05.2017 12:38 10,8 °C 10,8 °C 63 % 1015,3 hPa 0,0 mm 2,4 km/h (1 Bft) W-NW 299 ° 1 min 0,000 mm 6,2 UV-I 942 W/m² 4,0 °C 10,8 °C 6,4 km/h (2 Bft)
02.05.2017 12:39 10,9 °C 10,9 °C 61 % 1015,3 hPa 0,0 mm 4,4 km/h (1 Bft) SW 236 ° 1 min 0,000 mm 6,2 UV-I 919 W/m² 3,7 °C 10,9 °C 6,4 km/h (2 Bft)
02.05.2017 12:40 11,1 °C 11,1 °C 63 % 1015,3 hPa 0,0 mm 11,4 km/h (2 Bft) W-NW 283 ° 1 min 0,000 mm 6,2 UV-I 921 W/m² 4,3 °C 11,1 °C 14,5 km/h (3 Bft)
02.05.2017 12:41 11,1 °C 11,1 °C 59 % 1015,3 hPa 0,0 mm 4,9 km/h (1 Bft) W-NW 287 ° 1 min 0,000 mm 6,2 UV-I 928 W/m² 3,4 °C 11,1 °C 6,4 km/h (2 Bft)
02.05.2017 12:42 11,1 °C 11,1 °C 58 % 1015,3 hPa 0,0 mm 4,1 km/h (1 Bft) W-NW 290 ° 1 min 0,000 mm 6,2 UV-I 951 W/m² 3,2 °C 11,1 °C 6,4 km/h (2 Bft)
02.05.2017 12:43 11,3 °C 11,3 °C 64 % 1015,3 hPa 0,0 mm 2,5 km/h (1 Bft) W-NW 292 ° 1 min 0,000 mm 6,3 UV-I 953 W/m² 4,7 °C 11,3 °C 4,8 km/h (1 Bft)
02.05.2017 12:44 11,5 °C 11,5 °C 58 % 1015,1 hPa 0,0 mm 3,6 km/h (1 Bft) W-NW 302 ° 1 min 0,000 mm 6,3 UV-I 942 W/m² 3,5 °C 11,5 °C 6,4 km/h (2 Bft)
02.05.2017 12:45 11,6 °C 11,6 °C 59 % 1015,1 hPa 0,0 mm 10,9 km/h (2 Bft) W 259 ° 1 min 0,000 mm 6,4 UV-I 965 W/m² 3,9 °C 11,6 °C 16,1 km/h (3 Bft)
02.05.2017 12:46 11,4 °C 11,6 °C 55 % 1015,2 hPa 0,0 mm 14,1 km/h (3 Bft) W 267 ° 1 min 0,000 mm 3,0 UV-I 965 W/m² 2,7 °C 11,4 °C 16,1 km/h (3 Bft)
02.05.2017 12:47 11,3 °C 11,4 °C 54 % 1015,2 hPa 0,0 mm 13,2 km/h (3 Bft) W 265 ° 1 min 0,000 mm 6,3 UV-I 689 W/m² 2,3 °C 11,3 °C 16,1 km/h (3 Bft)
02.05.2017 12:48 11,1 °C 11,3 °C 56 % 1015,2 hPa 0,0 mm 8,1 km/h (2 Bft) W-NW 284 ° 1 min 0,000 mm 3,3 UV-I 689 W/m² 2,7 °C 11,1 °C 12,9 km/h (3 Bft)
02.05.2017 12:49 10,9 °C 11,1 °C 54 % 1015,2 hPa 0,0 mm 6,7 km/h (2 Bft) W-NW 286 ° 1 min 0,000 mm 2,7 UV-I 689 W/m² 2,0 °C 10,9 °C 11,3 km/h (2 Bft)
02.05.2017 12:50 10,8 °C 10,9 °C 55 % 1015,2 hPa 0,0 mm 3,6 km/h (1 Bft) NW 304 ° 0 min 0,000 mm 2,9 UV-I 264 W/m² 2,1 °C 10,8 °C 9,7 km/h (2 Bft)
02.05.2017 12:51 10,8 °C 10,8 °C 55 % 1015,1 hPa 0,0 mm 4,0 km/h (1 Bft) NW 304 ° 0 min 0,000 mm 6,7 UV-I 264 W/m² 2,1 °C 10,8 °C 6,4 km/h (2 Bft)
02.05.2017 12:52 10,8 °C 10,8 °C 56 % 1015,2 hPa 0,0 mm 2,0 km/h (1 Bft) N-NO 24 ° 0 min 0,000 mm 6,5 UV-I 264 W/m² 2,4 °C 10,8 °C 4,8 km/h (1 Bft)
02.05.2017 12:53 10,8 °C 10,8 °C 56 % 1015,1 hPa 0,0 mm 4,2 km/h (1 Bft) N-NO 22 ° 1 min 0,000 mm 5,8 UV-I 1051 W/m² 2,4 °C 10,8 °C 6,4 km/h (2 Bft)
02.05.2017 12:54 10,9 °C 10,9 °C 56 % 1015,1 hPa 0,0 mm 4,1 km/h (1 Bft) N 351 ° 1 min 0,000 mm 5,8 UV-I 1051 W/m² 2,5 °C 10,9 °C 14,5 km/h (3 Bft)
02.05.2017 12:55 11,1 °C 11,1 °C 61 % 1015,1 hPa 0,0 mm 14,2 km/h (3 Bft) NW 306 ° 1 min 0,000 mm 5,6 UV-I 1051 W/m² 3,9 °C 11,1 °C 19,3 km/h (3 Bft)
02.05.2017 12:56 11,2 °C 11,2 °C 59 % 1015,1 hPa 0,0 mm 6,6 km/h (2 Bft) NW 321 ° 1 min 0,000 mm 6,5 UV-I 990 W/m² 3,5 °C 11,2 °C 8,0 km/h (2 Bft)
02.05.2017 12:57 11,3 °C 11,3 °C 57 % 1015,0 hPa 0,0 mm 5,6 km/h (1 Bft) N-NW 333 ° 1 min 0,000 mm 6,5 UV-I 974 W/m² 3,1 °C 11,3 °C 6,4 km/h (2 Bft)
02.05.2017 12:58 11,3 °C 11,3 °C 54 % 1015,0 hPa 0,0 mm 5,2 km/h (1 Bft) NO 34 ° 1 min 0,000 mm 6,6 UV-I 990 W/m² 2,3 °C 11,3 °C 9,7 km/h (2 Bft)
02.05.2017 12:59 11,3 °C 11,3 °C 56 % 1015,0 hPa 0,0 mm 5,2 km/h (1 Bft) N 351 ° 1 min 0,000 mm 5,3 UV-I 990 W/m² 2,8 °C 11,3 °C 9,7 km/h (2 Bft)
02.05.2017 13:00 11,4 °C 11,4 °C 56 % 1015,0 hPa 0,0 mm 3,0 km/h (1 Bft) N 351 ° 1 min 0,000 mm 6,4 UV-I 990 W/m² 2,9 °C 11,4 °C 4,8 km/h (1 Bft)
02.05.2017 13:01 11,6 °C 11,6 °C 56 % 1015,0 hPa 0,0 mm 3,2 km/h (1 Bft) W-SW 255 ° 1 min 0,330 mm 5,5 UV-I 939 W/m² 3,1 °C 11,6 °C 4,8 km/h (1 Bft)
02.05.2017 13:02 11,7 °C 11,7 °C 57 % 1015,0 hPa 0,0 mm 4,1 km/h (1 Bft) W-NW 284 ° 1 min 0,000 mm 6,5 UV-I 1037 W/m² 3,5 °C 11,7 °C 6,4 km/h (2 Bft)
02.05.2017 13:03 11,5 °C 11,7 °C 55 % 1015,0 hPa 0,0 mm 6,4 km/h (2 Bft) W-SW 243 ° 1 min 0,000 mm 2,7 UV-I 1037 W/m² 2,8 °C 11,5 °C 8,0 km/h (2 Bft)
02.05.2017 13:04 11,3 °C 11,5 °C 57 % 1015,0 hPa 0,0 mm 3,1 km/h (1 Bft) W 280 ° 0 min 0,000 mm 2,8 UV-I 183 W/m² 3,1 °C 11,3 °C 6,4 km/h (2 Bft)
02.05.2017 13:05 11,1 °C 11,3 °C 57 % 1015,0 hPa 0,0 mm 1,1 km/h (1 Bft) W 280 ° 0 min 0,000 mm 6,5 UV-I 183 W/m² 2,9 °C 11,1 °C 3,2 km/h (1 Bft)
02.05.2017 13:06 11,1 °C 11,2 °C 55 % 1015,0 hPa 0,0 mm 0,9 km/h (0 Bft) W 280 ° 1 min 0,000 mm 6,4 UV-I 993 W/m² 2,4 °C 11,1 °C 3,2 km/h (1 Bft)
02.05.2017 13:07 11,3 °C 11,3 °C 60 % 1015,0 hPa 0,0 mm 2,3 km/h (1 Bft) W-NW 291 ° 1 min 0,000 mm 6,3 UV-I 953 W/m² 3,8 °C 11,3 °C 6,4 km/h (2 Bft)
02.05.2017 13:08 11,4 °C 11,4 °C 55 % 1015,0 hPa 0,0 mm 5,4 km/h (1 Bft) NW 306 ° 1 min 0,000 mm 6,3 UV-I 933 W/m² 2,7 °C 11,4 °C 8,0 km/h (2 Bft)
02.05.2017 13:09 11,4 °C 11,4 °C 56 % 1015,0 hPa 0,0 mm 5,0 km/h (1 Bft) NW 317 ° 1 min 0,000 mm 6,3 UV-I 940 W/m² 2,9 °C 11,4 °C 11,3 km/h (2 Bft)
02.05.2017 13:10 11,5 °C 11,5 °C 56 % 1015,0 hPa 0,0 mm 7,6 km/h (2 Bft) W-NW 286 ° 1 min 0,000 mm 6,4 UV-I 960 W/m² 3,0 °C 11,5 °C 12,9 km/h (3 Bft)
02.05.2017 13:11 11,5 °C 11,5 °C 58 % 1015,0 hPa 0,0 mm 4,4 km/h (1 Bft) W-NW 285 ° 1 min 0,000 mm 2,9 UV-I 960 W/m² 3,5 °C 11,5 °C 11,3 km/h (2 Bft)
02.05.2017 13:12 11,3 °C 11,5 °C 53 % 1015,0 hPa 0,0 mm 5,8 km/h (2 Bft) W-NW 289 ° 0 min 0,000 mm 2,5 UV-I 165 W/m² 2,1 °C 11,3 °C 8,0 km/h (2 Bft)
02.05.2017 13:13 11,1 °C 11,3 °C 56 % 1015,0 hPa 0,0 mm 2,5 km/h (1 Bft) W-NW 296 ° 0 min 0,000 mm 2,6 UV-I 167 W/m² 2,7 °C 11,1 °C 4,8 km/h (1 Bft)
02.05.2017 13:14 10,9 °C 11,1 °C 53 % 1015,0 hPa 0,0 mm 0,3 km/h (0 Bft) W-NW 296 ° 1 min 0,000 mm 3,9 UV-I 759 W/m² 1,7 °C 10,9 °C 1,6 km/h (1 Bft)
02.05.2017 13:15 10,9 °C 10,9 °C 54 % 1015,0 hPa 0,0 mm 1,7 km/h (1 Bft) N-NO 24 ° 1 min 0,000 mm 6,6 UV-I 759 W/m² 2,0 °C 10,9 °C 3,2 km/h (1 Bft)
02.05.2017 13:16 10,8 °C 10,9 °C 55 % 1015,1 hPa 0,0 mm 4,1 km/h (1 Bft) O-NO 69 ° 1 min 0,000 mm 3,8 UV-I 759 W/m² 2,1 °C 10,8 °C 4,8 km/h (1 Bft)
02.05.2017 13:17 10,8 °C 10,8 °C 55 % 1015,1 hPa 0,0 mm 3,4 km/h (1 Bft) O-NO 73 ° 1 min 0,000 mm 6,6 UV-I 759 W/m² 2,1 °C 10,8 °C 4,8 km/h (1 Bft)
02.05.2017 13:18 10,8 °C 10,8 °C 54 % 1015,1 hPa 0,0 mm 1,3 km/h (1 Bft) O-NO 73 ° 1 min 0,000 mm 6,4 UV-I 759 W/m² 1,9 °C 10,8 °C 3,2 km/h (1 Bft)
02.05.2017 13:19 10,9 °C 10,9 °C 53 % 1015,1 hPa 0,0 mm 1,0 km/h (0 Bft) O-NO 73 ° 1 min 0,000 mm 6,5 UV-I 1004 W/m² 1,7 °C 10,9 °C 3,2 km/h (1 Bft)
02.05.2017 13:20 10,9 °C 10,9 °C 53 % 1015,1 hPa 0,0 mm 3,9 km/h (1 Bft) N 5 ° 1 min 0,000 mm 6,5 UV-I 1004 W/m² 1,7 °C 10,9 °C 6,4 km/h (2 Bft)
02.05.2017 13:21 11,2 °C 11,2 °C 53 % 1015,1 hPa 0,0 mm 6,3 km/h (2 Bft) N-NW 344 ° 1 min 0,000 mm 6,6 UV-I 1004 W/m² 2,0 °C 11,2 °C 8,0 km/h (2 Bft)
02.05.2017 13:22 11,5 °C 11,5 °C 53 % 1015,1 hPa 0,0 mm 5,0 km/h (1 Bft) N 350 ° 1 min 0,000 mm 6,7 UV-I 1044 W/m² 2,3 °C 11,5 °C 6,4 km/h (2 Bft)
02.05.2017 13:23 11,7 °C 11,7 °C 56 % 1015,1 hPa 0,0 mm 4,7 km/h (1 Bft) N 350 ° 1 min 0,000 mm 6,7 UV-I 1051 W/m² 3,2 °C 11,7 °C 6,4 km/h (2 Bft)
02.05.2017 13:24 11,8 °C 11,8 °C 55 % 1015,1 hPa 0,0 mm 3,7 km/h (1 Bft) N-NW 338 ° 1 min 0,000 mm 6,7 UV-I 1055 W/m² 3,1 °C 11,8 °C 6,4 km/h (2 Bft)
02.05.2017 13:25 11,9 °C 11,9 °C 53 % 1015,1 hPa 0,0 mm 3,4 km/h (1 Bft) N 355 ° 1 min 0,000 mm 6,8 UV-I 1100 W/m² 2,6 °C 11,9 °C 6,4 km/h (2 Bft)
02.05.2017 13:26 12,1 °C 12,1 °C 58 % 1015,1 hPa 0,0 mm 4,9 km/h (1 Bft) O 92 ° 1 min 0,000 mm 5,1 UV-I 1143 W/m² 4,1 °C 12,1 °C 11,3 km/h (2 Bft)
02.05.2017 13:27 12,0 °C 12,1 °C 55 % 1015,1 hPa 0,0 mm 4,7 km/h (1 Bft) SO 134 ° 1 min 0,000 mm 3,4 UV-I 1143 W/m² 3,2 °C 12,0 °C 11,3 km/h (2 Bft)
02.05.2017 13:28 11,8 °C 12,0 °C 50 % 1015,1 hPa 0,0 mm 4,1 km/h (1 Bft) SO 128 ° 1 min 0,000 mm 5,7 UV-I 506 W/m² 1,7 °C 11,8 °C 8,0 km/h (2 Bft)
02.05.2017 13:29 11,5 °C 11,8 °C 52 % 1015,2 hPa 0,0 mm 1,9 km/h (1 Bft) SO 128 ° 1 min 0,000 mm 6,9 UV-I 506 W/m² 2,0 °C 11,5 °C 4,8 km/h (1 Bft)
02.05.2017 13:30 11,5 °C 11,5 °C 53 % 1015,2 hPa 0,0 mm 0,2 km/h (0 Bft) SO 128 ° 1 min 0,000 mm 3,3 UV-I 506 W/m² 2,3 °C 11,5 °C 1,6 km/h (1 Bft)
02.05.2017 13:31 11,4 °C 11,5 °C 52 % 1015,1 hPa 0,0 mm 0,5 km/h (0 Bft) O-NO 65 ° 1 min 0,000 mm 3,5 UV-I 506 W/m² 1,9 °C 11,4 °C 1,6 km/h (1 Bft)
02.05.2017 13:32 11,3 °C 11,4 °C 53 % 1015,1 hPa 0,0 mm 0,6 km/h (0 Bft) O 81 ° 1 min 0,000 mm 6,8 UV-I 506 W/m² 2,1 °C 11,3 °C 3,2 km/h (1 Bft)
02.05.2017 13:33 11,5 °C 11,5 °C 59 % 1015,1 hPa 0,0 mm 2,6 km/h (1 Bft) O 88 ° 1 min 0,000 mm 6,7 UV-I 1093 W/m² 3,8 °C 11,5 °C 6,4 km/h (2 Bft)
02.05.2017 13:34 11,7 °C 11,7 °C 54 % 1015,1 hPa 0,0 mm 3,2 km/h (1 Bft) O 92 ° 1 min 0,000 mm 6,7 UV-I 1078 W/m² 2,7 °C 11,7 °C 4,8 km/h (1 Bft)
02.05.2017 13:35 11,9 °C 11,9 °C 58 % 1015,1 hPa 0,0 mm 2,7 km/h (1 Bft) O-NO 74 ° 1 min 0,000 mm 6,7 UV-I 1065 W/m² 3,9 °C 11,9 °C 4,8 km/h (1 Bft)
02.05.2017 13:36 11,9 °C 12,0 °C 52 % 1015,1 hPa 0,0 mm 3,5 km/h (1 Bft) O-NO 69 ° 1 min 0,000 mm 6,7 UV-I 1056 W/m² 2,4 °C 11,9 °C 6,4 km/h (2 Bft)
02.05.2017 13:37 11,9 °C 11,9 °C 53 % 1015,1 hPa 0,0 mm 4,2 km/h (1 Bft) NO 52 ° 1 min 0,000 mm 6,7 UV-I 1046 W/m² 2,6 °C 11,9 °C 6,4 km/h (2 Bft)
02.05.2017 13:38 11,9 °C 12,0 °C 58 % 1015,1 hPa 0,0 mm 3,5 km/h (1 Bft) O-NO 76 ° 1 min 0,000 mm 6,7 UV-I 1056 W/m² 3,9 °C 11,9 °C 6,4 km/h (2 Bft)
02.05.2017 13:39 11,9 °C 12,0 °C 57 % 1015,1 hPa 0,0 mm 5,0 km/h (1 Bft) NO 38 ° 1 min 0,000 mm 6,8 UV-I 1090 W/m² 3,7 °C 11,9 °C 8,0 km/h (2 Bft)
02.05.2017 13:40 11,9 °C 11,9 °C 52 % 1015,1 hPa 0,0 mm 5,8 km/h (2 Bft) NO 40 ° 1 min 0,000 mm 3,4 UV-I 1090 W/m² 2,4 °C 11,9 °C 9,7 km/h (2 Bft)
02.05.2017 13:41 11,9 °C 11,9 °C 52 % 1015,1 hPa 0,0 mm 4,3 km/h (1 Bft) NO 37 ° 0 min 0,000 mm 3,0 UV-I 260 W/m² 2,4 °C 11,9 °C 6,4 km/h (2 Bft)
02.05.2017 13:42 11,7 °C 11,9 °C 51 % 1015,2 hPa 0,0 mm 0,8 km/h (0 Bft) O-NO 70 ° 1 min 0,000 mm 3,0 UV-I 292 W/m² 1,9 °C 11,7 °C 4,8 km/h (1 Bft)
02.05.2017 13:43 11,4 °C 11,7 °C 51 % 1015,1 hPa 0,0 mm 6,5 km/h (2 Bft) O-NO 61 ° 1 min 0,000 mm 3,3 UV-I 306 W/m² 1,6 °C 11,4 °C 9,7 km/h (2 Bft)
02.05.2017 13:44 11,4 °C 11,4 °C 54 % 1015,1 hPa 0,0 mm 8,1 km/h (2 Bft) NO 38 ° 1 min 0,000 mm 6,9 UV-I 306 W/m² 2,4 °C 11,4 °C 12,9 km/h (3 Bft)
02.05.2017 13:45 11,7 °C 11,7 °C 58 % 1015,1 hPa 0,0 mm 6,8 km/h (2 Bft) O-NO 76 ° 1 min 0,000 mm 6,8 UV-I 1144 W/m² 3,7 °C 11,7 °C 12,9 km/h (3 Bft)
02.05.2017 13:46 11,8 °C 11,8 °C 53 % 1015,2 hPa 0,0 mm 7,0 km/h (2 Bft) O-NO 57 ° 1 min 0,000 mm 6,7 UV-I 1109 W/m² 2,5 °C 11,8 °C 11,3 km/h (2 Bft)
02.05.2017 13:47 11,8 °C 11,8 °C 51 % 1015,2 hPa 0,0 mm 7,6 km/h (2 Bft) O-NO 66 ° 1 min 0,000 mm 6,6 UV-I 1081 W/m² 2,0 °C 11,8 °C 9,7 km/h (2 Bft)
02.05.2017 13:48 11,8 °C 11,8 °C 51 % 1015,1 hPa 0,0 mm 3,6 km/h (1 Bft) O-NO 70 ° 1 min 0,000 mm 6,6 UV-I 1065 W/m² 2,0 °C 11,8 °C 6,4 km/h (2 Bft)
02.05.2017 13:49 11,8 °C 11,8 °C 53 % 1015,2 hPa 0,0 mm 0,3 km/h (0 Bft) O-NO 70 ° 1 min 0,000 mm 6,5 UV-I 1032 W/m² 2,5 °C 11,8 °C 1,6 km/h (1 Bft)
02.05.2017 13:50 12,1 °C 12,1 °C 58 % 1015,1 hPa 0,0 mm 2,5 km/h (1 Bft) O-NO 75 ° 1 min 0,000 mm 6,5 UV-I 1025 W/m² 4,1 °C 12,1 °C 4,8 km/h (1 Bft)
02.05.2017 13:51 12,1 °C 12,1 °C 51 % 1015,1 hPa 0,0 mm 8,0 km/h (2 Bft) O-NO 65 ° 1 min 0,000 mm 6,4 UV-I 1009 W/m² 2,3 °C 12,1 °C 12,9 km/h (3 Bft)
02.05.2017 13:52 12,1 °C 12,1 °C 52 % 1015,2 hPa 0,0 mm 5,1 km/h (1 Bft) O-NO 75 ° 1 min 0,000 mm 6,4 UV-I 1009 W/m² 2,5 °C 12,1 °C 12,9 km/h (3 Bft)
02.05.2017 13:53 11,9 °C 12,1 °C 52 % 1015,1 hPa 0,0 mm 2,4 km/h (1 Bft) O 82 ° 1 min 0,000 mm 6,3 UV-I 1009 W/m² 2,4 °C 11,9 °C 4,8 km/h (1 Bft)
02.05.2017 13:54 11,9 °C 11,9 °C 51 % 1015,1 hPa 0,0 mm 0,4 km/h (0 Bft) O-NO 58 ° 1 min 0,000 mm 5,9 UV-I 977 W/m² 2,1 °C 11,9 °C 1,6 km/h (1 Bft)
02.05.2017 13:55 11,9 °C 11,9 °C 54 % 1015,1 hPa 0,0 mm 4,3 km/h (1 Bft) O-NO 62 ° 1 min 0,000 mm 4,2 UV-I 1007 W/m² 2,9 °C 11,9 °C 9,7 km/h (2 Bft)
02.05.2017 13:56 11,9 °C 12,0 °C 54 % 1015,2 hPa 0,0 mm 5,5 km/h (1 Bft) O-NO 71 ° 1 min 0,000 mm 6,2 UV-I 1007 W/m² 2,9 °C 11,9 °C 6,4 km/h (2 Bft)
02.05.2017 13:57 11,8 °C 12,0 °C 52 % 1015,2 hPa 0,0 mm 1,6 km/h (1 Bft) O-NO 71 ° 1 min 0,000 mm 6,2 UV-I 990 W/m² 2,3 °C 11,8 °C 4,8 km/h (1 Bft)
02.05.2017 13:58 11,8 °C 11,8 °C 54 % 1015,2 hPa 0,0 mm 1,5 km/h (1 Bft) N-NW 341 ° 1 min 0,000 mm 3,2 UV-I 990 W/m² 2,8 °C 11,8 °C 4,8 km/h (1 Bft)
02.05.2017 13:59 11,9 °C 11,9 °C 54 % 1015,1 hPa 0,0 mm 6,0 km/h (2 Bft) NW 309 ° 1 min 0,000 mm 6,4 UV-I 990 W/m² 2,9 °C 11,9 °C 8,0 km/h (2 Bft)
02.05.2017 14:00 11,9 °C 11,9 °C 55 % 1015,1 hPa 0,0 mm 3,6 km/h (1 Bft) W 281 ° 1 min 0,000 mm 6,4 UV-I 1016 W/m² 3,2 °C 11,9 °C 8,0 km/h (2 Bft)
02.05.2017 14:01 12,2 °C 12,2 °C 56 % 1015,1 hPa 0,0 mm 0,6 km/h (0 Bft) NW 322 ° 1 min 0,432 mm 6,4 UV-I 1020 W/m² 3,7 °C 12,2 °C 1,6 km/h (1 Bft)
02.05.2017 14:02 12,3 °C 12,3 °C 56 % 1015,1 hPa 0,0 mm 2,7 km/h (1 Bft) SO 134 ° 1 min 0,000 mm 3,5 UV-I 1020 W/m² 3,8 °C 12,3 °C 4,8 km/h (1 Bft)
02.05.2017 14:03 12,3 °C 12,3 °C 53 % 1015,1 hPa 0,0 mm 3,5 km/h (1 Bft) S-SW 212 ° 1 min 0,000 mm 2,9 UV-I 1020 W/m² 3,0 °C 12,3 °C 6,4 km/h (2 Bft)
02.05.2017 14:04 12,1 °C 12,3 °C 50 % 1015,1 hPa 0,0 mm 2,8 km/h (1 Bft) SW 222 ° 0 min 0,000 mm 2,4 UV-I 179 W/m² 2,0 °C 12,1 °C 4,8 km/h (1 Bft)
02.05.2017 14:05 11,9 °C 12,1 °C 50 % 1015,1 hPa 0,0 mm 4,7 km/h (1 Bft) S-SW 206 ° 0 min 0,000 mm 2,3 UV-I 146 W/m² 1,8 °C 11,9 °C 6,4 km/h (2 Bft)
02.05.2017 14:06 11,7 °C 11,9 °C 53 % 1015,1 hPa 0,0 mm 2,3 km/h (1 Bft) S-SW 206 ° 0 min 0,000 mm 2,5 UV-I 165 W/m² 2,4 °C 11,7 °C 3,2 km/h (1 Bft)
02.05.2017 14:07 11,6 °C 11,7 °C 51 % 1015,1 hPa 0,0 mm 5,1 km/h (1 Bft) SO 146 ° 1 min 0,000 mm 6,1 UV-I 1004 W/m² 1,8 °C 11,6 °C 6,4 km/h (2 Bft)
02.05.2017 14:08 11,7 °C 11,7 °C 58 % 1015,1 hPa 0,0 mm 4,6 km/h (1 Bft) S 178 ° 1 min 0,000 mm 6,1 UV-I 979 W/m² 3,7 °C 11,7 °C 8,0 km/h (2 Bft)
02.05.2017 14:09 11,8 °C 11,8 °C 53 % 1015,1 hPa 0,0 mm 5,5 km/h (1 Bft) O 86 ° 1 min 0,000 mm 6,2 UV-I 977 W/m² 2,5 °C 11,8 °C 9,7 km/h (2 Bft)
02.05.2017 14:10 11,9 °C 11,9 °C 52 % 1015,1 hPa 0,0 mm 7,8 km/h (2 Bft) O-NO 69 ° 1 min 0,000 mm 6,2 UV-I 972 W/m² 2,4 °C 11,9 °C 12,9 km/h (3 Bft)
02.05.2017 14:11 12,1 °C 12,1 °C 58 % 1015,1 hPa 0,0 mm 7,4 km/h (2 Bft) O-NO 74 ° 1 min 0,000 mm 6,2 UV-I 962 W/m² 4,1 °C 12,1 °C 11,3 km/h (2 Bft)
02.05.2017 14:12 12,1 °C 12,1 °C 52 % 1015,1 hPa 0,0 mm 6,8 km/h (2 Bft) O-NO 72 ° 1 min 0,000 mm 6,1 UV-I 930 W/m² 2,5 °C 12,1 °C 8,0 km/h (2 Bft)
02.05.2017 14:13 12,1 °C 12,1 °C 51 % 1015,1 hPa 0,0 mm 7,7 km/h (2 Bft) O 97 ° 1 min 0,000 mm 6,1 UV-I 916 W/m² 2,3 °C 12,1 °C 12,9 km/h (3 Bft)
02.05.2017 14:14 12,1 °C 12,1 °C 50 % 1015,0 hPa 0,0 mm 8,8 km/h (2 Bft) O-SO 108 ° 1 min 0,000 mm 6,0 UV-I 919 W/m² 2,0 °C 12,1 °C 12,9 km/h (3 Bft)
02.05.2017 14:15 12,1 °C 12,1 °C 51 % 1015,0 hPa 0,0 mm 7,2 km/h (2 Bft) O 93 ° 1 min 0,000 mm 6,0 UV-I 919 W/m² 2,3 °C 12,1 °C 11,3 km/h (2 Bft)
02.05.2017 14:16 12,1 °C 12,1 °C 49 % 1015,0 hPa 0,0 mm 9,0 km/h (2 Bft) O-NO 71 ° 1 min 0,000 mm 2,6 UV-I 919 W/m² 1,7 °C 12,1 °C 11,3 km/h (2 Bft)
02.05.2017 14:17 12,1 °C 12,1 °C 51 % 1015,0 hPa 0,0 mm 9,8 km/h (2 Bft) O-NO 75 ° 0 min 0,000 mm 2,4 UV-I 141 W/m² 2,3 °C 12,1 °C 16,1 km/h (3 Bft)
02.05.2017 14:18 11,9 °C 12,1 °C 49 % 1015,0 hPa 0,0 mm 13,6 km/h (3 Bft) O 100 ° 0 min 0,000 mm 2,6 UV-I 183 W/m² 1,5 °C 11,9 °C 16,1 km/h (3 Bft)
02.05.2017 14:19 11,8 °C 11,9 °C 51 % 1015,0 hPa 0,0 mm 10,8 km/h (2 Bft) O 94 ° 1 min 0,000 mm 6,4 UV-I 1109 W/m² 2,0 °C 11,8 °C 14,5 km/h (3 Bft)
02.05.2017 14:20 11,9 °C 11,9 °C 51 % 1015,0 hPa 0,0 mm 7,0 km/h (2 Bft) NO 45 ° 1 min 0,000 mm 6,3 UV-I 1090 W/m² 2,1 °C 11,9 °C 12,9 km/h (3 Bft)
02.05.2017 14:21 12,1 °C 12,1 °C 51 % 1015,0 hPa 0,0 mm 6,9 km/h (2 Bft) N-NO 18 ° 1 min 0,000 mm 2,9 UV-I 1090 W/m² 2,3 °C 12,1 °C 8,0 km/h (2 Bft)
02.05.2017 14:22 12,1 °C 12,2 °C 49 % 1015,1 hPa 0,0 mm 6,3 km/h (2 Bft) NO 34 ° 1 min 0,000 mm 2,7 UV-I 1090 W/m² 1,7 °C 12,1 °C 9,7 km/h (2 Bft)
02.05.2017 14:23 12,1 °C 12,2 °C 49 % 1015,1 hPa 0,0 mm 4,2 km/h (1 Bft) NO 40 ° 0 min 0,000 mm 2,6 UV-I 223 W/m² 1,7 °C 12,1 °C 8,0 km/h (2 Bft)
02.05.2017 14:24 12,1 °C 12,1 °C 48 % 1015,1 hPa 0,0 mm 6,8 km/h (2 Bft) NO 34 ° 0 min 0,000 mm 2,5 UV-I 193 W/m² 1,4 °C 12,1 °C 8,0 km/h (2 Bft)
02.05.2017 14:25 12,1 °C 12,1 °C 49 % 1015,0 hPa 0,0 mm 5,5 km/h (1 Bft) O-NO 59 ° 0 min 0,000 mm 2,4 UV-I 200 W/m² 1,7 °C 12,1 °C 6,4 km/h (2 Bft)
02.05.2017 14:26 11,9 °C 12,1 °C 49 % 1015,1 hPa 0,0 mm 1,5 km/h (1 Bft) NO 38 ° 0 min 0,000 mm 5,2 UV-I 200 W/m² 1,5 °C 11,9 °C 3,2 km/h (1 Bft)
02.05.2017 14:27 11,8 °C 11,9 °C 51 % 1015,0 hPa 0,0 mm 0,4 km/h (0 Bft) NO 38 ° 0 min 0,000 mm 4,2 UV-I 200 W/m² 2,0 °C 11,8 °C 1,6 km/h (1 Bft)
02.05.2017 14:28 11,9 °C 11,9 °C 51 % 1015,0 hPa 0,0 mm 1,7 km/h (1 Bft) NO 48 ° 0 min 0,000 mm 6,0 UV-I 200 W/m² 2,1 °C 11,9 °C 4,8 km/h (1 Bft)
02.05.2017 14:29 12,0 °C 12,0 °C 51 % 1014,9 hPa 0,0 mm 0,6 km/h (0 Bft) NO 48 ° 1 min 0,000 mm 6,0 UV-I 1014 W/m² 2,2 °C 12,0 °C 1,6 km/h (1 Bft)
02.05.2017 14:30 12,2 °C 12,2 °C 53 % 1014,9 hPa 0,0 mm 3,6 km/h (1 Bft) NO 51 ° 1 min 0,000 mm 5,9 UV-I 979 W/m² 2,9 °C 12,2 °C 6,4 km/h (2 Bft)
02.05.2017 14:31 12,4 °C 12,4 °C 51 % 1014,9 hPa 0,0 mm 3,6 km/h (1 Bft) N-NO 25 ° 1 min 0,000 mm 5,8 UV-I 956 W/m² 2,6 °C 12,4 °C 8,0 km/h (2 Bft)
02.05.2017 14:32 12,6 °C 12,6 °C 51 % 1014,9 hPa 0,0 mm 7,9 km/h (2 Bft) O 88 ° 1 min 0,000 mm 5,7 UV-I 940 W/m² 2,7 °C 12,6 °C 12,9 km/h (3 Bft)
02.05.2017 14:33 12,6 °C 12,6 °C 50 % 1014,8 hPa 0,0 mm 8,3 km/h (2 Bft) O-NO 65 ° 1 min 0,000 mm 5,7 UV-I 939 W/m² 2,5 °C 12,6 °C 12,9 km/h (3 Bft)
02.05.2017 14:34 12,7 °C 12,7 °C 49 % 1014,9 hPa 0,0 mm 5,4 km/h (1 Bft) N 360 ° 1 min 0,000 mm 5,7 UV-I 944 W/m² 2,3 °C 12,7 °C 6,4 km/h (2 Bft)
02.05.2017 14:35 12,8 °C 12,8 °C 50 % 1014,9 hPa 0,0 mm 8,0 km/h (2 Bft) N-NO 25 ° 1 min 0,000 mm 5,7 UV-I 953 W/m² 2,6 °C 12,8 °C 11,3 km/h (2 Bft)
02.05.2017 14:36 12,9 °C 12,9 °C 51 % 1014,9 hPa 0,0 mm 5,9 km/h (2 Bft) N 5 ° 1 min 0,000 mm 5,7 UV-I 953 W/m² 3,0 °C 12,9 °C 8,0 km/h (2 Bft)
02.05.2017 14:37 13,0 °C 13,0 °C 48 % 1014,9 hPa 0,0 mm 11,8 km/h (2 Bft) N-NO 20 ° 1 min 0,000 mm 5,7 UV-I 953 W/m² 2,3 °C 13,0 °C 14,5 km/h (3 Bft)
02.05.2017 14:38 13,1 °C 13,1 °C 51 % 1014,8 hPa 0,0 mm 10,6 km/h (2 Bft) N 351 ° 1 min 0,000 mm 5,7 UV-I 947 W/m² 3,2 °C 13,1 °C 19,3 km/h (3 Bft)
02.05.2017 14:39 13,3 °C 13,3 °C 48 % 1014,8 hPa 0,0 mm 6,5 km/h (2 Bft) N 360 ° 1 min 0,000 mm 5,7 UV-I 944 W/m² 2,5 °C 13,3 °C 9,7 km/h (2 Bft)
02.05.2017 14:40 13,6 °C 13,6 °C 50 % 1014,8 hPa 0,0 mm 8,2 km/h (2 Bft) NW 311 ° 1 min 0,000 mm 5,7 UV-I 946 W/m² 3,4 °C 13,6 °C 12,9 km/h (3 Bft)
02.05.2017 14:41 13,7 °C 13,7 °C 53 % 1014,8 hPa 0,0 mm 6,6 km/h (2 Bft) N-NW 336 ° 1 min 0,000 mm 5,7 UV-I 939 W/m² 4,3 °C 13,7 °C 9,7 km/h (2 Bft)
02.05.2017 14:42 13,7 °C 13,8 °C 45 % 1014,8 hPa 0,0 mm 5,6 km/h (1 Bft) W-NW 294 ° 1 min 0,000 mm 5,7 UV-I 949 W/m² 2,0 °C 13,7 °C 8,0 km/h (2 Bft)
02.05.2017 14:43 13,6 °C 13,7 °C 45 % 1014,8 hPa 0,0 mm 6,9 km/h (2 Bft) W-SW 254 ° 1 min 0,000 mm 5,8 UV-I 962 W/m² 1,9 °C 13,6 °C 11,3 km/h (2 Bft)
02.05.2017 14:44 13,4 °C 13,6 °C 45 % 1014,8 hPa 0,0 mm 3,9 km/h (1 Bft) W 269 ° 1 min 0,000 mm 5,9 UV-I 981 W/m² 1,7 °C 13,4 °C 6,4 km/h (2 Bft)
02.05.2017 14:45 13,5 °C 13,5 °C 54 % 1014,8 hPa 0,0 mm 6,4 km/h (2 Bft) W-NW 290 ° 1 min 0,000 mm 5,3 UV-I 921 W/m² 4,4 °C 13,5 °C 8,0 km/h (2 Bft)
02.05.2017 14:46 13,5 °C 13,5 °C 47 % 1014,9 hPa 0,0 mm 6,4 km/h (2 Bft) W-NW 292 ° 1 min 0,000 mm 6,1 UV-I 1014 W/m² 2,4 °C 13,5 °C 9,7 km/h (2 Bft)
02.05.2017 14:47 13,4 °C 13,5 °C 44 % 1014,9 hPa 0,0 mm 3,0 km/h (1 Bft) W-NW 286 ° 1 min 0,000 mm 6,0 UV-I 972 W/m² 1,4 °C 13,4 °C 4,8 km/h (1 Bft)
02.05.2017 14:48 13,4 °C 13,4 °C 48 % 1014,9 hPa 0,0 mm 2,4 km/h (1 Bft) W-NW 300 ° 1 min 0,000 mm 6,0 UV-I 967 W/m² 2,6 °C 13,4 °C 3,2 km/h (1 Bft)
02.05.2017 14:49 13,4 °C 13,4 °C 47 % 1014,9 hPa 0,0 mm 5,4 km/h (1 Bft) W-NW 288 ° 1 min 0,000 mm 6,0 UV-I 974 W/m² 2,3 °C 13,4 °C 9,7 km/h (2 Bft)
02.05.2017 14:50 13,3 °C 13,4 °C 45 % 1014,9 hPa 0,0 mm 4,5 km/h (1 Bft) W-NW 283 ° 1 min 0,000 mm 6,0 UV-I 976 W/m² 1,6 °C 13,3 °C 4,8 km/h (1 Bft)
02.05.2017 14:51 13,3 °C 13,3 °C 47 % 1014,9 hPa 0,0 mm 1,7 km/h (1 Bft) W-NW 283 ° 1 min 0,000 mm 6,0 UV-I 984 W/m² 2,2 °C 13,3 °C 3,2 km/h (1 Bft)
02.05.2017 14:52 13,3 °C 13,3 °C 48 % 1014,9 hPa 0,0 mm 0,1 km/h (0 Bft) W-NW 283 ° 1 min 0,000 mm 6,0 UV-I 984 W/m² 2,5 °C 13,3 °C 1,6 km/h (1 Bft)
02.05.2017 14:53 13,4 °C 13,4 °C 46 % 1014,8 hPa 0,0 mm 0,7 km/h (0 Bft) N-NW 332 ° 1 min 0,000 mm 6,0 UV-I 984 W/m² 2,0 °C 13,4 °C 3,2 km/h (1 Bft)
02.05.2017 14:54 13,5 °C 13,5 °C 51 % 1014,9 hPa 0,0 mm 5,4 km/h (1 Bft) O-NO 72 ° 1 min 0,000 mm 6,3 UV-I 1027 W/m² 3,6 °C 13,5 °C 12,9 km/h (3 Bft)
02.05.2017 14:55 13,4 °C 13,5 °C 47 % 1014,8 hPa 0,0 mm 5,2 km/h (1 Bft) N-NO 26 ° 1 min 0,000 mm 6,2 UV-I 1027 W/m² 2,3 °C 13,4 °C 9,7 km/h (2 Bft)
02.05.2017 14:56 13,3 °C 13,4 °C 51 % 1014,8 hPa 0,0 mm 6,5 km/h (2 Bft) N-NO 32 ° 1 min 0,000 mm 6,1 UV-I 1013 W/m² 3,4 °C 13,3 °C 9,7 km/h (2 Bft)
02.05.2017 14:57 13,2 °C 13,3 °C 49 % 1014,8 hPa 0,0 mm 4,6 km/h (1 Bft) N-NO 16 ° 1 min 0,000 mm 6,0 UV-I 991 W/m² 2,7 °C 13,2 °C 8,0 km/h (2 Bft)
02.05.2017 14:58 13,2 °C 13,2 °C 51 % 1014,8 hPa 0,0 mm 10,5 km/h (2 Bft) O 90 ° 1 min 0,000 mm 5,9 UV-I 974 W/m² 3,3 °C 13,2 °C 12,9 km/h (3 Bft)
02.05.2017 14:59 13,0 °C 13,2 °C 48 % 1014,8 hPa 0,0 mm 10,1 km/h (2 Bft) O-NO 72 ° 1 min 0,000 mm 5,8 UV-I 960 W/m² 2,3 °C 13,0 °C 12,9 km/h (3 Bft)
02.05.2017 15:00 12,9 °C 13,0 °C 50 % 1014,9 hPa 0,0 mm 6,4 km/h (2 Bft) O 80 ° 1 min 0,000 mm 5,9 UV-I 972 W/m² 2,7 °C 12,9 °C 9,7 km/h (2 Bft)
02.05.2017 15:01 12,9 °C 13,0 °C 52 % 1014,8 hPa 0,0 mm 4,4 km/h (1 Bft) O-NO 65 ° 1 min 0,432 mm 5,9 UV-I 988 W/m² 3,3 °C 12,9 °C 8,0 km/h (2 Bft)
02.05.2017 15:02 12,8 °C 12,9 °C 51 % 1014,8 hPa 0,0 mm 3,6 km/h (1 Bft) N-NO 22 ° 1 min 0,000 mm 2,8 UV-I 969 W/m² 2,9 °C 12,8 °C 8,0 km/h (2 Bft)
02.05.2017 15:03 12,8 °C 12,8 °C 50 % 1014,8 hPa 0,0 mm 6,9 km/h (2 Bft) NO 46 ° 1 min 0,000 mm 2,8 UV-I 969 W/m² 2,6 °C 12,8 °C 8,0 km/h (2 Bft)
02.05.2017 15:04 12,8 °C 12,8 °C 50 % 1014,8 hPa 0,0 mm 7,0 km/h (2 Bft) NO 44 ° 1 min 0,000 mm 2,8 UV-I 311 W/m² 2,6 °C 12,8 °C 9,7 km/h (2 Bft)
02.05.2017 15:05 12,8 °C 12,8 °C 49 % 1014,8 hPa 0,0 mm 9,9 km/h (2 Bft) N 5 ° 1 min 0,000 mm 2,7 UV-I 299 W/m² 2,4 °C 12,8 °C 14,5 km/h (3 Bft)
02.05.2017 15:06 12,7 °C 12,8 °C 49 % 1014,8 hPa 0,0 mm 4,2 km/h (1 Bft) N-NO 24 ° 1 min 0,000 mm 3,8 UV-I 323 W/m² 2,3 °C 12,7 °C 6,4 km/h (2 Bft)
02.05.2017 15:07 12,6 °C 12,7 °C 48 % 1014,8 hPa 0,0 mm 5,4 km/h (1 Bft) NO 50 ° 1 min 0,000 mm 3,1 UV-I 323 W/m² 1,9 °C 12,6 °C 8,0 km/h (2 Bft)
02.05.2017 15:08 12,6 °C 12,6 °C 48 % 1014,8 hPa 0,0 mm 5,7 km/h (1 Bft) NO 47 ° 1 min 0,000 mm 4,5 UV-I 323 W/m² 1,9 °C 12,6 °C 9,7 km/h (2 Bft)
02.05.2017 15:09 12,5 °C 12,6 °C 49 % 1014,8 hPa 0,0 mm 7,0 km/h (2 Bft) NO 52 ° 1 min 0,000 mm 3,1 UV-I 323 W/m² 2,1 °C 12,5 °C 9,7 km/h (2 Bft)
02.05.2017 15:10 12,4 °C 12,5 °C 47 % 1014,8 hPa 0,0 mm 4,4 km/h (1 Bft) NO 43 ° 1 min 0,000 mm 4,7 UV-I 323 W/m² 1,4 °C 12,4 °C 6,4 km/h (2 Bft)
02.05.2017 15:11 12,3 °C 12,4 °C 49 % 1014,8 hPa 0,0 mm 5,8 km/h (2 Bft) N 5 ° 1 min 0,000 mm 2,7 UV-I 304 W/m² 1,9 °C 12,3 °C 9,7 km/h (2 Bft)
02.05.2017 15:12 12,4 °C 12,4 °C 50 % 1014,7 hPa 0,0 mm 6,9 km/h (2 Bft) N-NW 342 ° 0 min 0,000 mm 2,4 UV-I 253 W/m² 2,3 °C 12,4 °C 9,7 km/h (2 Bft)
02.05.2017 15:13 12,4 °C 12,4 °C 49 % 1014,7 hPa 0,0 mm 4,2 km/h (1 Bft) N-NO 16 ° 0 min 0,000 mm 2,4 UV-I 244 W/m² 2,0 °C 12,4 °C 4,8 km/h (1 Bft)
02.05.2017 15:14 12,4 °C 12,4 °C 50 % 1014,8 hPa 0,0 mm 7,6 km/h (2 Bft) O 82 ° 0 min 0,000 mm 2,4 UV-I 253 W/m² 2,3 °C 12,4 °C 12,9 km/h (3 Bft)
02.05.2017 15:15 12,4 °C 12,4 °C 52 % 1014,7 hPa 0,0 mm 6,1 km/h (2 Bft) O-NO 64 ° 0 min 0,000 mm 2,8 UV-I 278 W/m² 2,8 °C 12,4 °C 9,7 km/h (2 Bft)
02.05.2017 15:16 12,4 °C 12,4 °C 51 % 1014,7 hPa 0,0 mm 8,2 km/h (2 Bft) N-NO 13 ° 1 min 0,000 mm 2,7 UV-I 318 W/m² 2,6 °C 12,4 °C 12,9 km/h (3 Bft)
02.05.2017 15:17 12,5 °C 12,6 °C 52 % 1014,7 hPa 0,0 mm 10,6 km/h (2 Bft) N-NO 20 ° 0 min 0,000 mm 2,5 UV-I 288 W/m² 2,9 °C 12,5 °C 12,9 km/h (3 Bft)
02.05.2017 15:18 12,6 °C 12,6 °C 52 % 1014,7 hPa 0,0 mm 6,3 km/h (2 Bft) N 10 ° 0 min 0,000 mm 2,8 UV-I 288 W/m² 3,0 °C 12,6 °C 11,3 km/h (2 Bft)
02.05.2017 15:19 12,6 °C 12,6 °C 51 % 1014,6 hPa 0,0 mm 2,9 km/h (1 Bft) O-NO 61 ° 0 min 0,000 mm 4,0 UV-I 288 W/m² 2,7 °C 12,6 °C 4,8 km/h (1 Bft)
02.05.2017 15:20 12,6 °C 12,6 °C 53 % 1014,7 hPa 0,0 mm 2,5 km/h (1 Bft) NO 39 ° 1 min 0,000 mm 2,7 UV-I 729 W/m² 3,3 °C 12,6 °C 6,4 km/h (2 Bft)
02.05.2017 15:21 12,6 °C 12,6 °C 49 % 1014,7 hPa 0,0 mm 5,7 km/h (1 Bft) N 9 ° 1 min 0,000 mm 2,5 UV-I 729 W/m² 2,2 °C 12,6 °C 8,0 km/h (2 Bft)
02.05.2017 15:22 12,6 °C 12,6 °C 51 % 1014,7 hPa 0,0 mm 6,1 km/h (2 Bft) N-NO 21 ° 0 min 0,000 mm 2,3 UV-I 236 W/m² 2,7 °C 12,6 °C 8,0 km/h (2 Bft)
02.05.2017 15:23 12,6 °C 12,6 °C 48 % 1014,6 hPa 0,0 mm 4,3 km/h (1 Bft) N 355 ° 0 min 0,000 mm 2,3 UV-I 230 W/m² 1,9 °C 12,6 °C 6,4 km/h (2 Bft)
02.05.2017 15:24 12,6 °C 12,6 °C 51 % 1014,6 hPa 0,0 mm 2,1 km/h (1 Bft) N-NO 22 ° 0 min 0,000 mm 2,1 UV-I 223 W/m² 2,7 °C 12,6 °C 6,4 km/h (2 Bft)
02.05.2017 15:25 12,5 °C 12,6 °C 52 % 1014,7 hPa 0,0 mm 7,3 km/h (2 Bft) N-NO 30 ° 0 min 0,000 mm 2,1 UV-I 216 W/m² 2,9 °C 12,5 °C 9,7 km/h (2 Bft)
02.05.2017 15:26 12,6 °C 12,6 °C 48 % 1014,6 hPa 0,0 mm 7,0 km/h (2 Bft) NO 49 ° 0 min 0,000 mm 2,0 UV-I 209 W/m² 1,9 °C 12,6 °C 11,3 km/h (2 Bft)
02.05.2017 15:27 12,5 °C 12,6 °C 48 % 1014,7 hPa 0,0 mm 7,8 km/h (2 Bft) O 100 ° 0 min 0,000 mm 1,9 UV-I 202 W/m² 1,8 °C 12,5 °C 11,3 km/h (2 Bft)
02.05.2017 15:28 12,4 °C 12,5 °C 49 % 1014,6 hPa 0,0 mm 6,3 km/h (2 Bft) O 85 ° 0 min 0,000 mm 1,9 UV-I 207 W/m² 2,0 °C 12,4 °C 9,7 km/h (2 Bft)
02.05.2017 15:29 12,3 °C 12,4 °C 49 % 1014,6 hPa 0,0 mm 8,9 km/h (2 Bft) O 89 ° 0 min 0,000 mm 1,9 UV-I 207 W/m² 1,9 °C 12,3 °C 14,5 km/h (3 Bft)
02.05.2017 15:30 12,2 °C 12,3 °C 47 % 1014,7 hPa 0,0 mm 5,0 km/h (1 Bft) O-SO 116 ° 0 min 0,000 mm 1,9 UV-I 216 W/m² 1,2 °C 12,2 °C 6,4 km/h (2 Bft)
02.05.2017 15:31 12,2 °C 12,2 °C 51 % 1014,7 hPa 0,0 mm 3,4 km/h (1 Bft) NO 49 ° 0 min 0,000 mm 1,9 UV-I 216 W/m² 2,4 °C 12,2 °C 6,4 km/h (2 Bft)
02.05.2017 15:32 12,2 °C 12,2 °C 51 % 1014,7 hPa 0,0 mm 4,6 km/h (1 Bft) O 83 ° 0 min 0,000 mm 1,8 UV-I 206 W/m² 2,4 °C 12,2 °C 6,4 km/h (2 Bft)
02.05.2017 15:33 12,1 °C 12,2 °C 53 % 1014,7 hPa 0,0 mm 3,8 km/h (1 Bft) O-NO 67 ° 0 min 0,000 mm 1,8 UV-I 206 W/m² 2,8 °C 12,1 °C 6,4 km/h (2 Bft)
02.05.2017 15:34 12,1 °C 12,1 °C 52 % 1014,7 hPa 0,0 mm 6,2 km/h (2 Bft) O 101 ° 0 min 0,000 mm 1,9 UV-I 227 W/m² 2,5 °C 12,1 °C 9,7 km/h (2 Bft)
02.05.2017 15:35 12,1 °C 12,1 °C 55 % 1014,8 hPa 0,0 mm 4,1 km/h (1 Bft) SO 125 ° 0 min 0,000 mm 1,9 UV-I 234 W/m² 3,3 °C 12,1 °C 6,4 km/h (2 Bft)
02.05.2017 15:36 12,1 °C 12,1 °C 51 % 1014,8 hPa 0,0 mm 6,4 km/h (2 Bft) O 81 ° 0 min 0,000 mm 1,9 UV-I 234 W/m² 2,3 °C 12,1 °C 11,3 km/h (2 Bft)
02.05.2017 15:37 12,2 °C 12,2 °C 53 % 1014,8 hPa 0,0 mm 6,4 km/h (2 Bft) SO 130 ° 0 min 0,000 mm 1,8 UV-I 220 W/m² 2,9 °C 12,2 °C 11,3 km/h (2 Bft)
02.05.2017 15:38 12,2 °C 12,2 °C 48 % 1014,8 hPa 0,0 mm 4,9 km/h (1 Bft) SO 134 ° 0 min 0,000 mm 1,7 UV-I 206 W/m² 1,5 °C 12,2 °C 6,4 km/h (2 Bft)
02.05.2017 15:39 12,1 °C 12,2 °C 49 % 1014,8 hPa 0,0 mm 2,8 km/h (1 Bft) S 190 ° 0 min 0,000 mm 1,7 UV-I 195 W/m² 1,7 °C 12,1 °C 6,4 km/h (2 Bft)
02.05.2017 15:40 12,1 °C 12,1 °C 52 % 1014,8 hPa 0,0 mm 6,4 km/h (2 Bft) O-NO 61 ° 0 min 0,000 mm 1,6 UV-I 193 W/m² 2,5 °C 12,1 °C 9,7 km/h (2 Bft)
02.05.2017 15:41 12,2 °C 12,2 °C 52 % 1014,8 hPa 0,0 mm 7,1 km/h (2 Bft) O 92 ° 0 min 0,000 mm 1,6 UV-I 197 W/m² 2,6 °C 12,2 °C 9,7 km/h (2 Bft)
02.05.2017 15:42 12,2 °C 12,2 °C 50 % 1014,8 hPa 0,0 mm 3,1 km/h (1 Bft) O 92 ° 0 min 0,000 mm 1,6 UV-I 197 W/m² 2,1 °C 12,2 °C 6,4 km/h (2 Bft)
02.05.2017 15:43 12,1 °C 12,2 °C 48 % 1014,8 hPa 0,0 mm 4,0 km/h (1 Bft) O-NO 72 ° 0 min 0,000 mm 1,6 UV-I 199 W/m² 1,4 °C 12,1 °C 8,0 km/h (2 Bft)
02.05.2017 15:44 12,2 °C 12,2 °C 51 % 1014,8 hPa 0,0 mm 8,4 km/h (2 Bft) O-NO 62 ° 0 min 0,000 mm 1,5 UV-I 197 W/m² 2,4 °C 12,2 °C 12,9 km/h (3 Bft)
02.05.2017 15:45 12,2 °C 12,2 °C 53 % 1014,8 hPa 0,0 mm 7,4 km/h (2 Bft) O 80 ° 0 min 0,000 mm 1,6 UV-I 207 W/m² 2,9 °C 12,2 °C 11,3 km/h (2 Bft)
02.05.2017 15:46 12,2 °C 12,2 °C 53 % 1014,8 hPa 0,0 mm 5,0 km/h (1 Bft) O-NO 75 ° 0 min 0,000 mm 1,6 UV-I 230 W/m² 2,9 °C 12,2 °C 6,4 km/h (2 Bft)
02.05.2017 15:47 12,2 °C 12,2 °C 52 % 1014,8 hPa 0,0 mm 4,3 km/h (1 Bft) O-NO 77 ° 0 min 0,000 mm 1,8 UV-I 253 W/m² 2,6 °C 12,2 °C 8,0 km/h (2 Bft)
02.05.2017 15:48 12,2 °C 12,2 °C 52 % 1014,8 hPa 0,0 mm 4,1 km/h (1 Bft) O-NO 64 ° 0 min 0,000 mm 1,8 UV-I 257 W/m² 2,6 °C 12,2 °C 6,4 km/h (2 Bft)
02.05.2017 15:49 12,2 °C 12,2 °C 55 % 1014,8 hPa 0,0 mm 6,6 km/h (2 Bft) O-NO 65 ° 0 min 0,000 mm 1,7 UV-I 232 W/m² 3,4 °C 12,2 °C 8,0 km/h (2 Bft)
02.05.2017 15:50 12,2 °C 12,2 °C 55 % 1014,8 hPa 0,0 mm 6,7 km/h (2 Bft) O-NO 63 ° 0 min 0,000 mm 1,8 UV-I 225 W/m² 3,4 °C 12,2 °C 12,9 km/h (3 Bft)
02.05.2017 15:51 12,3 °C 12,3 °C 52 % 1014,8 hPa 0,0 mm 7,6 km/h (2 Bft) O-SO 115 ° 0 min 0,000 mm 1,8 UV-I 223 W/m² 2,7 °C 12,3 °C 11,3 km/h (2 Bft)
02.05.2017 15:52 12,3 °C 12,3 °C 51 % 1014,8 hPa 0,0 mm 9,1 km/h (2 Bft) O-SO 109 ° 0 min 0,000 mm 1,8 UV-I 216 W/m² 2,5 °C 12,3 °C 12,9 km/h (3 Bft)
02.05.2017 15:53 12,3 °C 12,3 °C 51 % 1014,8 hPa 0,0 mm 8,2 km/h (2 Bft) O-NO 67 ° 0 min 0,000 mm 1,7 UV-I 216 W/m² 2,5 °C 12,3 °C 14,5 km/h (3 Bft)
02.05.2017 15:54 12,3 °C 12,3 °C 52 % 1014,8 hPa 0,0 mm 9,7 km/h (2 Bft) O-NO 74 ° 0 min 0,000 mm 1,7 UV-I 209 W/m² 2,7 °C 12,3 °C 14,5 km/h (3 Bft)
02.05.2017 15:55 12,2 °C 12,3 °C 52 % 1014,8 hPa 0,0 mm 4,8 km/h (1 Bft) O-SO 114 ° 0 min 0,000 mm 1,6 UV-I 197 W/m² 2,6 °C 12,2 °C 6,4 km/h (2 Bft)
02.05.2017 15:56 12,2 °C 12,2 °C 51 % 1014,8 hPa 0,0 mm 4,0 km/h (1 Bft) O-NO 71 ° 0 min 0,000 mm 1,6 UV-I 185 W/m² 2,4 °C 12,2 °C 6,4 km/h (2 Bft)
02.05.2017 15:57 12,1 °C 12,2 °C 53 % 1014,8 hPa 0,0 mm 4,5 km/h (1 Bft) O 94 ° 0 min 0,000 mm 1,5 UV-I 171 W/m² 2,8 °C 12,1 °C 11,3 km/h (2 Bft)
02.05.2017 15:58 12,1 °C 12,2 °C 52 % 1014,9 hPa 0,0 mm 7,4 km/h (2 Bft) O-NO 76 ° 0 min 0,000 mm 1,5 UV-I 176 W/m² 2,5 °C 12,1 °C 11,3 km/h (2 Bft)
02.05.2017 15:59 12,1 °C 12,1 °C 52 % 1014,8 hPa 0,0 mm 5,7 km/h (1 Bft) O-NO 66 ° 0 min 0,000 mm 1,7 UV-I 197 W/m² 2,5 °C 12,1 °C 8,0 km/h (2 Bft)
02.05.2017 16:00 12,1 °C 12,1 °C 51 % 1014,9 hPa 0,0 mm 6,8 km/h (2 Bft) O 94 ° 0 min 0,000 mm 1,7 UV-I 220 W/m² 2,3 °C 12,1 °C 8,0 km/h (2 Bft)
02.05.2017 16:01 12,0 °C 12,1 °C 52 % 1014,9 hPa 0,0 mm 4,9 km/h (1 Bft) O-NO 69 ° 0 min 0,177 mm 1,8 UV-I 232 W/m² 2,5 °C 12,0 °C 8,0 km/h (2 Bft)
02.05.2017 16:02 12,1 °C 12,1 °C 55 % 1014,9 hPa 0,0 mm 3,1 km/h (1 Bft) O 83 ° 0 min 0,000 mm 1,8 UV-I 237 W/m² 3,3 °C 12,1 °C 8,0 km/h (2 Bft)
02.05.2017 16:03 12,0 °C 12,1 °C 51 % 1014,8 hPa 0,0 mm 4,4 km/h (1 Bft) NO 50 ° 0 min 0,000 mm 2,5 UV-I 243 W/m² 2,2 °C 12,0 °C 6,4 km/h (2 Bft)
02.05.2017 16:04 12,1 °C 12,1 °C 54 % 1014,9 hPa 0,0 mm 3,2 km/h (1 Bft) O 98 ° 0 min 0,000 mm 1,7 UV-I 223 W/m² 3,1 °C 12,1 °C 4,8 km/h (1 Bft)
02.05.2017 16:05 12,1 °C 12,1 °C 53 % 1014,8 hPa 0,0 mm 2,1 km/h (1 Bft) O-SO 105 ° 0 min 0,000 mm 1,7 UV-I 220 W/m² 2,8 °C 12,1 °C 3,2 km/h (1 Bft)
02.05.2017 16:06 12,1 °C 12,1 °C 54 % 1014,9 hPa 0,0 mm 3,3 km/h (1 Bft) O-SO 113 ° 0 min 0,000 mm 1,7 UV-I 221 W/m² 3,1 °C 12,1 °C 4,8 km/h (1 Bft)
02.05.2017 16:07 12,1 °C 12,1 °C 50 % 1014,9 hPa 0,0 mm 4,4 km/h (1 Bft) O 82 ° 0 min 0,000 mm 1,6 UV-I 197 W/m² 2,0 °C 12,1 °C 6,4 km/h (2 Bft)
02.05.2017 16:08 12,1 °C 12,1 °C 52 % 1014,9 hPa 0,0 mm 5,8 km/h (2 Bft) O-NO 76 ° 0 min 0,000 mm 1,5 UV-I 190 W/m² 2,5 °C 12,1 °C 8,0 km/h (2 Bft)
02.05.2017 16:09 12,1 °C 12,1 °C 50 % 1014,9 hPa 0,0 mm 5,1 km/h (1 Bft) O-NO 76 ° 0 min 0,000 mm 1,5 UV-I 183 W/m² 2,0 °C 12,1 °C 8,0 km/h (2 Bft)
02.05.2017 16:10 12,1 °C 12,1 °C 50 % 1014,8 hPa 0,0 mm 5,0 km/h (1 Bft) O-NO 76 ° 0 min 0,000 mm 1,5 UV-I 192 W/m² 2,0 °C 12,1 °C 6,4 km/h (2 Bft)
02.05.2017 16:11 12,1 °C 12,1 °C 50 % 1014,9 hPa 0,0 mm 2,4 km/h (1 Bft) O-NO 76 ° 0 min 0,000 mm 1,6 UV-I 207 W/m² 2,0 °C 12,1 °C 4,8 km/h (1 Bft)
02.05.2017 16:12 12,1 °C 12,1 °C 49 % 1014,8 hPa 0,0 mm 1,8 km/h (1 Bft) O 82 ° 0 min 0,000 mm 1,7 UV-I 213 W/m² 1,7 °C 12,1 °C 3,2 km/h (1 Bft)
02.05.2017 16:13 12,0 °C 12,1 °C 52 % 1014,8 hPa 0,0 mm 1,9 km/h (1 Bft) O 86 ° 0 min 0,000 mm 1,8 UV-I 234 W/m² 2,5 °C 12,0 °C 3,2 km/h (1 Bft)
02.05.2017 16:14 12,1 °C 12,1 °C 52 % 1014,8 hPa 0,0 mm 3,7 km/h (1 Bft) O 79 ° 0 min 0,000 mm 2,1 UV-I 234 W/m² 2,5 °C 12,1 °C 6,4 km/h (2 Bft)
02.05.2017 16:15 12,2 °C 12,2 °C 52 % 1014,8 hPa 0,0 mm 3,6 km/h (1 Bft) O-NO 74 ° 1 min 0,000 mm 2,7 UV-I 396 W/m² 2,6 °C 12,2 °C 4,8 km/h (1 Bft)
02.05.2017 16:16 12,2 °C 12,2 °C 53 % 1014,8 hPa 0,0 mm 1,4 km/h (1 Bft) O-NO 74 ° 1 min 0,000 mm 2,3 UV-I 339 W/m² 2,9 °C 12,2 °C 3,2 km/h (1 Bft)
02.05.2017 16:17 12,4 °C 12,4 °C 54 % 1014,8 hPa 0,0 mm 3,6 km/h (1 Bft) O-NO 72 ° 1 min 0,000 mm 2,4 UV-I 339 W/m² 3,4 °C 12,4 °C 8,0 km/h (2 Bft)
02.05.2017 16:18 12,4 °C 12,4 °C 54 % 1014,8 hPa 0,0 mm 3,6 km/h (1 Bft) O-NO 69 ° 1 min 0,000 mm 2,3 UV-I 327 W/m² 3,4 °C 12,4 °C 6,4 km/h (2 Bft)
02.05.2017 16:19 12,4 °C 12,4 °C 51 % 1014,8 hPa 0,0 mm 3,6 km/h (1 Bft) O-NO 68 ° 1 min 0,000 mm 2,3 UV-I 311 W/m² 2,6 °C 12,4 °C 4,8 km/h (1 Bft)
02.05.2017 16:20 12,5 °C 12,5 °C 52 % 1014,8 hPa 0,0 mm 4,0 km/h (1 Bft) NO 48 ° 1 min 0,000 mm 2,2 UV-I 299 W/m² 2,9 °C 12,5 °C 6,4 km/h (2 Bft)
02.05.2017 16:21 12,5 °C 12,6 °C 48 % 1014,8 hPa 0,0 mm 5,4 km/h (1 Bft) O-NO 57 ° 0 min 0,000 mm 2,3 UV-I 260 W/m² 1,8 °C 12,5 °C 9,7 km/h (2 Bft)
02.05.2017 16:22 12,5 °C 12,5 °C 50 % 1014,8 hPa 0,0 mm 6,6 km/h (2 Bft) O-NO 75 ° 0 min 0,000 mm 2,0 UV-I 232 W/m² 2,4 °C 12,5 °C 8,0 km/h (2 Bft)
02.05.2017 16:23 12,4 °C 12,5 °C 48 % 1014,9 hPa 0,0 mm 6,2 km/h (2 Bft) O-NO 71 ° 0 min 0,000 mm 1,9 UV-I 204 W/m² 1,7 °C 12,4 °C 8,0 km/h (2 Bft)
02.05.2017 16:24 12,4 °C 12,4 °C 49 % 1014,8 hPa 0,0 mm 6,7 km/h (2 Bft) O 86 ° 0 min 0,000 mm 1,8 UV-I 174 W/m² 2,0 °C 12,4 °C 8,0 km/h (2 Bft)
02.05.2017 16:25 12,3 °C 12,4 °C 49 % 1014,8 hPa 0,0 mm 4,5 km/h (1 Bft) O-SO 102 ° 0 min 0,000 mm 1,8 UV-I 158 W/m² 1,9 °C 12,3 °C 8,0 km/h (2 Bft)
02.05.2017 16:26 12,3 °C 12,3 °C 51 % 1014,8 hPa 0,0 mm 5,6 km/h (1 Bft) O 88 ° 0 min 0,000 mm 1,7 UV-I 153 W/m² 2,5 °C 12,3 °C 8,0 km/h (2 Bft)
02.05.2017 16:27 12,3 °C 12,3 °C 51 % 1014,8 hPa 0,0 mm 4,2 km/h (1 Bft) O-NO 73 ° 0 min 0,000 mm 1,7 UV-I 156 W/m² 2,5 °C 12,3 °C 6,4 km/h (2 Bft)
02.05.2017 16:28 12,3 °C 12,3 °C 54 % 1014,8 hPa 0,0 mm 4,2 km/h (1 Bft) O-NO 74 ° 0 min 0,000 mm 1,7 UV-I 171 W/m² 3,3 °C 12,3 °C 6,4 km/h (2 Bft)
02.05.2017 16:29 12,3 °C 12,3 °C 53 % 1014,9 hPa 0,0 mm 6,5 km/h (2 Bft) O 99 ° 0 min 0,000 mm 1,8 UV-I 181 W/m² 3,0 °C 12,3 °C 12,9 km/h (3 Bft)
02.05.2017 16:30 12,2 °C 12,3 °C 48 % 1014,8 hPa 0,0 mm 4,8 km/h (1 Bft) O-SO 103 ° 0 min 0,000 mm 1,8 UV-I 190 W/m² 1,5 °C 12,2 °C 6,4 km/h (2 Bft)
02.05.2017 16:31 12,2 °C 12,2 °C 48 % 1014,9 hPa 0,0 mm 0,7 km/h (0 Bft) O-SO 103 ° 0 min 0,000 mm 1,8 UV-I 193 W/m² 1,5 °C 12,2 °C 3,2 km/h (1 Bft)
02.05.2017 16:32 12,1 °C 12,2 °C 48 % 1014,8 hPa 0,0 mm 0,0 km/h (0 Bft) O-SO 103 ° 0 min 0,000 mm 1,8 UV-I 197 W/m² 1,4 °C 12,1 °C 0,0 km/h (0 Bft)
02.05.2017 16:33 12,1 °C 12,1 °C 48 % 1014,8 hPa 0,0 mm 0,0 km/h (0 Bft) O-SO 103 ° 0 min 0,000 mm 1,9 UV-I 202 W/m² 1,4 °C 12,1 °C 0,0 km/h (0 Bft)
02.05.2017 16:34 12,1 °C 12,1 °C 51 % 1014,8 hPa 0,0 mm 4,2 km/h (1 Bft) SO 136 ° 1 min 0,000 mm 2,2 UV-I 380 W/m² 2,3 °C 12,1 °C 8,0 km/h (2 Bft)
02.05.2017 16:35 12,1 °C 12,1 °C 50 % 1014,8 hPa 0,0 mm 3,9 km/h (1 Bft) SO 138 ° 1 min 0,000 mm 2,4 UV-I 394 W/m² 2,0 °C 12,1 °C 4,8 km/h (1 Bft)
02.05.2017 16:36 12,2 °C 12,2 °C 53 % 1014,8 hPa 0,0 mm 2,8 km/h (1 Bft) O 99 ° 1 min 0,000 mm 2,4 UV-I 471 W/m² 2,9 °C 12,2 °C 6,4 km/h (2 Bft)
02.05.2017 16:37 12,3 °C 12,3 °C 51 % 1014,8 hPa 0,0 mm 1,0 km/h (0 Bft) O 99 ° 1 min 0,000 mm 2,3 UV-I 410 W/m² 2,5 °C 12,3 °C 1,6 km/h (1 Bft)
02.05.2017 16:38 12,4 °C 12,4 °C 47 % 1014,8 hPa 0,0 mm 4,4 km/h (1 Bft) S-SO 162 ° 1 min 0,000 mm 1,8 UV-I 410 W/m² 1,4 °C 12,4 °C 9,7 km/h (2 Bft)
02.05.2017 16:39 12,4 °C 12,4 °C 50 % 1014,8 hPa 0,0 mm 3,4 km/h (1 Bft) S 169 ° 0 min 0,000 mm 1,7 UV-I 148 W/m² 2,3 °C 12,4 °C 6,4 km/h (2 Bft)
02.05.2017 16:40 12,4 °C 12,4 °C 48 % 1014,8 hPa 0,0 mm 3,3 km/h (1 Bft) O-SO 109 ° 0 min 0,000 mm 1,6 UV-I 135 W/m² 1,7 °C 12,4 °C 4,8 km/h (1 Bft)
02.05.2017 16:41 12,3 °C 12,4 °C 50 % 1014,8 hPa 0,0 mm 4,8 km/h (1 Bft) O 82 ° 0 min 0,000 mm 1,5 UV-I 127 W/m² 2,2 °C 12,3 °C 8,0 km/h (2 Bft)
02.05.2017 16:42 12,4 °C 12,4 °C 48 % 1014,8 hPa 0,0 mm 5,7 km/h (1 Bft) O 99 ° 0 min 0,000 mm 1,5 UV-I 127 W/m² 1,7 °C 12,4 °C 9,7 km/h (2 Bft)
02.05.2017 16:43 12,3 °C 12,4 °C 48 % 1014,8 hPa 0,0 mm 2,3 km/h (1 Bft) O 99 ° 0 min 0,000 mm 1,5 UV-I 123 W/m² 1,6 °C 12,3 °C 4,8 km/h (1 Bft)
02.05.2017 16:44 12,3 °C 12,3 °C 49 % 1014,8 hPa 0,0 mm 5,2 km/h (1 Bft) O-NO 57 ° 0 min 0,000 mm 1,5 UV-I 132 W/m² 1,9 °C 12,3 °C 6,4 km/h (2 Bft)
02.05.2017 16:45 12,2 °C 12,3 °C 51 % 1014,9 hPa 0,0 mm 7,0 km/h (2 Bft) O-NO 76 ° 0 min 0,000 mm 1,5 UV-I 132 W/m² 2,4 °C 12,2 °C 12,9 km/h (3 Bft)
02.05.2017 16:46 12,2 °C 12,3 °C 49 % 1014,9 hPa 0,0 mm 1,3 km/h (1 Bft) O-NO 76 ° 0 min 0,000 mm 1,5 UV-I 135 W/m² 1,8 °C 12,2 °C 3,2 km/h (1 Bft)
02.05.2017 16:47 12,2 °C 12,2 °C 51 % 1014,8 hPa 0,0 mm 0,0 km/h (0 Bft) O-NO 76 ° 0 min 0,000 mm 1,6 UV-I 146 W/m² 2,4 °C 12,2 °C 0,0 km/h (0 Bft)
02.05.2017 16:48 12,1 °C 12,2 °C 50 % 1014,8 hPa 0,0 mm 0,2 km/h (0 Bft) O-SO 104 ° 0 min 0,000 mm 1,6 UV-I 156 W/m² 2,0 °C 12,1 °C 1,6 km/h (1 Bft)
02.05.2017 16:49 12,1 °C 12,1 °C 56 % 1014,9 hPa 0,0 mm 0,4 km/h (0 Bft) O-SO 104 ° 0 min 0,000 mm 1,6 UV-I 165 W/m² 3,6 °C 12,1 °C 1,6 km/h (1 Bft)
02.05.2017 16:50 11,9 °C 12,1 °C 56 % 1014,9 hPa 0,0 mm 1,6 km/h (1 Bft) O-NO 71 ° 0 min 0,000 mm 1,6 UV-I 174 W/m² 3,4 °C 11,9 °C 4,8 km/h (1 Bft)
02.05.2017 16:51 11,9 °C 11,9 °C 50 % 1014,9 hPa 0,0 mm 4,7 km/h (1 Bft) O 80 ° 0 min 0,000 mm 2,0 UV-I 230 W/m² 1,8 °C 11,9 °C 6,4 km/h (2 Bft)
02.05.2017 16:52 12,0 °C 12,0 °C 50 % 1014,9 hPa 0,0 mm 4,5 km/h (1 Bft) O-NO 69 ° 0 min 0,000 mm 2,1 UV-I 230 W/m² 1,9 °C 12,0 °C 8,0 km/h (2 Bft)
02.05.2017 16:53 12,1 °C 12,1 °C 54 % 1014,9 hPa 0,0 mm 4,3 km/h (1 Bft) O-NO 65 ° 0 min 0,000 mm 1,7 UV-I 230 W/m² 3,1 °C 12,1 °C 8,0 km/h (2 Bft)
02.05.2017 16:54 12,2 °C 12,2 °C 51 % 1014,8 hPa 0,0 mm 6,3 km/h (2 Bft) N-NO 28 ° 0 min 0,000 mm 1,6 UV-I 153 W/m² 2,4 °C 12,2 °C 11,3 km/h (2 Bft)
02.05.2017 16:55 12,3 °C 12,3 °C 51 % 1014,8 hPa 0,0 mm 5,6 km/h (1 Bft) O-NO 59 ° 0 min 0,000 mm 1,6 UV-I 149 W/m² 2,5 °C 12,3 °C 8,0 km/h (2 Bft)
02.05.2017 16:56 12,3 °C 12,3 °C 48 % 1014,9 hPa 0,0 mm 4,8 km/h (1 Bft) NO 38 ° 0 min 0,000 mm 1,6 UV-I 165 W/m² 1,6 °C 12,3 °C 6,4 km/h (2 Bft)
02.05.2017 16:57 12,3 °C 12,3 °C 48 % 1014,9 hPa 0,0 mm 3,9 km/h (1 Bft) NO 38 ° 0 min 0,000 mm 1,6 UV-I 176 W/m² 1,6 °C 12,3 °C 4,8 km/h (1 Bft)
02.05.2017 16:58 12,3 °C 12,3 °C 49 % 1014,9 hPa 0,0 mm 2,9 km/h (1 Bft) NO 38 ° 0 min 0,000 mm 1,6 UV-I 188 W/m² 1,9 °C 12,3 °C 4,8 km/h (1 Bft)
02.05.2017 16:59 12,4 °C 12,4 °C 48 % 1014,8 hPa 0,0 mm 3,6 km/h (1 Bft) NO 38 ° 0 min 0,000 mm 1,6 UV-I 193 W/m² 1,7 °C 12,4 °C 6,4 km/h (2 Bft)
02.05.2017 17:00 12,4 °C 12,4 °C 48 % 1014,8 hPa 0,0 mm 4,5 km/h (1 Bft) N-NO 12 ° 0 min 0,000 mm 1,6 UV-I 195 W/m² 1,7 °C 12,4 °C 6,4 km/h (2 Bft)
02.05.2017 17:01 12,4 °C 12,4 °C 50 % 1014,8 hPa 0,0 mm 2,4 km/h (1 Bft) NO 49 ° 0 min 0,127 mm 1,6 UV-I 197 W/m² 2,3 °C 12,4 °C 4,8 km/h (1 Bft)
02.05.2017 17:02 12,4 °C 12,4 °C 50 % 1014,8 hPa 0,0 mm 4,2 km/h (1 Bft) NO 41 ° 0 min 0,000 mm 1,5 UV-I 193 W/m² 2,3 °C 12,4 °C 6,4 km/h (2 Bft)
02.05.2017 17:03 12,4 °C 12,4 °C 47 % 1014,8 hPa 0,0 mm 3,8 km/h (1 Bft) NO 40 ° 0 min 0,000 mm 1,5 UV-I 190 W/m² 1,4 °C 12,4 °C 4,8 km/h (1 Bft)
02.05.2017 17:04 12,4 °C 12,4 °C 49 % 1014,8 hPa 0,0 mm 2,9 km/h (1 Bft) N 5 ° 0 min 0,000 mm 1,4 UV-I 185 W/m² 2,0 °C 12,4 °C 4,8 km/h (1 Bft)
02.05.2017 17:05 12,4 °C 12,4 °C 48 % 1014,8 hPa 0,0 mm 1,0 km/h (0 Bft) N 5 ° 0 min 0,000 mm 1,4 UV-I 185 W/m² 1,7 °C 12,4 °C 3,2 km/h (1 Bft)
02.05.2017 17:06 12,4 °C 12,4 °C 48 % 1014,8 hPa 0,0 mm 4,9 km/h (1 Bft) N-NO 13 ° 0 min 0,000 mm 1,4 UV-I 183 W/m² 1,7 °C 12,4 °C 6,4 km/h (2 Bft)
02.05.2017 17:07 12,4 °C 12,4 °C 50 % 1014,9 hPa 0,0 mm 4,6 km/h (1 Bft) N 355 ° 0 min 0,000 mm 1,4 UV-I 179 W/m² 2,3 °C 12,4 °C 6,4 km/h (2 Bft)
02.05.2017 17:08 12,4 °C 12,4 °C 49 % 1014,9 hPa 0,0 mm 5,2 km/h (1 Bft) N-NO 15 ° 0 min 0,000 mm 1,4 UV-I 192 W/m² 2,0 °C 12,4 °C 8,0 km/h (2 Bft)
02.05.2017 17:09 12,4 °C 12,5 °C 47 % 1014,9 hPa 0,0 mm 3,4 km/h (1 Bft) N 11 ° 0 min 0,000 mm 1,4 UV-I 197 W/m² 1,4 °C 12,4 °C 4,8 km/h (1 Bft)
02.05.2017 17:10 12,4 °C 12,5 °C 48 % 1014,9 hPa 0,0 mm 0,9 km/h (0 Bft) N 11 ° 0 min 0,000 mm 1,4 UV-I 200 W/m² 1,7 °C 12,4 °C 1,6 km/h (1 Bft)
02.05.2017 17:11 12,5 °C 12,5 °C 48 % 1014,9 hPa 0,0 mm 1,1 km/h (1 Bft) N 11 ° 0 min 0,000 mm 1,4 UV-I 202 W/m² 1,8 °C 12,5 °C 3,2 km/h (1 Bft)
02.05.2017 17:12 12,5 °C 12,5 °C 51 % 1014,9 hPa 0,0 mm 0,7 km/h (0 Bft) N 11 ° 0 min 0,000 mm 1,4 UV-I 204 W/m² 2,6 °C 12,5 °C 3,2 km/h (1 Bft)
02.05.2017 17:13 12,5 °C 12,5 °C 53 % 1014,8 hPa 0,0 mm 0,6 km/h (0 Bft) N 11 ° 0 min 0,000 mm 1,4 UV-I 202 W/m² 3,2 °C 12,5 °C 1,6 km/h (1 Bft)
02.05.2017 17:14 12,5 °C 12,6 °C 49 % 1014,9 hPa 0,0 mm 0,5 km/h (0 Bft) N 11 ° 0 min 0,000 mm 1,4 UV-I 186 W/m² 2,1 °C 12,5 °C 1,6 km/h (1 Bft)
02.05.2017 17:15 12,5 °C 12,5 °C 48 % 1014,9 hPa 0,0 mm 1,9 km/h (1 Bft) N-NO 30 ° 0 min 0,000 mm 1,3 UV-I 179 W/m² 1,8 °C 12,5 °C 3,2 km/h (1 Bft)
02.05.2017 17:16 12,5 °C 12,5 °C 48 % 1014,9 hPa 0,0 mm 1,5 km/h (1 Bft) N-NO 30 ° 0 min 0,000 mm 1,3 UV-I 174 W/m² 1,8 °C 12,5 °C 3,2 km/h (1 Bft)
02.05.2017 17:17 12,4 °C 12,5 °C 47 % 1014,9 hPa 0,0 mm 0,4 km/h (0 Bft) N-NO 30 ° 0 min 0,000 mm 1,2 UV-I 176 W/m² 1,4 °C 12,4 °C 1,6 km/h (1 Bft)
02.05.2017 17:18 12,3 °C 12,4 °C 47 % 1014,9 hPa 0,0 mm 1,5 km/h (1 Bft) N-NO 30 ° 0 min 0,000 mm 1,3 UV-I 176 W/m² 1,3 °C 12,3 °C 1,6 km/h (1 Bft)
02.05.2017 17:19 12,3 °C 12,3 °C 48 % 1014,9 hPa 0,0 mm 3,1 km/h (1 Bft) N-NO 32 ° 0 min 0,000 mm 1,3 UV-I 234 W/m² 1,6 °C 12,3 °C 4,8 km/h (1 Bft)
02.05.2017 17:20 12,4 °C 12,4 °C 48 % 1015,0 hPa 0,0 mm 1,7 km/h (1 Bft) NO 36 ° 1 min 0,000 mm 1,5 UV-I 376 W/m² 1,7 °C 12,4 °C 3,2 km/h (1 Bft)
02.05.2017 17:21 12,5 °C 12,5 °C 51 % 1015,0 hPa 0,0 mm 1,4 km/h (1 Bft) NO 36 ° 1 min 0,000 mm 1,4 UV-I 376 W/m² 2,6 °C 12,5 °C 3,2 km/h (1 Bft)
02.05.2017 17:22 12,6 °C 12,6 °C 46 % 1014,9 hPa 0,0 mm 2,8 km/h (1 Bft) O-NO 72 ° 0 min 0,000 mm 1,4 UV-I 223 W/m² 1,3 °C 12,6 °C 4,8 km/h (1 Bft)
02.05.2017 17:23 12,6 °C 12,6 °C 48 % 1015,0 hPa 0,0 mm 6,5 km/h (2 Bft) N 10 ° 0 min 0,000 mm 1,4 UV-I 209 W/m² 1,9 °C 12,6 °C 8,0 km/h (2 Bft)
02.05.2017 17:24 12,6 °C 12,6 °C 48 % 1014,9 hPa 0,0 mm 3,8 km/h (1 Bft) N-NO 17 ° 0 min 0,000 mm 1,3 UV-I 195 W/m² 1,9 °C 12,6 °C 6,4 km/h (2 Bft)
02.05.2017 17:25 12,6 °C 12,6 °C 47 % 1014,9 hPa 0,0 mm 6,4 km/h (2 Bft) N 360 ° 0 min 0,000 mm 1,3 UV-I 181 W/m² 1,6 °C 12,6 °C 11,3 km/h (2 Bft)
02.05.2017 17:26 12,6 °C 12,6 °C 48 % 1014,9 hPa 0,0 mm 6,0 km/h (2 Bft) N-NW 332 ° 0 min 0,000 mm 1,2 UV-I 176 W/m² 1,9 °C 12,6 °C 8,0 km/h (2 Bft)
02.05.2017 17:27 12,6 °C 12,6 °C 49 % 1015,0 hPa 0,0 mm 6,4 km/h (2 Bft) N 5 ° 0 min 0,000 mm 1,2 UV-I 172 W/m² 2,2 °C 12,6 °C 9,7 km/h (2 Bft)
02.05.2017 17:28 12,6 °C 12,6 °C 48 % 1014,9 hPa 0,0 mm 6,6 km/h (2 Bft) N-NO 18 ° 0 min 0,000 mm 1,2 UV-I 165 W/m² 1,9 °C 12,6 °C 9,7 km/h (2 Bft)
02.05.2017 17:29 12,6 °C 12,6 °C 47 % 1015,0 hPa 0,0 mm 5,2 km/h (1 Bft) N-NO 31 ° 0 min 0,000 mm 1,1 UV-I 158 W/m² 1,6 °C 12,6 °C 6,4 km/h (2 Bft)
02.05.2017 17:30 12,6 °C 12,6 °C 47 % 1015,0 hPa 0,0 mm 5,8 km/h (2 Bft) N-NO 17 ° 0 min 0,000 mm 1,1 UV-I 153 W/m² 1,6 °C 12,6 °C 11,3 km/h (2 Bft)
02.05.2017 17:31 12,5 °C 12,6 °C 47 % 1015,0 hPa 0,0 mm 4,2 km/h (1 Bft) NW 326 ° 0 min 0,000 mm 1,1 UV-I 148 W/m² 1,5 °C 12,5 °C 4,8 km/h (1 Bft)
02.05.2017 17:32 12,5 °C 12,5 °C 48 % 1015,0 hPa 0,0 mm 5,2 km/h (1 Bft) NW 321 ° 0 min 0,000 mm 1,1 UV-I 148 W/m² 1,8 °C 12,5 °C 8,0 km/h (2 Bft)
02.05.2017 17:33 12,5 °C 12,5 °C 50 % 1015,0 hPa 0,0 mm 5,8 km/h (2 Bft) N-NW 340 ° 0 min 0,000 mm 1,1 UV-I 149 W/m² 2,4 °C 12,5 °C 11,3 km/h (2 Bft)
02.05.2017 17:34 12,5 °C 12,5 °C 50 % 1015,0 hPa 0,0 mm 4,3 km/h (1 Bft) N 5 ° 0 min 0,000 mm 1,1 UV-I 151 W/m² 2,4 °C 12,5 °C 6,4 km/h (2 Bft)
02.05.2017 17:35 12,4 °C 12,5 °C 50 % 1015,0 hPa 0,0 mm 4,1 km/h (1 Bft) NO 41 ° 0 min 0,000 mm 1,1 UV-I 155 W/m² 2,3 °C 12,4 °C 6,4 km/h (2 Bft)
02.05.2017 17:36 12,4 °C 12,4 °C 49 % 1015,0 hPa 0,0 mm 4,8 km/h (1 Bft) N-NO 16 ° 0 min 0,000 mm 1,1 UV-I 158 W/m² 2,0 °C 12,4 °C 6,4 km/h (2 Bft)
02.05.2017 17:37 12,4 °C 12,4 °C 48 % 1015,0 hPa 0,0 mm 4,9 km/h (1 Bft) NO 44 ° 0 min 0,000 mm 1,1 UV-I 165 W/m² 1,7 °C 12,4 °C 6,4 km/h (2 Bft)
02.05.2017 17:38 12,4 °C 12,4 °C 48 % 1015,0 hPa 0,0 mm 4,7 km/h (1 Bft) NO 35 ° 0 min 0,000 mm 1,1 UV-I 167 W/m² 1,7 °C 12,4 °C 6,4 km/h (2 Bft)
02.05.2017 17:39 12,4 °C 12,4 °C 49 % 1015,0 hPa 0,0 mm 3,4 km/h (1 Bft) NO 49 ° 0 min 0,000 mm 1,2 UV-I 165 W/m² 2,0 °C 12,4 °C 6,4 km/h (2 Bft)
02.05.2017 17:40 12,4 °C 12,4 °C 49 % 1015,0 hPa 0,0 mm 5,4 km/h (1 Bft) NO 45 ° 0 min 0,000 mm 1,2 UV-I 162 W/m² 2,0 °C 12,4 °C 6,4 km/h (2 Bft)
02.05.2017 17:41 12,4 °C 12,4 °C 50 % 1014,9 hPa 0,0 mm 3,2 km/h (1 Bft) NO 47 ° 0 min 0,000 mm 1,2 UV-I 156 W/m² 2,3 °C 12,4 °C 4,8 km/h (1 Bft)
02.05.2017 17:42 12,4 °C 12,4 °C 50 % 1015,0 hPa 0,0 mm 4,2 km/h (1 Bft) NO 43 ° 0 min 0,000 mm 1,2 UV-I 149 W/m² 2,3 °C 12,4 °C 6,4 km/h (2 Bft)
02.05.2017 17:43 12,4 °C 12,4 °C 51 % 1014,9 hPa 0,0 mm 2,3 km/h (1 Bft) NO 43 ° 0 min 0,000 mm 1,2 UV-I 134 W/m² 2,6 °C 12,4 °C 4,8 km/h (1 Bft)
02.05.2017 17:44 12,4 °C 12,4 °C 49 % 1014,9 hPa 0,0 mm 3,8 km/h (1 Bft) NO 43 ° 0 min 0,000 mm 1,1 UV-I 135 W/m² 2,0 °C 12,4 °C 4,8 km/h (1 Bft)
02.05.2017 17:45 12,3 °C 12,4 °C 49 % 1015,0 hPa 0,0 mm 3,7 km/h (1 Bft) NO 40 ° 0 min 0,000 mm 1,1 UV-I 135 W/m² 1,9 °C 12,3 °C 8,0 km/h (2 Bft)
02.05.2017 17:46 12,3 °C 12,3 °C 49 % 1014,9 hPa 0,0 mm 3,8 km/h (1 Bft) NO 46 ° 0 min 0,000 mm 1,2 UV-I 144 W/m² 1,9 °C 12,3 °C 6,4 km/h (2 Bft)
02.05.2017 17:47 12,3 °C 12,3 °C 51 % 1014,9 hPa 0,0 mm 4,3 km/h (1 Bft) N 11 ° 0 min 0,000 mm 1,2 UV-I 160 W/m² 2,5 °C 12,3 °C 6,4 km/h (2 Bft)
02.05.2017 17:48 12,4 °C 12,4 °C 50 % 1015,0 hPa 0,0 mm 3,0 km/h (1 Bft) N 11 ° 0 min 0,000 mm 1,3 UV-I 178 W/m² 2,3 °C 12,4 °C 6,4 km/h (2 Bft)
02.05.2017 17:49 12,4 °C 12,4 °C 51 % 1014,9 hPa 0,0 mm 2,4 km/h (1 Bft) N-NW 337 ° 0 min 0,000 mm 1,3 UV-I 213 W/m² 2,6 °C 12,4 °C 4,8 km/h (1 Bft)
02.05.2017 17:50 12,6 °C 12,6 °C 51 % 1015,0 hPa 0,0 mm 2,2 km/h (1 Bft) N-NW 337 ° 1 min 0,000 mm 1,5 UV-I 325 W/m² 2,7 °C 12,6 °C 4,8 km/h (1 Bft)
02.05.2017 17:51 12,7 °C 12,7 °C 52 % 1015,0 hPa 0,0 mm 3,4 km/h (1 Bft) N 10 ° 0 min 0,000 mm 1,3 UV-I 229 W/m² 3,1 °C 12,7 °C 6,4 km/h (2 Bft)
02.05.2017 17:52 12,8 °C 12,8 °C 49 % 1015,0 hPa 0,0 mm 3,5 km/h (1 Bft) O-NO 57 ° 0 min 0,000 mm 1,3 UV-I 227 W/m² 2,4 °C 12,8 °C 4,8 km/h (1 Bft)
02.05.2017 17:53 12,8 °C 12,8 °C 52 % 1015,0 hPa 0,0 mm 3,8 km/h (1 Bft) N-NO 19 ° 0 min 0,000 mm 1,4 UV-I 262 W/m² 3,2 °C 12,8 °C 6,4 km/h (2 Bft)
02.05.2017 17:54 12,8 °C 12,8 °C 51 % 1015,0 hPa 0,0 mm 4,9 km/h (1 Bft) N-NO 19 ° 0 min 0,000 mm 1,3 UV-I 248 W/m² 2,9 °C 12,8 °C 6,4 km/h (2 Bft)
02.05.2017 17:55 12,8 °C 12,8 °C 50 % 1015,0 hPa 0,0 mm 3,5 km/h (1 Bft) O-NO 76 ° 0 min 0,000 mm 1,3 UV-I 188 W/m² 2,6 °C 12,8 °C 4,8 km/h (1 Bft)
02.05.2017 17:56 12,8 °C 12,8 °C 51 % 1015,0 hPa 0,0 mm 4,8 km/h (1 Bft) N-NO 24 ° 0 min 0,000 mm 1,2 UV-I 192 W/m² 2,9 °C 12,8 °C 9,7 km/h (2 Bft)
02.05.2017 17:57 12,7 °C 12,8 °C 53 % 1015,1 hPa 0,0 mm 7,8 km/h (2 Bft) N-NO 20 ° 0 min 0,000 mm 1,3 UV-I 234 W/m² 3,4 °C 12,7 °C 12,9 km/h (3 Bft)
02.05.2017 17:58 12,7 °C 12,7 °C 49 % 1015,0 hPa 0,0 mm 3,2 km/h (1 Bft) N-NO 25 ° 0 min 0,000 mm 1,2 UV-I 267 W/m² 2,3 °C 12,7 °C 4,8 km/h (1 Bft)
02.05.2017 17:59 12,7 °C 12,7 °C 50 % 1015,0 hPa 0,0 mm 5,2 km/h (1 Bft) O-NO 67 ° 0 min 0,000 mm 1,3 UV-I 236 W/m² 2,6 °C 12,7 °C 12,9 km/h (3 Bft)
02.05.2017 18:00 12,6 °C 12,7 °C 50 % 1015,0 hPa 0,0 mm 6,2 km/h (2 Bft) N-NO 33 ° 0 min 0,000 mm 1,2 UV-I 188 W/m² 2,5 °C 12,6 °C 8,0 km/h (2 Bft)
02.05.2017 18:01 12,5 °C 12,6 °C 49 % 1015,0 hPa 0,0 mm 4,8 km/h (1 Bft) N-NO 21 ° 1 min 0,127 mm 1,4 UV-I 325 W/m² 2,1 °C 12,5 °C 9,7 km/h (2 Bft)
02.05.2017 18:02 12,6 °C 12,6 °C 52 % 1015,0 hPa 0,0 mm 4,1 km/h (1 Bft) N-NO 31 ° 0 min 0,000 mm 1,3 UV-I 269 W/m² 3,0 °C 12,6 °C 6,4 km/h (2 Bft)
02.05.2017 18:03 12,6 °C 12,6 °C 50 % 1015,0 hPa 0,0 mm 4,9 km/h (1 Bft) N-NO 17 ° 0 min 0,000 mm 1,2 UV-I 227 W/m² 2,5 °C 12,6 °C 6,4 km/h (2 Bft)
02.05.2017 18:04 12,6 °C 12,6 °C 50 % 1015,0 hPa 0,0 mm 4,7 km/h (1 Bft) N-NO 24 ° 0 min 0,000 mm 1,1 UV-I 218 W/m² 2,5 °C 12,6 °C 6,4 km/h (2 Bft)
02.05.2017 18:05 12,6 °C 12,6 °C 50 % 1014,9 hPa 0,0 mm 5,6 km/h (1 Bft) N 9 ° 0 min 0,000 mm 1,1 UV-I 230 W/m² 2,5 °C 12,6 °C 8,0 km/h (2 Bft)
02.05.2017 18:06 12,7 °C 12,7 °C 51 % 1014,9 hPa 0,0 mm 5,4 km/h (1 Bft) N-NO 17 ° 0 min 0,000 mm 1,1 UV-I 214 W/m² 2,8 °C 12,7 °C 8,0 km/h (2 Bft)
02.05.2017 18:07 12,7 °C 12,7 °C 53 % 1014,9 hPa 0,0 mm 5,2 km/h (1 Bft) NO 44 ° 0 min 0,000 mm 1,1 UV-I 209 W/m² 3,4 °C 12,7 °C 8,0 km/h (2 Bft)
02.05.2017 18:08 12,7 °C 12,7 °C 50 % 1014,9 hPa 0,0 mm 5,3 km/h (1 Bft) N 5 ° 0 min 0,000 mm 1,1 UV-I 204 W/m² 2,6 °C 12,7 °C 8,0 km/h (2 Bft)
02.05.2017 18:09 12,8 °C 12,8 °C 52 % 1014,9 hPa 0,0 mm 4,3 km/h (1 Bft) N-NO 12 ° 0 min 0,000 mm 1,1 UV-I 218 W/m² 3,2 °C 12,8 °C 4,8 km/h (1 Bft)
02.05.2017 18:10 12,8 °C 12,8 °C 51 % 1014,9 hPa 0,0 mm 6,2 km/h (2 Bft) N-NO 26 ° 0 min 0,000 mm 1,1 UV-I 225 W/m² 2,9 °C 12,8 °C 8,0 km/h (2 Bft)
02.05.2017 18:11 12,8 °C 12,8 °C 48 % 1014,9 hPa 0,0 mm 4,8 km/h (1 Bft) O-NO 73 ° 0 min 0,000 mm 1,2 UV-I 223 W/m² 2,1 °C 12,8 °C 6,4 km/h (2 Bft)
02.05.2017 18:12 12,7 °C 12,8 °C 49 % 1014,9 hPa 0,0 mm 9,5 km/h (2 Bft) O 84 ° 0 min 0,000 mm 1,2 UV-I 269 W/m² 2,3 °C 12,7 °C 12,9 km/h (3 Bft)
02.05.2017 18:13 12,7 °C 12,7 °C 50 % 1014,9 hPa 0,0 mm 6,0 km/h (2 Bft) O-NO 76 ° 1 min 0,000 mm 1,2 UV-I 306 W/m² 2,6 °C 12,7 °C 12,9 km/h (3 Bft)
02.05.2017 18:14 12,6 °C 12,7 °C 52 % 1014,9 hPa 0,0 mm 6,0 km/h (2 Bft) O-NO 71 ° 0 min 0,000 mm 1,1 UV-I 239 W/m² 3,0 °C 12,6 °C 9,7 km/h (2 Bft)
02.05.2017 18:15 12,7 °C 12,7 °C 51 % 1014,9 hPa 0,0 mm 6,8 km/h (2 Bft) O 79 ° 0 min 0,000 mm 1,1 UV-I 197 W/m² 2,8 °C 12,7 °C 8,0 km/h (2 Bft)
02.05.2017 18:16 12,6 °C 12,7 °C 49 % 1014,9 hPa 0,0 mm 5,8 km/h (2 Bft) O 87 ° 0 min 0,000 mm 1,0 UV-I 193 W/m² 2,2 °C 12,6 °C 11,3 km/h (2 Bft)
02.05.2017 18:17 12,6 °C 12,6 °C 49 % 1014,9 hPa 0,0 mm 5,9 km/h (2 Bft) O-NO 77 ° 0 min 0,000 mm 1,0 UV-I 190 W/m² 2,2 °C 12,6 °C 8,0 km/h (2 Bft)
02.05.2017 18:18 12,6 °C 12,6 °C 49 % 1014,9 hPa 0,0 mm 7,4 km/h (2 Bft) O-NO 68 ° 0 min 0,000 mm 0,9 UV-I 135 W/m² 2,2 °C 12,6 °C 9,7 km/h (2 Bft)
02.05.2017 18:19 12,6 °C 12,6 °C 48 % 1015,0 hPa 0,0 mm 8,0 km/h (2 Bft) NO 35 ° 0 min 0,000 mm 0,9 UV-I 128 W/m² 1,9 °C 12,6 °C 11,3 km/h (2 Bft)
02.05.2017 18:20 12,6 °C 12,6 °C 49 % 1015,0 hPa 0,0 mm 5,9 km/h (2 Bft) O-NO 68 ° 0 min 0,000 mm 0,8 UV-I 118 W/m² 2,2 °C 12,6 °C 11,3 km/h (2 Bft)
02.05.2017 18:21 12,5 °C 12,6 °C 48 % 1015,0 hPa 0,0 mm 7,6 km/h (2 Bft) O-NO 76 ° 0 min 0,000 mm 0,8 UV-I 128 W/m² 1,8 °C 12,5 °C 9,7 km/h (2 Bft)
02.05.2017 18:22 12,4 °C 12,5 °C 49 % 1015,0 hPa 0,0 mm 5,1 km/h (1 Bft) O-NO 73 ° 0 min 0,000 mm 0,8 UV-I 113 W/m² 2,0 °C 12,4 °C 6,4 km/h (2 Bft)
02.05.2017 18:23 12,4 °C 12,4 °C 48 % 1015,0 hPa 0,0 mm 4,4 km/h (1 Bft) O-NO 62 ° 0 min 0,000 mm 0,8 UV-I 104 W/m² 1,7 °C 12,4 °C 6,4 km/h (2 Bft)
02.05.2017 18:24 12,4 °C 12,4 °C 49 % 1014,9 hPa 0,0 mm 7,5 km/h (2 Bft) O 83 ° 0 min 0,000 mm 0,8 UV-I 97 W/m² 2,0 °C 12,4 °C 14,5 km/h (3 Bft)
02.05.2017 18:25 12,4 °C 12,4 °C 48 % 1015,0 hPa 0,0 mm 8,6 km/h (2 Bft) SO 127 ° 0 min 0,000 mm 0,8 UV-I 81 W/m² 1,7 °C 12,4 °C 11,3 km/h (2 Bft)
02.05.2017 18:26 12,3 °C 12,4 °C 49 % 1015,0 hPa 0,0 mm 3,8 km/h (1 Bft) O-NO 76 ° 0 min 0,000 mm 0,9 UV-I 128 W/m² 1,9 °C 12,3 °C 6,4 km/h (2 Bft)
02.05.2017 18:27 12,3 °C 12,3 °C 51 % 1015,0 hPa 0,0 mm 6,4 km/h (2 Bft) N 5 ° 0 min 0,000 mm 0,9 UV-I 142 W/m² 2,5 °C 12,3 °C 8,0 km/h (2 Bft)
02.05.2017 18:28 12,4 °C 12,4 °C 51 % 1015,0 hPa 0,0 mm 6,0 km/h (2 Bft) N 360 ° 0 min 0,000 mm 0,9 UV-I 141 W/m² 2,6 °C 12,4 °C 8,0 km/h (2 Bft)
02.05.2017 18:29 12,4 °C 12,4 °C 50 % 1015,0 hPa 0,0 mm 4,7 km/h (1 Bft) N-NW 347 ° 0 min 0,000 mm 0,9 UV-I 132 W/m² 2,3 °C 12,4 °C 6,4 km/h (2 Bft)
02.05.2017 18:30 12,6 °C 12,6 °C 50 % 1015,0 hPa 0,0 mm 4,9 km/h (1 Bft) N-NO 22 ° 0 min 0,000 mm 0,9 UV-I 148 W/m² 2,5 °C 12,6 °C 8,0 km/h (2 Bft)
02.05.2017 18:31 12,6 °C 12,6 °C 49 % 1015,0 hPa 0,0 mm 2,5 km/h (1 Bft) N-NO 12 ° 0 min 0,000 mm 0,8 UV-I 130 W/m² 2,2 °C 12,6 °C 6,4 km/h (2 Bft)
02.05.2017 18:32 12,7 °C 12,7 °C 52 % 1014,9 hPa 0,0 mm 6,7 km/h (2 Bft) O 92 ° 0 min 0,000 mm 0,8 UV-I 109 W/m² 3,1 °C 12,7 °C 14,5 km/h (3 Bft)
02.05.2017 18:33 12,7 °C 12,7 °C 51 % 1015,0 hPa 0,0 mm 8,6 km/h (2 Bft) O 81 ° 0 min 0,000 mm 0,8 UV-I 77 W/m² 2,8 °C 12,7 °C 11,3 km/h (2 Bft)
02.05.2017 18:34 12,6 °C 12,7 °C 50 % 1014,9 hPa 0,0 mm 7,1 km/h (2 Bft) O-NO 73 ° 0 min 0,000 mm 0,8 UV-I 81 W/m² 2,5 °C 12,6 °C 11,3 km/h (2 Bft)
02.05.2017 18:35 12,6 °C 12,6 °C 50 % 1015,0 hPa 0,0 mm 4,3 km/h (1 Bft) O-NO 69 ° 0 min 0,000 mm 0,8 UV-I 130 W/m² 2,5 °C 12,6 °C 6,4 km/h (2 Bft)
02.05.2017 18:36 12,4 °C 12,6 °C 51 % 1015,0 hPa 0,0 mm 5,4 km/h (1 Bft) O 80 ° 0 min 0,000 mm 0,8 UV-I 88 W/m² 2,6 °C 12,4 °C 9,7 km/h (2 Bft)
02.05.2017 18:37 12,4 °C 12,5 °C 51 % 1015,0 hPa 0,0 mm 4,1 km/h (1 Bft) O-NO 74 ° 0 min 0,000 mm 0,8 UV-I 121 W/m² 2,6 °C 12,4 °C 8,0 km/h (2 Bft)
02.05.2017 18:38 12,3 °C 12,4 °C 51 % 1015,0 hPa 0,0 mm 4,4 km/h (1 Bft) NO 49 ° 0 min 0,000 mm 0,7 UV-I 102 W/m² 2,5 °C 12,3 °C 9,7 km/h (2 Bft)
02.05.2017 18:39 12,3 °C 12,4 °C 50 % 1015,0 hPa 0,0 mm 6,7 km/h (2 Bft) NO 55 ° 0 min 0,000 mm 0,0 UV-I 47 W/m² 2,2 °C 12,3 °C 9,7 km/h (2 Bft)
02.05.2017 18:40 12,3 °C 12,3 °C 52 % 1015,0 hPa 0,0 mm 6,4 km/h (2 Bft) NO 53 ° 0 min 0,000 mm 0,0 UV-I 42 W/m² 2,7 °C 12,3 °C 8,0 km/h (2 Bft)
02.05.2017 18:41 12,2 °C 12,3 °C 51 % 1015,0 hPa 0,0 mm 6,2 km/h (2 Bft) O 96 ° 0 min 0,000 mm 0,0 UV-I 39 W/m² 2,4 °C 12,2 °C 8,0 km/h (2 Bft)
02.05.2017 18:42 12,2 °C 12,2 °C 52 % 1015,0 hPa 0,0 mm 6,0 km/h (2 Bft) N 355 ° 0 min 0,000 mm 0,0 UV-I 37 W/m² 2,6 °C 12,2 °C 11,3 km/h (2 Bft)
02.05.2017 18:43 12,1 °C 12,2 °C 52 % 1015,0 hPa 0,0 mm 6,7 km/h (2 Bft) O 86 ° 0 min 0,000 mm 0,0 UV-I 35 W/m² 2,5 °C 12,1 °C 8,0 km/h (2 Bft)
02.05.2017 18:44 12,1 °C 12,1 °C 52 % 1015,0 hPa 0,0 mm 4,5 km/h (1 Bft) NO 39 ° 0 min 0,000 mm 0,0 UV-I 37 W/m² 2,5 °C 12,1 °C 8,0 km/h (2 Bft)
02.05.2017 18:45 11,9 °C 12,1 °C 53 % 1015,0 hPa 0,0 mm 2,3 km/h (1 Bft) NO 39 ° 0 min 0,000 mm 0,0 UV-I 37 W/m² 2,6 °C 11,9 °C 4,8 km/h (1 Bft)
02.05.2017 18:46 11,8 °C 11,9 °C 53 % 1015,0 hPa 0,0 mm 2,7 km/h (1 Bft) N-NO 26 ° 0 min 0,000 mm 0,0 UV-I 39 W/m² 2,5 °C 11,8 °C 6,4 km/h (2 Bft)
02.05.2017 18:47 11,8 °C 11,8 °C 53 % 1015,1 hPa 0,0 mm 4,7 km/h (1 Bft) N-NO 30 ° 0 min 0,000 mm 0,0 UV-I 49 W/m² 2,5 °C 11,8 °C 8,0 km/h (2 Bft)
02.05.2017 18:48 11,8 °C 11,8 °C 55 % 1015,1 hPa 0,0 mm 2,1 km/h (1 Bft) N-NO 30 ° 0 min 0,000 mm 0,0 UV-I 56 W/m² 3,1 °C 11,8 °C 3,2 km/h (1 Bft)
02.05.2017 18:49 11,7 °C 11,8 °C 54 % 1015,0 hPa 0,0 mm 1,9 km/h (1 Bft) NO 47 ° 0 min 0,000 mm 0,6 UV-I 62 W/m² 2,7 °C 11,7 °C 4,8 km/h (1 Bft)
02.05.2017 18:50 11,7 °C 11,7 °C 56 % 1015,1 hPa 0,0 mm 2,2 km/h (1 Bft) NO 47 ° 0 min 0,000 mm 0,6 UV-I 63 W/m² 3,2 °C 11,7 °C 4,8 km/h (1 Bft)
02.05.2017 18:51 11,7 °C 11,7 °C 57 % 1015,1 hPa 0,0 mm 1,2 km/h (1 Bft) NO 47 ° 0 min 0,000 mm 0,6 UV-I 65 W/m² 3,5 °C 11,7 °C 3,2 km/h (1 Bft)
02.05.2017 18:52 11,6 °C 11,7 °C 56 % 1015,1 hPa 0,0 mm 2,6 km/h (1 Bft) NO 38 ° 0 min 0,000 mm 0,6 UV-I 67 W/m² 3,1 °C 11,6 °C 3,2 km/h (1 Bft)
02.05.2017 18:53 11,6 °C 11,6 °C 57 % 1015,1 hPa 0,0 mm 1,4 km/h (1 Bft) NO 38 ° 0 min 0,000 mm 0,6 UV-I 74 W/m² 3,4 °C 11,6 °C 3,2 km/h (1 Bft)
02.05.2017 18:54 11,4 °C 11,6 °C 58 % 1015,1 hPa 0,0 mm 2,1 km/h (1 Bft) NO 38 ° 0 min 0,000 mm 0,5 UV-I 76 W/m² 3,4 °C 11,4 °C 3,2 km/h (1 Bft)
02.05.2017 18:55 11,4 °C 11,4 °C 58 % 1015,0 hPa 0,0 mm 0,0 km/h (0 Bft) NO 38 ° 0 min 0,000 mm 0,5 UV-I 77 W/m² 3,4 °C 11,4 °C 0,0 km/h (0 Bft)
02.05.2017 18:56 11,4 °C 11,4 °C 57 % 1015,0 hPa 0,0 mm 1,5 km/h (1 Bft) NO 38 ° 0 min 0,000 mm 0,5 UV-I 77 W/m² 3,2 °C 11,4 °C 3,2 km/h (1 Bft)
02.05.2017 18:57 11,4 °C 11,4 °C 58 % 1015,0 hPa 0,0 mm 3,9 km/h (1 Bft) O-NO 63 ° 0 min 0,000 mm 0,5 UV-I 77 W/m² 3,4 °C 11,4 °C 4,8 km/h (1 Bft)
02.05.2017 18:58 11,4 °C 11,4 °C 56 % 1015,0 hPa 0,0 mm 1,1 km/h (1 Bft) O-NO 63 ° 0 min 0,000 mm 0,5 UV-I 76 W/m² 2,9 °C 11,4 °C 1,6 km/h (1 Bft)
02.05.2017 18:59 11,4 °C 11,4 °C 56 % 1015,0 hPa 0,0 mm 0,0 km/h (0 Bft) O-NO 63 ° 0 min 0,000 mm 0,5 UV-I 76 W/m² 2,9 °C 11,4 °C 0,0 km/h (0 Bft)
02.05.2017 19:00 11,4 °C 11,4 °C 57 % 1015,0 hPa 0,0 mm 0,0 km/h (0 Bft) O-NO 63 ° 0 min 0,102 mm 0,0 UV-I 76 W/m² 3,2 °C 11,4 °C 0,0 km/h (0 Bft)
02.05.2017 19:01 11,4 °C 11,4 °C 57 % 1015,0 hPa 0,0 mm 0,0 km/h (0 Bft) O-NO 63 ° 0 min 0,000 mm 0,0 UV-I 76 W/m² 3,2 °C 11,4 °C 0,0 km/h (0 Bft)
02.05.2017 19:02 11,4 °C 11,4 °C 58 % 1015,0 hPa 0,0 mm 1,5 km/h (1 Bft) O-NO 63 ° 0 min 0,000 mm 0,0 UV-I 76 W/m² 3,4 °C 11,4 °C 3,2 km/h (1 Bft)
02.05.2017 19:03 11,3 °C 11,4 °C 58 % 1015,0 hPa 0,0 mm 0,3 km/h (0 Bft) O-NO 63 ° 0 min 0,000 mm 0,0 UV-I 76 W/m² 3,3 °C 11,3 °C 1,6 km/h (1 Bft)
02.05.2017 19:04 11,3 °C 11,4 °C 59 % 1015,0 hPa 0,0 mm 0,0 km/h (0 Bft) O-NO 63 ° 0 min 0,000 mm 0,0 UV-I 74 W/m² 3,6 °C 11,3 °C 0,0 km/h (0 Bft)
02.05.2017 19:05 11,3 °C 11,3 °C 57 % 1015,0 hPa 0,0 mm 0,6 km/h (0 Bft) O-NO 63 ° 0 min 0,000 mm 0,0 UV-I 76 W/m² 3,1 °C 11,3 °C 1,6 km/h (1 Bft)
02.05.2017 19:06 11,3 °C 11,4 °C 58 % 1015,0 hPa 0,0 mm 0,0 km/h (0 Bft) O-NO 63 ° 0 min 0,000 mm 0,0 UV-I 76 W/m² 3,3 °C 11,3 °C 0,0 km/h (0 Bft)
02.05.2017 19:07 11,3 °C 11,3 °C 60 % 1015,0 hPa 0,0 mm 0,0 km/h (0 Bft) O-NO 63 ° 0 min 0,000 mm 0,0 UV-I 76 W/m² 3,8 °C 11,3 °C 0,0 km/h (0 Bft)
02.05.2017 19:08 11,3 °C 11,3 °C 63 % 1015,0 hPa 0,0 mm 0,7 km/h (0 Bft) O-NO 63 ° 0 min 0,000 mm 0,0 UV-I 76 W/m² 4,5 °C 11,3 °C 1,6 km/h (1 Bft)
02.05.2017 19:09 11,2 °C 11,3 °C 60 % 1015,0 hPa 0,0 mm 0,0 km/h (0 Bft) O-NO 63 ° 0 min 0,000 mm 0,0 UV-I 77 W/m² 3,7 °C 11,2 °C 0,0 km/h (0 Bft)
02.05.2017 19:10 11,2 °C 11,2 °C 60 % 1015,0 hPa 0,0 mm 1,7 km/h (1 Bft) O-NO 63 ° 0 min 0,000 mm 0,0 UV-I 77 W/m² 3,7 °C 11,2 °C 3,2 km/h (1 Bft)
02.05.2017 19:11 11,2 °C 11,2 °C 59 % 1015,0 hPa 0,0 mm 2,7 km/h (1 Bft) O-NO 63 ° 0 min 0,000 mm 0,0 UV-I 72 W/m² 3,5 °C 11,2 °C 3,2 km/h (1 Bft)
02.05.2017 19:12 11,2 °C 11,2 °C 61 % 1015,0 hPa 0,0 mm 2,5 km/h (1 Bft) O-NO 63 ° 0 min 0,000 mm 0,0 UV-I 70 W/m² 4,0 °C 11,2 °C 4,8 km/h (1 Bft)
02.05.2017 19:13 11,2 °C 11,2 °C 58 % 1015,0 hPa 0,0 mm 4,9 km/h (1 Bft) O 82 ° 0 min 0,000 mm 0,0 UV-I 69 W/m² 3,2 °C 11,2 °C 6,4 km/h (2 Bft)
02.05.2017 19:14 11,2 °C 11,2 °C 60 % 1015,0 hPa 0,0 mm 4,3 km/h (1 Bft) O 101 ° 0 min 0,000 mm 0,0 UV-I 70 W/m² 3,7 °C 11,2 °C 6,4 km/h (2 Bft)
02.05.2017 19:15 11,2 °C 11,2 °C 59 % 1015,0 hPa 0,0 mm 2,7 km/h (1 Bft) O 100 ° 0 min 0,000 mm 0,0 UV-I 65 W/m² 3,5 °C 11,2 °C 4,8 km/h (1 Bft)
02.05.2017 19:16 11,2 °C 11,2 °C 59 % 1015,0 hPa 0,0 mm 3,6 km/h (1 Bft) O-SO 105 ° 0 min 0,000 mm 0,0 UV-I 63 W/m² 3,5 °C 11,2 °C 6,4 km/h (2 Bft)
02.05.2017 19:17 11,2 °C 11,2 °C 58 % 1015,0 hPa 0,0 mm 2,2 km/h (1 Bft) O-SO 105 ° 0 min 0,000 mm 0,0 UV-I 60 W/m² 3,2 °C 11,2 °C 3,2 km/h (1 Bft)
02.05.2017 19:18 11,2 °C 11,2 °C 59 % 1015,0 hPa 0,0 mm 1,7 km/h (1 Bft) O-SO 105 ° 0 min 0,000 mm 0,0 UV-I 60 W/m² 3,5 °C 11,2 °C 3,2 km/h (1 Bft)
02.05.2017 19:19 11,2 °C 11,3 °C 62 % 1015,0 hPa 0,0 mm 3,4 km/h (1 Bft) O 86 ° 0 min 0,000 mm 0,0 UV-I 58 W/m² 4,2 °C 11,2 °C 4,8 km/h (1 Bft)
02.05.2017 19:20 11,2 °C 11,2 °C 60 % 1015,0 hPa 0,0 mm 1,9 km/h (1 Bft) O 86 ° 0 min 0,000 mm 0,0 UV-I 56 W/m² 3,7 °C 11,2 °C 3,2 km/h (1 Bft)
02.05.2017 19:21 11,2 °C 11,2 °C 59 % 1015,0 hPa 0,0 mm 2,4 km/h (1 Bft) O 86 ° 0 min 0,000 mm 0,0 UV-I 54 W/m² 3,5 °C 11,2 °C 4,8 km/h (1 Bft)
02.05.2017 19:22 11,2 °C 11,2 °C 60 % 1015,0 hPa 0,0 mm 1,1 km/h (1 Bft) O 86 ° 0 min 0,000 mm 0,0 UV-I 53 W/m² 3,7 °C 11,2 °C 1,6 km/h (1 Bft)
02.05.2017 19:23 11,2 °C 11,2 °C 63 % 1015,0 hPa 0,0 mm 1,6 km/h (1 Bft) O 86 ° 0 min 0,000 mm 0,0 UV-I 70 W/m² 4,4 °C 11,2 °C 3,2 km/h (1 Bft)
02.05.2017 19:24 11,2 °C 11,2 °C 62 % 1015,1 hPa 0,0 mm 1,8 km/h (1 Bft) O 86 ° 0 min 0,000 mm 0,0 UV-I 69 W/m² 4,2 °C 11,2 °C 3,2 km/h (1 Bft)
02.05.2017 19:25 11,2 °C 11,2 °C 61 % 1015,0 hPa 0,0 mm 1,6 km/h (1 Bft) O 86 ° 0 min 0,000 mm 0,0 UV-I 70 W/m² 4,0 °C 11,2 °C 3,2 km/h (1 Bft)
02.05.2017 19:26 11,1 °C 11,2 °C 60 % 1014,9 hPa 0,0 mm 0,3 km/h (0 Bft) O 86 ° 0 min 0,000 mm 0,0 UV-I 58 W/m² 3,6 °C 11,1 °C 3,2 km/h (1 Bft)
02.05.2017 19:27 11,2 °C 11,2 °C 60 % 1015,0 hPa 0,0 mm 2,7 km/h (1 Bft) O 86 ° 0 min 0,000 mm 0,0 UV-I 65 W/m² 3,7 °C 11,2 °C 4,8 km/h (1 Bft)
02.05.2017 19:28 11,1 °C 11,2 °C 62 % 1015,0 hPa 0,0 mm 0,2 km/h (0 Bft) O 86 ° 0 min 0,000 mm 0,0 UV-I 86 W/m² 4,1 °C 11,1 °C 1,6 km/h (1 Bft)
02.05.2017 19:29 11,2 °C 11,2 °C 61 % 1015,0 hPa 0,0 mm 0,0 km/h (0 Bft) O 86 ° 0 min 0,000 mm 0,0 UV-I 86 W/m² 4,0 °C 11,2 °C 0,0 km/h (0 Bft)
02.05.2017 19:30 11,2 °C 11,2 °C 60 % 1015,0 hPa 0,0 mm 0,4 km/h (0 Bft) O 86 ° 0 min 0,000 mm 0,0 UV-I 63 W/m² 3,7 °C 11,2 °C 1,6 km/h (1 Bft)
02.05.2017 19:31 11,2 °C 11,2 °C 61 % 1015,0 hPa 0,0 mm 0,3 km/h (0 Bft) O 86 ° 0 min 0,000 mm 0,0 UV-I 70 W/m² 4,0 °C 11,2 °C 1,6 km/h (1 Bft)
02.05.2017 19:32 11,1 °C 11,2 °C 62 % 1015,0 hPa 0,0 mm 0,3 km/h (0 Bft) O 86 ° 0 min 0,000 mm 0,0 UV-I 76 W/m² 4,1 °C 11,1 °C 1,6 km/h (1 Bft)
02.05.2017 19:33 11,1 °C 11,1 °C 62 % 1015,0 hPa 0,0 mm 0,0 km/h (0 Bft) O 86 ° 0 min 0,000 mm 0,0 UV-I 63 W/m² 4,1 °C 11,1 °C 0,0 km/h (0 Bft)
02.05.2017 19:34 11,1 °C 11,1 °C 63 % 1015,0 hPa 0,0 mm 0,0 km/h (0 Bft) O 86 ° 0 min 0,000 mm 0,0 UV-I 77 W/m² 4,3 °C 11,1 °C 0,0 km/h (0 Bft)
02.05.2017 19:35 11,0 °C 11,1 °C 63 % 1015,0 hPa 0,0 mm 0,0 km/h (0 Bft) O 86 ° 0 min 0,000 mm 0,0 UV-I 100 W/m² 4,2 °C 11,0 °C 0,0 km/h (0 Bft)
02.05.2017 19:36 11,0 °C 11,0 °C 62 % 1015,1 hPa 0,0 mm 1,5 km/h (1 Bft) O 86 ° 0 min 0,000 mm 0,0 UV-I 97 W/m² 4,0 °C 11,0 °C 3,2 km/h (1 Bft)
02.05.2017 19:37 11,1 °C 11,1 °C 63 % 1015,1 hPa 0,0 mm 1,1 km/h (1 Bft) O 86 ° 0 min 0,000 mm 0,0 UV-I 93 W/m² 4,3 °C 11,1 °C 3,2 km/h (1 Bft)
02.05.2017 19:38 11,2 °C 11,2 °C 63 % 1015,1 hPa 0,0 mm 0,3 km/h (0 Bft) O 86 ° 0 min 0,000 mm 0,0 UV-I 77 W/m² 4,4 °C 11,2 °C 1,6 km/h (1 Bft)
02.05.2017 19:39 11,2 °C 11,2 °C 64 % 1015,1 hPa 0,0 mm 0,0 km/h (0 Bft) O 86 ° 0 min 0,000 mm 0,0 UV-I 62 W/m² 4,6 °C 11,2 °C 0,0 km/h (0 Bft)
02.05.2017 19:40 11,2 °C 11,2 °C 63 % 1015,1 hPa 0,0 mm 0,0 km/h (0 Bft) O 86 ° 0 min 0,000 mm 0,0 UV-I 40 W/m² 4,4 °C 11,2 °C 0,0 km/h (0 Bft)
02.05.2017 19:41 11,2 °C 11,2 °C 65 % 1015,1 hPa 0,0 mm 0,0 km/h (0 Bft) O 86 ° 0 min 0,000 mm 0,0 UV-I 40 W/m² 4,9 °C 11,2 °C 0,0 km/h (0 Bft)
02.05.2017 19:42 11,1 °C 11,2 °C 60 % 1015,0 hPa 0,0 mm 0,0 km/h (0 Bft) O 86 ° 0 min 0,000 mm 0,0 UV-I 42 W/m² 3,6 °C 11,1 °C 0,0 km/h (0 Bft)
02.05.2017 19:43 11,1 °C 11,2 °C 63 % 1015,0 hPa 0,0 mm 0,0 km/h (0 Bft) O 86 ° 0 min 0,000 mm 0,0 UV-I 40 W/m² 4,3 °C 11,1 °C 0,0 km/h (0 Bft)
02.05.2017 19:44 11,1 °C 11,1 °C 60 % 1015,0 hPa 0,0 mm 0,4 km/h (0 Bft) O 86 ° 0 min 0,000 mm 0,0 UV-I 40 W/m² 3,6 °C 11,1 °C 3,2 km/h (1 Bft)
02.05.2017 19:45 11,1 °C 11,1 °C 60 % 1015,1 hPa 0,0 mm 1,0 km/h (0 Bft) O 86 ° 0 min 0,000 mm 0,0 UV-I 40 W/m² 3,6 °C 11,1 °C 1,6 km/h (1 Bft)
02.05.2017 19:46 11,2 °C 11,2 °C 61 % 1015,0 hPa 0,0 mm 0,1 km/h (0 Bft) O 86 ° 0 min 0,000 mm 0,0 UV-I 37 W/m² 4,0 °C 11,2 °C 1,6 km/h (1 Bft)
02.05.2017 19:47 11,1 °C 11,2 °C 60 % 1015,0 hPa 0,0 mm 0,0 km/h (0 Bft) O 86 ° 0 min 0,000 mm 0,0 UV-I 35 W/m² 3,6 °C 11,1 °C 0,0 km/h (0 Bft)
02.05.2017 19:48 11,1 °C 11,1 °C 61 % 1015,1 hPa 0,0 mm 0,0 km/h (0 Bft) O 86 ° 0 min 0,000 mm 0,0 UV-I 33 W/m² 3,9 °C 11,1 °C 0,0 km/h (0 Bft)
02.05.2017 19:49 11,0 °C 11,1 °C 60 % 1015,1 hPa 0,0 mm 0,0 km/h (0 Bft) O 86 ° 0 min 0,000 mm 0,0 UV-I 32 W/m² 3,5 °C 11,0 °C 0,0 km/h (0 Bft)
02.05.2017 19:50 11,1 °C 11,1 °C 59 % 1015,1 hPa 0,0 mm 0,0 km/h (0 Bft) O 86 ° 0 min 0,000 mm 0,0 UV-I 30 W/m² 3,4 °C 11,1 °C 0,0 km/h (0 Bft)
02.05.2017 19:51 11,0 °C 11,1 °C 61 % 1015,1 hPa 0,0 mm 1,6 km/h (1 Bft) O 86 ° 0 min 0,000 mm 0,0 UV-I 28 W/m² 3,8 °C 11,0 °C 3,2 km/h (1 Bft)
02.05.2017 19:52 10,9 °C 11,0 °C 60 % 1015,1 hPa 0,0 mm 0,9 km/h (0 Bft) O 86 ° 0 min 0,000 mm 0,0 UV-I 25 W/m² 3,4 °C 10,9 °C 1,6 km/h (1 Bft)
02.05.2017 19:53 10,9 °C 10,9 °C 61 % 1015,1 hPa 0,0 mm 0,0 km/h (0 Bft) O 86 ° 0 min 0,000 mm 0,0 UV-I 23 W/m² 3,7 °C 10,9 °C 0,0 km/h (0 Bft)
02.05.2017 19:54 10,8 °C 10,9 °C 60 % 1015,1 hPa 0,0 mm 0,5 km/h (0 Bft) O 86 ° 0 min 0,000 mm 0,0 UV-I 23 W/m² 3,4 °C 10,8 °C 1,6 km/h (1 Bft)
02.05.2017 19:55 10,8 °C 10,8 °C 62 % 1015,1 hPa 0,0 mm 0,1 km/h (0 Bft) O 86 ° 0 min 0,000 mm 0,0 UV-I 21 W/m² 3,8 °C 10,8 °C 1,6 km/h (1 Bft)
02.05.2017 19:56 10,8 °C 10,8 °C 61 % 1015,1 hPa 0,0 mm 0,0 km/h (0 Bft) O 86 ° 0 min 0,000 mm 0,0 UV-I 19 W/m² 3,6 °C 10,8 °C 0,0 km/h (0 Bft)
02.05.2017 19:57 10,7 °C 10,8 °C 61 % 1015,2 hPa 0,0 mm 0,0 km/h (0 Bft) O 86 ° 0 min 0,000 mm 0,0 UV-I 19 W/m² 3,5 °C 10,7 °C 0,0 km/h (0 Bft)
02.05.2017 19:58 10,7 °C 10,7 °C 61 % 1015,1 hPa 0,0 mm 0,0 km/h (0 Bft) O 86 ° 0 min 0,000 mm 0,0 UV-I 16 W/m² 3,5 °C 10,7 °C 0,0 km/h (0 Bft)
02.05.2017 19:59 10,7 °C 10,7 °C 62 % 1015,1 hPa 0,0 mm 0,0 km/h (0 Bft) O 86 ° 0 min 0,000 mm 0,0 UV-I 16 W/m² 3,7 °C 10,7 °C 0,0 km/h (0 Bft)
02.05.2017 20:00 10,6 °C 10,7 °C 61 % 1015,1 hPa 0,0 mm 0,0 km/h (0 Bft) O 86 ° 0 min 0,000 mm 0,0 UV-I 14 W/m² 3,4 °C 10,6 °C 0,0 km/h (0 Bft)
02.05.2017 20:01 10,6 °C 10,6 °C 62 % 1015,2 hPa 0,0 mm 1,2 km/h (1 Bft) O 86 ° 0 min 0,025 mm 0,0 UV-I 12 W/m² 3,6 °C 10,6 °C 1,6 km/h (1 Bft)
02.05.2017 20:02 10,5 °C 10,6 °C 63 % 1015,2 hPa 0,0 mm 0,4 km/h (0 Bft) O 86 ° 0 min 0,000 mm 0,0 UV-I 12 W/m² 3,8 °C 10,5 °C 1,6 km/h (1 Bft)
02.05.2017 20:03 10,4 °C 10,5 °C 63 % 1015,2 hPa 0,0 mm 0,0 km/h (0 Bft) O 86 ° 0 min 0,000 mm 0,0 UV-I 11 W/m² 3,7 °C 10,4 °C 0,0 km/h (0 Bft)
02.05.2017 20:04 10,3 °C 10,4 °C 63 % 1015,2 hPa 0,0 mm 0,0 km/h (0 Bft) O 86 ° 0 min 0,000 mm 0,0 UV-I 11 W/m² 3,6 °C 10,3 °C 0,0 km/h (0 Bft)
02.05.2017 20:05 10,3 °C 10,3 °C 64 % 1015,1 hPa 0,0 mm 0,0 km/h (0 Bft) O 86 ° 0 min 0,000 mm 0,0 UV-I 9 W/m² 3,8 °C 10,3 °C 0,0 km/h (0 Bft)
02.05.2017 20:06 10,2 °C 10,3 °C 64 % 1015,2 hPa 0,0 mm 1,3 km/h (1 Bft) O 86 ° 0 min 0,000 mm 0,0 UV-I 9 W/m² 3,7 °C 10,2 °C 3,2 km/h (1 Bft)
02.05.2017 20:07 10,1 °C 10,2 °C 64 % 1015,1 hPa 0,0 mm 1,8 km/h (1 Bft) O 86 ° 0 min 0,000 mm 0,0 UV-I 9 W/m² 3,6 °C 10,1 °C 3,2 km/h (1 Bft)
02.05.2017 20:08 10,1 °C 10,1 °C 64 % 1015,2 hPa 0,0 mm 2,5 km/h (1 Bft) O 86 ° 0 min 0,000 mm 0,0 UV-I 9 W/m² 3,6 °C 10,1 °C 3,2 km/h (1 Bft)
02.05.2017 20:09 10,0 °C 10,1 °C 64 % 1015,2 hPa 0,0 mm 1,9 km/h (1 Bft) O 86 ° 0 min 0,000 mm 0,0 UV-I 9 W/m² 3,5 °C 10,0 °C 3,2 km/h (1 Bft)
02.05.2017 20:10 10,0 °C 10,0 °C 64 % 1015,2 hPa 0,0 mm 0,5 km/h (0 Bft) O 86 ° 0 min 0,000 mm 0,0 UV-I 7 W/m² 3,5 °C 10,0 °C 1,6 km/h (1 Bft)
02.05.2017 20:11 9,9 °C 10,0 °C 64 % 1015,2 hPa 0,0 mm 1,7 km/h (1 Bft) O 86 ° 0 min 0,000 mm 0,0 UV-I 5 W/m² 3,4 °C 9,9 °C 3,2 km/h (1 Bft)
02.05.2017 20:12 9,9 °C 9,9 °C 64 % 1015,2 hPa 0,0 mm 1,0 km/h (0 Bft) O 87 ° 0 min 0,000 mm 0,0 UV-I 5 W/m² 3,4 °C 9,9 °C 3,2 km/h (1 Bft)
02.05.2017 20:13 9,9 °C 9,9 °C 66 % 1015,3 hPa 0,0 mm 1,4 km/h (1 Bft) O 86 ° 0 min 0,000 mm 0,0 UV-I 5 W/m² 3,9 °C 9,9 °C 3,2 km/h (1 Bft)
02.05.2017 20:14 9,8 °C 9,9 °C 66 % 1015,3 hPa 0,0 mm 0,0 km/h (0 Bft) O 86 ° 0 min 0,000 mm 0,0 UV-I 5 W/m² 3,8 °C 9,8 °C 0,0 km/h (0 Bft)
02.05.2017 20:15 9,7 °C 9,8 °C 68 % 1015,2 hPa 0,0 mm 0,0 km/h (0 Bft) O 86 ° 0 min 0,000 mm 0,0 UV-I 0 W/m² 4,1 °C 9,7 °C 0,0 km/h (0 Bft)
02.05.2017 20:16 9,6 °C 9,7 °C 67 % 1015,2 hPa 0,0 mm 0,9 km/h (0 Bft) O 86 ° 0 min 0,000 mm 0,0 UV-I 0 W/m² 3,8 °C 9,6 °C 3,2 km/h (1 Bft)
02.05.2017 20:17 9,6 °C 9,6 °C 66 % 1015,2 hPa 0,0 mm 0,9 km/h (0 Bft) O 87 ° 0 min 0,000 mm 0,0 UV-I 0 W/m² 3,6 °C 9,6 °C 1,6 km/h (1 Bft)
02.05.2017 20:18 9,6 °C 9,6 °C 67 % 1015,3 hPa 0,0 mm 0,1 km/h (0 Bft) O 87 ° 0 min 0,000 mm 0,0 UV-I 0 W/m² 3,8 °C 9,6 °C 1,6 km/h (1 Bft)
02.05.2017 20:19 9,5 °C 9,6 °C 68 % 1015,2 hPa 0,0 mm 0,1 km/h (0 Bft) O 87 ° 0 min 0,000 mm 0,0 UV-I 0 W/m² 3,9 °C 9,5 °C 1,6 km/h (1 Bft)
02.05.2017 20:20 9,4 °C 9,5 °C 68 % 1015,2 hPa 0,0 mm 1,4 km/h (1 Bft) O 86 ° 0 min 0,000 mm 0,0 UV-I 0 W/m² 3,8 °C 9,4 °C 3,2 km/h (1 Bft)
02.05.2017 20:21 9,4 °C 9,4 °C 69 % 1015,2 hPa 0,0 mm 0,7 km/h (0 Bft) O 87 ° 0 min 0,000 mm 0,0 UV-I 0 W/m² 4,0 °C 9,4 °C 1,6 km/h (1 Bft)
02.05.2017 20:22 9,3 °C 9,4 °C 69 % 1015,3 hPa 0,0 mm 1,6 km/h (1 Bft) O 87 ° 0 min 0,000 mm 0,0 UV-I 0 W/m² 3,9 °C 9,3 °C 3,2 km/h (1 Bft)
02.05.2017 20:23 9,3 °C 9,3 °C 68 % 1015,2 hPa 0,0 mm 1,6 km/h (1 Bft) O 86 ° 0 min 0,000 mm 0,0 UV-I 0 W/m² 3,7 °C 9,3 °C 3,2 km/h (1 Bft)
02.05.2017 20:24 9,3 °C 9,3 °C 68 % 1015,3 hPa 0,0 mm 1,1 km/h (1 Bft) O 86 ° 0 min 0,000 mm 0,0 UV-I 0 W/m² 3,7 °C 9,3 °C 3,2 km/h (1 Bft)
02.05.2017 20:25 9,3 °C 9,3 °C 69 % 1015,3 hPa 0,0 mm 0,9 km/h (0 Bft) O 87 ° 0 min 0,000 mm 0,0 UV-I 0 W/m² 3,9 °C 9,3 °C 3,2 km/h (1 Bft)
02.05.2017 20:26 9,2 °C 9,3 °C 69 % 1015,3 hPa 0,0 mm 0,7 km/h (0 Bft) O 87 ° 0 min 0,000 mm 0,0 UV-I 0 W/m² 3,8 °C 9,2 °C 3,2 km/h (1 Bft)
02.05.2017 20:27 9,2 °C 9,2 °C 69 % 1015,3 hPa 0,0 mm 0,0 km/h (0 Bft) O 87 ° 0 min 0,000 mm 0,0 UV-I 0 W/m² 3,8 °C 9,2 °C 0,0 km/h (0 Bft)
02.05.2017 20:28 9,2 °C 9,2 °C 69 % 1015,3 hPa 0,0 mm 0,4 km/h (0 Bft) SO 125 ° 0 min 0,000 mm 0,0 UV-I 0 W/m² 3,8 °C 9,2 °C 1,6 km/h (1 Bft)
02.05.2017 20:29 9,1 °C 9,2 °C 70 % 1015,3 hPa 0,0 mm 0,7 km/h (0 Bft) S-SO 157 ° 0 min 0,000 mm 0,0 UV-I 0 W/m² 3,9 °C 9,1 °C 1,6 km/h (1 Bft)
02.05.2017 20:30 9,1 °C 9,1 °C 69 % 1015,3 hPa 0,0 mm 0,0 km/h (0 Bft) S-SO 157 ° 0 min 0,000 mm 0,0 UV-I 0 W/m² 3,7 °C 9,1 °C 0,0 km/h (0 Bft)
02.05.2017 20:31 9,0 °C 9,1 °C 71 % 1015,3 hPa 0,0 mm 0,0 km/h (0 Bft) S-SO 157 ° 0 min 0,000 mm 0,0 UV-I 0 W/m² 4,0 °C 9,0 °C 0,0 km/h (0 Bft)
02.05.2017 20:32 9,0 °C 9,0 °C 71 % 1015,3 hPa 0,0 mm 0,0 km/h (0 Bft) S-SO 157 ° 0 min 0,000 mm 0,0 UV-I 0 W/m² 4,0 °C 9,0 °C 0,0 km/h (0 Bft)
02.05.2017 20:33 8,9 °C 9,0 °C 73 % 1015,3 hPa 0,0 mm 0,0 km/h (0 Bft) S-SO 157 ° 0 min 0,000 mm 0,0 UV-I 0 W/m² 4,3 °C 8,9 °C 0,0 km/h (0 Bft)
02.05.2017 20:34 8,8 °C 8,9 °C 73 % 1015,4 hPa 0,0 mm 0,0 km/h (0 Bft) S-SO 157 ° 0 min 0,000 mm 0,0 UV-I 0 W/m² 4,2 °C 8,8 °C 0,0 km/h (0 Bft)
02.05.2017 20:35 8,7 °C 8,8 °C 74 % 1015,4 hPa 0,0 mm 0,5 km/h (0 Bft) S-SO 157 ° 0 min 0,000 mm 0,0 UV-I 0 W/m² 4,3 °C 8,7 °C 3,2 km/h (1 Bft)
02.05.2017 20:36 8,6 °C 8,7 °C 76 % 1015,3 hPa 0,0 mm 0,0 km/h (0 Bft) S-SO 157 ° 0 min 0,000 mm 0,0 UV-I 0 W/m² 4,6 °C 8,6 °C 0,0 km/h (0 Bft)
02.05.2017 20:37 8,5 °C 8,6 °C 76 % 1015,4 hPa 0,0 mm 1,5 km/h (1 Bft) S-SO 157 ° 0 min 0,000 mm 0,0 UV-I 0 W/m² 4,5 °C 8,5 °C 3,2 km/h (1 Bft)
02.05.2017 20:38 8,4 °C 8,5 °C 75 % 1015,4 hPa 0,0 mm 0,6 km/h (0 Bft) S-SO 157 ° 0 min 0,000 mm 0,0 UV-I 0 W/m² 4,2 °C 8,4 °C 1,6 km/h (1 Bft)
02.05.2017 20:39 8,4 °C 8,4 °C 73 % 1015,4 hPa 0,0 mm 0,9 km/h (0 Bft) S 186 ° 0 min 0,000 mm 0,0 UV-I 0 W/m² 3,8 °C 8,4 °C 4,8 km/h (1 Bft)
02.05.2017 20:40 8,5 °C 8,5 °C 74 % 1015,4 hPa 0,0 mm 0,0 km/h (0 Bft) S 186 ° 0 min 0,000 mm 0,0 UV-I 0 W/m² 4,1 °C 8,5 °C 0,0 km/h (0 Bft)
02.05.2017 20:41 8,5 °C 8,5 °C 74 % 1015,4 hPa 0,0 mm 0,6 km/h (0 Bft) S 186 ° 0 min 0,000 mm 0,0 UV-I 0 W/m² 4,1 °C 8,5 °C 1,6 km/h (1 Bft)
02.05.2017 20:42 8,4 °C 8,5 °C 75 % 1015,4 hPa 0,0 mm 0,8 km/h (0 Bft) S 186 ° 0 min 0,000 mm 0,0 UV-I 0 W/m² 4,2 °C 8,4 °C 1,6 km/h (1 Bft)
02.05.2017 20:43 8,4 °C 8,4 °C 75 % 1015,4 hPa 0,0 mm 1,4 km/h (1 Bft) S 186 ° 0 min 0,000 mm 0,0 UV-I 0 W/m² 4,2 °C 8,4 °C 3,2 km/h (1 Bft)
02.05.2017 20:44 8,4 °C 8,4 °C 75 % 1015,4 hPa 0,0 mm 2,5 km/h (1 Bft) S 186 ° 0 min 0,000 mm 0,0 UV-I 0 W/m² 4,2 °C 8,4 °C 4,8 km/h (1 Bft)
02.05.2017 20:45 8,4 °C 8,4 °C 76 % 1015,4 hPa 0,0 mm 0,3 km/h (0 Bft) S 186 ° 0 min 0,000 mm 0,0 UV-I 0 W/m² 4,4 °C 8,4 °C 1,6 km/h (1 Bft)
02.05.2017 20:46 8,3 °C 8,4 °C 76 % 1015,4 hPa 0,0 mm 0,0 km/h (0 Bft) S 186 ° 0 min 0,000 mm 0,0 UV-I 0 W/m² 4,3 °C 8,3 °C 0,0 km/h (0 Bft)
02.05.2017 20:47 8,2 °C 8,3 °C 78 % 1015,4 hPa 0,0 mm 0,0 km/h (0 Bft) S 186 ° 0 min 0,000 mm 0,0 UV-I 0 W/m² 4,6 °C 8,2 °C 0,0 km/h (0 Bft)
02.05.2017 20:48 8,1 °C 8,2 °C 78 % 1015,5 hPa 0,0 mm 0,0 km/h (0 Bft) S 186 ° 0 min 0,000 mm 0,0 UV-I 0 W/m² 4,5 °C 8,1 °C 0,0 km/h (0 Bft)
02.05.2017 20:49 8,0 °C 8,1 °C 78 % 1015,5 hPa 0,0 mm 0,0 km/h (0 Bft) S 186 ° 0 min 0,000 mm 0,0 UV-I 0 W/m² 4,4 °C 8,0 °C 0,0 km/h (0 Bft)
02.05.2017 20:50 8,0 °C 8,0 °C 78 % 1015,5 hPa 0,0 mm 1,2 km/h (1 Bft) S 186 ° 0 min 0,000 mm 0,0 UV-I 0 W/m² 4,4 °C 8,0 °C 3,2 km/h (1 Bft)
02.05.2017 20:51 7,9 °C 8,0 °C 78 % 1015,6 hPa 0,0 mm 2,4 km/h (1 Bft) S 186 ° 0 min 0,000 mm 0,0 UV-I 0 W/m² 4,3 °C 7,9 °C 3,2 km/h (1 Bft)
02.05.2017 20:52 7,9 °C 7,9 °C 78 % 1015,7 hPa 0,0 mm 0,6 km/h (0 Bft) S 186 ° 0 min 0,000 mm 0,0 UV-I 0 W/m² 4,3 °C 7,9 °C 1,6 km/h (1 Bft)
02.05.2017 20:53 7,9 °C 7,9 °C 78 % 1015,6 hPa 0,0 mm 1,5 km/h (1 Bft) S 186 ° 0 min 0,000 mm 0,0 UV-I 0 W/m² 4,3 °C 7,9 °C 3,2 km/h (1 Bft)
02.05.2017 20:54 7,8 °C 7,9 °C 78 % 1015,6 hPa 0,0 mm 0,4 km/h (0 Bft) S 186 ° 0 min 0,000 mm 0,0 UV-I 0 W/m² 4,2 °C 7,8 °C 1,6 km/h (1 Bft)
02.05.2017 20:55 7,9 °C 7,9 °C 78 % 1015,6 hPa 0,0 mm 1,6 km/h (1 Bft) S 186 ° 0 min 0,000 mm 0,0 UV-I 0 W/m² 4,3 °C 7,9 °C 3,2 km/h (1 Bft)
02.05.2017 20:56 7,8 °C 7,9 °C 79 % 1015,6 hPa 0,0 mm 1,2 km/h (1 Bft) S 186 ° 0 min 0,000 mm 0,0 UV-I 0 W/m² 4,4 °C 7,8 °C 3,2 km/h (1 Bft)
02.05.2017 20:57 7,8 °C 7,8 °C 79 % 1015,6 hPa 0,0 mm 1,7 km/h (1 Bft) S 186 ° 0 min 0,000 mm 0,0 UV-I 0 W/m² 4,4 °C 7,8 °C 3,2 km/h (1 Bft)
02.05.2017 20:58 7,8 °C 7,8 °C 79 % 1015,6 hPa 0,0 mm 1,3 km/h (1 Bft) S 186 ° 0 min 0,000 mm 0,0 UV-I 0 W/m² 4,4 °C 7,8 °C 3,2 km/h (1 Bft)
02.05.2017 20:59 7,8 °C 7,8 °C 80 % 1015,6 hPa 0,0 mm 0,5 km/h (0 Bft) S 186 ° 0 min 0,000 mm 0,0 UV-I 0 W/m² 4,6 °C 7,8 °C 1,6 km/h (1 Bft)
02.05.2017 21:00 7,7 °C 7,8 °C 80 % 1015,6 hPa 0,0 mm 0,7 km/h (0 Bft) S 186 ° 0 min 0,000 mm 0,0 UV-I 0 W/m² 4,5 °C 7,7 °C 1,6 km/h (1 Bft)
02.05.2017 21:01 7,7 °C 7,7 °C 80 % 1015,7 hPa 0,0 mm 0,0 km/h (0 Bft) S 186 ° 0 min 0,000 mm 0,0 UV-I 0 W/m² 4,5 °C 7,7 °C 0,0 km/h (0 Bft)
02.05.2017 21:02 7,7 °C 7,7 °C 80 % 1015,7 hPa 0,0 mm 1,3 km/h (1 Bft) S 186 ° 0 min 0,000 mm 0,0 UV-I 0 W/m² 4,5 °C 7,7 °C 1,6 km/h (1 Bft)
02.05.2017 21:03 7,7 °C 7,7 °C 80 % 1015,7 hPa 0,0 mm 1,1 km/h (1 Bft) S 186 ° 0 min 0,000 mm 0,0 UV-I 0 W/m² 4,5 °C 7,7 °C 1,6 km/h (1 Bft)
02.05.2017 21:04 7,7 °C 7,7 °C 80 % 1015,7 hPa 0,0 mm 0,2 km/h (0 Bft) S 186 ° 0 min 0,000 mm 0,0 UV-I 0 W/m² 4,5 °C 7,7 °C 1,6 km/h (1 Bft)
02.05.2017 21:05 7,7 °C 7,8 °C 80 % 1015,7 hPa 0,0 mm 0,4 km/h (0 Bft) S 186 ° 0 min 0,000 mm 0,0 UV-I 0 W/m² 4,5 °C 7,7 °C 1,6 km/h (1 Bft)
02.05.2017 21:06 7,7 °C 7,8 °C 80 % 1015,7 hPa 0,0 mm 0,3 km/h (0 Bft) S 186 ° 0 min 0,000 mm 0,0 UV-I 0 W/m² 4,5 °C 7,7 °C 1,6 km/h (1 Bft)
02.05.2017 21:07 7,7 °C 7,7 °C 80 % 1015,7 hPa 0,0 mm 0,9 km/h (0 Bft) S 186 ° 0 min 0,000 mm 0,0 UV-I 0 W/m² 4,5 °C 7,7 °C 1,6 km/h (1 Bft)
02.05.2017 21:08 7,8 °C 7,8 °C 80 % 1015,7 hPa 0,0 mm 1,0 km/h (0 Bft) S 186 ° 0 min 0,000 mm 0,0 UV-I 0 W/m² 4,6 °C 7,8 °C 3,2 km/h (1 Bft)
02.05.2017 21:09 7,8 °C 7,8 °C 80 % 1015,8 hPa 0,0 mm 0,9 km/h (0 Bft) S 186 ° 0 min 0,000 mm 0,0 UV-I 0 W/m² 4,6 °C 7,8 °C 3,2 km/h (1 Bft)
02.05.2017 21:10 7,8 °C 7,8 °C 80 % 1015,8 hPa 0,0 mm 0,0 km/h (0 Bft) S 186 ° 0 min 0,000 mm 0,0 UV-I 0 W/m² 4,6 °C 7,8 °C 0,0 km/h (0 Bft)
02.05.2017 21:11 7,8 °C 7,8 °C 80 % 1015,8 hPa 0,0 mm 0,0 km/h (0 Bft) S 186 ° 0 min 0,000 mm 0,0 UV-I 0 W/m² 4,6 °C 7,8 °C 0,0 km/h (0 Bft)
02.05.2017 21:12 7,8 °C 7,8 °C 80 % 1015,8 hPa 0,0 mm 0,1 km/h (0 Bft) S 186 ° 0 min 0,000 mm 0,0 UV-I 0 W/m² 4,6 °C 7,8 °C 1,6 km/h (1 Bft)
02.05.2017 21:13 7,9 °C 7,9 °C 79 % 1015,8 hPa 0,0 mm 0,4 km/h (0 Bft) S 186 ° 0 min 0,000 mm 0,0 UV-I 0 W/m² 4,5 °C 7,9 °C 3,2 km/h (1 Bft)
02.05.2017 21:14 7,9 °C 7,9 °C 79 % 1015,8 hPa 0,0 mm 0,9 km/h (0 Bft) S 186 ° 0 min 0,000 mm 0,0 UV-I 0 W/m² 4,5 °C 7,9 °C 3,2 km/h (1 Bft)
02.05.2017 21:15 7,9 °C 7,9 °C 79 % 1015,8 hPa 0,0 mm 0,0 km/h (0 Bft) S 186 ° 0 min 0,000 mm 0,0 UV-I 0 W/m² 4,5 °C 7,9 °C 0,0 km/h (0 Bft)
02.05.2017 21:16 7,9 °C 8,0 °C 80 % 1015,8 hPa 0,0 mm 0,7 km/h (0 Bft) S 186 ° 0 min 0,000 mm 0,0 UV-I 0 W/m² 4,7 °C 7,9 °C 3,2 km/h (1 Bft)
02.05.2017 21:17 7,9 °C 7,9 °C 80 % 1015,8 hPa 0,0 mm 0,0 km/h (0 Bft) S 186 ° 0 min 0,000 mm 0,0 UV-I 0 W/m² 4,7 °C 7,9 °C 0,0 km/h (0 Bft)
02.05.2017 21:18 7,9 °C 7,9 °C 80 % 1015,8 hPa 0,0 mm 0,0 km/h (0 Bft) S 186 ° 0 min 0,000 mm 0,0 UV-I 0 W/m² 4,7 °C 7,9 °C 0,0 km/h (0 Bft)
02.05.2017 21:19 7,8 °C 7,9 °C 81 % 1015,8 hPa 0,0 mm 0,0 km/h (0 Bft) S 186 ° 0 min 0,000 mm 0,0 UV-I 0 W/m² 4,7 °C 7,8 °C 0,0 km/h (0 Bft)
02.05.2017 21:20 7,8 °C 7,8 °C 81 % 1015,8 hPa 0,0 mm 0,0 km/h (0 Bft) S 186 ° 0 min 0,000 mm 0,0 UV-I 0 W/m² 4,7 °C 7,8 °C 0,0 km/h (0 Bft)
02.05.2017 21:21 7,7 °C 7,8 °C 81 % 1015,8 hPa 0,0 mm 0,3 km/h (0 Bft) S 186 ° 0 min 0,000 mm 0,0 UV-I 0 W/m² 4,7 °C 7,7 °C 1,6 km/h (1 Bft)
02.05.2017 21:22 7,7 °C 7,7 °C 81 % 1015,8 hPa 0,0 mm 0,0 km/h (0 Bft) S 186 ° 0 min 0,000 mm 0,0 UV-I 0 W/m² 4,7 °C 7,7 °C 0,0 km/h (0 Bft)
02.05.2017 21:23 7,8 °C 7,8 °C 80 % 1015,8 hPa 0,0 mm 0,0 km/h (0 Bft) S 186 ° 0 min 0,000 mm 0,0 UV-I 0 W/m² 4,6 °C 7,8 °C 0,0 km/h (0 Bft)
02.05.2017 21:24 7,8 °C 7,8 °C 80 % 1015,8 hPa 0,0 mm 0,1 km/h (0 Bft) S 186 ° 0 min 0,000 mm 0,0 UV-I 0 W/m² 4,6 °C 7,8 °C 1,6 km/h (1 Bft)
02.05.2017 21:25 7,8 °C 7,8 °C 80 % 1015,8 hPa 0,0 mm 0,0 km/h (0 Bft) S 186 ° 0 min 0,000 mm 0,0 UV-I 0 W/m² 4,6 °C 7,8 °C 0,0 km/h (0 Bft)
02.05.2017 21:26 7,9 °C 7,9 °C 80 % 1015,8 hPa 0,0 mm 0,0 km/h (0 Bft) S 186 ° 0 min 0,000 mm 0,0 UV-I 0 W/m² 4,7 °C 7,9 °C 0,0 km/h (0 Bft)
02.05.2017 21:27 7,9 °C 7,9 °C 79 % 1015,8 hPa 0,0 mm 0,6 km/h (0 Bft) S 186 ° 0 min 0,000 mm 0,0 UV-I 0 W/m² 4,5 °C 7,9 °C 3,2 km/h (1 Bft)
02.05.2017 21:28 7,9 °C 7,9 °C 78 % 1015,8 hPa 0,0 mm 0,0 km/h (0 Bft) S 186 ° 0 min 0,000 mm 0,0 UV-I 0 W/m² 4,3 °C 7,9 °C 0,0 km/h (0 Bft)
02.05.2017 21:29 7,9 °C 7,9 °C 78 % 1015,8 hPa 0,0 mm 0,0 km/h (0 Bft) S 186 ° 0 min 0,000 mm 0,0 UV-I 0 W/m² 4,3 °C 7,9 °C 0,0 km/h (0 Bft)
02.05.2017 21:30 7,9 °C 7,9 °C 78 % 1015,8 hPa 0,0 mm 0,0 km/h (0 Bft) S 186 ° 0 min 0,000 mm 0,0 UV-I 0 W/m² 4,3 °C 7,9 °C 0,0 km/h (0 Bft)
02.05.2017 21:31 7,9 °C 7,9 °C 78 % 1015,8 hPa 0,0 mm 0,0 km/h (0 Bft) S 186 ° 0 min 0,000 mm 0,0 UV-I 0 W/m² 4,3 °C 7,9 °C 0,0 km/h (0 Bft)
02.05.2017 21:32 7,9 °C 7,9 °C 78 % 1015,8 hPa 0,0 mm 1,2 km/h (1 Bft) S 186 ° 0 min 0,000 mm 0,0 UV-I 0 W/m² 4,3 °C 7,9 °C 3,2 km/h (1 Bft)
02.05.2017 21:33 7,8 °C 7,9 °C 78 % 1015,8 hPa 0,0 mm 0,0 km/h (0 Bft) S 186 ° 0 min 0,000 mm 0,0 UV-I 0 W/m² 4,2 °C 7,8 °C 0,0 km/h (0 Bft)
02.05.2017 21:34 7,8 °C 7,8 °C 78 % 1015,8 hPa 0,0 mm 0,0 km/h (0 Bft) S 186 ° 0 min 0,000 mm 0,0 UV-I 0 W/m² 4,2 °C 7,8 °C 0,0 km/h (0 Bft)
02.05.2017 21:35 7,7 °C 7,8 °C 80 % 1015,8 hPa 0,0 mm 0,0 km/h (0 Bft) S 186 ° 0 min 0,000 mm 0,0 UV-I 0 W/m² 4,5 °C 7,7 °C 0,0 km/h (0 Bft)
02.05.2017 21:36 7,6 °C 7,7 °C 80 % 1015,8 hPa 0,0 mm 0,0 km/h (0 Bft) S 186 ° 0 min 0,000 mm 0,0 UV-I 0 W/m² 4,4 °C 7,6 °C 0,0 km/h (0 Bft)
02.05.2017 21:37 7,3 °C 7,6 °C 80 % 1015,8 hPa 0,0 mm 0,0 km/h (0 Bft) S 186 ° 0 min 0,000 mm 0,0 UV-I 0 W/m² 4,1 °C 7,3 °C 0,0 km/h (0 Bft)
02.05.2017 21:38 7,1 °C 7,3 °C 81 % 1015,9 hPa 0,0 mm 0,0 km/h (0 Bft) S 186 ° 0 min 0,000 mm 0,0 UV-I 0 W/m² 4,1 °C 7,1 °C 0,0 km/h (0 Bft)
02.05.2017 21:39 7,1 °C 7,1 °C 83 % 1015,9 hPa 0,0 mm 0,0 km/h (0 Bft) S 186 ° 0 min 0,000 mm 0,0 UV-I 0 W/m² 4,4 °C 7,1 °C 0,0 km/h (0 Bft)
02.05.2017 21:40 7,0 °C 7,1 °C 82 % 1015,9 hPa 0,0 mm 0,8 km/h (0 Bft) S 186 ° 0 min 0,000 mm 0,0 UV-I 0 W/m² 4,1 °C 7,0 °C 3,2 km/h (1 Bft)
02.05.2017 21:41 7,1 °C 7,1 °C 81 % 1015,9 hPa 0,0 mm 1,9 km/h (1 Bft) S 186 ° 0 min 0,000 mm 0,0 UV-I 0 W/m² 4,1 °C 7,1 °C 3,2 km/h (1 Bft)
02.05.2017 21:42 7,1 °C 7,1 °C 81 % 1015,9 hPa 0,0 mm 1,5 km/h (1 Bft) S 186 ° 0 min 0,000 mm 0,0 UV-I 0 W/m² 4,1 °C 7,1 °C 3,2 km/h (1 Bft)
02.05.2017 21:43 7,1 °C 7,2 °C 81 % 1015,8 hPa 0,0 mm 0,3 km/h (0 Bft) S 186 ° 0 min 0,000 mm 0,0 UV-I 0 W/m² 4,1 °C 7,1 °C 1,6 km/h (1 Bft)
02.05.2017 21:44 7,2 °C 7,2 °C 82 % 1015,8 hPa 0,0 mm 0,2 km/h (0 Bft) S 186 ° 0 min 0,000 mm 0,0 UV-I 0 W/m² 4,3 °C 7,2 °C 1,6 km/h (1 Bft)
02.05.2017 21:45 7,1 °C 7,2 °C 82 % 1015,8 hPa 0,0 mm 0,0 km/h (0 Bft) S 186 ° 0 min 0,000 mm 0,0 UV-I 0 W/m² 4,2 °C 7,1 °C 0,0 km/h (0 Bft)
02.05.2017 21:46 7,1 °C 7,1 °C 81 % 1015,8 hPa 0,0 mm 0,0 km/h (0 Bft) S 186 ° 0 min 0,000 mm 0,0 UV-I 0 W/m² 4,1 °C 7,1 °C 0,0 km/h (0 Bft)
02.05.2017 21:47 7,1 °C 7,1 °C 81 % 1015,8 hPa 0,0 mm 0,0 km/h (0 Bft) S 186 ° 0 min 0,000 mm 0,0 UV-I 0 W/m² 4,1 °C 7,1 °C 0,0 km/h (0 Bft)
02.05.2017 21:48 7,1 °C 7,1 °C 81 % 1015,9 hPa 0,0 mm 0,5 km/h (0 Bft) S 186 ° 0 min 0,000 mm 0,0 UV-I 0 W/m² 4,1 °C 7,1 °C 1,6 km/h (1 Bft)
02.05.2017 21:49 7,1 °C 7,1 °C 82 % 1015,9 hPa 0,0 mm 0,0 km/h (0 Bft) S 186 ° 0 min 0,000 mm 0,0 UV-I 0 W/m² 4,2 °C 7,1 °C 0,0 km/h (0 Bft)
02.05.2017 21:50 6,9 °C 7,1 °C 82 % 1015,8 hPa 0,0 mm 0,6 km/h (0 Bft) S 186 ° 0 min 0,000 mm 0,0 UV-I 0 W/m² 4,0 °C 6,9 °C 3,2 km/h (1 Bft)
02.05.2017 21:51 6,9 °C 6,9 °C 82 % 1015,8 hPa 0,0 mm 0,8 km/h (0 Bft) S 186 ° 0 min 0,000 mm 0,0 UV-I 0 W/m² 4,0 °C 6,9 °C 3,2 km/h (1 Bft)
02.05.2017 21:52 6,8 °C 6,9 °C 83 % 1015,9 hPa 0,0 mm 0,5 km/h (0 Bft) S 186 ° 0 min 0,000 mm 0,0 UV-I 0 W/m² 4,1 °C 6,8 °C 1,6 km/h (1 Bft)
02.05.2017 21:53 6,8 °C 6,8 °C 83 % 1015,8 hPa 0,0 mm 1,3 km/h (1 Bft) S 186 ° 0 min 0,000 mm 0,0 UV-I 0 W/m² 4,1 °C 6,8 °C 3,2 km/h (1 Bft)
02.05.2017 21:54 6,7 °C 6,8 °C 83 % 1015,8 hPa 0,0 mm 0,7 km/h (0 Bft) S 186 ° 0 min 0,000 mm 0,0 UV-I 0 W/m² 4,0 °C 6,7 °C 1,6 km/h (1 Bft)
02.05.2017 21:55 6,7 °C 6,7 °C 83 % 1015,8 hPa 0,0 mm 1,4 km/h (1 Bft) S 186 ° 0 min 0,000 mm 0,0 UV-I 0 W/m² 4,0 °C 6,7 °C 1,6 km/h (1 Bft)
02.05.2017 21:56 6,6 °C 6,7 °C 84 % 1015,9 hPa 0,0 mm 1,1 km/h (1 Bft) S 186 ° 0 min 0,000 mm 0,0 UV-I 0 W/m² 4,1 °C 6,6 °C 3,2 km/h (1 Bft)
02.05.2017 21:57 6,6 °C 6,7 °C 84 % 1015,8 hPa 0,0 mm 1,6 km/h (1 Bft) S 186 ° 0 min 0,000 mm 0,0 UV-I 0 W/m² 4,1 °C 6,6 °C 3,2 km/h (1 Bft)
02.05.2017 21:58 6,6 °C 6,6 °C 83 % 1015,8 hPa 0,0 mm 3,2 km/h (1 Bft) SO 144 ° 0 min 0,000 mm 0,0 UV-I 0 W/m² 3,9 °C 6,6 °C 4,8 km/h (1 Bft)
02.05.2017 21:59 6,6 °C 6,6 °C 83 % 1015,8 hPa 0,0 mm 2,8 km/h (1 Bft) S-SO 147 ° 0 min 0,000 mm 0,0 UV-I 0 W/m² 3,9 °C 6,6 °C 3,2 km/h (1 Bft)
02.05.2017 22:00 6,7 °C 6,7 °C 83 % 1015,8 hPa 0,0 mm 1,6 km/h (1 Bft) S-SO 147 ° 0 min 0,000 mm 0,0 UV-I 0 W/m² 4,0 °C 6,7 °C 3,2 km/h (1 Bft)
02.05.2017 22:01 6,7 °C 6,7 °C 83 % 1015,8 hPa 0,0 mm 0,6 km/h (0 Bft) S-SO 147 ° 0 min 0,026 mm 0,0 UV-I 0 W/m² 4,0 °C 6,7 °C 1,6 km/h (1 Bft)
02.05.2017 22:02 6,7 °C 6,7 °C 83 % 1015,7 hPa 0,0 mm 0,0 km/h (0 Bft) S-SO 147 ° 0 min 0,000 mm 0,0 UV-I 0 W/m² 4,0 °C 6,7 °C 0,0 km/h (0 Bft)
02.05.2017 22:03 6,7 °C 6,7 °C 83 % 1015,7 hPa 0,0 mm 0,0 km/h (0 Bft) S-SO 147 ° 0 min 0,000 mm 0,0 UV-I 0 W/m² 4,0 °C 6,7 °C 0,0 km/h (0 Bft)
02.05.2017 22:04 6,7 °C 6,7 °C 83 % 1015,7 hPa 0,0 mm 0,0 km/h (0 Bft) S-SO 147 ° 0 min 0,000 mm 0,0 UV-I 0 W/m² 4,0 °C 6,7 °C 0,0 km/h (0 Bft)
02.05.2017 22:05 6,7 °C 6,7 °C 83 % 1015,6 hPa 0,0 mm 0,0 km/h (0 Bft) S-SO 147 ° 0 min 0,000 mm 0,0 UV-I 0 W/m² 4,0 °C 6,7 °C 0,0 km/h (0 Bft)
02.05.2017 22:06 6,6 °C 6,7 °C 83 % 1015,6 hPa 0,0 mm 0,0 km/h (0 Bft) S-SO 147 ° 0 min 0,000 mm 0,0 UV-I 0 W/m² 3,9 °C 6,6 °C 0,0 km/h (0 Bft)
02.05.2017 22:07 6,4 °C 6,6 °C 84 % 1015,5 hPa 0,0 mm 0,0 km/h (0 Bft) S-SO 147 ° 0 min 0,000 mm 0,0 UV-I 0 W/m² 3,9 °C 6,4 °C 0,0 km/h (0 Bft)
02.05.2017 22:08 6,3 °C 6,4 °C 84 % 1015,6 hPa 0,0 mm 0,0 km/h (0 Bft) S-SO 147 ° 0 min 0,000 mm 0,0 UV-I 0 W/m² 3,8 °C 6,3 °C 0,0 km/h (0 Bft)
02.05.2017 22:09 6,3 °C 6,3 °C 85 % 1015,5 hPa 0,0 mm 0,0 km/h (0 Bft) S-SO 147 ° 0 min 0,000 mm 0,0 UV-I 0 W/m² 4,0 °C 6,3 °C 0,0 km/h (0 Bft)
02.05.2017 22:10 6,3 °C 6,3 °C 84 % 1015,4 hPa 0,0 mm 0,0 km/h (0 Bft) S-SO 147 ° 0 min 0,000 mm 0,0 UV-I 0 W/m² 3,8 °C 6,3 °C 0,0 km/h (0 Bft)
02.05.2017 22:11 6,3 °C 6,3 °C 84 % 1015,4 hPa 0,0 mm 0,0 km/h (0 Bft) S-SO 147 ° 0 min 0,000 mm 0,0 UV-I 0 W/m² 3,8 °C 6,3 °C 0,0 km/h (0 Bft)
02.05.2017 22:12 6,4 °C 6,4 °C 84 % 1015,4 hPa 0,0 mm 0,0 km/h (0 Bft) S-SO 147 ° 0 min 0,000 mm 0,0 UV-I 0 W/m² 3,9 °C 6,4 °C 0,0 km/h (0 Bft)
02.05.2017 22:13 6,4 °C 6,4 °C 84 % 1015,4 hPa 0,0 mm 0,0 km/h (0 Bft) S-SO 147 ° 0 min 0,000 mm 0,0 UV-I 0 W/m² 3,9 °C 6,4 °C 0,0 km/h (0 Bft)
02.05.2017 22:14 6,4 °C 6,4 °C 83 % 1015,4 hPa 0,0 mm 0,0 km/h (0 Bft) S-SO 147 ° 0 min 0,000 mm 0,0 UV-I 0 W/m² 3,7 °C 6,4 °C 0,0 km/h (0 Bft)
02.05.2017 22:15 6,5 °C 6,5 °C 82 % 1015,4 hPa 0,0 mm 0,0 km/h (0 Bft) S-SO 147 ° 0 min 0,000 mm 0,0 UV-I 0 W/m² 3,7 °C 6,5 °C 0,0 km/h (0 Bft)
02.05.2017 22:16 6,5 °C 6,5 °C 82 % 1015,4 hPa 0,0 mm 0,0 km/h (0 Bft) S-SO 147 ° 0 min 0,000 mm 0,0 UV-I 0 W/m² 3,7 °C 6,5 °C 0,0 km/h (0 Bft)
02.05.2017 22:17 6,5 °C 6,5 °C 81 % 1015,5 hPa 0,0 mm 0,0 km/h (0 Bft) S-SO 147 ° 0 min 0,000 mm 0,0 UV-I 0 W/m² 3,5 °C 6,5 °C 0,0 km/h (0 Bft)
02.05.2017 22:18 6,5 °C 6,5 °C 81 % 1015,5 hPa 0,0 mm 0,0 km/h (0 Bft) S-SO 147 ° 0 min 0,000 mm 0,0 UV-I 0 W/m² 3,5 °C 6,5 °C 0,0 km/h (0 Bft)
02.05.2017 22:19 6,4 °C 6,5 °C 81 % 1015,5 hPa 0,0 mm 0,8 km/h (0 Bft) S-SO 147 ° 0 min 0,000 mm 0,0 UV-I 0 W/m² 3,4 °C 6,4 °C 3,2 km/h (1 Bft)
02.05.2017 22:20 6,2 °C 6,4 °C 82 % 1015,5 hPa 0,0 mm 1,4 km/h (1 Bft) S-SO 147 ° 0 min 0,000 mm 0,0 UV-I 0 W/m² 3,4 °C 6,2 °C 3,2 km/h (1 Bft)
02.05.2017 22:21 5,9 °C 6,2 °C 82 % 1015,5 hPa 0,0 mm 1,1 km/h (1 Bft) S-SO 147 ° 0 min 0,000 mm 0,0 UV-I 0 W/m² 3,1 °C 5,9 °C 1,6 km/h (1 Bft)
02.05.2017 22:22 5,9 °C 5,9 °C 84 % 1015,5 hPa 0,0 mm 0,6 km/h (0 Bft) S-SO 147 ° 0 min 0,000 mm 0,0 UV-I 0 W/m² 3,4 °C 5,9 °C 1,6 km/h (1 Bft)
02.05.2017 22:23 5,9 °C 5,9 °C 84 % 1015,5 hPa 0,0 mm 0,7 km/h (0 Bft) S-SO 147 ° 0 min 0,000 mm 0,0 UV-I 0 W/m² 3,4 °C 5,9 °C 3,2 km/h (1 Bft)
02.05.2017 22:24 5,8 °C 5,9 °C 85 % 1015,5 hPa 0,0 mm 0,9 km/h (0 Bft) S-SO 147 ° 0 min 0,000 mm 0,0 UV-I 0 W/m² 3,5 °C 5,8 °C 1,6 km/h (1 Bft)
02.05.2017 22:25 5,8 °C 5,8 °C 85 % 1015,5 hPa 0,0 mm 0,0 km/h (0 Bft) S-SO 147 ° 0 min 0,000 mm 0,0 UV-I 0 W/m² 3,5 °C 5,8 °C 0,0 km/h (0 Bft)
02.05.2017 22:26 5,8 °C 5,8 °C 85 % 1015,5 hPa 0,0 mm 1,5 km/h (1 Bft) S-SO 147 ° 0 min 0,000 mm 0,0 UV-I 0 W/m² 3,5 °C 5,8 °C 3,2 km/h (1 Bft)
02.05.2017 22:27 5,8 °C 5,8 °C 84 % 1015,5 hPa 0,0 mm 0,6 km/h (0 Bft) S-SO 147 ° 0 min 0,000 mm 0,0 UV-I 0 W/m² 3,3 °C 5,8 °C 3,2 km/h (1 Bft)
02.05.2017 22:28 5,7 °C 5,8 °C 85 % 1015,5 hPa 0,0 mm 0,3 km/h (0 Bft) S-SO 147 ° 0 min 0,000 mm 0,0 UV-I 0 W/m² 3,4 °C 5,7 °C 1,6 km/h (1 Bft)
02.05.2017 22:29 5,7 °C 5,8 °C 85 % 1015,5 hPa 0,0 mm 3,0 km/h (1 Bft) S-SO 147 ° 0 min 0,000 mm 0,0 UV-I 0 W/m² 3,4 °C 5,7 °C 3,2 km/h (1 Bft)
02.05.2017 22:30 5,7 °C 5,8 °C 85 % 1015,4 hPa 0,0 mm 1,0 km/h (0 Bft) S-SO 147 ° 0 min 0,000 mm 0,0 UV-I 0 W/m² 3,4 °C 5,7 °C 1,6 km/h (1 Bft)
02.05.2017 22:31 5,7 °C 5,7 °C 85 % 1015,4 hPa 0,0 mm 0,0 km/h (0 Bft) S-SO 147 ° 0 min 0,000 mm 0,0 UV-I 0 W/m² 3,4 °C 5,7 °C 0,0 km/h (0 Bft)
02.05.2017 22:32 5,7 °C 5,7 °C 85 % 1015,4 hPa 0,0 mm 0,5 km/h (0 Bft) S-SO 147 ° 0 min 0,000 mm 0,0 UV-I 0 W/m² 3,4 °C 5,7 °C 1,6 km/h (1 Bft)
02.05.2017 22:33 5,7 °C 5,7 °C 85 % 1015,5 hPa 0,0 mm 1,4 km/h (1 Bft) S-SO 150 ° 0 min 0,000 mm 0,0 UV-I 0 W/m² 3,4 °C 5,7 °C 3,2 km/h (1 Bft)
02.05.2017 22:34 5,8 °C 5,8 °C 85 % 1015,4 hPa 0,0 mm 1,1 km/h (1 Bft) S-SO 150 ° 0 min 0,000 mm 0,0 UV-I 0 W/m² 3,5 °C 5,8 °C 3,2 km/h (1 Bft)
02.05.2017 22:35 5,8 °C 5,8 °C 85 % 1015,5 hPa 0,0 mm 2,1 km/h (1 Bft) S-SO 150 ° 0 min 0,000 mm 0,0 UV-I 0 W/m² 3,5 °C 5,8 °C 3,2 km/h (1 Bft)
02.05.2017 22:36 5,9 °C 5,9 °C 85 % 1015,5 hPa 0,0 mm 2,9 km/h (1 Bft) S-SO 150 ° 0 min 0,000 mm 0,0 UV-I 0 W/m² 3,6 °C 5,9 °C 4,8 km/h (1 Bft)
02.05.2017 22:37 5,9 °C 5,9 °C 85 % 1015,5 hPa 0,0 mm 2,1 km/h (1 Bft) S-SO 150 ° 0 min 0,000 mm 0,0 UV-I 0 W/m² 3,6 °C 5,9 °C 4,8 km/h (1 Bft)
02.05.2017 22:38 5,9 °C 6,0 °C 85 % 1015,6 hPa 0,0 mm 2,9 km/h (1 Bft) S-SO 150 ° 0 min 0,000 mm 0,0 UV-I 0 W/m² 3,6 °C 5,9 °C 3,2 km/h (1 Bft)
02.05.2017 22:39 6,1 °C 6,1 °C 85 % 1015,6 hPa 0,0 mm 2,7 km/h (1 Bft) S-SO 150 ° 0 min 0,000 mm 0,0 UV-I 0 W/m² 3,8 °C 6,1 °C 4,8 km/h (1 Bft)
02.05.2017 22:40 6,1 °C 6,1 °C 85 % 1015,6 hPa 0,0 mm 2,1 km/h (1 Bft) S-SO 150 ° 0 min 0,000 mm 0,0 UV-I 0 W/m² 3,8 °C 6,1 °C 3,2 km/h (1 Bft)
02.05.2017 22:41 6,1 °C 6,1 °C 85 % 1015,6 hPa 0,0 mm 2,3 km/h (1 Bft) S-SO 150 ° 0 min 0,000 mm 0,0 UV-I 0 W/m² 3,8 °C 6,1 °C 3,2 km/h (1 Bft)
02.05.2017 22:42 6,1 °C 6,1 °C 85 % 1015,7 hPa 0,0 mm 2,7 km/h (1 Bft) S-SO 150 ° 0 min 0,000 mm 0,0 UV-I 0 W/m² 3,8 °C 6,1 °C 4,8 km/h (1 Bft)
02.05.2017 22:43 6,1 °C 6,1 °C 86 % 1015,7 hPa 0,0 mm 3,4 km/h (1 Bft) S-SO 150 ° 0 min 0,000 mm 0,0 UV-I 0 W/m² 3,9 °C 6,1 °C 4,8 km/h (1 Bft)
02.05.2017 22:44 6,1 °C 6,1 °C 85 % 1015,7 hPa 0,0 mm 3,6 km/h (1 Bft) S-SO 151 ° 0 min 0,000 mm 0,0 UV-I 0 W/m² 3,8 °C 6,1 °C 4,8 km/h (1 Bft)
02.05.2017 22:45 6,1 °C 6,1 °C 85 % 1015,6 hPa 0,0 mm 2,9 km/h (1 Bft) S-SO 151 ° 0 min 0,000 mm 0,0 UV-I 0 W/m² 3,8 °C 6,1 °C 4,8 km/h (1 Bft)
02.05.2017 22:46 6,2 °C 6,2 °C 85 % 1015,6 hPa 0,0 mm 2,0 km/h (1 Bft) S-SO 151 ° 0 min 0,000 mm 0,0 UV-I 0 W/m² 3,9 °C 6,2 °C 3,2 km/h (1 Bft)
02.05.2017 22:47 6,2 °C 6,2 °C 85 % 1015,6 hPa 0,0 mm 2,1 km/h (1 Bft) S-SO 151 ° 0 min 0,000 mm 0,0 UV-I 0 W/m² 3,9 °C 6,2 °C 3,2 km/h (1 Bft)
02.05.2017 22:48 6,3 °C 6,3 °C 84 % 1015,6 hPa 0,0 mm 0,4 km/h (0 Bft) S-SO 151 ° 0 min 0,000 mm 0,0 UV-I 0 W/m² 3,8 °C 6,3 °C 1,6 km/h (1 Bft)
02.05.2017 22:49 6,3 °C 6,3 °C 84 % 1015,5 hPa 0,0 mm 0,0 km/h (0 Bft) S-SO 151 ° 0 min 0,000 mm 0,0 UV-I 0 W/m² 3,8 °C 6,3 °C 0,0 km/h (0 Bft)
02.05.2017 22:50 6,3 °C 6,3 °C 85 % 1015,6 hPa 0,0 mm 0,0 km/h (0 Bft) S-SO 151 ° 0 min 0,000 mm 0,0 UV-I 0 W/m² 4,0 °C 6,3 °C 0,0 km/h (0 Bft)
02.05.2017 22:51 6,3 °C 6,3 °C 85 % 1015,6 hPa 0,0 mm 0,0 km/h (0 Bft) S-SO 151 ° 0 min 0,000 mm 0,0 UV-I 0 W/m² 4,0 °C 6,3 °C 0,0 km/h (0 Bft)
02.05.2017 22:52 6,3 °C 6,3 °C 85 % 1015,5 hPa 0,0 mm 0,0 km/h (0 Bft) S-SO 151 ° 0 min 0,000 mm 0,0 UV-I 0 W/m² 4,0 °C 6,3 °C 0,0 km/h (0 Bft)
02.05.2017 22:53 6,2 °C 6,3 °C 86 % 1015,5 hPa 0,0 mm 0,0 km/h (0 Bft) S-SO 151 ° 0 min 0,000 mm 0,0 UV-I 0 W/m² 4,0 °C 6,2 °C 0,0 km/h (0 Bft)
02.05.2017 22:54 6,1 °C 6,2 °C 86 % 1015,5 hPa 0,0 mm 0,0 km/h (0 Bft) S-SO 151 ° 0 min 0,000 mm 0,0 UV-I 0 W/m² 3,9 °C 6,1 °C 0,0 km/h (0 Bft)
02.05.2017 22:55 6,1 °C 6,1 °C 86 % 1015,5 hPa 0,0 mm 0,0 km/h (0 Bft) S-SO 151 ° 0 min 0,000 mm 0,0 UV-I 0 W/m² 3,9 °C 6,1 °C 0,0 km/h (0 Bft)
02.05.2017 22:56 6,1 °C 6,1 °C 86 % 1015,5 hPa 0,0 mm 0,0 km/h (0 Bft) S-SO 151 ° 0 min 0,000 mm 0,0 UV-I 0 W/m² 3,9 °C 6,1 °C 0,0 km/h (0 Bft)
02.05.2017 22:57 6,0 °C 6,1 °C 86 % 1015,4 hPa 0,0 mm 0,0 km/h (0 Bft) S-SO 151 ° 0 min 0,000 mm 0,0 UV-I 0 W/m² 3,8 °C 6,0 °C 0,0 km/h (0 Bft)
02.05.2017 22:58 6,0 °C 6,0 °C 86 % 1015,4 hPa 0,0 mm 0,0 km/h (0 Bft) S-SO 151 ° 0 min 0,000 mm 0,0 UV-I 0 W/m² 3,8 °C 6,0 °C 0,0 km/h (0 Bft)
02.05.2017 22:59 6,0 °C 6,0 °C 86 % 1015,4 hPa 0,0 mm 0,0 km/h (0 Bft) S-SO 151 ° 0 min 0,000 mm 0,0 UV-I 0 W/m² 3,8 °C 6,0 °C 0,0 km/h (0 Bft)
02.05.2017 23:00 6,0 °C 6,0 °C 86 % 1015,4 hPa 0,0 mm 0,0 km/h (0 Bft) S-SO 151 ° 0 min 0,000 mm 0,0 UV-I 0 W/m² 3,8 °C 6,0 °C 0,0 km/h (0 Bft)
02.05.2017 23:01 5,9 °C 6,0 °C 86 % 1015,3 hPa 0,0 mm 0,0 km/h (0 Bft) S-SO 151 ° 0 min 0,000 mm 0,0 UV-I 0 W/m² 3,7 °C 5,9 °C 0,0 km/h (0 Bft)
02.05.2017 23:02 5,9 °C 5,9 °C 86 % 1015,3 hPa 0,0 mm 0,0 km/h (0 Bft) S-SO 151 ° 0 min 0,000 mm 0,0 UV-I 0 W/m² 3,7 °C 5,9 °C 0,0 km/h (0 Bft)
02.05.2017 23:03 5,8 °C 5,9 °C 86 % 1015,3 hPa 0,0 mm 0,0 km/h (0 Bft) S-SO 151 ° 0 min 0,000 mm 0,0 UV-I 0 W/m² 3,6 °C 5,8 °C 0,0 km/h (0 Bft)
02.05.2017 23:04 5,8 °C 5,8 °C 86 % 1015,3 hPa 0,0 mm 0,0 km/h (0 Bft) S-SO 151 ° 0 min 0,000 mm 0,0 UV-I 0 W/m² 3,6 °C 5,8 °C 0,0 km/h (0 Bft)
02.05.2017 23:05 5,8 °C 5,8 °C 86 % 1015,3 hPa 0,0 mm 1,3 km/h (1 Bft) S-SO 151 ° 0 min 0,000 mm 0,0 UV-I 0 W/m² 3,6 °C 5,8 °C 1,6 km/h (1 Bft)
02.05.2017 23:06 5,8 °C 5,8 °C 86 % 1015,4 hPa 0,0 mm 1,0 km/h (0 Bft) S-SO 151 ° 0 min 0,000 mm 0,0 UV-I 0 W/m² 3,6 °C 5,8 °C 1,6 km/h (1 Bft)
02.05.2017 23:07 5,8 °C 5,8 °C 86 % 1015,5 hPa 0,0 mm 1,1 km/h (1 Bft) S-SO 151 ° 0 min 0,000 mm 0,0 UV-I 0 W/m² 3,6 °C 5,8 °C 3,2 km/h (1 Bft)
02.05.2017 23:08 5,8 °C 5,8 °C 86 % 1015,4 hPa 0,0 mm 0,2 km/h (0 Bft) S-SO 151 ° 0 min 0,000 mm 0,0 UV-I 0 W/m² 3,6 °C 5,8 °C 1,6 km/h (1 Bft)
02.05.2017 23:09 5,8 °C 5,8 °C 86 % 1015,5 hPa 0,0 mm 0,8 km/h (0 Bft) S-SO 151 ° 0 min 0,000 mm 0,0 UV-I 0 W/m² 3,6 °C 5,8 °C 1,6 km/h (1 Bft)
02.05.2017 23:10 5,8 °C 5,8 °C 86 % 1015,5 hPa 0,0 mm 1,1 km/h (1 Bft) S-SO 151 ° 0 min 0,000 mm 0,0 UV-I 0 W/m² 3,6 °C 5,8 °C 3,2 km/h (1 Bft)
02.05.2017 23:11 5,8 °C 5,8 °C 86 % 1015,5 hPa 0,0 mm 0,0 km/h (0 Bft) S-SO 151 ° 0 min 0,000 mm 0,0 UV-I 0 W/m² 3,6 °C 5,8 °C 0,0 km/h (0 Bft)
02.05.2017 23:12 5,8 °C 5,8 °C 86 % 1015,6 hPa 0,0 mm 0,0 km/h (0 Bft) S-SO 151 ° 0 min 0,000 mm 0,0 UV-I 0 W/m² 3,6 °C 5,8 °C 0,0 km/h (0 Bft)
02.05.2017 23:13 5,8 °C 5,8 °C 86 % 1015,6 hPa 0,0 mm 0,0 km/h (0 Bft) S-SO 151 ° 0 min 0,000 mm 0,0 UV-I 0 W/m² 3,6 °C 5,8 °C 0,0 km/h (0 Bft)
02.05.2017 23:14 5,8 °C 5,8 °C 86 % 1015,6 hPa 0,0 mm 0,0 km/h (0 Bft) S-SO 151 ° 0 min 0,000 mm 0,0 UV-I 0 W/m² 3,6 °C 5,8 °C 0,0 km/h (0 Bft)
02.05.2017 23:15 5,8 °C 5,8 °C 86 % 1015,6 hPa 0,0 mm 1,0 km/h (0 Bft) S-SO 151 ° 0 min 0,000 mm 0,0 UV-I 0 W/m² 3,6 °C 5,8 °C 1,6 km/h (1 Bft)
02.05.2017 23:16 5,8 °C 5,8 °C 86 % 1015,6 hPa 0,0 mm 0,0 km/h (0 Bft) S-SO 151 ° 0 min 0,000 mm 0,0 UV-I 0 W/m² 3,6 °C 5,8 °C 0,0 km/h (0 Bft)
02.05.2017 23:17 5,8 °C 5,8 °C 86 % 1015,6 hPa 0,0 mm 0,0 km/h (0 Bft) S-SO 151 ° 0 min 0,000 mm 0,0 UV-I 0 W/m² 3,6 °C 5,8 °C 0,0 km/h (0 Bft)
02.05.2017 23:18 5,8 °C 5,8 °C 86 % 1015,5 hPa 0,0 mm 0,0 km/h (0 Bft) S-SO 151 ° 0 min 0,000 mm 0,0 UV-I 0 W/m² 3,6 °C 5,8 °C 0,0 km/h (0 Bft)
02.05.2017 23:19 5,7 °C 5,8 °C 86 % 1015,6 hPa 0,0 mm 0,0 km/h (0 Bft) S-SO 151 ° 0 min 0,000 mm 0,0 UV-I 0 W/m² 3,5 °C 5,7 °C 0,0 km/h (0 Bft)
02.05.2017 23:20 5,6 °C 5,7 °C 87 % 1015,5 hPa 0,0 mm 0,0 km/h (0 Bft) S-SO 151 ° 0 min 0,000 mm 0,0 UV-I 0 W/m² 3,6 °C 5,6 °C 0,0 km/h (0 Bft)
02.05.2017 23:21 5,5 °C 5,6 °C 87 % 1015,4 hPa 0,0 mm 0,0 km/h (0 Bft) S-SO 151 ° 0 min 0,000 mm 0,0 UV-I 0 W/m² 3,5 °C 5,5 °C 0,0 km/h (0 Bft)
02.05.2017 23:22 5,5 °C 5,5 °C 87 % 1015,5 hPa 0,0 mm 0,1 km/h (0 Bft) S-SO 151 ° 0 min 0,000 mm 0,0 UV-I 0 W/m² 3,5 °C 5,5 °C 1,6 km/h (1 Bft)
02.05.2017 23:23 5,5 °C 5,5 °C 87 % 1015,5 hPa 0,0 mm 0,0 km/h (0 Bft) S-SO 151 ° 0 min 0,000 mm 0,0 UV-I 0 W/m² 3,5 °C 5,5 °C 0,0 km/h (0 Bft)
02.05.2017 23:24 5,5 °C 5,5 °C 87 % 1015,5 hPa 0,0 mm 0,1 km/h (0 Bft) S-SO 151 ° 0 min 0,000 mm 0,0 UV-I 0 W/m² 3,5 °C 5,5 °C 1,6 km/h (1 Bft)
02.05.2017 23:25 5,6 °C 5,6 °C 87 % 1015,5 hPa 0,0 mm 0,6 km/h (0 Bft) S-SO 151 ° 0 min 0,000 mm 0,0 UV-I 0 W/m² 3,6 °C 5,6 °C 1,6 km/h (1 Bft)
02.05.2017 23:26 5,6 °C 5,6 °C 87 % 1015,7 hPa 0,0 mm 2,8 km/h (1 Bft) S-SO 151 ° 0 min 0,000 mm 0,0 UV-I 0 W/m² 3,6 °C 5,6 °C 3,2 km/h (1 Bft)
02.05.2017 23:27 5,6 °C 5,6 °C 87 % 1015,6 hPa 0,0 mm 1,3 km/h (1 Bft) S-SO 151 ° 0 min 0,000 mm 0,0 UV-I 0 W/m² 3,6 °C 5,6 °C 3,2 km/h (1 Bft)
02.05.2017 23:28 5,6 °C 5,6 °C 87 % 1015,5 hPa 0,0 mm 0,3 km/h (0 Bft) S-SO 151 ° 0 min 0,000 mm 0,0 UV-I 0 W/m² 3,6 °C 5,6 °C 1,6 km/h (1 Bft)
02.05.2017 23:29 5,6 °C 5,6 °C 87 % 1015,5 hPa 0,0 mm 0,0 km/h (0 Bft) S-SO 151 ° 0 min 0,000 mm 0,0 UV-I 0 W/m² 3,6 °C 5,6 °C 0,0 km/h (0 Bft)
02.05.2017 23:30 5,5 °C 5,6 °C 87 % 1015,5 hPa 0,0 mm 0,0 km/h (0 Bft) S-SO 151 ° 0 min 0,000 mm 0,0 UV-I 0 W/m² 3,5 °C 5,5 °C 0,0 km/h (0 Bft)
02.05.2017 23:31 5,4 °C 5,5 °C 88 % 1015,4 hPa 0,0 mm 0,0 km/h (0 Bft) S-SO 151 ° 0 min 0,000 mm 0,0 UV-I 0 W/m² 3,6 °C 5,4 °C 0,0 km/h (0 Bft)
02.05.2017 23:32 5,4 °C 5,4 °C 88 % 1015,3 hPa 0,0 mm 0,0 km/h (0 Bft) S-SO 151 ° 0 min 0,000 mm 0,0 UV-I 0 W/m² 3,6 °C 5,4 °C 0,0 km/h (0 Bft)
02.05.2017 23:33 5,4 °C 5,4 °C 88 % 1015,3 hPa 0,0 mm 0,0 km/h (0 Bft) S-SO 151 ° 0 min 0,000 mm 0,0 UV-I 0 W/m² 3,6 °C 5,4 °C 0,0 km/h (0 Bft)
02.05.2017 23:34 5,4 °C 5,4 °C 88 % 1015,4 hPa 0,0 mm 0,0 km/h (0 Bft) S-SO 151 ° 0 min 0,000 mm 0,0 UV-I 0 W/m² 3,6 °C 5,4 °C 0,0 km/h (0 Bft)
02.05.2017 23:35 5,4 °C 5,4 °C 88 % 1015,4 hPa 0,0 mm 0,0 km/h (0 Bft) S-SO 151 ° 0 min 0,000 mm 0,0 UV-I 0 W/m² 3,6 °C 5,4 °C 0,0 km/h (0 Bft)
02.05.2017 23:36 5,4 °C 5,4 °C 88 % 1015,4 hPa 0,0 mm 0,0 km/h (0 Bft) S-SO 151 ° 0 min 0,000 mm 0,0 UV-I 0 W/m² 3,6 °C 5,4 °C 0,0 km/h (0 Bft)
02.05.2017 23:37 5,4 °C 5,4 °C 88 % 1015,4 hPa 0,0 mm 0,0 km/h (0 Bft) S-SO 151 ° 0 min 0,000 mm 0,0 UV-I 0 W/m² 3,6 °C 5,4 °C 0,0 km/h (0 Bft)
02.05.2017 23:38 5,4 °C 5,4 °C 87 % 1015,4 hPa 0,0 mm 0,0 km/h (0 Bft) S-SO 151 ° 0 min 0,000 mm 0,0 UV-I 0 W/m² 3,4 °C 5,4 °C 0,0 km/h (0 Bft)
02.05.2017 23:39 5,4 °C 5,4 °C 86 % 1015,5 hPa 0,0 mm 1,5 km/h (1 Bft) S-SO 151 ° 0 min 0,000 mm 0,0 UV-I 0 W/m² 3,3 °C 5,4 °C 3,2 km/h (1 Bft)
02.05.2017 23:40 5,4 °C 5,4 °C 87 % 1015,5 hPa 0,0 mm 0,4 km/h (0 Bft) S-SO 151 ° 0 min 0,000 mm 0,0 UV-I 0 W/m² 3,4 °C 5,4 °C 3,2 km/h (1 Bft)
02.05.2017 23:41 5,4 °C 5,4 °C 87 % 1015,5 hPa 0,0 mm 4,7 km/h (1 Bft) S-SO 155 ° 0 min 0,000 mm 0,0 UV-I 0 W/m² 3,4 °C 4,7 °C 6,4 km/h (2 Bft)
02.05.2017 23:42 5,4 °C 5,4 °C 87 % 1015,5 hPa 0,0 mm 2,4 km/h (1 Bft) S-SO 155 ° 0 min 0,000 mm 0,0 UV-I 0 W/m² 3,4 °C 5,4 °C 4,8 km/h (1 Bft)
02.05.2017 23:43 5,4 °C 5,4 °C 87 % 1015,5 hPa 0,0 mm 0,2 km/h (0 Bft) S-SO 155 ° 0 min 0,000 mm 0,0 UV-I 0 W/m² 3,4 °C 5,4 °C 1,6 km/h (1 Bft)
02.05.2017 23:44 5,4 °C 5,4 °C 87 % 1015,6 hPa 0,0 mm 0,0 km/h (0 Bft) S-SO 155 ° 0 min 0,000 mm 0,0 UV-I 0 W/m² 3,4 °C 5,4 °C 0,0 km/h (0 Bft)
02.05.2017 23:45 5,4 °C 5,4 °C 86 % 1015,6 hPa 0,0 mm 0,0 km/h (0 Bft) S-SO 155 ° 0 min 0,000 mm 0,0 UV-I 0 W/m² 3,3 °C 5,4 °C 0,0 km/h (0 Bft)
02.05.2017 23:46 5,4 °C 5,4 °C 86 % 1015,5 hPa 0,0 mm 0,0 km/h (0 Bft) S-SO 155 ° 0 min 0,000 mm 0,0 UV-I 0 W/m² 3,3 °C 5,4 °C 0,0 km/h (0 Bft)
02.05.2017 23:47 5,4 °C 5,4 °C 86 % 1015,6 hPa 0,0 mm 0,0 km/h (0 Bft) S-SO 155 ° 0 min 0,000 mm 0,0 UV-I 0 W/m² 3,3 °C 5,4 °C 0,0 km/h (0 Bft)
02.05.2017 23:48 5,4 °C 5,4 °C 86 % 1015,6 hPa 0,0 mm 0,1 km/h (0 Bft) S-SO 155 ° 0 min 0,000 mm 0,0 UV-I 0 W/m² 3,3 °C 5,4 °C 1,6 km/h (1 Bft)
02.05.2017 23:49 5,4 °C 5,4 °C 86 % 1015,6 hPa 0,0 mm 0,1 km/h (0 Bft) S-SO 155 ° 0 min 0,000 mm 0,0 UV-I 0 W/m² 3,3 °C 5,4 °C 1,6 km/h (1 Bft)
02.05.2017 23:50 5,5 °C 5,5 °C 86 % 1015,6 hPa 0,0 mm 0,1 km/h (0 Bft) S-SO 155 ° 0 min 0,000 mm 0,0 UV-I 0 W/m² 3,3 °C 5,5 °C 1,6 km/h (1 Bft)
02.05.2017 23:51 5,4 °C 5,5 °C 86 % 1015,7 hPa 0,0 mm 0,0 km/h (0 Bft) S-SO 155 ° 0 min 0,000 mm 0,0 UV-I 0 W/m² 3,3 °C 5,4 °C 0,0 km/h (0 Bft)
02.05.2017 23:52 5,5 °C 5,5 °C 86 % 1015,6 hPa 0,0 mm 0,4 km/h (0 Bft) S-SO 155 ° 0 min 0,000 mm 0,0 UV-I 0 W/m² 3,3 °C 5,5 °C 3,2 km/h (1 Bft)
02.05.2017 23:53 5,5 °C 5,5 °C 86 % 1015,6 hPa 0,0 mm 4,4 km/h (1 Bft) S 172 ° 0 min 0,000 mm 0,0 UV-I 0 W/m² 3,3 °C 5,5 °C 8,0 km/h (2 Bft)
02.05.2017 23:54 5,6 °C 5,6 °C 86 % 1015,7 hPa 0,0 mm 3,1 km/h (1 Bft) S 173 ° 0 min 0,000 mm 0,0 UV-I 0 W/m² 3,4 °C 5,6 °C 8,0 km/h (2 Bft)
02.05.2017 23:55 5,6 °C 5,6 °C 86 % 1015,6 hPa 0,0 mm 0,7 km/h (0 Bft) S 173 ° 0 min 0,000 mm 0,0 UV-I 0 W/m² 3,4 °C 5,6 °C 3,2 km/h (1 Bft)
02.05.2017 23:56 5,6 °C 5,6 °C 86 % 1015,6 hPa 0,0 mm 0,8 km/h (0 Bft) S 173 ° 0 min 0,000 mm 0,0 UV-I 0 W/m² 3,4 °C 5,6 °C 3,2 km/h (1 Bft)
02.05.2017 23:57 5,6 °C 5,6 °C 86 % 1015,6 hPa 0,0 mm 0,8 km/h (0 Bft) S 173 ° 0 min 0,000 mm 0,0 UV-I 0 W/m² 3,4 °C 5,6 °C 1,6 km/h (1 Bft)
02.05.2017 23:58 5,6 °C 5,6 °C 86 % 1015,5 hPa 0,0 mm 0,3 km/h (0 Bft) S 173 ° 0 min 0,000 mm 0,0 UV-I 0 W/m² 3,4 °C 5,6 °C 1,6 km/h (1 Bft)
02.05.2017 23:59 5,6 °C 5,6 °C 86 % 1015,6 hPa 0,0 mm 0,7 km/h (0 Bft) S 173 ° 0 min 0,000 mm 0,0 UV-I 0 W/m² 3,4 °C 5,6 °C 1,6 km/h (1 Bft)
_ Min-Zeit 01:49 01:40 14:47 15:29 - 23:51 - - - - - - 01:40 02:20 23:51
Minimum _ 1,7 °C 1,7 °C 44 % 1014,6 hPa - 0,0 km/h (0 Bft) - - - - - - 0,7 °C -0,9 °C 0,0 km/h (0 Bft)
_ Max-Zeit 14:42 14:42 08:11 07:10 06:59 12:55 - - 18:13 15:01 13:44 13:45 10:58 14:42 14:38
Maximum _ 13,8 °C 13,8 °C 94 % 1016,1 hPa 0,2 mm 14,2 km/h
NW (3 Bft)
- - 1 min 0,432 mm 6,9 UV-I 1144 W/m² 5,8 °C 13,7 °C 19,3 km/h
N (3 Bft)
Durchschnitt _ 7,2 °C 7,3 °C 76 % 1015,4 hPa #5,4 mm 3,7 km/h (1 Bft) W - #5:07 h #2,591 mm 3,0 UV-I 212 W/m² 2,8 °C 6,8 °C 6,3 km/h (2 Bft)